
Distance (Route):
Temperature : 22.8°C
Humidity : 57.9%
Pressure : 0hPa| Receiver | Frames | First received | Last received |
|---|---|---|---|
| 9A1FER-10 | 501 | 2026-08-30 23:24:29 | 2026-08-31 01:27:06 |
| 9A1FER-3 | 488 | 2026-08-30 23:24:38 | 2026-08-31 01:26:29 |
| OE5DRO-10 | 169 | 2026-08-31 00:09:59 | 2026-08-31 01:15:37 |
| PG1ADW-2 | 116 | 2026-08-31 00:29:41 | 2026-08-31 01:13:25 |
| OE5DXL-15 | 89 | 2026-08-31 00:26:18 | 2026-08-31 01:13:19 |
| OE8JPQ-2 | 69 | 2026-08-31 00:44:01 | 2026-08-31 01:10:33 |
| OE3JTB-15 | 68 | 2026-08-30 23:59:39 | 2026-08-31 01:18:08 |
| LZ4TU-5 | 32 | 2026-08-31 00:42:18 | 2026-08-31 01:09:02 |
| DO3MHA-11 | 8 | 2026-08-31 01:09:03 | 2026-08-31 01:12:57 |
| NBG1-10 | 2 | 2026-08-31 01:05:57 | 2026-08-31 01:06:32 |
| Receiver | Date | Latitude | Longitude | Direction | Speed | Altitude | Climb | Temperature | Humidity | Pressure | Voltage | Killtimer | Uptime | BKT | XDATA |
|---|---|---|---|---|---|---|---|---|---|---|---|---|---|---|---|
| 9A1FER-10 | 2026-08-31 01:27:06 | 45.79977 | 16.71136 | 311° | 9km/h | 244m | -14.8m/s | 22.8°C | 57.9% | 0hPa | 2.6V | 00:00:00 | 02:21:23 | 00:00:00 | |
| 9A1FER-10 | 2026-08-31 01:27:04 | 45.79973 | 16.71142 | 319° | 13km/h | 272m | -14.4m/s | 25.1°C | 42.3% | 0hPa | 2.6V | 00:00:00 | 02:21:21 | 00:00:00 | |
| 9A1FER-10 | 2026-08-31 01:27:02 | 45.79969 | 16.71148 | 317° | 5km/h | 302m | -14.3m/s | 26.4°C | 37.0% | 0hPa | 2.6V | 00:00:00 | 02:21:19 | 00:00:00 | |
| 9A1FER-10 | 2026-08-31 01:27:00 | 45.79968 | 16.71151 | 267° | 4km/h | 331m | -14.8m/s | 26.6°C | 36.4% | 0hPa | 2.6V | 00:00:00 | 02:21:17 | 00:00:00 | |
| 9A1FER-10 | 2026-08-31 01:26:58 | 45.79968 | 16.71153 | 209° | 5km/h | 359m | -14.8m/s | 26.5°C | 37.5% | 0hPa | 2.6V | 08:13:00 | 02:21:15 | 00:00:00 | |
| 9A1FER-10 | 2026-08-31 01:26:56 | 45.79970 | 16.71156 | 243° | 5km/h | 388m | -13.6m/s | 26.4°C | 38.1% | 0hPa | 2.5V | 00:00:00 | 02:21:13 | 00:00:00 | |
| 9A1FER-10 | 2026-08-31 01:26:54 | 45.79970 | 16.71160 | 274° | 9km/h | 416m | -13.8m/s | 26.6°C | 36.0% | 0hPa | 2.5V | 00:00:00 | 02:21:11 | 00:00:00 | |
| 9A1FER-10 | 2026-08-31 01:26:52 | 45.79969 | 16.71167 | 312° | 11km/h | 445m | -14.3m/s | 26.4°C | 35.5% | 0hPa | 2.5V | 00:00:00 | 02:21:09 | 00:00:00 | |
| 9A1FER-10 | 2026-08-31 01:26:50 | 45.79964 | 16.71171 | 332° | 13km/h | 473m | -14.2m/s | 26.2°C | 35.5% | 0hPa | 2.6V | 00:00:00 | 02:21:07 | 00:00:00 | |
| 9A1FER-10 | 2026-08-31 01:26:48 | 45.79958 | 16.71175 | 339° | 16km/h | 501m | -13.8m/s | 26.2°C | 35.5% | 0hPa | 2.6V | 00:00:00 | 02:21:05 | 00:00:00 | |
| 9A1FER-10 | 2026-08-31 01:26:46 | 45.79951 | 16.71180 | 336° | 18km/h | 529m | -14.9m/s | 26.0°C | 35.7% | 0hPa | 2.6V | 00:00:00 | 02:21:03 | 00:00:00 | |
| 9A1FER-10 | 2026-08-31 01:26:44 | 45.79941 | 16.71185 | 341° | 22km/h | 558m | -15.3m/s | 26.0°C | 35.9% | 0hPa | 2.6V | 00:00:00 | 02:21:01 | 00:00:00 | |
| 9A1FER-10 | 2026-08-31 01:26:42 | 45.79930 | 16.71188 | 347° | 20km/h | 588m | -15.0m/s | 26.1°C | 36.1% | 0hPa | 2.6V | 00:00:00 | 02:20:59 | 00:00:00 | |
| 9A1FER-10 | 2026-08-31 01:26:40 | 45.79919 | 16.71192 | 350° | 24km/h | 618m | -14.8m/s | 26.0°C | 36.5% | 0hPa | 2.6V | 08:13:00 | 02:20:57 | 00:00:00 | |
| 9A1FER-10 | 2026-08-31 01:26:38 | 45.79908 | 16.71193 | 358° | 24km/h | 648m | -14.5m/s | 25.9°C | 37.6% | 0hPa | 2.6V | 00:00:00 | 02:20:55 | 00:00:00 | |
| 9A1FER-10 | 2026-08-31 01:26:36 | 45.79896 | 16.71194 | 359° | 20km/h | 676m | -14.6m/s | 25.7°C | 36.8% | 0hPa | 2.6V | 00:00:00 | 02:20:53 | 00:00:00 | |
| 9A1FER-10 | 2026-08-31 01:26:34 | 45.79886 | 16.71195 | 1° | 18km/h | 706m | -14.8m/s | 25.5°C | 37.2% | 0hPa | 2.6V | 00:00:00 | 02:20:51 | 00:00:00 | |
| 9A1FER-10 | 2026-08-31 01:26:32 | 45.79877 | 16.71196 | 2° | 18km/h | 736m | -14.9m/s | 25.2°C | 37.6% | 0hPa | 2.6V | 00:00:00 | 02:20:49 | 00:00:00 | |
| 9A1FER-10 | 2026-08-31 01:26:30 | 45.79869 | 16.71197 | 360° | 16km/h | 766m | -15.5m/s | 25.0°C | 38.0% | 0hPa | 2.6V | 00:00:00 | 02:20:47 | 00:00:00 | |
| 9A1FER-3 | 2026-08-31 01:26:29 | 45.79864 | 16.71197 | 358° | 18km/h | 781m | -15.6m/s | 24.8°C | 38.1% | 0hPa | 2.6V | 00:00:00 | 02:20:46 | 00:00:00 | |
| 9A1FER-10 | 2026-08-31 01:26:28 | 45.79860 | 16.71198 | 3° | 16km/h | 797m | -15.2m/s | 24.7°C | 38.4% | 0hPa | 2.6V | 00:00:00 | 02:20:45 | 00:00:00 | |
| 9A1FER-3 | 2026-08-31 01:26:27 | 45.79856 | 16.71197 | 360° | 16km/h | 812m | -15.5m/s | 24.6°C | 38.6% | 0hPa | 2.6V | 08:13:00 | 02:20:44 | 00:00:00 | |
| 9A1FER-10 | 2026-08-31 01:26:26 | 45.79852 | 16.71198 | 354° | 16km/h | 828m | -15.3m/s | 24.4°C | 38.9% | 0hPa | 2.5V | 00:00:00 | 02:20:43 | 00:00:00 | |
| 9A1FER-3 | 2026-08-31 01:26:25 | 45.79848 | 16.71199 | 355° | 16km/h | 842m | -15.3m/s | 24.3°C | 39.0% | 0hPa | 2.5V | 00:00:00 | 02:20:42 | 00:00:00 | |
| 9A1FER-10 | 2026-08-31 01:26:24 | 45.79844 | 16.71199 | 10° | 16km/h | 858m | -15.1m/s | 24.2°C | 39.2% | 0hPa | 2.5V | 00:00:00 | 02:20:41 | 00:00:00 | |
| 9A1FER-3 | 2026-08-31 01:26:23 | 45.79840 | 16.71198 | 5° | 15km/h | 873m | -15.1m/s | 24.1°C | 39.4% | 0hPa | 2.5V | 00:00:00 | 02:20:40 | 00:00:00 | |
| 9A1FER-10 | 2026-08-31 01:26:22 | 45.79836 | 16.71197 | 13° | 15km/h | 888m | -14.4m/s | 23.9°C | 39.3% | 0hPa | 2.5V | 08:13:00 | 02:20:39 | 00:00:00 | |
| 9A1FER-3 | 2026-08-31 01:26:21 | 45.79832 | 16.71196 | 12° | 13km/h | 903m | -14.7m/s | 23.8°C | 39.7% | 0hPa | 2.6V | 00:00:00 | 02:20:38 | 00:00:00 | |
| 9A1FER-10 | 2026-08-31 01:26:20 | 45.79830 | 16.71196 | 11° | 13km/h | 917m | -15.1m/s | 23.7°C | 39.8% | 0hPa | 2.5V | 00:00:00 | 02:20:37 | 00:00:00 | |
| 9A1FER-3 | 2026-08-31 01:26:19 | 45.79827 | 16.71195 | 14° | 13km/h | 933m | -15.4m/s | 23.6°C | 40.0% | 0hPa | 2.5V | 00:00:00 | 02:20:36 | 00:00:00 | |
| 9A1FER-10 | 2026-08-31 01:26:18 | 45.79823 | 16.71194 | 9° | 11km/h | 948m | -15.6m/s | 23.4°C | 40.9% | 0hPa | 2.5V | 00:00:00 | 02:20:35 | 00:00:00 | |
| 9A1FER-3 | 2026-08-31 01:26:17 | 45.79821 | 16.71193 | 10° | 13km/h | 964m | -16.0m/s | 23.3°C | 41.4% | 0hPa | 2.5V | 00:00:00 | 02:20:34 | 00:00:00 | |
| 9A1FER-10 | 2026-08-31 01:26:16 | 45.79818 | 16.71192 | 8° | 13km/h | 979m | -15.1m/s | 23.2°C | 42.0% | 0hPa | 2.5V | 00:00:00 | 02:20:33 | 00:00:00 | |
| 9A1FER-3 | 2026-08-31 01:26:15 | 45.79815 | 16.71192 | 15° | 11km/h | 995m | -15.0m/s | 23.0°C | 42.5% | 0hPa | 2.5V | 00:00:00 | 02:20:32 | 00:00:00 | |
| 9A1FER-10 | 2026-08-31 01:26:14 | 45.79812 | 16.71191 | 15° | 11km/h | 1010m | -15.1m/s | 22.9°C | 42.9% | 0hPa | 2.6V | 00:00:00 | 02:20:31 | 00:00:00 | |
| 9A1FER-3 | 2026-08-31 01:26:11 | 45.79804 | 16.71189 | 9° | 11km/h | 1056m | -15.3m/s | 22.5°C | 44.0% | 0hPa | 2.6V | 00:00:00 | 02:20:28 | 00:00:00 | |
| 9A1FER-10 | 2026-08-31 01:26:09 | 45.79799 | 16.71188 | 3° | 11km/h | 1087m | -15.5m/s | 22.2°C | 44.5% | 0hPa | 2.6V | 00:00:00 | 02:20:26 | 00:00:00 | |
| 9A1FER-3 | 2026-08-31 01:26:06 | 45.79790 | 16.71186 | 355° | 11km/h | 1130m | -14.4m/s | 21.7°C | 45.4% | 0hPa | 2.6V | 00:00:00 | 02:20:23 | 00:00:00 | |
| 9A1FER-10 | 2026-08-31 01:26:04 | 45.79784 | 16.71186 | 7° | 11km/h | 1160m | -15.2m/s | 21.5°C | 46.2% | 0hPa | 2.6V | 00:00:00 | 02:20:21 | 00:00:00 | |
| 9A1FER-3 | 2026-08-31 01:26:01 | 45.79777 | 16.71186 | 9° | 9km/h | 1204m | -14.3m/s | 21.0°C | 47.5% | 0hPa | 2.5V | 08:14:00 | 02:20:18 | 00:00:00 | |
| 9A1FER-10 | 2026-08-31 01:25:59 | 45.79772 | 16.71186 | 355° | 7km/h | 1232m | -14.9m/s | 20.7°C | 48.6% | 0hPa | 2.6V | 00:00:00 | 02:20:16 | 00:00:00 | |
| 9A1FER-3 | 2026-08-31 01:25:56 | 45.79767 | 16.71185 | 360° | 7km/h | 1277m | -15.5m/s | 20.3°C | 50.5% | 0hPa | 2.6V | 00:00:00 | 02:20:13 | 00:00:00 | |
| 9A1FER-10 | 2026-08-31 01:25:54 | 45.79764 | 16.71183 | 14° | 5km/h | 1308m | -15.5m/s | 20.0°C | 51.5% | 0hPa | 2.6V | 00:00:00 | 02:20:11 | 00:00:00 | |
| 9A1FER-3 | 2026-08-31 01:25:51 | 45.79759 | 16.71181 | 1° | 4km/h | 1353m | -14.4m/s | 19.5°C | 52.8% | 0hPa | 2.6V | 00:00:00 | 02:20:08 | 00:00:00 | |
| 9A1FER-10 | 2026-08-31 01:25:49 | 45.79757 | 16.71181 | 1° | 4km/h | 1383m | -16.1m/s | 19.3°C | 53.5% | 0hPa | 2.6V | 08:14:00 | 02:20:06 | 00:00:00 | |
| 9A1FER-3 | 2026-08-31 01:25:46 | 45.79756 | 16.71179 | 35° | 4km/h | 1429m | -15.6m/s | 18.8°C | 56.0% | 0hPa | 2.6V | 00:00:00 | 02:20:03 | 00:00:00 | |
| 9A1FER-10 | 2026-08-31 01:25:44 | 45.79755 | 16.71177 | 32° | 4km/h | 1461m | -14.9m/s | 18.6°C | 61.2% | 0hPa | 2.6V | 00:00:00 | 02:20:01 | 00:00:00 | |
| 9A1FER-3 | 2026-08-31 01:25:41 | 45.79754 | 16.71174 | 12° | 5km/h | 1506m | -15.8m/s | 18.1°C | 64.6% | 0hPa | 2.6V | 00:00:00 | 02:19:58 | 00:00:00 | |
| 9A1FER-10 | 2026-08-31 01:25:39 | 45.79752 | 16.71173 | 38° | 5km/h | 1536m | -15.5m/s | 17.8°C | 65.1% | 0hPa | 2.6V | 00:00:00 | 02:19:56 | 00:00:00 | |
| 9A1FER-3 | 2026-08-31 01:25:36 | 45.79749 | 16.71170 | 14° | 5km/h | 1581m | -15.6m/s | 17.5°C | 67.0% | 0hPa | 2.6V | 00:00:00 | 02:19:53 | 00:00:00 | |
| 9A1FER-10 | 2026-08-31 01:25:34 | 45.79747 | 16.71168 | 49° | 5km/h | 1610m | -15.0m/s | 17.3°C | 68.6% | 0hPa | 2.6V | 00:00:00 | 02:19:51 | 00:00:00 | |
| 9A1FER-3 | 2026-08-31 01:25:31 | 45.79745 | 16.71164 | 29° | 7km/h | 1656m | -15.0m/s | 16.8°C | 70.9% | 0hPa | 2.6V | 00:00:00 | 02:19:48 | 00:00:00 | |
| 9A1FER-10 | 2026-08-31 01:25:29 | 45.79742 | 16.71161 | 44° | 7km/h | 1685m | -15.6m/s | 16.6°C | 72.3% | 0hPa | 2.6V | 00:00:00 | 02:19:46 | 00:00:00 | |
| 9A1FER-3 | 2026-08-31 01:25:26 | 45.79737 | 16.71157 | 27° | 9km/h | 1731m | -14.9m/s | 16.2°C | 73.4% | 0hPa | 2.6V | 00:00:00 | 02:19:43 | 00:00:00 | |
| 9A1FER-10 | 2026-08-31 01:25:24 | 45.79734 | 16.71155 | 10° | 9km/h | 1761m | -15.2m/s | 15.9°C | 73.9% | 0hPa | 2.6V | 00:00:00 | 02:19:41 | 00:00:00 | |
| 9A1FER-3 | 2026-08-31 01:25:21 | 45.79727 | 16.71151 | 35° | 11km/h | 1805m | -15.3m/s | 15.5°C | 75.1% | 0hPa | 2.6V | 00:00:00 | 02:19:38 | 00:00:00 | |
| 9A1FER-10 | 2026-08-31 01:25:19 | 45.79723 | 16.71148 | 24° | 13km/h | 1836m | -16.5m/s | 15.3°C | 75.9% | 0hPa | 2.6V | 00:00:00 | 02:19:36 | 00:00:00 | |
| 9A1FER-3 | 2026-08-31 01:25:16 | 45.79715 | 16.71141 | 39° | 15km/h | 1883m | -16.2m/s | 14.8°C | 77.8% | 0hPa | 2.5V | 08:14:00 | 02:19:33 | 00:00:00 | |
| 9A1FER-10 | 2026-08-31 01:25:14 | 45.79710 | 16.71135 | 40° | 16km/h | 1915m | -15.8m/s | 14.5°C | 78.9% | 0hPa | 2.5V | 00:00:00 | 02:19:31 | 00:00:00 | |
| 9A1FER-3 | 2026-08-31 01:25:11 | 45.79700 | 16.71126 | 30° | 16km/h | 1961m | -16.2m/s | 14.2°C | 80.0% | 0hPa | 2.5V | 00:00:00 | 02:19:28 | 00:00:00 | |
| 9A1FER-10 | 2026-08-31 01:25:09 | 45.79693 | 16.71121 | 37° | 18km/h | 1994m | -16.4m/s | 13.9°C | 81.0% | 0hPa | 2.5V | 00:00:00 | 02:19:26 | 00:00:00 | |
| 9A1FER-3 | 2026-08-31 01:25:06 | 45.79682 | 16.71112 | 35° | 20km/h | 2042m | -16.8m/s | 13.5°C | 83.0% | 0hPa | 2.5V | 00:00:00 | 02:19:23 | 00:00:00 | |
| 9A1FER-10 | 2026-08-31 01:25:00 | 45.79657 | 16.71095 | 24° | 24km/h | 2138m | -16.3m/s | 12.8°C | 85.9% | 0hPa | 2.5V | 08:15:00 | 02:19:17 | 00:00:00 | |
| 9A1FER-3 | 2026-08-31 01:24:56 | 45.79636 | 16.71082 | 28° | 22km/h | 2202m | -16.9m/s | 12.5°C | 86.6% | 0hPa | 2.6V | 00:00:00 | 02:19:13 | 00:00:00 | |
| 9A1FER-10 | 2026-08-31 01:24:50 | 45.79606 | 16.71056 | 39° | 20km/h | 2298m | -15.2m/s | 11.8°C | 87.5% | 0hPa | 2.6V | 00:00:00 | 02:19:07 | 00:00:00 | |
| 9A1FER-3 | 2026-08-31 01:24:46 | 45.79592 | 16.71035 | 49° | 20km/h | 2359m | -15.0m/s | 11.4°C | 82.4% | 0hPa | 2.6V | 00:00:00 | 02:19:03 | 00:00:00 | |
| 9A1FER-10 | 2026-08-31 01:24:40 | 45.79576 | 16.71000 | 63° | 24km/h | 2452m | -15.6m/s | 11.0°C | 79.1% | 0hPa | 2.6V | 00:00:00 | 02:18:57 | 00:00:00 | |
| 9A1FER-3 | 2026-08-31 01:24:36 | 45.79566 | 16.70971 | 62° | 26km/h | 2517m | -15.8m/s | 10.5°C | 82.6% | 0hPa | 2.6V | 00:00:00 | 02:18:53 | 00:00:00 | |
| 9A1FER-10 | 2026-08-31 01:24:30 | 45.79551 | 16.70922 | 66° | 29km/h | 2612m | -16.3m/s | 9.7°C | 83.0% | 0hPa | 2.6V | 00:00:00 | 02:18:47 | 00:00:00 | |
| 9A1FER-3 | 2026-08-31 01:24:26 | 45.79539 | 16.70887 | 59° | 31km/h | 2675m | -15.8m/s | 9.2°C | 84.4% | 0hPa | 2.5V | 00:00:00 | 02:18:43 | 00:00:00 | |
| 9A1FER-10 | 2026-08-31 01:24:20 | 45.79518 | 16.70831 | 65° | 29km/h | 2771m | -16.1m/s | 8.3°C | 87.9% | 0hPa | 2.5V | 00:00:00 | 02:18:37 | 00:00:00 | |
| 9A1FER-3 | 2026-08-31 01:24:16 | 45.79503 | 16.70790 | 64° | 26km/h | 2834m | -15.2m/s | 7.8°C | 89.2% | 0hPa | 2.5V | 00:00:00 | 02:18:33 | 00:00:00 | |
| 9A1FER-10 | 2026-08-31 01:24:10 | 45.79487 | 16.70736 | 72° | 20km/h | 2928m | -15.4m/s | 7.2°C | 76.9% | 0hPa | 2.5V | 00:00:00 | 02:18:27 | 00:00:00 | |
| 9A1FER-3 | 2026-08-31 01:24:06 | 45.79479 | 16.70709 | 69° | 18km/h | 2991m | -17.1m/s | 7.0°C | 0% | 0hPa | 2.5V | 00:00:00 | 02:18:23 | 00:00:00 | |
| 9A1FER-10 | 2026-08-31 01:24:00 | 45.79469 | 16.70672 | 78° | 20km/h | 3090m | -16.1m/s | 7.3°C | 22.5% | 0hPa | 2.5V | 00:00:00 | 02:18:17 | 00:00:00 | |
| 9A1FER-3 | 2026-08-31 01:23:56 | 45.79463 | 16.70647 | 68° | 20km/h | 3156m | -17.0m/s | 6.9°C | 21.9% | 0hPa | 2.5V | 08:16:00 | 02:18:13 | 00:00:00 | |
| 9A1FER-10 | 2026-08-31 01:23:45 | 45.79447 | 16.70574 | 62° | 24km/h | 3336m | -16.6m/s | 5.9°C | 22.5% | 0hPa | 2.6V | 00:00:00 | 02:18:02 | 00:00:00 | |
| 9A1FER-3 | 2026-08-31 01:23:41 | 45.79437 | 16.70547 | 62° | 24km/h | 3400m | -16.0m/s | 5.6°C | 21.4% | 0hPa | 2.6V | 00:00:00 | 02:17:58 | 00:00:00 | |
| 9A1FER-10 | 2026-08-31 01:23:30 | 45.79402 | 16.70468 | 57° | 26km/h | 3582m | -16.4m/s | 5.9°C | 11.1% | 0hPa | 2.6V | 00:00:00 | 02:17:47 | 00:00:00 | |
| 9A1FER-10 | 2026-08-31 01:23:15 | 45.79359 | 16.70344 | 63° | 27km/h | 3838m | -17.5m/s | 3.6°C | 50.6% | 0hPa | 2.6V | 08:16:00 | 02:17:32 | 00:00:00 | |
| 9A1FER-3 | 2026-08-31 01:23:11 | 45.79345 | 16.70311 | 61° | 26km/h | 3908m | -16.9m/s | 3.1°C | 50.4% | 0hPa | 2.5V | 00:00:00 | 02:17:28 | 00:00:00 | |
| 9A1FER-10 | 2026-08-31 01:23:00 | 45.79307 | 16.70224 | 55° | 24km/h | 4095m | -17.3m/s | 1.3°C | 54.3% | 0hPa | 2.5V | 00:00:00 | 02:17:17 | 00:00:00 | |
| 9A1FER-3 | 2026-08-31 01:22:56 | 45.79294 | 16.70193 | 61° | 22km/h | 4164m | -16.8m/s | 0.6°C | 56.2% | 0hPa | 2.5V | 00:00:00 | 02:17:13 | 00:00:00 | |
| 9A1FER-10 | 2026-08-31 01:22:45 | 45.79258 | 16.70117 | 60° | 24km/h | 4348m | -17.0m/s | -1.0°C | 58.4% | 0hPa | 2.5V | 00:00:00 | 02:17:02 | 00:00:00 | |
| 9A1FER-3 | 2026-08-31 01:22:41 | 45.79247 | 16.70091 | 64° | 26km/h | 4415m | -16.5m/s | -1.6°C | 59.5% | 0hPa | 2.5V | 00:00:00 | 02:16:58 | 00:00:00 | |
| 9A1FER-10 | 2026-08-31 01:22:30 | 45.79221 | 16.70005 | 66° | 31km/h | 4595m | -16.8m/s | -3.3°C | 63.0% | 0hPa | 2.5V | 00:00:00 | 02:16:47 | 00:00:00 | |
| 9A1FER-3 | 2026-08-31 01:22:26 | 45.79209 | 16.69966 | 68° | 33km/h | 4659m | -16.5m/s | -3.8°C | 62.6% | 0hPa | 2.5V | 00:00:00 | 02:16:43 | 00:00:00 | |
| 9A1FER-10 | 2026-08-31 01:22:15 | 45.79180 | 16.69847 | 75° | 33km/h | 4844m | -17.1m/s | -4.1°C | 28.6% | 0hPa | 2.5V | 00:00:00 | 02:16:32 | 00:00:00 | |
| 9A1FER-3 | 2026-08-31 01:22:11 | 45.79172 | 16.69801 | 72° | 31km/h | 4911m | -17.4m/s | -4.7°C | 30.1% | 0hPa | 2.5V | 00:00:00 | 02:16:28 | 00:00:00 | |
| 9A1FER-10 | 2026-08-31 01:22:00 | 45.79152 | 16.69677 | 81° | 27km/h | 5098m | -17.8m/s | -3.9°C | 4.4% | 0hPa | 2.5V | 00:00:00 | 02:16:17 | 00:00:00 | |
| 9A1FER-3 | 2026-08-31 01:21:56 | 45.79146 | 16.69641 | 74° | 27km/h | 5169m | -18.0m/s | -4.3°C | 4.2% | 0hPa | 2.5V | 00:00:00 | 02:16:13 | 00:00:00 | |
| 9A1FER-10 | 2026-08-31 01:21:45 | 45.79130 | 16.69537 | 71° | 29km/h | 5363m | -18.5m/s | -5.1°C | 3.8% | 0hPa | 2.5V | 00:00:00 | 02:16:02 | 00:00:00 | |
| 9A1FER-3 | 2026-08-31 01:21:41 | 45.79121 | 16.69499 | 74° | 31km/h | 5434m | -17.2m/s | -5.2°C | 3.8% | 0hPa | 2.6V | 08:18:00 | 02:15:58 | 00:00:00 | |
| 9A1FER-10 | 2026-08-31 01:21:30 | 45.79097 | 16.69388 | 72° | 33km/h | 5624m | -17.4m/s | -6.3°C | 4.2% | 0hPa | 2.5V | 00:00:00 | 02:15:47 | 00:00:00 | |
| 9A1FER-3 | 2026-08-31 01:21:26 | 45.79088 | 16.69344 | 79° | 33km/h | 5694m | -18.2m/s | -6.8°C | 4.1% | 0hPa | 2.5V | 00:00:00 | 02:15:43 | 00:00:00 | |
| 9A1FER-10 | 2026-08-31 01:21:15 | 45.79065 | 16.69214 | 74° | 35km/h | 5892m | -18.7m/s | -8.1°C | 3.9% | 0hPa | 2.5V | 00:00:00 | 02:15:32 | 00:00:00 | |
| 9A1FER-3 | 2026-08-31 01:21:11 | 45.79056 | 16.69164 | 79° | 37km/h | 5965m | -17.5m/s | -8.6°C | 3.9% | 0hPa | 2.5V | 00:00:00 | 02:15:28 | 00:00:00 | |
| 9A1FER-10 | 2026-08-31 01:21:00 | 45.79035 | 16.69027 | 82° | 37km/h | 6165m | -18.4m/s | -9.8°C | 4.1% | 0hPa | 2.5V | 08:19:00 | 02:15:17 | 00:00:00 | |
| 9A1FER-3 | 2026-08-31 01:20:56 | 45.79032 | 16.68975 | 84° | 37km/h | 6239m | -18.3m/s | -10.4°C | 4.3% | 0hPa | 2.5V | 00:00:00 | 02:15:13 | 00:00:00 | |
| 9A1FER-10 | 2026-08-31 01:20:45 | 45.79014 | 16.68830 | 79° | 42km/h | 6439m | -18.2m/s | -11.3°C | 5.5% | 0hPa | 2.6V | 00:00:00 | 02:15:02 | 00:00:00 | |
| 9A1FER-3 | 2026-08-31 01:20:41 | 45.79006 | 16.68775 | 75° | 44km/h | 6510m | -18.6m/s | -11.7°C | 7.5% | 0hPa | 2.6V | 00:00:00 | 02:14:58 | 00:00:00 | |
| 9A1FER-10 | 2026-08-31 01:20:30 | 45.78977 | 16.68606 | 79° | 46km/h | 6716m | -18.5m/s | -13.1°C | 16.6% | 0hPa | 2.6V | 00:00:00 | 02:14:47 | 00:00:00 | |
| 9A1FER-10 | 2026-08-31 01:20:15 | 45.78964 | 16.68358 | 90° | 47km/h | 6996m | -18.9m/s | -15.1°C | 25.9% | 0hPa | 2.6V | 00:00:00 | 02:14:32 | 00:00:00 | |
| 9A1FER-10 | 2026-08-31 01:20:00 | 45.78965 | 16.68097 | 93° | 47km/h | 7286m | -19.3m/s | -17.9°C | 34.7% | 0hPa | 2.5V | 00:00:00 | 02:14:17 | 00:00:00 | |
| 9A1FER-3 | 2026-08-31 01:19:56 | 45.78966 | 16.68030 | 89° | 47km/h | 7363m | -20.0m/s | -18.7°C | 36.7% | 0hPa | 2.5V | 00:00:00 | 02:14:13 | 00:00:00 | |
| 9A1FER-10 | 2026-08-31 01:19:45 | 45.78964 | 16.67843 | 87° | 49km/h | 7578m | -19.6m/s | -20.7°C | 42.1% | 0hPa | 2.5V | 00:00:00 | 02:14:02 | 00:00:00 | |
| 9A1FER-3 | 2026-08-31 01:19:41 | 45.78962 | 16.67774 | 90° | 51km/h | 7656m | -19.7m/s | -21.5°C | 44.5% | 0hPa | 2.5V | 00:00:00 | 02:13:58 | 00:00:00 | |
| 9A1FER-10 | 2026-08-31 01:19:30 | 45.78957 | 16.67577 | 90° | 51km/h | 7875m | -20.0m/s | -23.4°C | 41.1% | 0hPa | 2.5V | 00:00:00 | 02:13:47 | 00:00:00 | |
| 9A1FER-3 | 2026-08-31 01:19:26 | 45.78960 | 16.67501 | 93° | 51km/h | 7955m | -20.7m/s | -24.0°C | 38.1% | 0hPa | 2.6V | 08:20:00 | 02:13:43 | 00:00:00 | |
| 9A1FER-10 | 2026-08-31 01:19:15 | 45.78968 | 16.67298 | 93° | 53km/h | 8177m | -21.0m/s | -25.7°C | 33.9% | 0hPa | 2.6V | 00:00:00 | 02:13:32 | 00:00:00 | |
| 9A1FER-3 | 2026-08-31 01:19:11 | 45.78973 | 16.67228 | 98° | 53km/h | 8261m | -21.0m/s | -26.5°C | 29.8% | 0hPa | 2.6V | 00:00:00 | 02:13:28 | 00:00:00 | |
| 9A1FER-3 | 2026-08-31 01:18:56 | 45.79024 | 16.66949 | 106° | 53km/h | 8575m | -20.2m/s | -28.0°C | 20.3% | 0hPa | 2.6V | 00:00:00 | 02:13:13 | 00:00:00 | |
| 9A1FER-10 | 2026-08-31 01:18:45 | 45.79066 | 16.66742 | 105° | 55km/h | 8804m | -21.2m/s | -30.0°C | 21.3% | 0hPa | 2.6V | 08:21:00 | 02:13:02 | 00:00:00 | |
| 9A1FER-3 | 2026-08-31 01:18:41 | 45.79081 | 16.66668 | 106° | 57km/h | 8888m | -21.5m/s | -30.2°C | 18.9% | 0hPa | 2.5V | 00:00:00 | 02:12:58 | 00:00:00 | |
| 9A1FER-10 | 2026-08-31 01:18:30 | 45.79128 | 16.66452 | 106° | 58km/h | 9125m | -21.4m/s | -31.9°C | 19.0% | 0hPa | 2.5V | 00:00:00 | 02:12:47 | 00:00:00 | |
| 9A1FER-3 | 2026-08-31 01:18:26 | 45.79143 | 16.66369 | 107° | 57km/h | 9213m | -21.7m/s | -32.7°C | 20.3% | 0hPa | 2.5V | 00:00:00 | 02:12:43 | 00:00:00 | |
| 9A1FER-10 | 2026-08-31 01:18:15 | 45.79175 | 16.66144 | 102° | 57km/h | 9455m | -22.1m/s | -34.4°C | 24.2% | 0hPa | 2.5V | 00:00:00 | 02:12:32 | 00:00:00 | |
| 9A1FER-3 | 2026-08-31 01:18:11 | 45.79184 | 16.66066 | 100° | 57km/h | 9544m | -22.1m/s | -35.3°C | 25.5% | 0hPa | 2.5V | 00:00:00 | 02:12:28 | 00:00:00 | |
| OE3JTB-15 | 2026-08-31 01:18:08 | 45.79192 | 16.66006 | 104° | 60km/h | 9609m | -22.2m/s | -35.9°C | 25.8% | 0hPa | 2.5V | 00:00:00 | 00:00:00 | 00:00:00 | |
| 9A1FER-10 | 2026-08-31 01:18:00 | 45.79229 | 16.65848 | 111° | 62km/h | 9789m | -22.9m/s | -37.5°C | 27.2% | 0hPa | 2.6V | 00:00:00 | 02:12:17 | 00:00:00 | |
| 9A1FER-3 | 2026-08-31 01:17:56 | 45.79250 | 16.65769 | 111° | 64km/h | 9879m | -23.1m/s | -38.4°C | 28.2% | 0hPa | 2.5V | 00:00:00 | 02:12:13 | 00:00:00 | |
| 9A1FER-10 | 2026-08-31 01:17:45 | 45.79324 | 16.65540 | 116° | 68km/h | 10130m | -22.3m/s | -40.6°C | 27.8% | 0hPa | 2.6V | 00:00:00 | 02:12:02 | 00:00:00 | |
| 9A1FER-3 | 2026-08-31 01:17:41 | 45.79353 | 16.65456 | 116° | 71km/h | 10220m | -22.5m/s | -41.0°C | 26.6% | 0hPa | 2.6V | 00:00:00 | 02:11:58 | 00:00:00 | |
| OE3JTB-15 | 2026-08-31 01:17:39 | 45.79367 | 16.65413 | 117° | 71km/h | 10266m | -23.4m/s | -41.4°C | 27.1% | 0hPa | 2.6V | 00:00:00 | 00:00:00 | 00:00:00 | |
| 9A1FER-10 | 2026-08-31 01:17:30 | 45.79434 | 16.65204 | 113° | 73km/h | 10475m | -23.6m/s | -42.9°C | 27.7% | 0hPa | 2.6V | 00:00:00 | 02:11:47 | 00:00:00 | |
| 9A1FER-3 | 2026-08-31 01:17:26 | 45.79464 | 16.65106 | 115° | 73km/h | 10569m | -24.0m/s | -43.4°C | 27.9% | 0hPa | 2.6V | 00:00:00 | 02:11:43 | 00:00:00 | |
| 9A1FER-10 | 2026-08-31 01:17:15 | 45.79558 | 16.64849 | 120° | 69km/h | 10836m | -24.8m/s | -45.6°C | 34.2% | 0hPa | 2.6V | 00:00:00 | 02:11:32 | 00:00:00 | |
| 9A1FER-3 | 2026-08-31 01:17:11 | 45.79595 | 16.64762 | 123° | 69km/h | 10933m | -24.5m/s | -46.4°C | 37.1% | 0hPa | 2.5V | 08:22:00 | 02:11:28 | 00:00:00 | |
| OE3JTB-15 | 2026-08-31 01:17:10 | 45.79605 | 16.64741 | 122° | 77km/h | 10958m | -24.8m/s | -46.7°C | 37.8% | 0hPa | 2.6V | 00:00:00 | 02:11:27 | 00:00:00 | |
| 9A1FER-10 | 2026-08-31 01:17:00 | 45.79707 | 16.64538 | 126° | 78km/h | 11204m | -25.1m/s | -48.8°C | 40.9% | 0hPa | 2.6V | 00:00:00 | 02:11:17 | 00:00:00 | |
| 9A1FER-3 | 2026-08-31 01:16:56 | 45.79750 | 16.64453 | 129° | 82km/h | 11304m | -24.9m/s | -49.2°C | 40.4% | 0hPa | 2.6V | 00:00:00 | 02:11:13 | 00:00:00 | |
| 9A1FER-10 | 2026-08-31 01:16:45 | 45.79893 | 16.64208 | 131° | 89km/h | 11576m | -24.9m/s | -51.2°C | 46.9% | 0hPa | 2.6V | 00:00:00 | 02:11:02 | 00:00:00 | |
| 9A1FER-3 | 2026-08-31 01:16:41 | 45.79952 | 16.64111 | 133° | 88km/h | 11676m | -25.2m/s | -52.1°C | 50.3% | 0hPa | 2.6V | 00:00:00 | 02:10:58 | 00:00:00 | |
| 9A1FER-10 | 2026-08-31 01:16:30 | 45.80112 | 16.63841 | 128° | 86km/h | 11955m | -25.4m/s | -54.5°C | 49.2% | 0hPa | 2.6V | 08:23:00 | 02:10:47 | 00:00:00 | |
| 9A1FER-3 | 2026-08-31 01:16:26 | 45.80165 | 16.63742 | 127° | 84km/h | 12059m | -26.4m/s | -55.2°C | 50.0% | 0hPa | 2.5V | 00:00:00 | 02:10:43 | 00:00:00 | |
| 9A1FER-10 | 2026-08-31 01:16:15 | 45.80298 | 16.63463 | 126° | 82km/h | 12350m | -26.7m/s | -57.6°C | 46.0% | 0hPa | 2.5V | 00:00:00 | 02:10:32 | 00:00:00 | |
| 9A1FER-3 | 2026-08-31 01:16:11 | 45.80346 | 16.63364 | 128° | 82km/h | 12457m | -26.7m/s | -58.4°C | 41.7% | 0hPa | 2.5V | 00:00:00 | 02:10:28 | 00:00:00 | |
| OE3JTB-15 | 2026-08-31 01:16:09 | 45.80372 | 16.63316 | 128° | 86km/h | 12510m | -26.8m/s | -58.7°C | 39.8% | 0hPa | 2.5V | 00:00:00 | 00:00:00 | 00:00:00 | |
| 9A1FER-10 | 2026-08-31 01:16:00 | 45.80478 | 16.63095 | 125° | 88km/h | 12751m | -27.5m/s | -59.6°C | 29.7% | 0hPa | 2.5V | 00:00:00 | 02:10:17 | 00:00:00 | |
| 9A1FER-3 | 2026-08-31 01:15:56 | 45.80528 | 16.62990 | 124° | 89km/h | 12860m | -28.4m/s | -59.8°C | 26.8% | 0hPa | 2.5V | 00:00:00 | 02:10:13 | 00:00:00 | |
| 9A1FER-10 | 2026-08-31 01:15:45 | 45.80670 | 16.62697 | 126° | 89km/h | 13164m | -28.1m/s | -60.8°C | 21.9% | 0hPa | 2.5V | 00:00:00 | 02:10:02 | 00:00:00 | |
| 9A1FER-3 | 2026-08-31 01:15:41 | 45.80722 | 16.62587 | 124° | 86km/h | 13276m | -28.8m/s | -61.2°C | 20.2% | 0hPa | 2.5V | 00:00:00 | 02:09:58 | 00:00:00 | |
| OE3JTB-15 | 2026-08-31 01:15:40 | 45.80735 | 16.62559 | 123° | 75km/h | 13304m | -28.3m/s | -61.5°C | 19.9% | 0hPa | 2.5V | 00:00:00 | 02:09:57 | 00:00:00 | |
| OE5DRO-10 | 2026-08-31 01:15:37 | 45.80773 | 16.62473 | 122° | 75km/h | 13390m | -28.9m/s | -62.0°C | 18.4% | 0hPa | 2.5V | 08:24:00 | 00:00:00 | 00:00:00 | |
| 9A1FER-10 | 2026-08-31 01:15:30 | 45.80850 | 16.62279 | 118° | 66km/h | 13591m | -29.2m/s | -61.6°C | 13.3% | 0hPa | 2.5V | 00:00:00 | 02:09:47 | 00:00:00 | |
| 9A1FER-3 | 2026-08-31 01:15:26 | 45.80886 | 16.62181 | 118° | 60km/h | 13707m | -29.2m/s | -60.7°C | 11.6% | 0hPa | 2.5V | 00:00:00 | 02:09:43 | 00:00:00 | |
| OE5DRO-10 | 2026-08-31 01:15:21 | 45.80929 | 16.62016 | 101° | 60km/h | 13941m | -29.6m/s | -60.6°C | 10.4% | 0hPa | 2.5V | 00:00:00 | 00:00:00 | 00:00:00 | |
| 9A1FER-10 | 2026-08-31 01:15:17 | 45.80937 | 16.61955 | 99° | 62km/h | 14031m | -30.3m/s | -60.5°C | 9.5% | 0hPa | 2.5V | 00:00:00 | 02:09:32 | 00:00:00 | |
| 9A1FER-3 | 2026-08-31 01:15:11 | 45.80942 | 16.61869 | 93° | 60km/h | 14152m | -30.5m/s | -60.9°C | 9.2% | 0hPa | 2.5V | 00:00:00 | 02:09:28 | 00:00:00 | |
| 9A1FER-10 | 2026-08-31 01:15:00 | 45.80962 | 16.61626 | 96° | 60km/h | 14494m | -32.0m/s | -59.3°C | 7.4% | 0hPa | 2.5V | 00:00:00 | 02:09:17 | 00:00:00 | |
| OE5DRO-10 | 2026-08-31 01:14:59 | 45.80964 | 16.61605 | 97° | 64km/h | 14527m | -31.6m/s | -59.3°C | 7.3% | 0hPa | 2.6V | 00:00:00 | 00:00:00 | 00:00:00 | |
| 9A1FER-3 | 2026-08-31 01:14:56 | 45.80967 | 16.61542 | 95° | 64km/h | 14622m | -31.7m/s | -59.6°C | 7.3% | 0hPa | 2.6V | 08:25:00 | 02:09:13 | 00:00:00 | |
| 9A1FER-10 | 2026-08-31 01:14:45 | 45.80972 | 16.61292 | 92° | 58km/h | 14973m | -32.1m/s | -60.4°C | 7.8% | 0hPa | 2.5V | 00:00:00 | 02:09:02 | 00:00:00 | |
| 9A1FER-3 | 2026-08-31 01:14:41 | 45.80978 | 16.61194 | 99° | 53km/h | 15103m | -32.4m/s | -60.8°C | 8.0% | 0hPa | 2.5V | 00:00:00 | 02:08:58 | 00:00:00 | |
| OE5DRO-10 | 2026-08-31 01:14:40 | 45.80980 | 16.61170 | 99° | 47km/h | 15135m | -32.8m/s | -60.5°C | 7.7% | 0hPa | 2.5V | 00:00:00 | 00:00:00 | 00:00:00 | |
| 9A1FER-10 | 2026-08-31 01:14:30 | 45.81011 | 16.60984 | 101° | 38km/h | 15471m | -33.7m/s | -59.3°C | 6.1% | 0hPa | 2.6V | 00:00:00 | 02:08:47 | 00:00:00 | |
| 9A1FER-3 | 2026-08-31 01:14:26 | 45.81018 | 16.60923 | 96° | 38km/h | 15607m | -34.0m/s | -58.2°C | 5.5% | 0hPa | 2.6V | 00:00:00 | 02:08:43 | 00:00:00 | |
| OE5DRO-10 | 2026-08-31 01:14:21 | 45.81014 | 16.60862 | 75° | 42km/h | 15779m | -34.3m/s | -58.5°C | 5.5% | 0hPa | 2.6V | 00:00:00 | 00:00:00 | 00:00:00 | |
| 9A1FER-10 | 2026-08-31 01:14:15 | 45.80992 | 16.60783 | 66° | 44km/h | 15990m | -35.6m/s | -58.8°C | 5.6% | 0hPa | 2.6V | 08:25:00 | 02:08:32 | 00:00:00 | |
| 9A1FER-3 | 2026-08-31 01:14:11 | 45.80977 | 16.60723 | 76° | 44km/h | 16133m | -35.6m/s | -58.8°C | 5.5% | 0hPa | 2.5V | 00:00:00 | 02:08:28 | 00:00:00 | |
| OE5DRO-10 | 2026-08-31 01:14:02 | 45.80961 | 16.60582 | 86° | 37km/h | 16459m | -36.7m/s | -59.0°C | 5.7% | 0hPa | 2.6V | 00:00:00 | 00:00:00 | 00:00:00 | |
| 9A1FER-10 | 2026-08-31 01:14:00 | 45.80960 | 16.60551 | 87° | 37km/h | 16532m | -36.5m/s | -59.0°C | 5.7% | 0hPa | 2.6V | 00:00:00 | 02:08:17 | 00:00:00 | |
| 9A1FER-3 | 2026-08-31 01:13:56 | 45.80958 | 16.60495 | 90° | 29km/h | 16680m | -37.5m/s | -58.7°C | 5.7% | 0hPa | 2.6V | 00:00:00 | 02:08:13 | 00:00:00 | |
| 9A1FER-10 | 2026-08-31 01:13:45 | 45.80968 | 16.60353 | 105° | 16km/h | 17094m | -38.4m/s | -58.5°C | 5.6% | 0hPa | 2.6V | 00:00:00 | 02:08:02 | 00:00:00 | |
| OE5DRO-10 | 2026-08-31 01:13:43 | 45.80971 | 16.60332 | 102° | 16km/h | 17171m | -38.3m/s | -57.4°C | 5.0% | 0hPa | 2.6V | 00:00:00 | 00:00:00 | 00:00:00 | |
| 9A1FER-3 | 2026-08-31 01:13:39 | 45.80975 | 16.60300 | 92° | 15km/h | 17326m | -39.7m/s | -56.5°C | 4.7% | 0hPa | 2.5V | 00:00:00 | 02:07:56 | 00:00:00 | |
| 9A1FER-10 | 2026-08-31 01:13:30 | 45.80966 | 16.60275 | 6° | 27km/h | 17678m | -40.2m/s | -56.1°C | 4.5% | 0hPa | 2.5V | 00:00:00 | 02:07:47 | 00:00:00 | |
| PG1ADW-2 | 2026-08-31 01:13:25 | 45.80939 | 16.60263 | 22° | 26km/h | 17880m | -39.7m/s | -56.9°C | 4.8% | 0hPa | 2.5V | 00:00:00 | 00:00:00 | 00:00:00 | |
| OE5DRO-10 | 2026-08-31 01:13:24 | 45.80932 | 16.60259 | 22° | 27km/h | 17919m | -39.4m/s | -57.0°C | 4.9% | 0hPa | 2.5V | 00:00:00 | 00:00:00 | 00:00:00 | |
| OE5DXL-15 | 2026-08-31 01:13:19 | 45.80901 | 16.60227 | 42° | 22km/h | 18120m | -41.0m/s | -56.6°C | 4.7% | 0hPa | 2.5V | 00:00:00 | 00:00:00 | 00:00:00 | |
| 9A1FER-10 | 2026-08-31 01:13:15 | 45.80877 | 16.60194 | 52° | 22km/h | 18285m | -40.6m/s | -56.4°C | 4.7% | 0hPa | 2.5V | 00:00:00 | 02:07:32 | 00:00:00 | |
| 9A1FER-3 | 2026-08-31 01:13:09 | 45.80859 | 16.60147 | 64° | 18km/h | 18528m | -40.9m/s | -57.2°C | 5.0% | 0hPa | 2.5V | 00:00:00 | 02:07:26 | 00:00:00 | |
| PG1ADW-2 | 2026-08-31 01:13:05 | 45.80849 | 16.60119 | 68° | 16km/h | 18695m | -42.1m/s | -57.2°C | 5.0% | 0hPa | 2.5V | 00:00:00 | 00:00:00 | 00:00:00 | |
| 9A1FER-10 | 2026-08-31 01:13:00 | 45.80842 | 16.60086 | 76° | 15km/h | 18905m | -41.9m/s | -56.1°C | 4.6% | 0hPa | 2.5V | 00:00:00 | 02:07:17 | 00:00:00 | |
| DO3MHA-11 | 2026-08-31 01:12:57 | 45.80836 | 16.60068 | 68° | 15km/h | 19033m | -42.2m/s | 0°C | 0% | 0hPa | 2.5V | 00:00:00 | 02:07:14 | 00:00:00 | |
| 9A1FER-3 | 2026-08-31 01:12:54 | 45.80831 | 16.60050 | 75° | 11km/h | 19160m | -43.1m/s | -56.3°C | 4.7% | 0hPa | 2.5V | 00:00:00 | 02:07:11 | 00:00:00 | |
| OE3JTB-15 | 2026-08-31 01:12:52 | 45.80830 | 16.60039 | 99° | 13km/h | 19246m | -42.7m/s | -55.9°C | 4.6% | 0hPa | 2.5V | 00:00:00 | 00:00:00 | 00:00:00 | |
| OE5DXL-15 | 2026-08-31 01:12:49 | 45.80834 | 16.60025 | 122° | 11km/h | 19374m | -42.8m/s | -55.8°C | 4.5% | 0hPa | 2.5V | 00:00:00 | 00:00:00 | 00:00:00 | |
| OE5DRO-10 | 2026-08-31 01:12:46 | 45.80836 | 16.60017 | 87° | 11km/h | 19504m | -43.6m/s | -55.8°C | 4.5% | 0hPa | 2.5V | 08:27:00 | 00:00:00 | 00:00:00 | |
| 9A1FER-10 | 2026-08-31 01:12:45 | 45.80836 | 16.60015 | 68° | 11km/h | 19547m | -43.6m/s | -56.0°C | 4.6% | 0hPa | 2.5V | 00:00:00 | 02:07:02 | 00:00:00 | |
| DO3MHA-11 | 2026-08-31 01:12:39 | 45.80827 | 16.60008 | 350° | 13km/h | 19817m | -46.3m/s | 0°C | 0% | 0hPa | 2.6V | 00:00:00 | 02:06:56 | 00:00:00 | |
| 9A1FER-10 | 2026-08-31 01:12:30 | 45.80797 | 16.59992 | 45° | 13km/h | 20238m | -47.5m/s | -56.3°C | 5.0% | 0hPa | 2.6V | 00:00:00 | 02:06:47 | 00:00:00 | |
| OE5DRO-10 | 2026-08-31 01:12:27 | 45.80789 | 16.59983 | 37° | 13km/h | 20381m | -48.2m/s | -55.7°C | 4.8% | 0hPa | 2.6V | 00:00:00 | 00:00:00 | 00:00:00 | |
| PG1ADW-2 | 2026-08-31 01:12:25 | 45.80782 | 16.59977 | 36° | 13km/h | 20478m | -48.4m/s | -55.1°C | 4.6% | 0hPa | 2.6V | 00:00:00 | 02:06:42 | 00:00:00 | |
| 9A1FER-3 | 2026-08-31 01:12:24 | 45.80779 | 16.59974 | 30° | 13km/h | 20527m | -48.0m/s | -55.1°C | 4.6% | 0hPa | 2.6V | 00:00:00 | 02:06:41 | 00:00:00 | |
| OE5DXL-15 | 2026-08-31 01:12:19 | 45.80764 | 16.59957 | 51° | 9km/h | 20772m | -49.5m/s | -54.4°C | 4.3% | 0hPa | 2.6V | 00:00:00 | 00:00:00 | 00:00:00 | |
| 9A1FER-10 | 2026-08-31 01:12:15 | 45.80755 | 16.59947 | 23° | 9km/h | 20972m | -51.0m/s | -53.8°C | 4.1% | 0hPa | 2.6V | 00:00:00 | 02:06:32 | 00:00:00 | |
| OE5DRO-10 | 2026-08-31 01:12:08 | 45.80739 | 16.59936 | 58° | 9km/h | 21332m | -50.7m/s | -53.4°C | 4.0% | 0hPa | 2.6V | 00:00:00 | 00:00:00 | 00:00:00 | |
| OE3JTB-15 | 2026-08-31 01:12:06 | 45.80737 | 16.59930 | 85° | 11km/h | 21433m | -50.6m/s | -53.4°C | 3.9% | 0hPa | 2.6V | 00:00:00 | 02:06:23 | 00:00:00 | |
| PG1ADW-2 | 2026-08-31 01:12:05 | 45.80737 | 16.59927 | 97° | 9km/h | 21483m | -50.8m/s | -53.5°C | 4.0% | 0hPa | 2.6V | 00:00:00 | 00:00:00 | 00:00:00 | |
| 9A1FER-10 | 2026-08-31 01:12:00 | 45.80740 | 16.59928 | 267° | 11km/h | 21739m | -51.4m/s | -53.8°C | 4.1% | 0hPa | 2.6V | 08:28:00 | 02:06:17 | 00:00:00 | |
| 9A1FER-3 | 2026-08-31 01:11:54 | 45.80741 | 16.59946 | 252° | 13km/h | 22049m | -52.8m/s | -53.3°C | 3.9% | 0hPa | 2.5V | 00:00:00 | 02:06:11 | 00:00:00 | |
| OE5DXL-15 | 2026-08-31 01:11:49 | 45.80745 | 16.59969 | 266° | 11km/h | 22316m | -54.1m/s | -53.8°C | 4.1% | 0hPa | 2.5V | 00:00:00 | 00:00:00 | 00:00:00 | |
| PG1ADW-2 | 2026-08-31 01:11:45 | 45.80747 | 16.59984 | 260° | 9km/h | 22535m | -56.4m/s | -54.0°C | 4.2% | 0hPa | 2.5V | 00:00:00 | 00:00:00 | 00:00:00 | |
| DO3MHA-11 | 2026-08-31 01:11:43 | 45.80749 | 16.59993 | 245° | 13km/h | 22648m | -56.7m/s | 0°C | 0% | 0hPa | 2.5V | 00:00:00 | 02:06:00 | 00:00:00 | |
| 9A1FER-3 | 2026-08-31 01:11:39 | 45.80751 | 16.60011 | 277° | 9km/h | 22880m | -58.3m/s | -54.4°C | 4.4% | 0hPa | 2.5V | 00:00:00 | 02:05:56 | 00:00:00 | |
| OE3JTB-15 | 2026-08-31 01:11:37 | 45.80749 | 16.60020 | 296° | 9km/h | 22996m | -58.4m/s | -54.5°C | 4.5% | 0hPa | 2.5V | 00:00:00 | 00:00:00 | 00:00:00 | |
| 9A1FER-10 | 2026-08-31 01:11:30 | 45.80738 | 16.60041 | 322° | 7km/h | 23405m | -59.1m/s | -54.3°C | 4.5% | 0hPa | 2.5V | 00:00:00 | 02:05:47 | 00:00:00 | |
| PG1ADW-2 | 2026-08-31 01:11:25 | 45.80739 | 16.60051 | 268° | 9km/h | 23702m | -60.2m/s | -53.9°C | 4.5% | 0hPa | 2.5V | 00:00:00 | 00:00:00 | 00:00:00 | |
| 9A1FER-3 | 2026-08-31 01:11:24 | 45.80739 | 16.60055 | 265° | 9km/h | 23763m | -60.3m/s | -53.9°C | 4.6% | 0hPa | 2.5V | 00:00:00 | 02:05:41 | 00:00:00 | |
| OE5DXL-15 | 2026-08-31 01:11:19 | 45.80734 | 16.60071 | 294° | 7km/h | 24072m | -62.9m/s | -53.1°C | 4.5% | 0hPa | 2.5V | 08:28:00 | 00:00:00 | 00:00:00 | |
| 9A1FER-10 | 2026-08-31 01:11:15 | 45.80732 | 16.60080 | 288° | 7km/h | 24323m | -64.3m/s | -52.0°C | 4.1% | 0hPa | 2.6V | 00:00:00 | 02:05:32 | 00:00:00 | |
| OE5DRO-10 | 2026-08-31 01:11:11 | 45.80730 | 16.60095 | 277° | 7km/h | 24583m | -65.3m/s | -52.1°C | 4.2% | 0hPa | 2.6V | 00:00:00 | 00:00:00 | 00:00:00 | |
| 9A1FER-3 | 2026-08-31 01:11:09 | 45.80727 | 16.60101 | 328° | 7km/h | 24715m | -67.3m/s | -51.9°C | 4.2% | 0hPa | 2.6V | 00:00:00 | 02:05:26 | 00:00:00 | |
| OE3JTB-15 | 2026-08-31 01:11:08 | 45.80725 | 16.60103 | 306° | 5km/h | 24783m | -67.7m/s | -51.9°C | 4.2% | 0hPa | 2.6V | 00:00:00 | 00:00:00 | 00:00:00 | |
| PG1ADW-2 | 2026-08-31 01:11:05 | 45.80721 | 16.60109 | 307° | 5km/h | 24985m | -67.5m/s | -51.1°C | 4.0% | 0hPa | 2.6V | 08:29:00 | 02:05:22 | 00:00:00 | |
| 9A1FER-10 | 2026-08-31 01:11:00 | 45.80719 | 16.60118 | 277° | 5km/h | 25329m | -69.3m/s | -50.4°C | 3.9% | 0hPa | 2.6V | 00:00:00 | 02:05:17 | 00:00:00 | |
| 9A1FER-3 | 2026-08-31 01:10:54 | 45.80714 | 16.60133 | 300° | 5km/h | 25746m | -70.5m/s | -50.4°C | 4.0% | 0hPa | 2.6V | 00:00:00 | 02:05:11 | 00:00:00 | |
| OE5DRO-10 | 2026-08-31 01:10:52 | 45.80713 | 16.60136 | 318° | 5km/h | 25887m | -71.5m/s | -49.6°C | 3.9% | 0hPa | 2.6V | 00:00:00 | 00:00:00 | 00:00:00 | |
| OE5DXL-15 | 2026-08-31 01:10:49 | 45.80711 | 16.60139 | 302° | 5km/h | 26104m | -73.6m/s | -48.8°C | 3.7% | 0hPa | 2.5V | 00:00:00 | 02:05:06 | 00:00:00 | |
| 9A1FER-10 | 2026-08-31 01:10:45 | 45.80705 | 16.60143 | 21° | 5km/h | 26402m | -75.5m/s | -48.1°C | 3.6% | 0hPa | 2.5V | 00:00:00 | 02:05:02 | 00:00:00 | |
| 9A1FER-3 | 2026-08-31 01:10:39 | 45.80703 | 16.60137 | 100° | 5km/h | 26862m | -77.6m/s | -48.0°C | 3.6% | 0hPa | 2.5V | 00:00:00 | 02:04:56 | 00:00:00 | |
| OE8JPQ-2 | 2026-08-31 01:10:33 | 45.80705 | 16.60121 | 112° | 7km/h | 27422m | -82.9m/s | -45.1°C | 3.0% | 0hPa | 2.5V | 00:00:00 | 00:00:00 | 08:30:00 | |
| 9A1FER-10 | 2026-08-31 01:10:30 | 45.80708 | 16.60118 | 113° | 7km/h | 27588m | -84.4m/s | -45.2°C | 3.1% | 0hPa | 2.6V | 00:00:00 | 02:04:47 | 00:00:00 | |
| PG1ADW-2 | 2026-08-31 01:10:25 | 45.80707 | 16.60108 | 65° | 11km/h | 28015m | -85.5m/s | -45.0°C | 3.2% | 0hPa | 2.5V | 00:00:00 | 00:00:00 | 00:00:00 | |
| 9A1FER-3 | 2026-08-31 01:10:24 | 45.80706 | 16.60106 | 71° | 11km/h | 28100m | -85.5m/s | -44.6°C | 3.1% | 0hPa | 2.5V | 00:00:00 | 02:04:41 | 08:30:00 | |
| OE5DXL-15 | 2026-08-31 01:10:19 | 45.80701 | 16.60100 | 34° | 16km/h | 28529m | -86.6m/s | -43.7°C | 2.9% | 0hPa | 2.6V | 00:00:00 | 00:00:00 | 00:00:00 | |
| 9A1FER-10 | 2026-08-31 01:10:15 | 45.80691 | 16.60096 | 17° | 16km/h | 28879m | -89.2m/s | -43.7°C | 2.9% | 0hPa | 2.6V | 00:00:00 | 02:04:32 | 00:00:00 | |
| OE5DRO-10 | 2026-08-31 01:10:14 | 45.80688 | 16.60094 | 12° | 16km/h | 28967m | -89.6m/s | -43.7°C | 3.0% | 0hPa | 2.6V | 00:00:00 | 00:00:00 | 00:00:00 | |
| OE8JPQ-2 | 2026-08-31 01:10:12 | 45.80680 | 16.60093 | 8° | 18km/h | 29147m | -91.0m/s | -42.9°C | 2.8% | 0hPa | 2.6V | 00:00:00 | 00:00:00 | 00:00:00 | |
| 9A1FER-3 | 2026-08-31 01:10:09 | 45.80669 | 16.60090 | 13° | 18km/h | 29420m | -92.2m/s | -41.3°C | 2.5% | 0hPa | 2.6V | 00:00:00 | 02:04:26 | 00:00:00 | |
| PG1ADW-2 | 2026-08-31 01:10:05 | 45.80651 | 16.60083 | 23° | 20km/h | 29790m | -92.9m/s | -39.2°C | 2.0% | 0hPa | 2.6V | 00:00:00 | 00:00:00 | 00:00:00 | |
| 9A1FER-10 | 2026-08-31 01:10:00 | 45.80630 | 16.60070 | 21° | 20km/h | 30260m | -94.5m/s | -38.2°C | 1.8% | 0hPa | 2.6V | 00:00:00 | 02:04:17 | 00:00:00 | |
| OE5DRO-10 | 2026-08-31 01:09:55 | 45.80611 | 16.60056 | 34° | 22km/h | 30721m | -91.0m/s | -39.2°C | 1.9% | 0hPa | 2.6V | 00:00:00 | 00:00:00 | 08:30:00 | |
| 9A1FER-3 | 2026-08-31 01:09:54 | 45.80607 | 16.60052 | 35° | 22km/h | 30812m | -90.1m/s | -39.4°C | 1.9% | 0hPa | 2.5V | 00:00:00 | 02:04:11 | 00:00:00 | |
| DO3MHA-11 | 2026-08-31 01:09:52 | 45.80598 | 16.60042 | 44° | 22km/h | 30987m | -85.6m/s | 0°C | 0% | 0hPa | 2.5V | 00:00:00 | 02:04:09 | 00:00:00 | |
| OE5DXL-15 | 2026-08-31 01:09:49 | 45.80587 | 16.60025 | 61° | 22km/h | 31235m | -79.2m/s | -40.8°C | 2.1% | 0hPa | 2.5V | 00:00:00 | 00:00:00 | 00:00:00 | |
| PG1ADW-2 | 2026-08-31 01:09:45 | 45.80583 | 16.59996 | 83° | 22km/h | 31528m | -65.2m/s | -41.8°C | 2.2% | 0hPa | 2.5V | 00:00:00 | 02:04:02 | 00:00:00 | |
| 9A1FER-3 | 2026-08-31 01:09:39 | 45.80579 | 16.59951 | 74° | 22km/h | 31805m | -26.0m/s | -42.5°C | 2.4% | 0hPa | 2.5V | 00:00:00 | 02:03:56 | 00:00:00 | |
| OE5DRO-10 | 2026-08-31 01:09:36 | 45.80574 | 16.59928 | 74° | 24km/h | 31845m | 0.2m/s | -42.5°C | 2.4% | 0hPa | 2.5V | 00:00:00 | 00:00:00 | 00:00:00 | |
| DO3MHA-11 | 2026-08-31 01:09:33 | 45.80565 | 16.59905 | 44° | 24km/h | 31830m | 5.2m/s | 0°C | 0% | 0hPa | 2.5V | 00:00:00 | 02:03:50 | 00:00:00 | |
| OE8JPQ-2 | 2026-08-31 01:09:32 | 45.80560 | 16.59899 | 37° | 24km/h | 31824m | 5.2m/s | -42.8°C | 2.5% | 0hPa | 2.5V | 00:00:00 | 00:00:00 | 00:00:00 | |
| 9A1FER-10 | 2026-08-31 01:09:30 | 45.80550 | 16.59890 | 31° | 24km/h | 31813m | 6.0m/s | -42.9°C | 2.5% | 0hPa | 2.6V | 00:00:00 | 02:03:47 | 00:00:00 | |
| PG1ADW-2 | 2026-08-31 01:09:25 | 45.80536 | 16.59866 | 64° | 27km/h | 31785m | 5.3m/s | -43.1°C | 2.6% | 0hPa | 2.6V | 00:00:00 | 00:00:00 | 00:00:00 | |
| 9A1FER-3 | 2026-08-31 01:09:24 | 45.80533 | 16.59857 | 69° | 27km/h | 31779m | 5.6m/s | -43.1°C | 2.5% | 0hPa | 2.6V | 00:00:00 | 02:03:41 | 00:00:00 | |
| DO3MHA-11 | 2026-08-31 01:09:23 | 45.80531 | 16.59847 | 73° | 26km/h | 31773m | 6.3m/s | 0°C | 0% | 0hPa | 2.6V | 00:00:00 | 02:03:40 | 00:00:00 | |
| OE5DXL-15 | 2026-08-31 01:09:19 | 45.80521 | 16.59813 | 52° | 29km/h | 31750m | 5.8m/s | -43.4°C | 2.6% | 0hPa | 2.6V | 00:00:00 | 00:00:00 | 00:00:00 | |
| OE5DRO-10 | 2026-08-31 01:09:17 | 45.80512 | 16.59799 | 45° | 27km/h | 31739m | 5.1m/s | -43.5°C | 2.6% | 0hPa | 2.6V | 00:00:00 | 00:00:00 | 00:00:00 | |
| 9A1FER-10 | 2026-08-31 01:09:15 | 45.80505 | 16.59786 | 64° | 27km/h | 31728m | 5.4m/s | -43.5°C | 2.7% | 0hPa | 2.6V | 00:00:00 | 02:03:32 | 00:00:00 | |
| DO3MHA-11 | 2026-08-31 01:09:13 | 45.80501 | 16.59770 | 75° | 31km/h | 31718m | 5.1m/s | 0°C | 0% | 0hPa | 2.6V | 00:00:00 | 02:03:30 | 00:00:00 | |
| OE8JPQ-2 | 2026-08-31 01:09:12 | 45.80499 | 16.59760 | 73° | 31km/h | 31712m | 6.1m/s | -43.5°C | 2.6% | 0hPa | 2.6V | 00:00:00 | 00:00:00 | 00:00:00 | |
| 9A1FER-3 | 2026-08-31 01:09:09 | 45.80487 | 16.59726 | 59° | 29km/h | 31696m | 4.9m/s | -43.5°C | 2.6% | 0hPa | 2.6V | 00:00:00 | 02:03:26 | 00:00:00 | |
| PG1ADW-2 | 2026-08-31 01:09:05 | 45.80472 | 16.59692 | 55° | 27km/h | 31673m | 4.9m/s | -43.4°C | 2.6% | 0hPa | 2.6V | 00:00:00 | 00:00:00 | 00:00:00 | |
| DO3MHA-11 | 2026-08-31 01:09:03 | 45.80464 | 16.59680 | 44° | 26km/h | 31662m | 6.1m/s | 0°C | 0% | 0hPa | 2.6V | 00:00:00 | 02:03:20 | 00:00:00 | |
| LZ4TU-5 | 2026-08-31 01:09:02 | 45.80464 | 16.59680 | 44° | 26km/h | 31662m | 6.2m/s | -43.4°C | 0.6% | 0hPa | 2.6V | 00:00:00 | 00:00:00 | 00:00:00 | |
| 9A1FER-10 | 2026-08-31 01:09:00 | 45.80448 | 16.59659 | 44° | 29km/h | 31645m | 6.5m/s | -43.3°C | 2.6% | 0hPa | 2.6V | 00:00:00 | 02:03:17 | 00:00:00 | |
| OE5DRO-10 | 2026-08-31 01:08:58 | 45.80438 | 16.59643 | 52° | 29km/h | 31633m | 5.1m/s | -43.3°C | 2.6% | 0hPa | 2.5V | 00:00:00 | 00:00:00 | 00:00:00 | |
| 9A1FER-3 | 2026-08-31 01:08:54 | 45.80417 | 16.59607 | 48° | 29km/h | 31610m | 5.1m/s | -43.3°C | 2.6% | 0hPa | 2.5V | 00:00:00 | 02:03:11 | 00:00:00 | |
| OE8JPQ-2 | 2026-08-31 01:08:52 | 45.80405 | 16.59590 | 46° | 27km/h | 31599m | 6.2m/s | -43.3°C | 2.6% | 0hPa | 2.5V | 00:00:00 | 02:03:09 | 00:00:00 | |
| OE5DXL-15 | 2026-08-31 01:08:49 | 45.80393 | 16.59575 | 34° | 29km/h | 31583m | 4.7m/s | -43.3°C | 2.6% | 0hPa | 2.5V | 00:00:00 | 00:00:00 | 00:00:00 | |
| 9A1FER-10 | 2026-08-31 01:08:45 | 45.80369 | 16.59556 | 29° | 29km/h | 31561m | 5.1m/s | -43.2°C | 2.5% | 0hPa | 2.5V | 00:00:00 | 02:03:02 | 00:00:00 | |
| 9A1FER-3 | 2026-08-31 01:08:39 | 45.80332 | 16.59517 | 39° | 29km/h | 31527m | 6.4m/s | -43.2°C | 2.6% | 0hPa | 2.5V | 00:00:00 | 02:02:56 | 00:00:00 | |
| OE8JPQ-2 | 2026-08-31 01:08:32 | 45.80290 | 16.59482 | 26° | 31km/h | 31489m | 5.6m/s | -43.2°C | 2.6% | 0hPa | 2.5V | 00:00:00 | 00:00:00 | 00:00:00 | |
| 9A1FER-10 | 2026-08-31 01:08:30 | 45.80276 | 16.59471 | 27° | 29km/h | 31476m | 6.0m/s | -43.2°C | 2.6% | 0hPa | 2.5V | 00:00:00 | 02:02:47 | 00:00:00 | |
| PG1ADW-2 | 2026-08-31 01:08:25 | 45.80239 | 16.59443 | 33° | 29km/h | 31449m | 4.6m/s | -43.2°C | 2.6% | 0hPa | 2.5V | 00:00:00 | 02:02:42 | 00:00:00 | |
| 9A1FER-3 | 2026-08-31 01:08:24 | 45.80234 | 16.59439 | 34° | 31km/h | 31444m | 5.2m/s | -43.2°C | 2.6% | 0hPa | 2.5V | 00:00:00 | 02:02:41 | 00:00:00 | |
| OE5DRO-10 | 2026-08-31 01:08:20 | 45.80209 | 16.59418 | 27° | 31km/h | 31421m | 5.4m/s | -43.1°C | 2.6% | 0hPa | 2.5V | 00:00:00 | 00:00:00 | 00:00:00 | |
| OE5DXL-15 | 2026-08-31 01:08:19 | 45.80202 | 16.59413 | 24° | 29km/h | 31415m | 5.9m/s | -43.1°C | 2.6% | 0hPa | 2.5V | 00:00:00 | 00:00:00 | 00:00:00 | |
| 9A1FER-10 | 2026-08-31 01:08:15 | 45.80175 | 16.59402 | 12° | 31km/h | 31393m | 6.2m/s | -43.0°C | 2.6% | 0hPa | 2.6V | 00:00:00 | 02:02:32 | 00:00:00 | |
| OE8JPQ-2 | 2026-08-31 01:08:12 | 45.80149 | 16.59392 | 19° | 29km/h | 31376m | 5.2m/s | -43.0°C | 2.6% | 0hPa | 2.5V | 00:00:00 | 00:00:00 | 00:00:00 | |
| 9A1FER-3 | 2026-08-31 01:08:09 | 45.80127 | 16.59380 | 22° | 29km/h | 31358m | 4.8m/s | -42.9°C | 2.6% | 0hPa | 2.5V | 00:00:00 | 02:02:26 | 08:30:00 | |
| PG1ADW-2 | 2026-08-31 01:08:05 | 45.80103 | 16.59364 | 27° | 29km/h | 31336m | 5.2m/s | -42.8°C | 2.5% | 0hPa | 2.6V | 00:00:00 | 00:00:00 | 08:30:00 | |
| OE5DRO-10 | 2026-08-31 01:08:01 | 45.80073 | 16.59352 | 1° | 27km/h | 31313m | 5.5m/s | -42.9°C | 2.5% | 0hPa | 2.6V | 00:00:00 | 00:00:00 | 00:00:00 | |
| 9A1FER-10 | 2026-08-31 01:08:00 | 45.80066 | 16.59352 | 357° | 27km/h | 31308m | 4.8m/s | -43.0°C | 2.5% | 0hPa | 2.5V | 00:00:00 | 02:02:17 | 00:00:00 | |
| 9A1FER-3 | 2026-08-31 01:07:54 | 45.80023 | 16.59340 | 23° | 26km/h | 31273m | 6.0m/s | -43.1°C | 2.6% | 0hPa | 2.5V | 00:00:00 | 02:02:11 | 00:00:00 | |
| OE8JPQ-2 | 2026-08-31 01:07:52 | 45.80011 | 16.59332 | 30° | 27km/h | 31263m | 5.3m/s | -43.2°C | 2.6% | 0hPa | 2.5V | 00:00:00 | 02:02:09 | 00:00:00 | |
| OE5DXL-15 | 2026-08-31 01:07:49 | 45.79992 | 16.59315 | 29° | 27km/h | 31245m | 4.8m/s | -43.2°C | 2.6% | 0hPa | 2.5V | 00:00:00 | 00:00:00 | 00:00:00 | |
| 9A1FER-10 | 2026-08-31 01:07:45 | 45.79969 | 16.59304 | 10° | 29km/h | 31223m | 4.7m/s | -43.2°C | 2.6% | 0hPa | 2.5V | 00:00:00 | 02:02:02 | 00:00:00 | |
| OE5DRO-10 | 2026-08-31 01:07:42 | 45.79954 | 16.59296 | 32° | 27km/h | 31205m | 5.6m/s | -43.2°C | 2.6% | 0hPa | 2.5V | 00:00:00 | 00:00:00 | 00:00:00 | |
| 9A1FER-3 | 2026-08-31 01:07:39 | 45.79936 | 16.59280 | 29° | 27km/h | 31190m | 5.6m/s | -43.3°C | 2.6% | 0hPa | 2.5V | 00:00:00 | 02:01:56 | 00:00:00 | |
| LZ4TU-5 | 2026-08-31 01:07:38 | 45.79936 | 16.59280 | 29° | 26km/h | 31190m | 5.7m/s | 0°C | 0% | 0hPa | 2.5V | 00:00:00 | 00:00:00 | 00:00:00 | |
| LZ4TU-5 | 2026-08-31 01:07:33 | 45.79902 | 16.59277 | 360° | 37km/h | 31163m | 5.3m/s | 0°C | 0% | 0hPa | 2.5V | 00:00:00 | 00:00:00 | 00:00:00 | |
| OE8JPQ-2 | 2026-08-31 01:07:32 | 45.79884 | 16.59274 | 18° | 29km/h | 31153m | 4.8m/s | -43.2°C | 2.6% | 0hPa | 2.5V | 00:00:00 | 00:00:00 | 08:30:00 | |
| 9A1FER-10 | 2026-08-31 01:07:30 | 45.79870 | 16.59264 | 36° | 31km/h | 31141m | 6.3m/s | -43.2°C | 2.6% | 0hPa | 2.6V | 00:00:00 | 02:01:47 | 08:30:00 | |
| PG1ADW-2 | 2026-08-31 01:07:25 | 45.79846 | 16.59244 | 17° | 31km/h | 31114m | 6.5m/s | -43.1°C | 2.6% | 0hPa | 2.5V | 00:00:00 | 00:00:00 | 00:00:00 | |
| 9A1FER-3 | 2026-08-31 01:07:24 | 45.79838 | 16.59241 | 14° | 31km/h | 31107m | 5.8m/s | -43.0°C | 2.6% | 0hPa | 2.5V | 00:00:00 | 02:01:41 | 00:00:00 | |
| OE5DXL-15 | 2026-08-31 01:07:19 | 45.79795 | 16.59230 | 11° | 27km/h | 31081m | 5.5m/s | -42.8°C | 2.6% | 0hPa | 2.6V | 00:00:00 | 00:00:00 | 00:00:00 | |
| 9A1FER-10 | 2026-08-31 01:07:13 | 45.79760 | 16.59207 | 16° | 29km/h | 31048m | 5.6m/s | -42.7°C | 2.5% | 0hPa | 2.6V | 00:00:00 | 02:01:30 | 00:00:00 | |
| OE8JPQ-2 | 2026-08-31 01:07:12 | 45.79751 | 16.59204 | 11° | 29km/h | 31042m | 6.5m/s | -42.7°C | 2.5% | 0hPa | 2.6V | 00:00:00 | 00:00:00 | 00:00:00 | |
| 9A1FER-3 | 2026-08-31 01:07:09 | 45.79726 | 16.59202 | 1° | 27km/h | 31024m | 4.8m/s | -42.6°C | 2.5% | 0hPa | 2.6V | 00:00:00 | 02:01:26 | 00:00:00 | |
| PG1ADW-2 | 2026-08-31 01:07:05 | 45.79697 | 16.59195 | 17° | 27km/h | 31001m | 5.5m/s | -42.6°C | 2.5% | 0hPa | 2.6V | 00:00:00 | 02:01:22 | 00:00:00 | |
| OE5DRO-10 | 2026-08-31 01:07:04 | 45.79689 | 16.59192 | 20° | 27km/h | 30995m | 4.9m/s | -42.6°C | 2.5% | 0hPa | 2.5V | 00:00:00 | 00:00:00 | 08:30:00 | |
| 9A1FER-10 | 2026-08-31 01:06:55 | 45.79631 | 16.59175 | 11° | 27km/h | 30946m | 4.9m/s | -42.5°C | 2.6% | 0hPa | 2.5V | 00:00:00 | 02:01:12 | 00:00:00 | |
| 9A1FER-3 | 2026-08-31 01:06:54 | 45.79621 | 16.59173 | 11° | 26km/h | 30941m | 5.6m/s | -42.5°C | 2.6% | 0hPa | 2.5V | 00:00:00 | 02:01:11 | 00:00:00 | |
| OE8JPQ-2 | 2026-08-31 01:06:52 | 45.79605 | 16.59170 | 2° | 24km/h | 30929m | 5.4m/s | -42.4°C | 2.6% | 0hPa | 2.5V | 00:00:00 | 02:01:09 | 00:00:00 | |
| OE5DXL-15 | 2026-08-31 01:06:49 | 45.79589 | 16.59173 | 351° | 24km/h | 30913m | 5.9m/s | -42.4°C | 2.6% | 0hPa | 2.5V | 00:00:00 | 00:00:00 | 08:30:00 | |
| OE5DRO-10 | 2026-08-31 01:06:45 | 45.79564 | 16.59167 | 25° | 26km/h | 30890m | 6.4m/s | -42.4°C | 2.5% | 0hPa | 2.5V | 00:00:00 | 00:00:00 | 00:00:00 | |
| 9A1FER-3 | 2026-08-31 01:06:39 | 45.79527 | 16.59150 | 355° | 26km/h | 30855m | 5.1m/s | -42.3°C | 2.6% | 0hPa | 2.5V | 00:00:00 | 02:00:56 | 00:00:00 | |
| 9A1FER-10 | 2026-08-31 01:06:37 | 45.79511 | 16.59156 | 339° | 24km/h | 30844m | 6.7m/s | -42.3°C | 2.5% | 0hPa | 2.5V | 00:00:00 | 02:00:54 | 00:00:00 | |
| NBG1-10 | 2026-08-31 01:06:32 | 45.79485 | 16.59167 | 11° | 18km/h | 30815m | 6.1m/s | 0°C | 0% | 0hPa | 2.5V | 00:00:00 | 02:00:49 | 00:00:00 | |
| OE5DRO-10 | 2026-08-31 01:06:26 | 45.79449 | 16.59160 | 340° | 22km/h | 30779m | 6.5m/s | -41.9°C | 2.4% | 0hPa | 2.5V | 00:00:00 | 00:00:00 | 00:00:00 | |
| PG1ADW-2 | 2026-08-31 01:06:25 | 45.79443 | 16.59164 | 336° | 20km/h | 30773m | 6.4m/s | -41.9°C | 2.4% | 0hPa | 2.5V | 00:00:00 | 00:00:00 | 00:00:00 | |
| 9A1FER-3 | 2026-08-31 01:06:24 | 45.79438 | 16.59168 | 330° | 20km/h | 30767m | 5.5m/s | -41.9°C | 2.4% | 0hPa | 2.5V | 00:00:00 | 02:00:41 | 00:00:00 | |
| 9A1FER-10 | 2026-08-31 01:06:21 | 45.79423 | 16.59184 | 321° | 20km/h | 30748m | 5.5m/s | -41.9°C | 2.4% | 0hPa | 2.5V | 00:00:00 | 02:00:38 | 00:00:00 | |
| OE5DXL-15 | 2026-08-31 01:06:19 | 45.79415 | 16.59188 | 357° | 16km/h | 30736m | 7.0m/s | -41.9°C | 2.4% | 0hPa | 2.5V | 00:00:00 | 00:00:00 | 00:00:00 | |
| OE8JPQ-2 | 2026-08-31 01:06:12 | 45.79383 | 16.59179 | 341° | 16km/h | 30695m | 6.7m/s | -42.1°C | 2.5% | 0hPa | 2.5V | 00:00:00 | 00:00:00 | 00:00:00 | |
| LZ4TU-5 | 2026-08-31 01:06:10 | 45.79379 | 16.59181 | 334° | 20km/h | 30689m | 6.1m/s | 0°C | 0% | 0hPa | 2.5V | 00:00:00 | 00:00:00 | 00:00:00 | |
| 9A1FER-3 | 2026-08-31 01:06:09 | 45.79369 | 16.59190 | 320° | 16km/h | 30678m | 4.9m/s | -42.3°C | 2.5% | 0hPa | 2.5V | 00:00:00 | 02:00:26 | 00:00:00 | |
| OE5DRO-10 | 2026-08-31 01:06:07 | 45.79362 | 16.59202 | 299° | 15km/h | 30665m | 6.0m/s | -42.4°C | 2.6% | 0hPa | 2.5V | 00:00:00 | 00:00:00 | 00:00:00 | |
| LZ4TU-5 | 2026-08-31 01:06:06 | 45.79360 | 16.59207 | 298° | 15km/h | 30660m | 5.7m/s | 0°C | 0% | 0hPa | 2.6V | 00:00:00 | 00:00:00 | 00:00:00 | |
| PG1ADW-2 | 2026-08-31 01:06:05 | 45.79358 | 16.59211 | 311° | 15km/h | 30654m | 6.0m/s | -42.4°C | 2.5% | 0hPa | 2.6V | 00:00:00 | 00:00:00 | 00:00:00 | |
| NBG1-10 | 2026-08-31 01:05:57 | 45.79331 | 16.59230 | 316° | 16km/h | 30606m | 6.9m/s | 0°C | 0% | 0hPa | 2.5V | 00:00:00 | 02:00:14 | 00:00:00 | |
| 9A1FER-3 | 2026-08-31 01:05:54 | 45.79320 | 16.59240 | 347° | 13km/h | 30589m | 5.3m/s | -42.4°C | 2.6% | 0hPa | 2.5V | 00:00:00 | 02:00:11 | 08:30:00 | |
| OE8JPQ-2 | 2026-08-31 01:05:52 | 45.79314 | 16.59239 | 47° | 13km/h | 30576m | 6.4m/s | -42.3°C | 2.5% | 0hPa | 2.6V | 00:00:00 | 02:00:09 | 00:00:00 | |
| 9A1FER-10 | 2026-08-31 01:05:51 | 45.79313 | 16.59236 | 72° | 13km/h | 30570m | 5.4m/s | -42.3°C | 2.5% | 0hPa | 2.6V | 00:00:00 | 02:00:08 | 00:00:00 | |
| OE5DXL-15 | 2026-08-31 01:05:49 | 45.79311 | 16.59230 | 52° | 13km/h | 30559m | 6.5m/s | -42.3°C | 2.5% | 0hPa | 2.5V | 00:00:00 | 00:00:00 | 00:00:00 | |
| OE5DRO-10 | 2026-08-31 01:05:48 | 45.79309 | 16.59228 | 8° | 13km/h | 30553m | 5.7m/s | -42.2°C | 2.5% | 0hPa | 2.5V | 00:00:00 | 00:00:00 | 00:00:00 | |
| PG1ADW-2 | 2026-08-31 01:05:45 | 45.79301 | 16.59235 | 313° | 13km/h | 30534m | 6.8m/s | -42.2°C | 2.5% | 0hPa | 2.5V | 00:00:00 | 02:00:02 | 00:00:00 | |
| 9A1FER-3 | 2026-08-31 01:05:39 | 45.79285 | 16.59240 | 40° | 13km/h | 30499m | 5.3m/s | -42.1°C | 2.5% | 0hPa | 2.5V | 00:00:00 | 01:59:56 | 00:00:00 | |
| 9A1FER-10 | 2026-08-31 01:05:36 | 45.79279 | 16.59225 | 83° | 11km/h | 30479m | 5.4m/s | -42.1°C | 2.6% | 0hPa | 2.5V | 00:00:00 | 01:59:53 | 00:00:00 | |
| OE8JPQ-2 | 2026-08-31 01:05:32 | 45.79274 | 16.59220 | 329° | 11km/h | 30455m | 5.7m/s | -42.0°C | 2.6% | 0hPa | 2.5V | 00:00:00 | 00:00:00 | 00:00:00 | |
| OE5DRO-10 | 2026-08-31 01:05:29 | 45.79266 | 16.59230 | 310° | 11km/h | 30437m | 5.4m/s | -41.8°C | 2.5% | 0hPa | 2.5V | 00:00:00 | 00:00:00 | 00:00:00 | |
| PG1ADW-2 | 2026-08-31 01:05:25 | 45.79257 | 16.59229 | 35° | 13km/h | 30412m | 5.7m/s | -41.6°C | 2.5% | 0hPa | 2.5V | 00:00:00 | 00:00:00 | 00:00:00 | |
| 9A1FER-3 | 2026-08-31 01:05:24 | 45.79255 | 16.59226 | 48° | 13km/h | 30406m | 6.1m/s | -41.6°C | 2.5% | 0hPa | 2.5V | 00:00:00 | 01:59:41 | 00:00:00 | |
| 9A1FER-10 | 2026-08-31 01:05:21 | 45.79251 | 16.59216 | 62° | 13km/h | 30388m | 5.3m/s | -41.5°C | 2.4% | 0hPa | 2.5V | 00:00:00 | 01:59:38 | 00:00:00 | |
| OE5DXL-15 | 2026-08-31 01:05:19 | 45.79247 | 16.59214 | 355° | 16km/h | 30375m | 6.7m/s | -41.4°C | 2.4% | 0hPa | 2.5V | 00:00:00 | 00:00:00 | 00:00:00 | |
| OE8JPQ-2 | 2026-08-31 01:05:12 | 45.79225 | 16.59213 | 32° | 16km/h | 30330m | 6.4m/s | -41.3°C | 2.5% | 0hPa | 2.6V | 00:00:00 | 00:00:00 | 00:00:00 | |
| OE5DRO-10 | 2026-08-31 01:05:10 | 45.79220 | 16.59205 | 59° | 16km/h | 30317m | 6.7m/s | -41.2°C | 2.4% | 0hPa | 2.6V | 00:00:00 | 00:00:00 | 00:00:00 | |
| 9A1FER-3 | 2026-08-31 01:05:09 | 45.79218 | 16.59201 | 64° | 15km/h | 30311m | 4.9m/s | -41.2°C | 2.4% | 0hPa | 2.5V | 00:00:00 | 01:59:26 | 00:00:00 | |
| 9A1FER-10 | 2026-08-31 01:05:06 | 45.79211 | 16.59190 | 26° | 16km/h | 30294m | 6.3m/s | -41.1°C | 2.4% | 0hPa | 2.6V | 00:00:00 | 01:59:23 | 08:30:00 | |
| PG1ADW-2 | 2026-08-31 01:05:05 | 45.79206 | 16.59188 | 18° | 18km/h | 30288m | 5.2m/s | -41.1°C | 2.4% | 0hPa | 2.6V | 00:00:00 | 00:00:00 | 08:30:00 | |
| 9A1FER-3 | 2026-08-31 01:04:54 | 45.79165 | 16.59180 | 46° | 22km/h | 30222m | 6.1m/s | -41.0°C | 2.3% | 0hPa | 2.6V | 00:00:00 | 01:59:11 | 00:00:00 | |
| OE8JPQ-2 | 2026-08-31 01:04:52 | 45.79157 | 16.59168 | 49° | 24km/h | 30211m | 5.5m/s | -41.0°C | 2.3% | 0hPa | 2.6V | 00:00:00 | 01:59:09 | 00:00:00 | |
| 9A1FER-10 | 2026-08-31 01:04:51 | 45.79153 | 16.59162 | 40° | 22km/h | 30205m | 6.6m/s | -41.1°C | 2.3% | 0hPa | 2.6V | 00:00:00 | 01:59:08 | 00:00:00 | |
| OE5DXL-15 | 2026-08-31 01:04:49 | 45.79142 | 16.59153 | 20° | 24km/h | 30193m | 5.4m/s | -41.2°C | 2.3% | 0hPa | 2.6V | 00:00:00 | 00:00:00 | 00:00:00 | |
| PG1ADW-2 | 2026-08-31 01:04:45 | 45.79122 | 16.59145 | 17° | 22km/h | 30169m | 5.5m/s | -41.4°C | 2.4% | 0hPa | 2.6V | 00:00:00 | 00:00:00 | 00:00:00 | |
| 9A1FER-3 | 2026-08-31 01:04:39 | 45.79093 | 16.59129 | 35° | 24km/h | 30133m | 5.0m/s | -41.7°C | 2.4% | 0hPa | 2.6V | 00:00:00 | 01:58:56 | 00:00:00 | |
| LZ4TU-5 | 2026-08-31 01:04:38 | 45.79093 | 16.59129 | 35° | 18km/h | 30133m | 5.0m/s | 0°C | 0% | 0hPa | 2.6V | 00:00:00 | 00:00:00 | 00:00:00 | |
| 9A1FER-10 | 2026-08-31 01:04:36 | 45.79078 | 16.59121 | 11° | 26km/h | 30116m | 6.4m/s | -41.7°C | 2.4% | 0hPa | 2.6V | 00:00:00 | 01:58:53 | 00:00:00 | |
| LZ4TU-5 | 2026-08-31 01:04:33 | 45.79064 | 16.59119 | 5° | 31km/h | 30105m | 5.1m/s | 0°C | 0% | 0hPa | 2.6V | 00:00:00 | 00:00:00 | 00:00:00 | |
| OE8JPQ-2 | 2026-08-31 01:04:32 | 45.79049 | 16.59117 | 7° | 26km/h | 30094m | 6.0m/s | -41.8°C | 2.4% | 0hPa | 2.6V | 00:00:00 | 00:00:00 | 08:30:00 | |
| PG1ADW-2 | 2026-08-31 01:04:25 | 45.79013 | 16.59108 | 31° | 29km/h | 30052m | 5.6m/s | -42.0°C | 2.5% | 0hPa | 2.5V | 00:00:00 | 01:58:42 | 00:00:00 | |
| 9A1FER-3 | 2026-08-31 01:04:24 | 45.79008 | 16.59103 | 33° | 27km/h | 30047m | 4.9m/s | -42.0°C | 2.4% | 0hPa | 2.5V | 00:00:00 | 01:58:41 | 00:00:00 | |
| 9A1FER-10 | 2026-08-31 01:04:21 | 45.78984 | 16.59086 | 22° | 27km/h | 30029m | 5.7m/s | -42.2°C | 2.5% | 0hPa | 2.6V | 00:00:00 | 01:58:38 | 00:00:00 | |
| OE5DXL-15 | 2026-08-31 01:04:19 | 45.78964 | 16.59075 | 24° | 26km/h | 30017m | 6.3m/s | -42.3°C | 2.5% | 0hPa | 2.5V | 00:00:00 | 00:00:00 | 00:00:00 | |
| OE5DRO-10 | 2026-08-31 01:04:13 | 45.78930 | 16.59060 | 353° | 22km/h | 29982m | 5.7m/s | -42.4°C | 2.5% | 0hPa | 2.5V | 00:00:00 | 00:00:00 | 08:30:00 | |
| OE8JPQ-2 | 2026-08-31 01:04:12 | 45.78926 | 16.59061 | 360° | 24km/h | 29976m | 6.4m/s | -42.4°C | 2.5% | 0hPa | 2.6V | 00:00:00 | 00:00:00 | 00:00:00 | |
| 9A1FER-3 | 2026-08-31 01:04:09 | 45.78911 | 16.59054 | 21° | 24km/h | 29959m | 5.3m/s | -42.4°C | 2.5% | 0hPa | 2.6V | 00:00:00 | 01:58:26 | 00:00:00 | |
| 9A1FER-10 | 2026-08-31 01:04:06 | 45.78886 | 16.59045 | 10° | 24km/h | 29941m | 4.8m/s | -42.4°C | 2.5% | 0hPa | 2.6V | 00:00:00 | 01:58:23 | 00:00:00 | |
| PG1ADW-2 | 2026-08-31 01:04:05 | 45.78877 | 16.59043 | 10° | 24km/h | 29935m | 6.3m/s | -42.4°C | 2.5% | 0hPa | 2.6V | 00:00:00 | 00:00:00 | 00:00:00 | |
| 9A1FER-3 | 2026-08-31 01:03:54 | 45.78825 | 16.59027 | 16° | 24km/h | 29875m | 6.3m/s | -42.6°C | 2.6% | 0hPa | 2.5V | 00:00:00 | 01:58:11 | 00:00:00 | |
| OE8JPQ-2 | 2026-08-31 01:03:52 | 45.78809 | 16.59023 | 3° | 22km/h | 29864m | 4.5m/s | -42.6°C | 2.5% | 0hPa | 2.5V | 00:00:00 | 01:58:09 | 00:00:00 | |
| 9A1FER-10 | 2026-08-31 01:03:51 | 45.78801 | 16.59023 | 4° | 24km/h | 29859m | 4.7m/s | -42.5°C | 2.5% | 0hPa | 2.5V | 00:00:00 | 01:58:08 | 00:00:00 | |
| OE5DXL-15 | 2026-08-31 01:03:49 | 45.78787 | 16.59019 | 20° | 22km/h | 29848m | 5.9m/s | -42.5°C | 2.6% | 0hPa | 2.5V | 00:00:00 | 00:00:00 | 00:00:00 | |
| PG1ADW-2 | 2026-08-31 01:03:45 | 45.78768 | 16.59005 | 18° | 20km/h | 29825m | 5.4m/s | -42.5°C | 2.5% | 0hPa | 2.5V | 00:00:00 | 00:00:00 | 00:00:00 | |
| 9A1FER-3 | 2026-08-31 01:03:39 | 45.78738 | 16.59000 | 355° | 20km/h | 29792m | 6.5m/s | -42.4°C | 2.5% | 0hPa | 2.5V | 00:00:00 | 01:57:56 | 08:30:00 | |
| 9A1FER-10 | 2026-08-31 01:03:36 | 45.78718 | 16.59004 | 357° | 20km/h | 29776m | 5.4m/s | -42.3°C | 2.5% | 0hPa | 2.6V | 00:00:00 | 01:57:53 | 00:00:00 | |
| OE5DRO-10 | 2026-08-31 01:03:35 | 45.78712 | 16.59004 | 5° | 20km/h | 29770m | 5.8m/s | -42.3°C | 2.5% | 0hPa | 2.5V | 00:00:00 | 00:00:00 | 00:00:00 | |
| OE8JPQ-2 | 2026-08-31 01:03:32 | 45.78701 | 16.59000 | 12° | 20km/h | 29754m | 6.1m/s | -42.3°C | 2.5% | 0hPa | 2.5V | 00:00:00 | 00:00:00 | 00:00:00 | |
| PG1ADW-2 | 2026-08-31 01:03:25 | 45.78670 | 16.59002 | 352° | 20km/h | 29717m | 5.6m/s | -42.4°C | 2.5% | 0hPa | 2.5V | 00:00:00 | 00:00:00 | 00:00:00 | |
| 9A1FER-3 | 2026-08-31 01:03:24 | 45.78664 | 16.59004 | 345° | 22km/h | 29711m | 6.2m/s | -42.4°C | 2.5% | 0hPa | 2.5V | 00:00:00 | 01:57:41 | 00:00:00 | |
| 9A1FER-10 | 2026-08-31 01:03:21 | 45.78643 | 16.59013 | 346° | 20km/h | 29697m | 5.1m/s | -42.4°C | 2.5% | 0hPa | 2.5V | 00:00:00 | 01:57:38 | 00:00:00 | |
| OE5DXL-15 | 2026-08-31 01:03:19 | 45.78633 | 16.59014 | 13° | 16km/h | 29685m | 5.0m/s | -42.4°C | 2.4% | 0hPa | 2.5V | 00:00:00 | 00:00:00 | 00:00:00 | |
| OE5DRO-10 | 2026-08-31 01:03:16 | 45.78622 | 16.59010 | 1° | 18km/h | 29670m | 6.1m/s | -42.4°C | 2.4% | 0hPa | 2.5V | 00:00:00 | 00:00:00 | 00:00:00 | |
| OE8JPQ-2 | 2026-08-31 01:03:12 | 45.78602 | 16.59021 | 338° | 16km/h | 29649m | 5.6m/s | -42.7°C | 2.4% | 0hPa | 2.5V | 00:00:00 | 00:00:00 | 00:00:00 | |
| 9A1FER-3 | 2026-08-31 01:03:09 | 45.78587 | 16.59029 | 336° | 16km/h | 29632m | 5.9m/s | -43.1°C | 2.5% | 0hPa | 2.5V | 00:00:00 | 01:57:26 | 00:00:00 | |
| 9A1FER-10 | 2026-08-31 01:03:06 | 45.78575 | 16.59037 | 350° | 15km/h | 29617m | 6.3m/s | -43.4°C | 2.5% | 0hPa | 2.5V | 00:00:00 | 01:57:23 | 00:00:00 | |
| PG1ADW-2 | 2026-08-31 01:03:05 | 45.78572 | 16.59037 | 19° | 13km/h | 29611m | 4.9m/s | -43.4°C | 2.5% | 0hPa | 2.5V | 00:00:00 | 01:57:22 | 00:00:00 | |
| OE5DRO-10 | 2026-08-31 01:02:57 | 45.78543 | 16.59054 | 324° | 11km/h | 29570m | 5.2m/s | -44.2°C | 2.6% | 0hPa | 2.5V | 00:00:00 | 00:00:00 | 00:00:00 | |
| 9A1FER-3 | 2026-08-31 01:02:54 | 45.78535 | 16.59064 | 317° | 9km/h | 29554m | 6.1m/s | -44.4°C | 2.7% | 0hPa | 2.5V | 00:00:00 | 01:57:11 | 00:00:00 | |
| OE8JPQ-2 | 2026-08-31 01:02:52 | 45.78530 | 16.59069 | 329° | 9km/h | 29544m | 4.6m/s | -44.6°C | 2.7% | 0hPa | 2.6V | 00:00:00 | 01:57:09 | 00:00:00 | |
| 9A1FER-10 | 2026-08-31 01:02:51 | 45.78528 | 16.59071 | 338° | 9km/h | 29538m | 6.2m/s | -44.6°C | 2.7% | 0hPa | 2.6V | 00:00:00 | 01:57:08 | 08:30:00 | |
| OE5DXL-15 | 2026-08-31 01:02:49 | 45.78525 | 16.59072 | 359° | 9km/h | 29527m | 5.1m/s | -44.8°C | 2.7% | 0hPa | 2.6V | 00:00:00 | 00:00:00 | 00:00:00 | |
| PG1ADW-2 | 2026-08-31 01:02:45 | 45.78514 | 16.59077 | 331° | 9km/h | 29506m | 4.5m/s | -45.0°C | 2.7% | 0hPa | 2.6V | 00:00:00 | 00:00:00 | 00:00:00 | |
| 9A1FER-3 | 2026-08-31 01:02:39 | 45.78510 | 16.59093 | 271° | 9km/h | 29474m | 4.7m/s | -45.4°C | 2.8% | 0hPa | 2.6V | 00:00:00 | 01:56:56 | 00:00:00 | |
| OE5DRO-10 | 2026-08-31 01:02:38 | 45.78510 | 16.59094 | 254° | 9km/h | 29469m | 4.8m/s | -45.5°C | 2.9% | 0hPa | 2.6V | 00:00:00 | 00:00:00 | 00:00:00 | |
| 9A1FER-10 | 2026-08-31 01:02:36 | 45.78511 | 16.59092 | 113° | 11km/h | 29458m | 5.4m/s | -45.6°C | 2.9% | 0hPa | 2.6V | 00:00:00 | 01:56:53 | 00:00:00 | |
| OE8JPQ-2 | 2026-08-31 01:02:32 | 45.78507 | 16.59076 | 42° | 11km/h | 29436m | 4.9m/s | -45.7°C | 2.9% | 0hPa | 2.6V | 00:00:00 | 00:00:00 | 00:00:00 | |
| PG1ADW-2 | 2026-08-31 01:02:25 | 45.78492 | 16.59065 | 13° | 13km/h | 29399m | 4.6m/s | -45.6°C | 2.9% | 0hPa | 2.6V | 00:00:00 | 00:00:00 | 00:00:00 | |
| 9A1FER-3 | 2026-08-31 01:02:24 | 45.78490 | 16.59063 | 29° | 15km/h | 29394m | 6.2m/s | -45.6°C | 2.9% | 0hPa | 2.6V | 00:00:00 | 01:56:41 | 00:00:00 | |
| 9A1FER-10 | 2026-08-31 01:02:21 | 45.78486 | 16.59054 | 72° | 15km/h | 29377m | 4.8m/s | -45.6°C | 2.9% | 0hPa | 2.6V | 00:00:00 | 01:56:38 | 00:00:00 | |
| OE5DRO-10 | 2026-08-31 01:02:19 | 45.78483 | 16.59047 | 27° | 16km/h | 29366m | 5.7m/s | -45.6°C | 2.8% | 0hPa | 2.6V | 00:00:00 | 00:00:00 | 00:00:00 | |
| OE8JPQ-2 | 2026-08-31 01:02:12 | 45.78456 | 16.59051 | 357° | 18km/h | 29328m | 4.5m/s | -45.8°C | 2.8% | 0hPa | 2.6V | 00:00:00 | 00:00:00 | 00:00:00 | |
| 9A1FER-3 | 2026-08-31 01:02:09 | 45.78445 | 16.59047 | 36° | 20km/h | 29312m | 6.3m/s | -45.9°C | 2.8% | 0hPa | 2.6V | 00:00:00 | 01:56:26 | 00:00:00 | |
| 9A1FER-10 | 2026-08-31 01:02:06 | 45.78440 | 16.59039 | 46° | 22km/h | 29297m | 4.7m/s | -46.2°C | 2.9% | 0hPa | 2.5V | 00:00:00 | 01:56:23 | 00:00:00 | |
| LZ4TU-5 | 2026-08-31 01:02:05 | 45.78438 | 16.59036 | 29° | 16km/h | 29292m | 6.4m/s | 0°C | 0% | 0hPa | 2.6V | 00:00:00 | 00:00:00 | 00:00:00 | |
| OE5DRO-10 | 2026-08-31 01:02:00 | 45.78406 | 16.59039 | 337° | 22km/h | 29264m | 4.4m/s | -46.6°C | 3.0% | 0hPa | 2.6V | 00:00:00 | 00:00:00 | 00:00:00 | |
| 9A1FER-3 | 2026-08-31 01:01:54 | 45.78374 | 16.59042 | 38° | 20km/h | 29231m | 6.2m/s | -46.8°C | 3.0% | 0hPa | 2.6V | 00:00:00 | 01:56:11 | 00:00:00 | |
| OE8JPQ-2 | 2026-08-31 01:01:52 | 45.78368 | 16.59036 | 35° | 20km/h | 29221m | 4.6m/s | -46.8°C | 3.0% | 0hPa | 2.6V | 00:00:00 | 01:56:09 | 00:00:00 | |
| 9A1FER-10 | 2026-08-31 01:01:51 | 45.78365 | 16.59033 | 27° | 20km/h | 29215m | 6.0m/s | -46.8°C | 3.0% | 0hPa | 2.6V | 00:00:00 | 01:56:08 | 00:00:00 | |
| OE5DXL-15 | 2026-08-31 01:01:49 | 45.78353 | 16.59028 | 8° | 16km/h | 29203m | 5.6m/s | -46.8°C | 3.0% | 0hPa | 2.6V | 00:00:00 | 00:00:00 | 00:00:00 | |
| PG1ADW-2 | 2026-08-31 01:01:45 | 45.78325 | 16.59028 | 4° | 16km/h | 29182m | 5.1m/s | -46.9°C | 3.0% | 0hPa | 2.6V | 00:00:00 | 01:56:02 | 00:00:00 | |
| OE5DRO-10 | 2026-08-31 01:01:41 | 45.78310 | 16.59013 | 67° | 15km/h | 29160m | 5.8m/s | -47.2°C | 3.1% | 0hPa | 2.6V | 00:00:00 | 00:00:00 | 00:00:00 | |
| 9A1FER-3 | 2026-08-31 01:01:39 | 45.78308 | 16.59004 | 74° | 15km/h | 29148m | 4.8m/s | -47.3°C | 3.1% | 0hPa | 2.6V | 00:00:00 | 01:55:56 | 00:00:00 | |
| 9A1FER-10 | 2026-08-31 01:01:36 | 45.78301 | 16.59000 | 7° | 15km/h | 29132m | 6.4m/s | -47.4°C | 3.2% | 0hPa | 2.6V | 00:00:00 | 01:55:53 | 00:00:00 | |
| OE8JPQ-2 | 2026-08-31 01:01:32 | 45.78278 | 16.59003 | 350° | 13km/h | 29108m | 5.4m/s | -47.4°C | 3.1% | 0hPa | 2.6V | 00:00:00 | 00:00:00 | 08:30:00 | |
| PG1ADW-2 | 2026-08-31 01:01:25 | 45.78260 | 16.58996 | 85° | 9km/h | 29068m | 4.8m/s | -47.4°C | 3.1% | 0hPa | 2.5V | 00:00:00 | 00:00:00 | 00:00:00 | |
| 9A1FER-3 | 2026-08-31 01:01:23 | 45.78257 | 16.58995 | 6° | 9km/h | 29057m | 5.6m/s | -47.4°C | 3.2% | 0hPa | 2.5V | 00:00:00 | 01:55:40 | 08:30:00 | |
| OE5DRO-10 | 2026-08-31 01:01:22 | 45.78253 | 16.58995 | 360° | 9km/h | 29051m | 5.4m/s | -47.4°C | 3.1% | 0hPa | 2.5V | 00:00:00 | 00:00:00 | 08:30:00 | |
| 9A1FER-10 | 2026-08-31 01:01:21 | 45.78249 | 16.58995 | 354° | 9km/h | 29045m | 6.1m/s | -47.4°C | 3.1% | 0hPa | 2.6V | 00:00:00 | 01:55:38 | 00:00:00 | |
| OE5DXL-15 | 2026-08-31 01:01:19 | 45.78240 | 16.58998 | 341° | 7km/h | 29034m | 4.7m/s | -47.4°C | 3.2% | 0hPa | 2.5V | 00:00:00 | 00:00:00 | 00:00:00 | |
| OE8JPQ-2 | 2026-08-31 01:01:12 | 45.78230 | 16.58994 | 197° | 5km/h | 28994m | 5.4m/s | -47.5°C | 3.2% | 0hPa | 2.5V | 00:00:00 | 00:00:00 | 00:00:00 | |
| 9A1FER-3 | 2026-08-31 01:01:08 | 45.78234 | 16.58995 | 229° | 7km/h | 28970m | 6.3m/s | -47.4°C | 3.2% | 0hPa | 2.5V | 00:00:00 | 01:55:25 | 00:00:00 | |
| 9A1FER-10 | 2026-08-31 01:01:06 | 45.78235 | 16.58999 | 232° | 7km/h | 28958m | 4.8m/s | -47.3°C | 3.2% | 0hPa | 2.5V | 00:00:00 | 01:55:23 | 00:00:00 | |
| PG1ADW-2 | 2026-08-31 01:01:05 | 45.78236 | 16.59000 | 200° | 9km/h | 28953m | 5.9m/s | -47.3°C | 3.2% | 0hPa | 2.5V | 00:00:00 | 00:00:00 | 00:00:00 | |
| OE5DRO-10 | 2026-08-31 01:01:03 | 45.78238 | 16.58997 | 108° | 9km/h | 28940m | 5.9m/s | -47.2°C | 3.2% | 0hPa | 2.6V | 00:00:00 | 00:00:00 | 00:00:00 | |
| 9A1FER-3 | 2026-08-31 01:00:53 | 45.78245 | 16.58973 | 308° | 11km/h | 28881m | 4.8m/s | -46.9°C | 3.1% | 0hPa | 2.6V | 00:00:00 | 01:55:10 | 00:00:00 | |
| OE8JPQ-2 | 2026-08-31 01:00:52 | 45.78244 | 16.58973 | 44° | 11km/h | 28876m | 4.9m/s | -46.9°C | 3.1% | 0hPa | 2.6V | 00:00:00 | 01:55:09 | 00:00:00 | |
| 9A1FER-10 | 2026-08-31 01:00:51 | 45.78244 | 16.58972 | 84° | 11km/h | 28870m | 7.0m/s | -46.9°C | 3.1% | 0hPa | 2.6V | 00:00:00 | 01:55:08 | 00:00:00 | |
| OE5DXL-15 | 2026-08-31 01:00:49 | 45.78244 | 16.58964 | 94° | 9km/h | 28858m | 5.0m/s | -46.9°C | 3.1% | 0hPa | 2.6V | 00:00:00 | 00:00:00 | 00:00:00 | |
| PG1ADW-2 | 2026-08-31 01:00:45 | 45.78244 | 16.58942 | 72° | 9km/h | 28834m | 5.9m/s | -46.9°C | 3.1% | 0hPa | 2.5V | 00:00:00 | 00:00:00 | 00:00:00 | |
| OE5DRO-10 | 2026-08-31 01:00:44 | 45.78243 | 16.58938 | 66° | 9km/h | 28828m | 6.7m/s | -46.8°C | 3.1% | 0hPa | 2.5V | 00:00:00 | 00:00:00 | 00:00:00 | |
| 9A1FER-3 | 2026-08-31 01:00:38 | 45.78240 | 16.58923 | 144° | 9km/h | 28795m | 5.2m/s | -46.8°C | 3.1% | 0hPa | 2.5V | 00:00:00 | 01:54:55 | 00:00:00 | |
| 9A1FER-10 | 2026-08-31 01:00:36 | 45.78243 | 16.58917 | 102° | 9km/h | 28783m | 6.2m/s | -46.8°C | 3.1% | 0hPa | 2.6V | 00:00:00 | 01:54:53 | 08:30:00 | |
| OE8JPQ-2 | 2026-08-31 01:00:32 | 45.78242 | 16.58899 | 97° | 5km/h | 28759m | 5.8m/s | -46.7°C | 3.1% | 0hPa | 2.6V | 00:00:00 | 00:00:00 | 00:00:00 | |
| PG1ADW-2 | 2026-08-31 01:00:25 | 45.78250 | 16.58891 | 209° | 5km/h | 28717m | 5.7m/s | -46.7°C | 3.1% | 0hPa | 2.6V | 00:00:00 | 01:54:42 | 00:00:00 | |
| 9A1FER-3 | 2026-08-31 01:00:23 | 45.78254 | 16.58893 | 183° | 4km/h | 28705m | 6.9m/s | -46.8°C | 3.1% | 0hPa | 2.6V | 00:00:00 | 01:54:40 | 00:00:00 | |
| 9A1FER-10 | 2026-08-31 01:00:21 | 45.78257 | 16.58891 | 128° | 4km/h | 28694m | 4.8m/s | -46.8°C | 3.1% | 0hPa | 2.6V | 00:00:00 | 01:54:38 | 00:00:00 | |
| OE5DXL-15 | 2026-08-31 01:00:19 | 45.78258 | 16.58890 | 224° | 5km/h | 28681m | 6.6m/s | -46.8°C | 3.1% | 0hPa | 2.6V | 00:00:00 | 00:00:00 | 00:00:00 | |
| OE8JPQ-2 | 2026-08-31 01:00:12 | 45.78256 | 16.58894 | 135° | 5km/h | 28638m | 6.7m/s | -46.9°C | 3.1% | 0hPa | 2.6V | 00:00:00 | 00:00:00 | 00:00:00 | |
| 9A1FER-3 | 2026-08-31 01:00:08 | 45.78260 | 16.58891 | 103° | 7km/h | 28612m | 5.9m/s | -46.8°C | 3.1% | 0hPa | 2.6V | 00:00:00 | 01:54:25 | 00:00:00 | |
| 9A1FER-10 | 2026-08-31 01:00:06 | 45.78259 | 16.58889 | 10° | 7km/h | 28600m | 7.1m/s | -46.8°C | 3.1% | 0hPa | 2.6V | 00:00:00 | 01:54:23 | 00:00:00 | |
| PG1ADW-2 | 2026-08-31 01:00:05 | 45.78258 | 16.58889 | 329° | 7km/h | 28594m | 6.1m/s | -46.8°C | 3.0% | 0hPa | 2.6V | 00:00:00 | 00:00:00 | 00:00:00 | |
| 9A1FER-3 | 2026-08-31 00:59:53 | 45.78240 | 16.58879 | 52° | 9km/h | 28521m | 5.7m/s | -47.1°C | 3.1% | 0hPa | 2.6V | 00:00:00 | 01:54:10 | 00:00:00 | |
| OE8JPQ-2 | 2026-08-31 00:59:52 | 45.78239 | 16.58877 | 30° | 9km/h | 28515m | 6.3m/s | -47.1°C | 3.1% | 0hPa | 2.5V | 00:00:00 | 01:54:09 | 00:00:00 | |
| 9A1FER-10 | 2026-08-31 00:59:51 | 45.78237 | 16.58876 | 357° | 9km/h | 28509m | 5.4m/s | -47.1°C | 3.1% | 0hPa | 2.5V | 00:00:00 | 01:54:08 | 00:00:00 | |
| OE5DXL-15 | 2026-08-31 00:59:49 | 45.78235 | 16.58877 | 344° | 11km/h | 28498m | 5.6m/s | -47.1°C | 3.1% | 0hPa | 2.5V | 00:00:00 | 00:00:00 | 00:00:00 | |
| OE5DRO-10 | 2026-08-31 00:59:47 | 45.78230 | 16.58878 | 356° | 9km/h | 28486m | 6.7m/s | -47.1°C | 3.1% | 0hPa | 2.5V | 00:00:00 | 00:00:00 | 00:00:00 | |
| PG1ADW-2 | 2026-08-31 00:59:45 | 45.78223 | 16.58879 | 349° | 9km/h | 28474m | 5.5m/s | -47.1°C | 3.1% | 0hPa | 2.5V | 00:00:00 | 00:00:00 | 00:00:00 | |
| 9A1FER-3 | 2026-08-31 00:59:38 | 45.78212 | 16.58884 | 101° | 9km/h | 28431m | 5.7m/s | -47.3°C | 3.2% | 0hPa | 2.5V | 00:00:00 | 01:53:55 | 00:00:00 | |
| 9A1FER-10 | 2026-08-31 00:59:36 | 45.78214 | 16.58878 | 117° | 11km/h | 28417m | 5.6m/s | -47.4°C | 3.2% | 0hPa | 2.5V | 00:00:00 | 01:53:53 | 00:00:00 | |
| OE8JPQ-2 | 2026-08-31 00:59:32 | 45.78212 | 16.58861 | 44° | 11km/h | 28393m | 5.6m/s | -47.4°C | 3.2% | 0hPa | 2.5V | 00:00:00 | 00:00:00 | 00:00:00 | |
| OE5DRO-10 | 2026-08-31 00:59:28 | 45.78208 | 16.58851 | 128° | 13km/h | 28369m | 5.8m/s | -47.4°C | 3.2% | 0hPa | 2.6V | 00:00:00 | 00:00:00 | 00:00:00 | |
| PG1ADW-2 | 2026-08-31 00:59:25 | 45.78211 | 16.58848 | 155° | 16km/h | 28350m | 5.4m/s | -47.4°C | 3.2% | 0hPa | 2.6V | 00:00:00 | 00:00:00 | 00:00:00 | |
| 9A1FER-3 | 2026-08-31 00:59:23 | 45.78217 | 16.58843 | 147° | 15km/h | 28338m | 6.8m/s | -47.3°C | 3.2% | 0hPa | 2.6V | 00:00:00 | 01:53:40 | 00:00:00 | |
| 9A1FER-10 | 2026-08-31 00:59:21 | 45.78224 | 16.58834 | 130° | 15km/h | 28326m | 5.7m/s | -47.2°C | 3.2% | 0hPa | 2.6V | 00:00:00 | 01:53:38 | 00:00:00 | |
| OE5DXL-15 | 2026-08-31 00:59:19 | 45.78228 | 16.58823 | 97° | 15km/h | 28313m | 5.7m/s | -47.2°C | 3.2% | 0hPa | 2.6V | 00:00:00 | 00:00:00 | 00:00:00 | |
| OE8JPQ-2 | 2026-08-31 00:59:12 | 45.78236 | 16.58802 | 154° | 15km/h | 28270m | 5.3m/s | -47.0°C | 3.1% | 0hPa | 2.6V | 00:00:00 | 00:00:00 | 00:00:00 | |
| OE5DRO-10 | 2026-08-31 00:59:09 | 45.78245 | 16.58792 | 139° | 16km/h | 28252m | 6.1m/s | -46.9°C | 3.1% | 0hPa | 2.6V | 00:00:00 | 00:00:00 | 00:00:00 | |
| 9A1FER-3 | 2026-08-31 00:59:08 | 45.78267 | 16.58786 | 132° | 15km/h | 28246m | 5.0m/s | -46.9°C | 3.1% | 0hPa | 2.6V | 00:00:00 | 01:53:25 | 08:30:00 | |
| 9A1FER-10 | 2026-08-31 00:59:06 | 45.78257 | 16.58771 | 110° | 15km/h | 28234m | 6.9m/s | -46.9°C | 3.1% | 0hPa | 2.5V | 00:00:00 | 01:53:23 | 00:00:00 | |
| PG1ADW-2 | 2026-08-31 00:59:05 | 45.78258 | 16.58763 | 95° | 15km/h | 28227m | 6.3m/s | -46.9°C | 3.1% | 0hPa | 2.5V | 00:00:00 | 01:53:22 | 08:30:00 | |
| OE8JPQ-2 | 2026-08-31 00:58:52 | 45.78279 | 16.58714 | 109° | 15km/h | 28149m | 6.2m/s | -46.9°C | 3.1% | 0hPa | 2.5V | 00:00:00 | 01:53:09 | 00:00:00 | |
| 9A1FER-10 | 2026-08-31 00:58:51 | 45.78280 | 16.58708 | 96° | 16km/h | 28143m | 5.6m/s | -46.9°C | 3.1% | 0hPa | 2.5V | 00:00:00 | 01:53:08 | 00:00:00 | |
| OE5DRO-10 | 2026-08-31 00:58:50 | 45.78281 | 16.58702 | 93° | 16km/h | 28137m | 5.7m/s | -46.9°C | 3.0% | 0hPa | 2.5V | 00:00:00 | 00:00:00 | 00:00:00 | |
| OE5DXL-15 | 2026-08-31 00:58:49 | 45.78281 | 16.58697 | 99° | 13km/h | 28131m | 6.8m/s | -46.9°C | 3.0% | 0hPa | 2.5V | 00:00:00 | 00:00:00 | 00:00:00 | |
| PG1ADW-2 | 2026-08-31 00:58:45 | 45.78286 | 16.58675 | 104° | 13km/h | 28107m | 6.4m/s | -47.0°C | 3.1% | 0hPa | 2.5V | 00:00:00 | 00:00:00 | 00:00:00 | |
| 9A1FER-3 | 2026-08-31 00:58:38 | 45.78306 | 16.58642 | 158° | 9km/h | 28068m | 7.0m/s | -47.2°C | 3.1% | 0hPa | 2.5V | 00:00:00 | 01:52:55 | 00:00:00 | |
| 9A1FER-10 | 2026-08-31 00:58:36 | 45.78309 | 16.58638 | 97° | 9km/h | 28055m | 5.8m/s | -47.3°C | 3.1% | 0hPa | 2.5V | 00:00:00 | 01:52:53 | 00:00:00 | |
| OE8JPQ-2 | 2026-08-31 00:58:32 | 45.78309 | 16.58628 | 122° | 11km/h | 28030m | 5.9m/s | -47.5°C | 3.2% | 0hPa | 2.5V | 00:00:00 | 00:00:00 | 08:30:00 | |
| OE5DRO-10 | 2026-08-31 00:58:31 | 45.78311 | 16.58625 | 126° | 11km/h | 28024m | 5.9m/s | -47.5°C | 3.2% | 0hPa | 2.5V | 00:00:00 | 00:00:00 | 08:30:00 | |
| PG1ADW-2 | 2026-08-31 00:58:25 | 45.78322 | 16.58614 | 203° | 11km/h | 27988m | 5.1m/s | -47.5°C | 3.2% | 0hPa | 2.5V | 00:00:00 | 00:00:00 | 00:00:00 | |
| 9A1FER-3 | 2026-08-31 00:58:23 | 45.78327 | 16.58619 | 227° | 11km/h | 27977m | 7.1m/s | -47.5°C | 3.2% | 0hPa | 2.5V | 00:00:00 | 01:52:40 | 00:00:00 | |
| 9A1FER-10 | 2026-08-31 00:58:21 | 45.78329 | 16.58625 | 264° | 11km/h | 27964m | 5.7m/s | -47.5°C | 3.2% | 0hPa | 2.6V | 00:00:00 | 01:52:38 | 08:30:00 | |
| OE5DXL-15 | 2026-08-31 00:58:19 | 45.78330 | 16.58626 | 159° | 11km/h | 27952m | 5.9m/s | -47.5°C | 3.2% | 0hPa | 2.5V | 00:00:00 | 00:00:00 | 00:00:00 | |
| OE8JPQ-2 | 2026-08-31 00:58:12 | 45.78347 | 16.58599 | 167° | 9km/h | 27910m | 5.6m/s | -47.6°C | 3.2% | 0hPa | 2.5V | 00:00:00 | 00:00:00 | 00:00:00 | |
| 9A1FER-3 | 2026-08-31 00:58:08 | 45.78354 | 16.58604 | 263° | 9km/h | 27885m | 5.5m/s | -47.6°C | 3.2% | 0hPa | 2.5V | 00:00:00 | 01:52:25 | 00:00:00 | |
| 9A1FER-10 | 2026-08-31 00:58:06 | 45.78356 | 16.58610 | 227° | 9km/h | 27872m | 5.3m/s | -47.6°C | 3.2% | 0hPa | 2.5V | 00:00:00 | 01:52:23 | 00:00:00 | |
| PG1ADW-2 | 2026-08-31 00:58:05 | 45.78357 | 16.58612 | 196° | 11km/h | 27867m | 5.1m/s | -47.5°C | 3.2% | 0hPa | 2.5V | 00:00:00 | 00:00:00 | 00:00:00 | |
| 9A1FER-3 | 2026-08-31 00:57:53 | 45.78380 | 16.58606 | 215° | 11km/h | 27793m | 6.3m/s | -47.4°C | 3.2% | 0hPa | 2.5V | 00:00:00 | 01:52:10 | 00:00:00 | |
| OE8JPQ-2 | 2026-08-31 00:57:52 | 45.78382 | 16.58606 | 175° | 13km/h | 27787m | 5.1m/s | -47.4°C | 3.2% | 0hPa | 2.5V | 00:00:00 | 01:52:09 | 00:00:00 | |
| 9A1FER-10 | 2026-08-31 00:57:51 | 45.78384 | 16.58605 | 142° | 13km/h | 27782m | 5.4m/s | -47.5°C | 3.2% | 0hPa | 2.5V | 00:00:00 | 01:52:08 | 00:00:00 | |
| OE5DXL-15 | 2026-08-31 00:57:49 | 45.78387 | 16.58598 | 105° | 15km/h | 27769m | 6.2m/s | -47.5°C | 3.2% | 0hPa | 2.5V | 00:00:00 | 00:00:00 | 08:30:00 | |
| PG1ADW-2 | 2026-08-31 00:57:45 | 45.78394 | 16.58577 | 138° | 13km/h | 27745m | 4.6m/s | -47.5°C | 3.2% | 0hPa | 2.5V | 00:00:00 | 01:52:02 | 00:00:00 | |
| 9A1FER-3 | 2026-08-31 00:57:38 | 45.78405 | 16.58559 | 103° | 15km/h | 27702m | 6.9m/s | -47.5°C | 3.2% | 0hPa | 2.5V | 00:00:00 | 01:51:55 | 00:00:00 | |
| 9A1FER-10 | 2026-08-31 00:57:36 | 45.78406 | 16.58548 | 93° | 16km/h | 27691m | 4.5m/s | -47.5°C | 3.2% | 0hPa | 2.6V | 00:00:00 | 01:51:53 | 00:00:00 | |
| OE5DRO-10 | 2026-08-31 00:57:33 | 45.78409 | 16.58527 | 110° | 15km/h | 27673m | 5.2m/s | -47.4°C | 3.2% | 0hPa | 2.5V | 00:00:00 | 00:00:00 | 00:00:00 | |
| OE8JPQ-2 | 2026-08-31 00:57:32 | 45.78410 | 16.58521 | 107° | 15km/h | 27668m | 6.2m/s | -47.4°C | 3.2% | 0hPa | 2.6V | 00:00:00 | 00:00:00 | 00:00:00 | |
| 9A1FER-3 | 2026-08-31 00:57:23 | 45.78415 | 16.58477 | 79° | 15km/h | 27614m | 5.3m/s | -47.3°C | 3.2% | 0hPa | 2.6V | 00:00:00 | 01:51:40 | 00:00:00 | |
| 9A1FER-10 | 2026-08-31 00:57:21 | 45.78414 | 16.58465 | 94° | 15km/h | 27602m | 6.7m/s | -47.2°C | 3.2% | 0hPa | 2.6V | 00:00:00 | 01:51:38 | 00:00:00 | |
| OE5DXL-15 | 2026-08-31 00:57:19 | 45.78414 | 16.58452 | 89° | 13km/h | 27590m | 6.5m/s | -47.2°C | 3.1% | 0hPa | 2.6V | 00:00:00 | 00:00:00 | 00:00:00 | |
| OE5DRO-10 | 2026-08-31 00:57:14 | 45.78416 | 16.58426 | 119° | 15km/h | 27560m | 5.7m/s | -47.2°C | 3.1% | 0hPa | 2.6V | 00:00:00 | 00:00:00 | 00:00:00 | |
| OE8JPQ-2 | 2026-08-31 00:57:12 | 45.78418 | 16.58419 | 106° | 13km/h | 27548m | 5.0m/s | -47.2°C | 3.2% | 0hPa | 2.6V | 00:00:00 | 00:00:00 | 00:00:00 | |
| 9A1FER-3 | 2026-08-31 00:57:08 | 45.78425 | 16.58403 | 115° | 15km/h | 27525m | 4.6m/s | -47.2°C | 3.2% | 0hPa | 2.6V | 00:00:00 | 01:51:25 | 00:00:00 | |
| 9A1FER-10 | 2026-08-31 00:57:06 | 45.78426 | 16.58392 | 90° | 13km/h | 27513m | 5.3m/s | -47.2°C | 3.2% | 0hPa | 2.6V | 00:00:00 | 01:51:23 | 00:00:00 | |
| PG1ADW-2 | 2026-08-31 00:57:05 | 45.78426 | 16.58387 | 87° | 15km/h | 27508m | 4.7m/s | -47.3°C | 3.1% | 0hPa | 2.6V | 00:00:00 | 00:00:00 | 00:00:00 | |
| OE5DRO-10 | 2026-08-31 00:56:55 | 45.78446 | 16.58344 | 172° | 11km/h | 27451m | 5.1m/s | -47.2°C | 3.1% | 0hPa | 2.6V | 00:00:00 | 00:00:00 | 00:00:00 | |
| 9A1FER-3 | 2026-08-31 00:56:53 | 45.78450 | 16.58343 | 154° | 11km/h | 27439m | 6.1m/s | -47.2°C | 3.1% | 0hPa | 2.6V | 00:00:00 | 01:51:10 | 08:30:00 | |
| OE8JPQ-2 | 2026-08-31 00:56:52 | 45.78451 | 16.58342 | 115° | 13km/h | 27434m | 5.4m/s | -47.2°C | 3.1% | 0hPa | 2.5V | 00:00:00 | 01:51:09 | 00:00:00 | |
| 9A1FER-10 | 2026-08-31 00:56:51 | 45.78451 | 16.58339 | 116° | 13km/h | 27428m | 5.4m/s | -47.2°C | 3.1% | 0hPa | 2.5V | 00:00:00 | 01:51:08 | 00:00:00 | |
| OE5DXL-15 | 2026-08-31 00:56:49 | 45.78456 | 16.58331 | 139° | 13km/h | 27416m | 6.4m/s | -47.2°C | 3.1% | 0hPa | 2.6V | 00:00:00 | 00:00:00 | 00:00:00 | |
| PG1ADW-2 | 2026-08-31 00:56:45 | 45.78471 | 16.58308 | 116° | 11km/h | 27394m | 4.8m/s | -47.2°C | 3.1% | 0hPa | 2.6V | 00:00:00 | 00:00:00 | 00:00:00 | |
| 9A1FER-3 | 2026-08-31 00:56:38 | 45.78474 | 16.58292 | 105° | 15km/h | 27355m | 4.7m/s | -47.3°C | 3.0% | 0hPa | 2.6V | 00:00:00 | 01:50:55 | 00:00:00 | |
| 9A1FER-10 | 2026-08-31 00:56:36 | 45.78477 | 16.58283 | 126° | 13km/h | 27344m | 6.3m/s | -47.3°C | 3.0% | 0hPa | 2.6V | 00:00:00 | 01:50:53 | 00:00:00 | |
| OE8JPQ-2 | 2026-08-31 00:56:32 | 45.78485 | 16.58259 | 92° | 13km/h | 27321m | 4.7m/s | -47.4°C | 3.1% | 0hPa | 2.6V | 00:00:00 | 00:00:00 | 00:00:00 | |
| PG1ADW-2 | 2026-08-31 00:56:25 | 45.78481 | 16.58233 | 66° | 13km/h | 27282m | 5.4m/s | -48.0°C | 3.1% | 0hPa | 2.5V | 00:00:00 | 01:50:42 | 00:00:00 | |
| 9A1FER-3 | 2026-08-31 00:56:23 | 45.78479 | 16.58224 | 77° | 15km/h | 27271m | 6.3m/s | -48.1°C | 3.2% | 0hPa | 2.5V | 00:00:00 | 01:50:40 | 00:00:00 | |
| 9A1FER-10 | 2026-08-31 00:56:21 | 45.78479 | 16.58216 | 108° | 13km/h | 27260m | 4.7m/s | -48.3°C | 3.2% | 0hPa | 2.5V | 00:00:00 | 01:50:38 | 00:00:00 | |
| OE5DXL-15 | 2026-08-31 00:56:19 | 45.78481 | 16.58206 | 96° | 11km/h | 27248m | 6.1m/s | -48.4°C | 3.2% | 0hPa | 2.5V | 00:00:00 | 00:00:00 | 00:00:00 | |
| OE5DRO-10 | 2026-08-31 00:56:17 | 45.78481 | 16.58193 | 88° | 9km/h | 27237m | 5.5m/s | -48.5°C | 3.2% | 0hPa | 2.5V | 00:00:00 | 00:00:00 | 00:00:00 | |
| OE8JPQ-2 | 2026-08-31 00:56:12 | 45.78474 | 16.58174 | 26° | 9km/h | 27209m | 6.3m/s | -48.7°C | 3.3% | 0hPa | 2.5V | 00:00:00 | 00:00:00 | 00:00:00 | |
| 9A1FER-3 | 2026-08-31 00:56:08 | 45.78461 | 16.58168 | 4° | 7km/h | 27186m | 6.3m/s | -48.8°C | 3.3% | 0hPa | 2.5V | 00:00:00 | 01:50:25 | 00:00:00 | |
| 9A1FER-10 | 2026-08-31 00:56:06 | 45.78460 | 16.58167 | 82° | 9km/h | 27173m | 5.9m/s | -48.9°C | 3.2% | 0hPa | 2.6V | 00:00:00 | 01:50:23 | 08:30:00 | |
| PG1ADW-2 | 2026-08-31 00:56:05 | 45.78460 | 16.58166 | 100° | 9km/h | 27168m | 4.8m/s | -48.9°C | 3.3% | 0hPa | 2.6V | 00:00:00 | 00:00:00 | 08:30:00 | |
| OE5DRO-10 | 2026-08-31 00:55:58 | 45.78451 | 16.58157 | 9° | 13km/h | 27128m | 6.8m/s | -49.2°C | 3.3% | 0hPa | 2.5V | 00:00:00 | 00:00:00 | 00:00:00 | |
| 9A1FER-3 | 2026-08-31 00:55:53 | 45.78440 | 16.58162 | 270° | 13km/h | 27100m | 6.0m/s | -49.5°C | 3.4% | 0hPa | 2.5V | 00:00:00 | 01:50:10 | 00:00:00 | |
| OE8JPQ-2 | 2026-08-31 00:55:52 | 45.78440 | 16.58165 | 246° | 13km/h | 27093m | 7.2m/s | -49.5°C | 3.4% | 0hPa | 2.5V | 00:00:00 | 01:50:09 | 00:00:00 | |
| 9A1FER-10 | 2026-08-31 00:55:51 | 45.78442 | 16.58169 | 241° | 15km/h | 27087m | 4.8m/s | -49.6°C | 3.5% | 0hPa | 2.5V | 00:00:00 | 01:50:08 | 00:00:00 | |
| OE5DXL-15 | 2026-08-31 00:55:49 | 45.78445 | 16.58178 | 249° | 11km/h | 27078m | 6.4m/s | -49.7°C | 3.5% | 0hPa | 2.5V | 00:00:00 | 00:00:00 | 00:00:00 | |
| PG1ADW-2 | 2026-08-31 00:55:45 | 45.78438 | 16.58186 | 336° | 11km/h | 27056m | 5.5m/s | -49.8°C | 3.5% | 0hPa | 2.5V | 00:00:00 | 00:00:00 | 00:00:00 | |
| OE5DRO-10 | 2026-08-31 00:55:39 | 45.78429 | 16.58210 | 243° | 11km/h | 27021m | 5.8m/s | -49.8°C | 3.5% | 0hPa | 2.5V | 00:00:00 | 00:00:00 | 08:30:00 | |
| 9A1FER-3 | 2026-08-31 00:55:38 | 45.78431 | 16.58215 | 235° | 11km/h | 27014m | 6.9m/s | -49.7°C | 3.5% | 0hPa | 2.5V | 00:00:00 | 01:49:55 | 00:00:00 | |
| 9A1FER-10 | 2026-08-31 00:55:36 | 45.78437 | 16.58225 | 232° | 9km/h | 27002m | 6.1m/s | -49.7°C | 3.4% | 0hPa | 2.5V | 00:00:00 | 01:49:53 | 00:00:00 | |
| LZ4TU-5 | 2026-08-31 00:55:34 | 45.78439 | 16.58230 | 237° | 13km/h | 26996m | 6.0m/s | 0°C | 0% | 0hPa | 2.5V | 00:00:00 | 00:00:00 | 00:00:00 | |
| OE8JPQ-2 | 2026-08-31 00:55:32 | 45.78441 | 16.58239 | 267° | 9km/h | 26978m | 5.8m/s | -49.8°C | 3.5% | 0hPa | 2.5V | 00:00:00 | 00:00:00 | 08:30:00 | |
| LZ4TU-5 | 2026-08-31 00:55:29 | 45.78441 | 16.58245 | 291° | 5km/h | 26967m | 6.1m/s | 0°C | 0% | 0hPa | 2.5V | 00:00:00 | 00:00:00 | 00:00:00 | |
| PG1ADW-2 | 2026-08-31 00:55:25 | 45.78437 | 16.58252 | 281° | 9km/h | 26940m | 5.3m/s | -50.1°C | 3.5% | 0hPa | 2.5V | 00:00:00 | 00:00:00 | 00:00:00 | |
| 9A1FER-3 | 2026-08-31 00:55:23 | 45.78436 | 16.58262 | 275° | 11km/h | 26929m | 6.0m/s | -50.2°C | 3.5% | 0hPa | 2.5V | 00:00:00 | 01:49:40 | 00:00:00 | |
| 9A1FER-10 | 2026-08-31 00:55:21 | 45.78435 | 16.58269 | 278° | 9km/h | 26918m | 4.7m/s | -50.3°C | 3.6% | 0hPa | 2.5V | 00:00:00 | 01:49:38 | 00:00:00 | |
| OE5DRO-10 | 2026-08-31 00:55:20 | 45.78436 | 16.58271 | 244° | 9km/h | 26913m | 5.0m/s | -50.3°C | 3.6% | 0hPa | 2.5V | 00:00:00 | 00:00:00 | 00:00:00 | |
| OE5DXL-15 | 2026-08-31 00:55:19 | 45.78436 | 16.58272 | 218° | 9km/h | 26907m | 6.5m/s | -50.4°C | 3.6% | 0hPa | 2.5V | 00:00:00 | 00:00:00 | 00:00:00 | |
| OE8JPQ-2 | 2026-08-31 00:55:12 | 45.78454 | 16.58266 | 172° | 9km/h | 26867m | 4.9m/s | -50.3°C | 3.6% | 0hPa | 2.5V | 00:00:00 | 00:00:00 | 00:00:00 | |
| 9A1FER-3 | 2026-08-31 00:55:08 | 45.78464 | 16.58261 | 150° | 9km/h | 26845m | 4.5m/s | -50.4°C | 3.6% | 0hPa | 2.5V | 00:00:00 | 01:49:25 | 00:00:00 | |
| 9A1FER-10 | 2026-08-31 00:55:06 | 45.78467 | 16.58261 | 214° | 9km/h | 26833m | 5.7m/s | -50.4°C | 3.6% | 0hPa | 2.5V | 00:00:00 | 01:49:23 | 00:00:00 | |
| PG1ADW-2 | 2026-08-31 00:55:05 | 45.78468 | 16.58263 | 224° | 9km/h | 26828m | 4.9m/s | -50.4°C | 3.6% | 0hPa | 2.5V | 00:00:00 | 01:49:22 | 00:00:00 | |
| OE5DRO-10 | 2026-08-31 00:55:01 | 45.78467 | 16.58259 | 69° | 9km/h | 26804m | 5.6m/s | -50.4°C | 3.6% | 0hPa | 2.5V | 00:00:00 | 00:00:00 | 00:00:00 | |
| 9A1FER-3 | 2026-08-31 00:54:53 | 45.78473 | 16.58225 | 123° | 7km/h | 26757m | 6.2m/s | -50.7°C | 3.7% | 0hPa | 2.5V | 00:00:00 | 01:49:10 | 00:00:00 | |
| OE8JPQ-2 | 2026-08-31 00:54:52 | 45.78475 | 16.58222 | 130° | 11km/h | 26752m | 4.8m/s | -50.7°C | 3.7% | 0hPa | 2.5V | 00:00:00 | 01:49:09 | 00:00:00 | |
| 9A1FER-10 | 2026-08-31 00:54:51 | 45.78475 | 16.58220 | 111° | 9km/h | 26747m | 5.5m/s | -50.7°C | 3.7% | 0hPa | 2.5V | 00:00:00 | 01:49:08 | 00:00:00 | |
| OE5DXL-15 | 2026-08-31 00:54:49 | 45.78475 | 16.58216 | 52° | 15km/h | 26735m | 5.1m/s | -50.7°C | 3.7% | 0hPa | 2.5V | 00:00:00 | 00:00:00 | 00:00:00 | |
| PG1ADW-2 | 2026-08-31 00:54:45 | 45.78470 | 16.58208 | 45° | 15km/h | 26712m | 5.2m/s | -50.6°C | 3.6% | 0hPa | 2.5V | 00:00:00 | 00:00:00 | 00:00:00 | |
| OE5DRO-10 | 2026-08-31 00:54:42 | 45.78464 | 16.58201 | 34° | 16km/h | 26695m | 5.2m/s | -50.5°C | 3.6% | 0hPa | 2.5V | 00:00:00 | 00:00:00 | 00:00:00 | |
| 9A1FER-3 | 2026-08-31 00:54:38 | 45.78455 | 16.58201 | 351° | 18km/h | 26671m | 6.5m/s | -50.4°C | 3.5% | 0hPa | 2.6V | 00:00:00 | 01:48:55 | 08:30:00 | |
| 9A1FER-10 | 2026-08-31 00:54:36 | 45.78447 | 16.58202 | 2° | 20km/h | 26659m | 5.4m/s | -50.4°C | 3.5% | 0hPa | 2.5V | 00:00:00 | 01:48:53 | 00:00:00 | |
| OE8JPQ-2 | 2026-08-31 00:54:32 | 45.78433 | 16.58196 | 31° | 22km/h | 26636m | 6.8m/s | -50.6°C | 3.6% | 0hPa | 2.6V | 00:00:00 | 00:00:00 | 00:00:00 | |
| PG1ADW-2 | 2026-08-31 00:54:25 | 45.78400 | 16.58177 | 8° | 22km/h | 26596m | 5.5m/s | -50.7°C | 3.7% | 0hPa | 2.5V | 00:00:00 | 00:00:00 | 00:00:00 | |
| 9A1FER-3 | 2026-08-31 00:54:23 | 45.78388 | 16.58175 | 3° | 22km/h | 26585m | 6.4m/s | -50.7°C | 3.7% | 0hPa | 2.5V | 00:00:00 | 01:48:40 | 00:00:00 | |
| 9A1FER-10 | 2026-08-31 00:54:21 | 45.78377 | 16.58175 | 2° | 22km/h | 26573m | 5.2m/s | -50.7°C | 3.7% | 0hPa | 2.5V | 00:00:00 | 01:48:38 | 00:00:00 | |
| OE5DXL-15 | 2026-08-31 00:54:19 | 45.78364 | 16.58174 | 6° | 22km/h | 26561m | 6.0m/s | -50.8°C | 3.7% | 0hPa | 2.5V | 00:00:00 | 00:00:00 | 00:00:00 | |
| OE8JPQ-2 | 2026-08-31 00:54:12 | 45.78323 | 16.58180 | 345° | 20km/h | 26522m | 4.7m/s | -50.8°C | 3.7% | 0hPa | 2.5V | 00:00:00 | 00:00:00 | 00:00:00 | |
| 9A1FER-3 | 2026-08-31 00:54:09 | 45.78306 | 16.58192 | 320° | 20km/h | 26500m | 5.4m/s | -50.7°C | 3.7% | 0hPa | 2.5V | 00:00:00 | 01:48:25 | 00:00:00 | |
| 9A1FER-10 | 2026-08-31 00:54:06 | 45.78296 | 16.58201 | 337° | 20km/h | 26488m | 6.6m/s | -50.6°C | 3.6% | 0hPa | 2.5V | 00:00:00 | 01:48:23 | 00:00:00 | |
| PG1ADW-2 | 2026-08-31 00:54:05 | 45.78290 | 16.58204 | 343° | 20km/h | 26483m | 4.7m/s | -50.6°C | 3.6% | 0hPa | 2.5V | 00:00:00 | 00:00:00 | 00:00:00 | |
| OE5DRO-10 | 2026-08-31 00:54:04 | 45.78284 | 16.58207 | 343° | 20km/h | 26477m | 5.8m/s | -50.6°C | 3.6% | 0hPa | 2.5V | 00:00:00 | 00:00:00 | 00:00:00 | |
| OE3JTB-15 | 2026-08-31 00:53:58 | 45.78255 | 16.58223 | 323° | 15km/h | 26444m | 5.6m/s | -50.5°C | 3.5% | 0hPa | 2.5V | 00:00:00 | 01:48:15 | 00:00:00 | |
| 9A1FER-3 | 2026-08-31 00:53:53 | 45.78247 | 16.58247 | 314° | 22km/h | 26416m | 5.9m/s | -50.7°C | 3.6% | 0hPa | 2.5V | 00:00:00 | 01:48:10 | 00:00:00 | |
| OE8JPQ-2 | 2026-08-31 00:53:52 | 45.78242 | 16.58253 | 323° | 22km/h | 26410m | 5.3m/s | -50.8°C | 3.6% | 0hPa | 2.6V | 00:00:00 | 01:48:09 | 00:00:00 | |
| 9A1FER-10 | 2026-08-31 00:53:51 | 45.78237 | 16.58258 | 326° | 22km/h | 26405m | 5.6m/s | -50.8°C | 3.6% | 0hPa | 2.6V | 00:00:00 | 01:48:08 | 08:30:00 | |
| OE5DXL-15 | 2026-08-31 00:53:49 | 45.78227 | 16.58269 | 325° | 22km/h | 26393m | 5.4m/s | -50.9°C | 3.6% | 0hPa | 2.5V | 00:00:00 | 00:00:00 | 00:00:00 | |
| PG1ADW-2 | 2026-08-31 00:53:45 | 45.78210 | 16.58288 | 295° | 22km/h | 26371m | 7.0m/s | -51.0°C | 3.7% | 0hPa | 2.5V | 00:00:00 | 01:48:02 | 00:00:00 | |
| LZ4TU-5 | 2026-08-31 00:53:41 | 45.78211 | 16.58310 | 264° | 24km/h | 26354m | 4.8m/s | 0°C | 0% | 0hPa | 2.5V | 00:00:00 | 00:00:00 | 00:00:00 | |
| 9A1FER-3 | 2026-08-31 00:53:38 | 45.78206 | 16.58342 | 300° | 22km/h | 26331m | 6.1m/s | -51.1°C | 3.7% | 0hPa | 2.5V | 00:00:00 | 01:47:55 | 00:00:00 | |
| LZ4TU-5 | 2026-08-31 00:53:37 | 45.78206 | 16.58342 | 300° | 22km/h | 26331m | 6.1m/s | 0°C | 0% | 0hPa | 2.5V | 00:00:00 | 00:00:00 | 00:00:00 | |
| 9A1FER-10 | 2026-08-31 00:53:36 | 45.78201 | 16.58356 | 292° | 22km/h | 26319m | 5.7m/s | -51.2°C | 3.7% | 0hPa | 2.5V | 00:00:00 | 01:47:53 | 00:00:00 | |
| OE8JPQ-2 | 2026-08-31 00:53:31 | 45.78196 | 16.58395 | 252° | 22km/h | 26291m | 6.9m/s | -51.3°C | 3.8% | 0hPa | 2.5V | 00:00:00 | 00:00:00 | 00:00:00 | |
| OE5DRO-10 | 2026-08-31 00:53:27 | 45.78211 | 16.58434 | 253° | 20km/h | 26263m | 4.9m/s | -51.2°C | 3.8% | 0hPa | 2.6V | 00:00:00 | 00:00:00 | 00:00:00 | |
| PG1ADW-2 | 2026-08-31 00:53:25 | 45.78212 | 16.58441 | 254° | 20km/h | 26257m | 6.1m/s | -51.2°C | 3.7% | 0hPa | 2.6V | 00:00:00 | 00:00:00 | 00:00:00 | |
| 9A1FER-3 | 2026-08-31 00:53:23 | 45.78216 | 16.58455 | 251° | 20km/h | 26246m | 4.8m/s | -51.1°C | 3.7% | 0hPa | 2.6V | 00:00:00 | 01:47:40 | 00:00:00 | |
| 9A1FER-10 | 2026-08-31 00:53:21 | 45.78219 | 16.58470 | 265° | 20km/h | 26235m | 6.5m/s | -51.1°C | 3.7% | 0hPa | 2.6V | 00:00:00 | 01:47:38 | 00:00:00 | |
| OE5DXL-15 | 2026-08-31 00:53:19 | 45.78220 | 16.58484 | 256° | 15km/h | 26225m | 4.4m/s | -51.1°C | 3.6% | 0hPa | 2.6V | 00:00:00 | 00:00:00 | 08:30:00 | |
| OE8JPQ-2 | 2026-08-31 00:53:11 | 45.78252 | 16.58525 | 217° | 13km/h | 26179m | 5.7m/s | -51.4°C | 3.7% | 0hPa | 2.5V | 00:00:00 | 00:00:00 | 00:00:00 | |
| 9A1FER-3 | 2026-08-31 00:53:08 | 45.78262 | 16.58539 | 249° | 13km/h | 26163m | 6.6m/s | -51.5°C | 3.7% | 0hPa | 2.5V | 00:00:00 | 01:47:25 | 00:00:00 | |
| OE5DRO-10 | 2026-08-31 00:53:07 | 45.78263 | 16.58544 | 259° | 9km/h | 26157m | 4.6m/s | -51.6°C | 3.8% | 0hPa | 2.5V | 00:00:00 | 00:00:00 | 00:00:00 | |
| 9A1FER-10 | 2026-08-31 00:53:06 | 45.78263 | 16.58549 | 257° | 13km/h | 26152m | 5.2m/s | -51.6°C | 3.8% | 0hPa | 2.5V | 00:00:00 | 01:47:23 | 00:00:00 | |
| PG1ADW-2 | 2026-08-31 00:53:05 | 45.78264 | 16.58552 | 231° | 11km/h | 26146m | 6.0m/s | -51.7°C | 3.8% | 0hPa | 2.5V | 00:00:00 | 00:00:00 | 08:30:00 | |
| 9A1FER-3 | 2026-08-31 00:52:53 | 45.78299 | 16.58555 | 35° | 7km/h | 26078m | 5.5m/s | -51.6°C | 3.7% | 0hPa | 2.5V | 00:00:00 | 01:47:10 | 00:00:00 | |
| 9A1FER-10 | 2026-08-31 00:52:51 | 45.78297 | 16.58554 | 4° | 9km/h | 26067m | 6.7m/s | -51.7°C | 3.7% | 0hPa | 2.5V | 00:00:00 | 01:47:08 | 00:00:00 | |
| OE3JTB-15 | 2026-08-31 00:52:50 | 45.78297 | 16.58555 | 194° | 11km/h | 26056m | 5.3m/s | -51.7°C | 3.7% | 0hPa | 2.5V | 00:00:00 | 00:00:00 | 00:00:00 | |
| OE5DXL-15 | 2026-08-31 00:52:49 | 45.78297 | 16.58555 | 194° | 11km/h | 26056m | 5.3m/s | -51.7°C | 3.7% | 0hPa | 2.6V | 00:00:00 | 00:00:00 | 00:00:00 | |
| OE5DRO-10 | 2026-08-31 00:52:48 | 45.78298 | 16.58555 | 181° | 9km/h | 26050m | 6.7m/s | -51.7°C | 3.7% | 0hPa | 2.6V | 00:00:00 | 00:00:00 | 08:30:00 | |
| PG1ADW-2 | 2026-08-31 00:52:45 | 45.78309 | 16.58556 | 190° | 9km/h | 26034m | 6.1m/s | -51.8°C | 3.7% | 0hPa | 2.6V | 00:00:00 | 00:00:00 | 00:00:00 | |
| 9A1FER-3 | 2026-08-31 00:52:38 | 45.78303 | 16.58558 | 353° | 11km/h | 25994m | 5.7m/s | -51.9°C | 3.7% | 0hPa | 2.6V | 00:00:00 | 01:46:55 | 00:00:00 | |
| 9A1FER-10 | 2026-08-31 00:52:36 | 45.78297 | 16.58559 | 350° | 13km/h | 25983m | 6.2m/s | -52.1°C | 3.7% | 0hPa | 2.6V | 00:00:00 | 01:46:53 | 00:00:00 | |
| OE8JPQ-2 | 2026-08-31 00:52:31 | 45.78292 | 16.58564 | 339° | 18km/h | 25956m | 6.4m/s | -52.4°C | 3.7% | 0hPa | 2.6V | 00:00:00 | 00:00:00 | 08:30:00 | |
| OE5DRO-10 | 2026-08-31 00:52:29 | 45.78289 | 16.58564 | 346° | 20km/h | 25946m | 4.2m/s | -52.5°C | 3.8% | 0hPa | 2.6V | 00:00:00 | 00:00:00 | 00:00:00 | |
| PG1ADW-2 | 2026-08-31 00:52:25 | 45.78274 | 16.58575 | 331° | 22km/h | 25922m | 6.8m/s | -52.7°C | 3.9% | 0hPa | 2.6V | 00:00:00 | 01:46:42 | 00:00:00 | |
| 9A1FER-3 | 2026-08-31 00:52:23 | 45.78265 | 16.58582 | 332° | 22km/h | 25911m | 5.1m/s | -52.9°C | 3.9% | 0hPa | 2.6V | 00:00:00 | 01:46:40 | 08:30:00 | |
| 9A1FER-10 | 2026-08-31 00:52:21 | 45.78255 | 16.58589 | 336° | 24km/h | 25899m | 5.2m/s | -53.0°C | 4.0% | 0hPa | 2.5V | 00:00:00 | 01:46:38 | 00:00:00 | |
| OE5DXL-15 | 2026-08-31 00:52:19 | 45.78244 | 16.58595 | 347° | 22km/h | 25888m | 5.9m/s | -53.0°C | 4.0% | 0hPa | 2.5V | 00:00:00 | 00:00:00 | 00:00:00 | |
| OE8JPQ-2 | 2026-08-31 00:52:11 | 45.78204 | 16.58611 | 317° | 22km/h | 25845m | 5.1m/s | -53.1°C | 0% | 0hPa | 2.5V | 00:00:00 | 00:00:00 | 00:00:00 | |
| OE5DRO-10 | 2026-08-31 00:52:10 | 45.78200 | 16.58618 | 309° | 22km/h | 25839m | 7.2m/s | -53.2°C | 4.1% | 0hPa | 2.5V | 00:00:00 | 00:00:00 | 00:00:00 | |
| 9A1FER-3 | 2026-08-31 00:52:08 | 45.78192 | 16.58636 | 298° | 22km/h | 25827m | 5.4m/s | -53.3°C | 4.1% | 0hPa | 2.5V | 00:00:00 | 01:46:25 | 00:00:00 | |
| 9A1FER-10 | 2026-08-31 00:52:06 | 45.78186 | 16.58652 | 303° | 22km/h | 25815m | 4.9m/s | -53.3°C | 4.1% | 0hPa | 2.5V | 00:00:00 | 01:46:23 | 00:00:00 | |
| PG1ADW-2 | 2026-08-31 00:52:05 | 45.78183 | 16.58658 | 312° | 20km/h | 25810m | 4.8m/s | -53.3°C | 4.1% | 0hPa | 2.5V | 00:00:00 | 00:00:00 | 00:00:00 | |
| 9A1FER-3 | 2026-08-31 00:51:53 | 45.78147 | 16.58727 | 272° | 18km/h | 25744m | 5.0m/s | -53.0°C | 4.1% | 0hPa | 2.5V | 00:00:00 | 01:46:10 | 00:00:00 | |
| OE8JPQ-2 | 2026-08-31 00:51:51 | 45.78146 | 16.58743 | 279° | 18km/h | 25732m | 6.2m/s | 0°C | 0% | 0hPa | 2.5V | 00:00:00 | 01:46:08 | 00:00:00 | |
| OE5DXL-15 | 2026-08-31 00:51:49 | 45.78143 | 16.58757 | 290° | 18km/h | 25721m | 6.1m/s | -53.0°C | 4.0% | 0hPa | 2.5V | 00:00:00 | 00:00:00 | 00:00:00 | |
| PG1ADW-2 | 2026-08-31 00:51:45 | 45.78139 | 16.58773 | 296° | 18km/h | 25700m | 6.0m/s | -52.9°C | 4.0% | 0hPa | 2.5V | 00:00:00 | 00:00:00 | 00:00:00 | |
| 9A1FER-3 | 2026-08-31 00:51:38 | 45.78140 | 16.58823 | 262° | 18km/h | 25661m | 4.9m/s | -52.9°C | 4.0% | 0hPa | 2.5V | 00:00:00 | 01:45:55 | 00:00:00 | |
| 9A1FER-10 | 2026-08-31 00:51:36 | 45.78143 | 16.58839 | 252° | 18km/h | 25650m | 5.1m/s | -53.0°C | 4.0% | 0hPa | 2.5V | 00:00:00 | 01:45:53 | 08:30:00 | |
| OE5DRO-10 | 2026-08-31 00:51:32 | 45.78146 | 16.58861 | 284° | 15km/h | 25628m | 4.2m/s | -53.1°C | 4.0% | 0hPa | 2.5V | 00:00:00 | 00:00:00 | 00:00:00 | |
| OE8JPQ-2 | 2026-08-31 00:51:31 | 45.78145 | 16.58866 | 271° | 16km/h | 25624m | 4.8m/s | 0°C | 0% | 0hPa | 2.5V | 00:00:00 | 00:00:00 | 00:00:00 | |
| PG1ADW-2 | 2026-08-31 00:51:25 | 45.78159 | 16.58901 | 234° | 15km/h | 25591m | 6.0m/s | -53.1°C | 4.1% | 0hPa | 2.5V | 00:00:00 | 00:00:00 | 00:00:00 | |
| 9A1FER-3 | 2026-08-31 00:51:23 | 45.78167 | 16.58913 | 223° | 15km/h | 25580m | 4.4m/s | -53.1°C | 4.1% | 0hPa | 2.5V | 00:00:00 | 01:45:40 | 00:00:00 | |
| 9A1FER-10 | 2026-08-31 00:51:21 | 45.78174 | 16.58922 | 234° | 13km/h | 25569m | 6.2m/s | -53.0°C | 4.1% | 0hPa | 2.5V | 00:00:00 | 01:45:38 | 00:00:00 | |
| OE5DXL-15 | 2026-08-31 00:51:19 | 45.78176 | 16.58929 | 241° | 13km/h | 25558m | 5.4m/s | -52.9°C | 4.0% | 0hPa | 2.5V | 00:00:00 | 00:00:00 | 00:00:00 | |
| OE5DRO-10 | 2026-08-31 00:51:13 | 45.78191 | 16.58934 | 211° | 13km/h | 25526m | 5.5m/s | -52.8°C | 3.9% | 0hPa | 2.5V | 00:00:00 | 00:00:00 | 00:00:00 | |
| 9A1FER-3 | 2026-08-31 00:51:08 | 45.78211 | 16.58947 | 205° | 11km/h | 25498m | 5.2m/s | -52.8°C | 3.9% | 0hPa | 2.5V | 00:00:00 | 01:45:25 | 00:00:00 | |
| 9A1FER-10 | 2026-08-31 00:51:06 | 45.78215 | 16.58948 | 167° | 13km/h | 25486m | 6.1m/s | -52.8°C | 4.0% | 0hPa | 2.5V | 00:00:00 | 01:45:23 | 00:00:00 | |
| PG1ADW-2 | 2026-08-31 00:51:05 | 45.78217 | 16.58947 | 151° | 13km/h | 25481m | 4.8m/s | -52.8°C | 4.0% | 0hPa | 2.5V | 00:00:00 | 01:45:22 | 00:00:00 | |
| OE5DRO-10 | 2026-08-31 00:50:54 | 45.78248 | 16.58926 | 163° | 11km/h | 25421m | 5.5m/s | -53.1°C | 4.1% | 0hPa | 2.5V | 00:00:00 | 00:00:00 | 00:00:00 | |
| 9A1FER-3 | 2026-08-31 00:50:53 | 45.78251 | 16.58923 | 150° | 11km/h | 25415m | 6.1m/s | -53.1°C | 4.1% | 0hPa | 2.5V | 00:00:00 | 01:45:10 | 00:00:00 | |
| 9A1FER-10 | 2026-08-31 00:50:51 | 45.78256 | 16.58916 | 121° | 11km/h | 25404m | 5.8m/s | -53.1°C | 4.1% | 0hPa | 2.6V | 00:00:00 | 01:45:08 | 00:00:00 | |
| OE5DXL-15 | 2026-08-31 00:50:49 | 45.78257 | 16.58908 | 81° | 9km/h | 25392m | 4.9m/s | -53.0°C | 4.1% | 0hPa | 2.5V | 00:00:00 | 00:00:00 | 00:00:00 | |
| OE3JTB-15 | 2026-08-31 00:50:48 | 45.78256 | 16.58891 | 92° | 16km/h | 25375m | 4.6m/s | -53.0°C | 4.1% | 0hPa | 2.5V | 00:00:00 | 00:00:00 | 00:00:00 | |
| PG1ADW-2 | 2026-08-31 00:50:45 | 45.78256 | 16.58885 | 92° | 9km/h | 25370m | 5.1m/s | -53.0°C | 4.1% | 0hPa | 2.5V | 00:00:00 | 00:00:00 | 00:00:00 | |
| 9A1FER-3 | 2026-08-31 00:50:38 | 45.78264 | 16.58877 | 227° | 9km/h | 25331m | 6.4m/s | -52.9°C | 4.1% | 0hPa | 2.5V | 00:00:00 | 01:44:55 | 00:00:00 | |
| 9A1FER-10 | 2026-08-31 00:50:36 | 45.78264 | 16.58878 | 40° | 9km/h | 25321m | 5.4m/s | -52.8°C | 4.1% | 0hPa | 2.5V | 00:00:00 | 01:44:53 | 00:00:00 | |
| OE5DRO-10 | 2026-08-31 00:50:35 | 45.78263 | 16.58876 | 64° | 11km/h | 25315m | 6.3m/s | -52.8°C | 4.0% | 0hPa | 2.5V | 00:00:00 | 00:00:00 | 00:00:00 | |
| PG1ADW-2 | 2026-08-31 00:50:25 | 45.78242 | 16.58852 | 304° | 11km/h | 25256m | 6.9m/s | -52.6°C | 4.0% | 0hPa | 2.5V | 00:00:00 | 00:00:00 | 00:00:00 | |
| 9A1FER-3 | 2026-08-31 00:50:23 | 45.78240 | 16.58856 | 292° | 11km/h | 25246m | 6.2m/s | -52.6°C | 3.9% | 0hPa | 2.5V | 00:00:00 | 01:44:40 | 00:00:00 | |
| 9A1FER-10 | 2026-08-31 00:50:21 | 45.78239 | 16.58856 | 51° | 11km/h | 25234m | 4.9m/s | -52.7°C | 3.9% | 0hPa | 2.5V | 00:00:00 | 01:44:38 | 00:00:00 | |
| OE5DXL-15 | 2026-08-31 00:50:19 | 45.78236 | 16.58851 | 41° | 15km/h | 25222m | 5.5m/s | -52.7°C | 3.9% | 0hPa | 2.5V | 00:00:00 | 00:00:00 | 00:00:00 | |
| OE5DRO-10 | 2026-08-31 00:50:16 | 45.78228 | 16.58841 | 42° | 15km/h | 25205m | 4.3m/s | -52.7°C | 3.9% | 0hPa | 2.5V | 00:00:00 | 00:00:00 | 00:00:00 | |
| 9A1FER-3 | 2026-08-31 00:50:08 | 45.78212 | 16.58858 | 343° | 18km/h | 25161m | 6.6m/s | -52.9°C | 4.0% | 0hPa | 2.5V | 00:00:00 | 01:44:25 | 08:30:00 | |
| 9A1FER-10 | 2026-08-31 00:50:06 | 45.78206 | 16.58858 | 11° | 18km/h | 25149m | 5.8m/s | -52.9°C | 4.0% | 0hPa | 2.5V | 00:00:00 | 01:44:23 | 00:00:00 | |
| PG1ADW-2 | 2026-08-31 00:50:05 | 45.78203 | 16.58857 | 25° | 18km/h | 25143m | 6.7m/s | -52.9°C | 4.0% | 0hPa | 2.6V | 00:00:00 | 00:00:00 | 08:30:00 | |
| OE5DRO-10 | 2026-08-31 00:49:57 | 45.78171 | 16.58873 | 323° | 24km/h | 25098m | 6.4m/s | -52.8°C | 4.0% | 0hPa | 2.5V | 00:00:00 | 00:00:00 | 08:30:00 | |
| 9A1FER-3 | 2026-08-31 00:49:53 | 45.78152 | 16.58890 | 343° | 24km/h | 25075m | 6.0m/s | -52.9°C | 4.0% | 0hPa | 2.5V | 00:00:00 | 01:44:10 | 00:00:00 | |
| 9A1FER-10 | 2026-08-31 00:49:51 | 45.78146 | 16.58890 | 1° | 27km/h | 25066m | 4.6m/s | -53.0°C | 4.0% | 0hPa | 2.5V | 00:00:00 | 01:44:08 | 00:00:00 | |
| OE5DXL-15 | 2026-08-31 00:49:49 | 45.78139 | 16.58893 | 335° | 29km/h | 25054m | 5.8m/s | -53.0°C | 4.0% | 0hPa | 2.5V | 00:00:00 | 00:00:00 | 00:00:00 | |
| PG1ADW-2 | 2026-08-31 00:49:45 | 45.78119 | 16.58918 | 315° | 31km/h | 25032m | 4.7m/s | -53.1°C | 4.0% | 0hPa | 2.5V | 00:00:00 | 01:44:02 | 00:00:00 | |
| OE8JPQ-2 | 2026-08-31 00:49:42 | 45.78101 | 16.58937 | 332° | 29km/h | 25015m | 6.0m/s | 0°C | 0% | 0hPa | 2.5V | 00:00:00 | 01:43:59 | 00:00:00 | |
| 9A1FER-3 | 2026-08-31 00:49:38 | 45.78073 | 16.58956 | 336° | 29km/h | 24992m | 6.6m/s | -53.1°C | 4.0% | 0hPa | 2.5V | 00:00:00 | 01:43:55 | 00:00:00 | |
| 9A1FER-10 | 2026-08-31 00:49:36 | 45.78058 | 16.58966 | 332° | 29km/h | 24980m | 4.9m/s | -53.1°C | 4.1% | 0hPa | 2.5V | 00:00:00 | 01:43:53 | 00:00:00 | |
| PG1ADW-2 | 2026-08-31 00:49:25 | 45.77991 | 16.59036 | 329° | 24km/h | 24917m | 5.8m/s | -53.2°C | 4.1% | 0hPa | 2.5V | 00:00:00 | 00:00:00 | 00:00:00 | |
| 9A1FER-3 | 2026-08-31 00:49:23 | 45.77979 | 16.59045 | 338° | 24km/h | 24906m | 6.0m/s | -53.3°C | 4.0% | 0hPa | 2.5V | 00:00:00 | 01:43:40 | 00:00:00 | |
| OE8JPQ-2 | 2026-08-31 00:49:22 | 45.77973 | 16.59048 | 339° | 24km/h | 24900m | 6.3m/s | 0°C | 0% | 0hPa | 2.6V | 00:00:00 | 00:00:00 | 00:00:00 | |
| 9A1FER-10 | 2026-08-31 00:49:21 | 45.77969 | 16.59051 | 335° | 24km/h | 24894m | 4.8m/s | -53.3°C | 4.1% | 0hPa | 2.6V | 00:00:00 | 01:43:38 | 08:30:00 | |
| OE5DRO-10 | 2026-08-31 00:49:19 | 45.77958 | 16.59060 | 321° | 24km/h | 24883m | 5.8m/s | -53.3°C | 4.1% | 0hPa | 2.6V | 00:00:00 | 00:00:00 | 00:00:00 | |
| 9A1FER-3 | 2026-08-31 00:49:08 | 45.77912 | 16.59127 | 319° | 20km/h | 24821m | 6.5m/s | -53.6°C | 4.2% | 0hPa | 2.6V | 00:00:00 | 01:43:25 | 00:00:00 | |
| LZ4TU-5 | 2026-08-31 00:49:07 | 45.77912 | 16.59127 | 320° | 20km/h | 24821m | 6.5m/s | 0°C | 0% | 0hPa | 2.6V | 00:00:00 | 00:00:00 | 00:00:00 | |
| 9A1FER-10 | 2026-08-31 00:49:06 | 45.77904 | 16.59140 | 304° | 20km/h | 24810m | 5.3m/s | -53.5°C | 4.2% | 0hPa | 2.6V | 00:00:00 | 01:43:23 | 00:00:00 | |
| PG1ADW-2 | 2026-08-31 00:49:05 | 45.77901 | 16.59148 | 298° | 18km/h | 24804m | 6.1m/s | -53.5°C | 4.2% | 0hPa | 2.6V | 00:00:00 | 00:00:00 | 00:00:00 | |
| LZ4TU-5 | 2026-08-31 00:49:03 | 45.77898 | 16.59156 | 294° | 24km/h | 24798m | 5.7m/s | 0°C | 0% | 0hPa | 2.5V | 00:00:00 | 00:00:00 | 00:00:00 | |
| OE8JPQ-2 | 2026-08-31 00:49:02 | 45.77894 | 16.59170 | 297° | 15km/h | 24787m | 5.7m/s | 0°C | 0% | 0hPa | 2.5V | 00:00:00 | 00:00:00 | 00:00:00 | |
| OE5DRO-10 | 2026-08-31 00:49:00 | 45.77888 | 16.59185 | 297° | 16km/h | 24776m | 4.7m/s | -53.3°C | 4.1% | 0hPa | 2.5V | 00:00:00 | 00:00:00 | 00:00:00 | |
| 9A1FER-3 | 2026-08-31 00:48:53 | 45.77872 | 16.59221 | 307° | 15km/h | 24737m | 5.3m/s | -53.2°C | 4.1% | 0hPa | 2.5V | 00:00:00 | 01:43:10 | 00:00:00 | |
| 9A1FER-10 | 2026-08-31 00:48:51 | 45.77867 | 16.59232 | 297° | 15km/h | 24725m | 5.0m/s | -53.1°C | 4.1% | 0hPa | 2.5V | 00:00:00 | 01:43:08 | 00:00:00 | |
| OE5DXL-15 | 2026-08-31 00:48:49 | 45.77864 | 16.59243 | 292° | 13km/h | 24714m | 5.9m/s | -53.1°C | 4.1% | 0hPa | 2.5V | 00:00:00 | 01:43:06 | 08:30:00 | |
| PG1ADW-2 | 2026-08-31 00:48:45 | 45.77861 | 16.59265 | 269° | 13km/h | 24691m | 5.5m/s | -53.0°C | 4.0% | 0hPa | 2.5V | 00:00:00 | 00:00:00 | 00:00:00 | |
| OE5DRO-10 | 2026-08-31 00:48:41 | 45.77859 | 16.59281 | 270° | 15km/h | 24667m | 6.6m/s | -52.9°C | 4.0% | 0hPa | 2.5V | 00:00:00 | 00:00:00 | 00:00:00 | |
| OE8JPQ-2 | 2026-08-31 00:48:40 | 45.77860 | 16.59285 | 265° | 13km/h | 24662m | 4.8m/s | 0°C | 0% | 0hPa | 2.5V | 00:00:00 | 01:42:57 | 00:00:00 | |
| 9A1FER-3 | 2026-08-31 00:48:38 | 45.77859 | 16.59295 | 282° | 15km/h | 24651m | 6.1m/s | -52.9°C | 4.0% | 0hPa | 2.5V | 00:00:00 | 01:42:55 | 00:00:00 | |
| 9A1FER-10 | 2026-08-31 00:48:36 | 45.77857 | 16.59308 | 280° | 13km/h | 24639m | 6.8m/s | -52.9°C | 4.0% | 0hPa | 2.5V | 00:00:00 | 01:42:53 | 00:00:00 | |
| PG1ADW-2 | 2026-08-31 00:48:25 | 45.77864 | 16.59359 | 247° | 9km/h | 24578m | 5.2m/s | -53.2°C | 4.0% | 0hPa | 2.6V | 00:00:00 | 01:42:42 | 00:00:00 | |
| 9A1FER-3 | 2026-08-31 00:48:23 | 45.77867 | 16.59366 | 234° | 9km/h | 24566m | 6.3m/s | -53.2°C | 4.0% | 0hPa | 2.6V | 00:00:00 | 01:42:40 | 00:00:00 | |
| OE5DRO-10 | 2026-08-31 00:48:22 | 45.77868 | 16.59369 | 234° | 9km/h | 24560m | 4.9m/s | -53.2°C | 4.0% | 0hPa | 2.6V | 00:00:00 | 00:00:00 | 00:00:00 | |
| 9A1FER-10 | 2026-08-31 00:48:21 | 45.77869 | 16.59371 | 248° | 9km/h | 24555m | 6.1m/s | -53.2°C | 4.0% | 0hPa | 2.6V | 00:00:00 | 01:42:38 | 00:00:00 | |
| OE5DXL-15 | 2026-08-31 00:48:19 | 45.77869 | 16.59376 | 287° | 7km/h | 24543m | 4.5m/s | -53.2°C | 4.1% | 0hPa | 2.6V | 00:00:00 | 00:00:00 | 00:00:00 | |
| OE8JPQ-2 | 2026-08-31 00:48:17 | 45.77869 | 16.59382 | 249° | 7km/h | 24533m | 6.2m/s | 0°C | 0% | 0hPa | 2.6V | 00:00:00 | 00:00:00 | 08:30:00 | |
| 9A1FER-3 | 2026-08-31 00:48:08 | 45.77882 | 16.59411 | 237° | 7km/h | 24482m | 6.2m/s | -53.3°C | 4.1% | 0hPa | 2.6V | 00:00:00 | 01:42:25 | 00:00:00 | |
| 9A1FER-10 | 2026-08-31 00:48:06 | 45.77884 | 16.59416 | 258° | 7km/h | 24471m | 4.9m/s | -53.3°C | 4.1% | 0hPa | 2.6V | 00:00:00 | 01:42:23 | 00:00:00 | |
| PG1ADW-2 | 2026-08-31 00:48:05 | 45.77884 | 16.59418 | 243° | 5km/h | 24466m | 6.7m/s | -53.3°C | 4.1% | 0hPa | 2.6V | 00:00:00 | 00:00:00 | 00:00:00 | |
| OE8JPQ-2 | 2026-08-31 00:47:57 | 45.77891 | 16.59430 | 230° | 5km/h | 24421m | 4.8m/s | 0°C | 0% | 0hPa | 2.6V | 00:00:00 | 00:00:00 | 00:00:00 | |
| 9A1FER-3 | 2026-08-31 00:47:53 | 45.77894 | 16.59445 | 258° | 5km/h | 24398m | 6.5m/s | -53.1°C | 4.1% | 0hPa | 2.6V | 00:00:00 | 01:42:10 | 08:30:00 | |
| 9A1FER-10 | 2026-08-31 00:47:51 | 45.77895 | 16.59450 | 269° | 5km/h | 24387m | 5.7m/s | -53.0°C | 4.1% | 0hPa | 2.5V | 00:00:00 | 01:42:08 | 00:00:00 | |
| OE5DXL-15 | 2026-08-31 00:47:49 | 45.77894 | 16.59450 | 18° | 5km/h | 24376m | 4.3m/s | -53.0°C | 4.1% | 0hPa | 2.5V | 00:00:00 | 00:00:00 | 00:00:00 | |
| PG1ADW-2 | 2026-08-31 00:47:45 | 45.77895 | 16.59449 | 181° | 5km/h | 24354m | 5.3m/s | -52.9°C | 4.1% | 0hPa | 2.5V | 00:00:00 | 00:00:00 | 00:00:00 | |
| OE5DRO-10 | 2026-08-31 00:47:44 | 45.77896 | 16.59449 | 190° | 5km/h | 24348m | 6.4m/s | -52.9°C | 4.1% | 0hPa | 2.5V | 00:00:00 | 00:00:00 | 00:00:00 | |
| 9A1FER-3 | 2026-08-31 00:47:38 | 45.77899 | 16.59463 | 282° | 5km/h | 24316m | 6.2m/s | -53.0°C | 4.0% | 0hPa | 2.5V | 00:00:00 | 01:41:55 | 00:00:00 | |
| 9A1FER-10 | 2026-08-31 00:47:36 | 45.77897 | 16.59465 | 13° | 7km/h | 24305m | 5.4m/s | -53.0°C | 4.0% | 0hPa | 2.5V | 00:00:00 | 01:41:53 | 00:00:00 | |
| OE8JPQ-2 | 2026-08-31 00:47:34 | 45.77897 | 16.59464 | 138° | 7km/h | 24293m | 5.6m/s | 0°C | 0% | 0hPa | 2.5V | 00:00:00 | 01:41:51 | 00:00:00 | |
| PG1ADW-2 | 2026-08-31 00:47:25 | 45.77891 | 16.59464 | 334° | 13km/h | 24244m | 5.2m/s | -52.8°C | 3.9% | 0hPa | 2.5V | 00:00:00 | 00:00:00 | 00:00:00 | |
| 9A1FER-3 | 2026-08-31 00:47:23 | 45.77887 | 16.59467 | 336° | 13km/h | 24233m | 6.6m/s | -52.8°C | 4.0% | 0hPa | 2.5V | 00:00:00 | 01:41:40 | 00:00:00 | |
| OE5DXL-15 | 2026-08-31 00:47:19 | 45.77884 | 16.59462 | 55° | 11km/h | 24211m | 4.9m/s | -52.9°C | 4.0% | 0hPa | 2.5V | 00:00:00 | 00:00:00 | 00:00:00 | |
| 9A1FER-10 | 2026-08-31 00:47:15 | 45.77874 | 16.59456 | 342° | 15km/h | 24190m | 5.2m/s | -53.0°C | 4.0% | 0hPa | 2.5V | 00:00:00 | 01:41:32 | 00:00:00 | |
| OE8JPQ-2 | 2026-08-31 00:47:14 | 45.77870 | 16.59458 | 340° | 13km/h | 24183m | 6.4m/s | 0°C | 0% | 0hPa | 2.5V | 00:00:00 | 00:00:00 | 00:00:00 | |
| OE3JTB-15 | 2026-08-31 00:47:12 | 45.77861 | 16.59462 | 337° | 11km/h | 24172m | 5.3m/s | -53.1°C | 4.0% | 0hPa | 2.5V | 00:00:00 | 00:00:00 | 00:00:00 | |
| 9A1FER-3 | 2026-08-31 00:47:08 | 45.77847 | 16.59471 | 358° | 11km/h | 24151m | 6.2m/s | -53.1°C | 4.0% | 0hPa | 2.5V | 00:00:00 | 01:41:25 | 00:00:00 | |
| OE5DRO-10 | 2026-08-31 00:47:06 | 45.77840 | 16.59470 | 10° | 9km/h | 24142m | 4.1m/s | -53.1°C | 4.0% | 0hPa | 2.5V | 00:00:00 | 00:00:00 | 08:30:00 | |
| PG1ADW-2 | 2026-08-31 00:47:05 | 45.77837 | 16.59470 | 3° | 9km/h | 24136m | 6.5m/s | -53.1°C | 4.0% | 0hPa | 2.5V | 00:00:00 | 01:41:22 | 08:30:00 | |
| 9A1FER-10 | 2026-08-31 00:47:00 | 45.77824 | 16.59477 | 336° | 7km/h | 24109m | 4.9m/s | -53.4°C | 4.0% | 0hPa | 2.5V | 00:00:00 | 01:41:17 | 08:30:00 | |
| OE8JPQ-2 | 2026-08-31 00:46:54 | 45.77824 | 16.59494 | 264° | 11km/h | 24076m | 5.2m/s | 0°C | 0% | 0hPa | 2.5V | 00:00:00 | 00:00:00 | 00:00:00 | |
| 9A1FER-3 | 2026-08-31 00:46:53 | 45.77824 | 16.59496 | 268° | 11km/h | 24071m | 5.9m/s | -53.6°C | 4.0% | 0hPa | 2.5V | 00:00:00 | 01:41:10 | 00:00:00 | |
| OE5DXL-15 | 2026-08-31 00:46:49 | 45.77822 | 16.59506 | 339° | 13km/h | 24049m | 5.2m/s | -53.9°C | 4.1% | 0hPa | 2.5V | 00:00:00 | 00:00:00 | 00:00:00 | |
| OE5DRO-10 | 2026-08-31 00:46:47 | 45.77819 | 16.59507 | 341° | 15km/h | 24039m | 6.2m/s | -54.0°C | 4.1% | 0hPa | 2.5V | 00:00:00 | 00:00:00 | 00:00:00 | |
| 9A1FER-10 | 2026-08-31 00:46:45 | 45.77816 | 16.59511 | 300° | 15km/h | 24028m | 4.9m/s | -54.1°C | 4.1% | 0hPa | 2.5V | 00:00:00 | 01:41:02 | 00:00:00 | |
| OE3JTB-15 | 2026-08-31 00:46:43 | 45.77810 | 16.59521 | 328° | 15km/h | 24012m | 4.3m/s | -54.3°C | 4.2% | 0hPa | 2.5V | 00:00:00 | 00:00:00 | 00:00:00 | |
| 9A1FER-3 | 2026-08-31 00:46:38 | 45.77796 | 16.59536 | 318° | 15km/h | 23991m | 4.8m/s | -54.5°C | 4.2% | 0hPa | 2.5V | 00:00:00 | 01:40:55 | 00:00:00 | |
| OE8JPQ-2 | 2026-08-31 00:46:34 | 45.77784 | 16.59544 | 337° | 11km/h | 23969m | 6.5m/s | 0°C | 0% | 0hPa | 2.5V | 00:00:00 | 01:40:51 | 00:00:00 | |
| 9A1FER-10 | 2026-08-31 00:46:30 | 45.77769 | 16.59553 | 339° | 11km/h | 23946m | 4.1m/s | -54.6°C | 4.2% | 0hPa | 2.5V | 00:00:00 | 01:40:47 | 00:00:00 | |
| OE5DRO-10 | 2026-08-31 00:46:28 | 45.77762 | 16.59559 | 318° | 9km/h | 23936m | 6.0m/s | -54.7°C | 4.3% | 0hPa | 2.5V | 00:00:00 | 00:00:00 | 00:00:00 | |
| PG1ADW-2 | 2026-08-31 00:46:25 | 45.77754 | 16.59575 | 304° | 9km/h | 23920m | 5.5m/s | -54.8°C | 4.3% | 0hPa | 2.5V | 00:00:00 | 00:00:00 | 00:00:00 | |
| 9A1FER-3 | 2026-08-31 00:46:23 | 45.77751 | 16.59580 | 282° | 7km/h | 23910m | 5.1m/s | -54.8°C | 4.4% | 0hPa | 2.5V | 00:00:00 | 01:40:40 | 00:00:00 | |
| OE5DXL-15 | 2026-08-31 00:46:19 | 45.77755 | 16.59588 | 218° | 13km/h | 23888m | 6.1m/s | -55.0°C | 4.4% | 0hPa | 2.6V | 00:00:00 | 00:00:00 | 00:00:00 | |
| 9A1FER-10 | 2026-08-31 00:46:15 | 45.77758 | 16.59595 | 254° | 13km/h | 23867m | 4.6m/s | -55.1°C | 4.5% | 0hPa | 2.6V | 00:00:00 | 01:40:32 | 00:00:00 | |
| OE8JPQ-2 | 2026-08-31 00:46:14 | 45.77758 | 16.59598 | 262° | 13km/h | 23862m | 5.0m/s | 0°C | 0% | 0hPa | 2.6V | 00:00:00 | 00:00:00 | 00:00:00 | |
| OE5DRO-10 | 2026-08-31 00:46:09 | 45.77756 | 16.59613 | 260° | 15km/h | 23836m | 5.4m/s | -55.1°C | 4.5% | 0hPa | 2.6V | 00:00:00 | 00:00:00 | 00:00:00 | |
| LZ4TU-5 | 2026-08-31 00:46:08 | 45.77757 | 16.59618 | 249° | 15km/h | 23831m | 5.0m/s | 0°C | 0% | 0hPa | 2.5V | 00:00:00 | 00:00:00 | 00:00:00 | |
| PG1ADW-2 | 2026-08-31 00:46:05 | 45.77762 | 16.59630 | 230° | 16km/h | 23815m | 4.2m/s | -55.1°C | 4.5% | 0hPa | 2.5V | 00:00:00 | 00:00:00 | 00:00:00 | |
| LZ4TU-5 | 2026-08-31 00:46:02 | 45.77766 | 16.59637 | 236° | 16km/h | 23804m | 5.6m/s | 0°C | 0% | 0hPa | 2.5V | 00:00:00 | 00:00:00 | 00:00:00 | |
| 9A1FER-10 | 2026-08-31 00:46:00 | 45.77772 | 16.59653 | 253° | 16km/h | 23788m | 5.7m/s | -55.0°C | 4.4% | 0hPa | 2.5V | 00:00:00 | 01:40:17 | 00:00:00 | |
| LZ4TU-5 | 2026-08-31 00:45:58 | 45.77773 | 16.59658 | 260° | 13km/h | 23783m | 5.4m/s | 0°C | 0% | 0hPa | 2.5V | 00:00:00 | 00:00:00 | 00:00:00 | |
| OE8JPQ-2 | 2026-08-31 00:45:54 | 45.77782 | 16.59679 | 205° | 15km/h | 23756m | 4.7m/s | 0°C | 0% | 0hPa | 2.5V | 00:00:00 | 00:00:00 | 00:00:00 | |
| 9A1FER-3 | 2026-08-31 00:45:53 | 45.77785 | 16.59681 | 198° | 15km/h | 23751m | 4.3m/s | -54.8°C | 4.3% | 0hPa | 2.5V | 00:00:00 | 01:40:10 | 00:00:00 | |
| OE5DRO-10 | 2026-08-31 00:45:50 | 45.77800 | 16.59688 | 194° | 15km/h | 23734m | 5.5m/s | -54.8°C | 4.4% | 0hPa | 2.5V | 00:00:00 | 00:00:00 | 00:00:00 | |
| OE5DXL-15 | 2026-08-31 00:45:49 | 45.77806 | 16.59689 | 191° | 13km/h | 23729m | 5.7m/s | -54.8°C | 4.4% | 0hPa | 2.5V | 00:00:00 | 00:00:00 | 00:00:00 | |
| LZ4TU-5 | 2026-08-31 00:45:47 | 45.77811 | 16.59690 | 194° | 20km/h | 23723m | 5.1m/s | 0°C | 0% | 0hPa | 2.5V | 00:00:00 | 00:00:00 | 00:00:00 | |
| 9A1FER-10 | 2026-08-31 00:45:45 | 45.77823 | 16.59698 | 214° | 13km/h | 23708m | 4.7m/s | -54.8°C | 4.4% | 0hPa | 2.5V | 00:00:00 | 01:40:02 | 00:00:00 | |
| LZ4TU-5 | 2026-08-31 00:45:43 | 45.77825 | 16.59700 | 218° | 9km/h | 23702m | 6.4m/s | 0°C | 0% | 0hPa | 2.5V | 00:00:00 | 00:00:00 | 00:00:00 | |
| OE3JTB-15 | 2026-08-31 00:45:39 | 45.77835 | 16.59708 | 193° | 13km/h | 23675m | 5.6m/s | -54.7°C | 4.4% | 0hPa | 2.5V | 00:00:00 | 01:39:56 | 00:00:00 | |
| 9A1FER-3 | 2026-08-31 00:45:38 | 45.77839 | 16.59709 | 180° | 11km/h | 23670m | 5.7m/s | -54.7°C | 4.4% | 0hPa | 2.5V | 00:00:00 | 01:39:55 | 08:30:00 | |
| LZ4TU-5 | 2026-08-31 00:45:34 | 45.77853 | 16.59708 | 183° | 22km/h | 23653m | 4.6m/s | 0°C | 0% | 0hPa | 2.5V | 00:00:00 | 00:00:00 | 00:00:00 | |
| OE5DRO-10 | 2026-08-31 00:45:31 | 45.77868 | 16.59706 | 161° | 9km/h | 23632m | 5.9m/s | -54.7°C | 4.4% | 0hPa | 2.5V | 00:00:00 | 00:00:00 | 00:00:00 | |
| 9A1FER-10 | 2026-08-31 00:45:30 | 45.77869 | 16.59705 | 194° | 11km/h | 23626m | 5.7m/s | -54.7°C | 4.3% | 0hPa | 2.5V | 00:00:00 | 01:39:47 | 00:00:00 | |
| LZ4TU-5 | 2026-08-31 00:45:28 | 45.77869 | 16.59706 | 232° | 2km/h | 23621m | 4.4m/s | 0°C | 0% | 0hPa | 2.6V | 00:00:00 | 00:00:00 | 00:00:00 | |
| 9A1FER-3 | 2026-08-31 00:45:23 | 45.77879 | 16.59703 | 162° | 11km/h | 23589m | 6.1m/s | -54.7°C | 4.3% | 0hPa | 2.6V | 00:00:00 | 01:39:40 | 00:00:00 | |
| OE5DXL-15 | 2026-08-31 00:45:19 | 45.77896 | 16.59690 | 150° | 13km/h | 23567m | 4.7m/s | -54.8°C | 4.3% | 0hPa | 2.6V | 00:00:00 | 00:00:00 | 00:00:00 | |
| 9A1FER-10 | 2026-08-31 00:45:16 | 45.77899 | 16.59679 | 72° | 11km/h | 23545m | 6.1m/s | -54.8°C | 4.3% | 0hPa | 2.6V | 00:00:00 | 01:39:32 | 00:00:00 | |
| OE5DRO-10 | 2026-08-31 00:45:12 | 45.77898 | 16.59673 | 78° | 15km/h | 23530m | 6.2m/s | -54.9°C | 4.3% | 0hPa | 2.6V | 00:00:00 | 00:00:00 | 00:00:00 | |
| 9A1FER-3 | 2026-08-31 00:45:08 | 45.77901 | 16.59660 | 126° | 15km/h | 23507m | 4.6m/s | -55.2°C | 4.4% | 0hPa | 2.5V | 00:00:00 | 01:39:25 | 00:00:00 | |
| PG1ADW-2 | 2026-08-31 00:45:05 | 45.77904 | 16.59645 | 87° | 15km/h | 23491m | 4.6m/s | -55.4°C | 4.5% | 0hPa | 2.5V | 00:00:00 | 00:00:00 | 00:00:00 | |
| 9A1FER-10 | 2026-08-31 00:45:00 | 45.77897 | 16.59623 | 46° | 15km/h | 23464m | 4.8m/s | -55.5°C | 4.6% | 0hPa | 2.5V | 00:00:00 | 01:39:17 | 00:00:00 | |
| OE3JTB-15 | 2026-08-31 00:44:54 | 45.77882 | 16.59595 | 57° | 13km/h | 23433m | 4.3m/s | -55.4°C | 4.6% | 0hPa | 2.5V | 00:00:00 | 00:00:00 | 08:30:00 | |
| 9A1FER-3 | 2026-08-31 00:44:53 | 45.77880 | 16.59590 | 51° | 13km/h | 23428m | 6.4m/s | -55.4°C | 4.6% | 0hPa | 2.5V | 00:00:00 | 01:39:10 | 00:00:00 | |
| OE5DXL-15 | 2026-08-31 00:44:49 | 45.77869 | 16.59585 | 3° | 13km/h | 23405m | 5.1m/s | -55.2°C | 4.5% | 0hPa | 2.6V | 00:00:00 | 00:00:00 | 00:00:00 | |
| 9A1FER-10 | 2026-08-31 00:44:45 | 45.77852 | 16.59588 | 349° | 11km/h | 23384m | 4.7m/s | -55.2°C | 4.5% | 0hPa | 2.6V | 00:00:00 | 01:39:02 | 08:30:00 | |
| 9A1FER-3 | 2026-08-31 00:44:38 | 45.77831 | 16.59586 | 357° | 11km/h | 23347m | 5.5m/s | -55.1°C | 4.5% | 0hPa | 2.5V | 00:00:00 | 01:38:55 | 00:00:00 | |
| OE5DRO-10 | 2026-08-31 00:44:34 | 45.77821 | 16.59591 | 323° | 15km/h | 23326m | 5.0m/s | -55.0°C | 4.4% | 0hPa | 2.5V | 00:00:00 | 00:00:00 | 00:00:00 | |
| 9A1FER-10 | 2026-08-31 00:44:30 | 45.77814 | 16.59594 | 328° | 15km/h | 23304m | 6.3m/s | -55.0°C | 4.5% | 0hPa | 2.5V | 00:00:00 | 01:38:47 | 00:00:00 | |
| OE8JPQ-2 | 2026-08-31 00:44:25 | 45.77803 | 16.59609 | 314° | 18km/h | 23278m | 4.5m/s | 0°C | 0% | 0hPa | 2.5V | 00:00:00 | 01:38:42 | 00:00:00 | |
| OE3JTB-15 | 2026-08-31 00:44:24 | 45.77801 | 16.59613 | 306° | 27km/h | 23272m | 6.2m/s | -55.0°C | 4.5% | 0hPa | 2.5V | 00:00:00 | 00:00:00 | 00:00:00 | |
| 9A1FER-3 | 2026-08-31 00:44:23 | 45.77798 | 16.59619 | 304° | 18km/h | 23267m | 5.5m/s | -55.0°C | 4.5% | 0hPa | 2.5V | 00:00:00 | 01:38:40 | 00:00:00 | |
| 9A1FER-10 | 2026-08-31 00:44:15 | 45.77773 | 16.59656 | 316° | 29km/h | 23223m | 4.3m/s | -54.9°C | 4.4% | 0hPa | 2.5V | 00:00:00 | 01:38:32 | 00:00:00 | |
| 9A1FER-3 | 2026-08-31 00:44:08 | 45.77756 | 16.59702 | 293° | 27km/h | 23186m | 6.4m/s | -54.8°C | 4.4% | 0hPa | 2.5V | 00:00:00 | 01:38:25 | 00:00:00 | |
| PG1ADW-2 | 2026-08-31 00:44:05 | 45.77748 | 16.59730 | 299° | 29km/h | 23170m | 5.8m/s | -54.7°C | 4.3% | 0hPa | 2.6V | 00:00:00 | 00:00:00 | 08:30:00 | |
| OE8JPQ-2 | 2026-08-31 00:44:01 | 45.77737 | 16.59754 | 296° | 24km/h | 23148m | 5.9m/s | 0°C | 0% | 0hPa | 2.5V | 00:00:00 | 00:00:00 | 00:00:00 | |
| OE5DRO-10 | 2026-08-31 00:43:56 | 45.77724 | 16.59801 | 289° | 33km/h | 23120m | 6.4m/s | -55.0°C | 4.5% | 0hPa | 2.5V | 00:00:00 | 00:00:00 | 00:00:00 | |
| 9A1FER-3 | 2026-08-31 00:43:53 | 45.77715 | 16.59843 | 288° | 31km/h | 23103m | 4.9m/s | -54.9°C | 4.5% | 0hPa | 2.5V | 00:00:00 | 01:38:10 | 00:00:00 | |
| OE3JTB-15 | 2026-08-31 00:43:50 | 45.77710 | 16.59879 | 274° | 29km/h | 23087m | 5.6m/s | -54.9°C | 4.5% | 0hPa | 2.5V | 00:00:00 | 01:38:07 | 00:00:00 | |
| OE5DXL-15 | 2026-08-31 00:43:49 | 45.77709 | 16.59890 | 270° | 29km/h | 23082m | 4.6m/s | -54.9°C | 4.5% | 0hPa | 2.5V | 00:00:00 | 00:00:00 | 00:00:00 | |
| PG1ADW-2 | 2026-08-31 00:43:45 | 45.77707 | 16.59928 | 281° | 31km/h | 23061m | 5.5m/s | -54.8°C | 4.5% | 0hPa | 2.5V | 00:00:00 | 00:00:00 | 00:00:00 | |
| 9A1FER-3 | 2026-08-31 00:43:38 | 45.77689 | 16.60009 | 284° | 29km/h | 23022m | 4.4m/s | -54.7°C | 4.4% | 0hPa | 2.5V | 00:00:00 | 01:37:55 | 00:00:00 | |
| OE5DRO-10 | 2026-08-31 00:43:37 | 45.77687 | 16.60021 | 284° | 27km/h | 23016m | 6.5m/s | -54.7°C | 4.4% | 0hPa | 2.5V | 00:00:00 | 00:00:00 | 00:00:00 | |
| 9A1FER-10 | 2026-08-31 00:43:35 | 45.77684 | 16.60040 | 280° | 18km/h | 23005m | 5.6m/s | -54.6°C | 4.5% | 0hPa | 2.5V | 00:00:00 | 01:37:52 | 00:00:00 | |
| LZ4TU-5 | 2026-08-31 00:43:26 | 45.77673 | 16.60117 | 280° | 31km/h | 22962m | 4.9m/s | 0°C | 0% | 0hPa | 2.5V | 00:00:00 | 00:00:00 | 00:00:00 | |
| PG1ADW-2 | 2026-08-31 00:43:25 | 45.77671 | 16.60139 | 278° | 24km/h | 22952m | 6.2m/s | -54.4°C | 4.4% | 0hPa | 2.5V | 00:00:00 | 00:00:00 | 00:00:00 | |
| 9A1FER-3 | 2026-08-31 00:43:23 | 45.77670 | 16.60159 | 274° | 24km/h | 22941m | 4.9m/s | -54.3°C | 4.4% | 0hPa | 2.5V | 00:00:00 | 01:37:40 | 08:30:00 | |
| LZ4TU-5 | 2026-08-31 00:43:21 | 45.77669 | 16.60168 | 270° | 27km/h | 22936m | 6.1m/s | 0°C | 0% | 0hPa | 2.5V | 00:00:00 | 00:00:00 | 00:00:00 | |
| OE5DXL-15 | 2026-08-31 00:43:19 | 45.77670 | 16.60194 | 280° | 18km/h | 22920m | 5.8m/s | -54.3°C | 4.3% | 0hPa | 2.5V | 00:00:00 | 00:00:00 | 00:00:00 | |
| OE5DRO-10 | 2026-08-31 00:43:18 | 45.77669 | 16.60201 | 288° | 18km/h | 22915m | 5.0m/s | -54.3°C | 4.4% | 0hPa | 2.5V | 00:00:00 | 00:00:00 | 00:00:00 | |
| OE3JTB-15 | 2026-08-31 00:43:17 | 45.77667 | 16.60209 | 288° | 18km/h | 22909m | 6.4m/s | -54.3°C | 4.3% | 0hPa | 2.5V | 00:00:00 | 00:00:00 | 00:00:00 | |
| LZ4TU-5 | 2026-08-31 00:43:16 | 45.77667 | 16.60209 | 288° | 24km/h | 22909m | 6.5m/s | 0°C | 0% | 0hPa | 2.5V | 00:00:00 | 00:00:00 | 00:00:00 | |
| LZ4TU-5 | 2026-08-31 00:43:12 | 45.77660 | 16.60242 | 293° | 22km/h | 22887m | 5.1m/s | 0°C | 0% | 0hPa | 2.5V | 00:00:00 | 00:00:00 | 00:00:00 | |
| 9A1FER-3 | 2026-08-31 00:43:08 | 45.77655 | 16.60280 | 276° | 15km/h | 22860m | 6.3m/s | -54.1°C | 4.3% | 0hPa | 2.5V | 00:00:00 | 01:37:25 | 00:00:00 | |
| LZ4TU-5 | 2026-08-31 00:43:07 | 45.77655 | 16.60280 | 277° | 20km/h | 22860m | 6.4m/s | 0°C | 0% | 0hPa | 2.5V | 00:00:00 | 00:00:00 | 00:00:00 | |
| PG1ADW-2 | 2026-08-31 00:43:05 | 45.77653 | 16.60299 | 276° | 15km/h | 22844m | 6.0m/s | -54.1°C | 4.3% | 0hPa | 2.5V | 00:00:00 | 01:37:22 | 00:00:00 | |
| LZ4TU-5 | 2026-08-31 00:43:03 | 45.77653 | 16.60306 | 277° | 16km/h | 22838m | 4.7m/s | 0°C | 0% | 0hPa | 2.5V | 00:00:00 | 00:00:00 | 00:00:00 | |
| OE5DRO-10 | 2026-08-31 00:42:59 | 45.77651 | 16.60327 | 262° | 13km/h | 22810m | 5.4m/s | -54.0°C | 4.3% | 0hPa | 2.5V | 00:00:00 | 00:00:00 | 00:00:00 | |
| LZ4TU-5 | 2026-08-31 00:42:58 | 45.77651 | 16.60327 | 262° | 13km/h | 22810m | 5.4m/s | 0°C | 0% | 0hPa | 2.5V | 00:00:00 | 00:00:00 | 00:00:00 | |
| 9A1FER-10 | 2026-08-31 00:42:54 | 45.77653 | 16.60353 | 272° | 11km/h | 22784m | 5.1m/s | -54.0°C | 4.3% | 0hPa | 2.5V | 00:00:00 | 01:37:11 | 00:00:00 | |
| 9A1FER-3 | 2026-08-31 00:42:53 | 45.77652 | 16.60360 | 280° | 13km/h | 22780m | 4.9m/s | -54.0°C | 4.3% | 0hPa | 2.5V | 00:00:00 | 01:37:10 | 00:00:00 | |
| LZ4TU-5 | 2026-08-31 00:42:52 | 45.77652 | 16.60360 | 281° | 20km/h | 22780m | 5.0m/s | 0°C | 0% | 0hPa | 2.5V | 00:00:00 | 00:00:00 | 00:00:00 | |
| OE5DXL-15 | 2026-08-31 00:42:49 | 45.77646 | 16.60383 | 280° | 13km/h | 22758m | 5.5m/s | -54.0°C | 4.3% | 0hPa | 2.5V | 00:00:00 | 00:00:00 | 00:00:00 | |
| OE3JTB-15 | 2026-08-31 00:42:48 | 45.77646 | 16.60386 | 259° | 13km/h | 22752m | 4.6m/s | -54.0°C | 4.3% | 0hPa | 2.5V | 00:00:00 | 00:00:00 | 00:00:00 | |
| PG1ADW-2 | 2026-08-31 00:42:45 | 45.77649 | 16.60394 | 221° | 15km/h | 22736m | 5.1m/s | -53.9°C | 4.3% | 0hPa | 2.5V | 00:00:00 | 00:00:00 | 00:00:00 | |
| LZ4TU-5 | 2026-08-31 00:42:43 | 45.77651 | 16.60396 | 224° | 13km/h | 22730m | 6.0m/s | 0°C | 0% | 0hPa | 2.5V | 00:00:00 | 00:00:00 | 00:00:00 | |
| OE5DRO-10 | 2026-08-31 00:42:40 | 45.77656 | 16.60411 | 265° | 15km/h | 22709m | 4.2m/s | -53.8°C | 4.3% | 0hPa | 2.5V | 00:00:00 | 00:00:00 | 00:00:00 | |
| 9A1FER-3 | 2026-08-31 00:42:38 | 45.77657 | 16.60419 | 246° | 16km/h | 22698m | 5.6m/s | -53.8°C | 4.3% | 0hPa | 2.5V | 00:00:00 | 01:36:55 | 00:00:00 | |
| 9A1FER-10 | 2026-08-31 00:42:37 | 45.77659 | 16.60424 | 237° | 16km/h | 22692m | 5.5m/s | -53.7°C | 4.2% | 0hPa | 2.6V | 00:00:00 | 01:36:54 | 00:00:00 | |
| PG1ADW-2 | 2026-08-31 00:42:25 | 45.77694 | 16.60477 | 251° | 11km/h | 22625m | 6.6m/s | -53.4°C | 4.1% | 0hPa | 2.5V | 00:00:00 | 00:00:00 | 00:00:00 | |
| LZ4TU-5 | 2026-08-31 00:42:24 | 45.77694 | 16.60477 | 251° | 9km/h | 22625m | 6.6m/s | 0°C | 0% | 0hPa | 2.5V | 00:00:00 | 00:00:00 | 00:00:00 | |
| 9A1FER-3 | 2026-08-31 00:42:23 | 45.77697 | 16.60481 | 201° | 11km/h | 22614m | 4.4m/s | -53.4°C | 4.1% | 0hPa | 2.5V | 00:00:00 | 01:36:40 | 00:00:00 | |
| 9A1FER-10 | 2026-08-31 00:42:22 | 45.77699 | 16.60482 | 207° | 11km/h | 22609m | 5.3m/s | -53.4°C | 4.1% | 0hPa | 2.5V | 00:00:00 | 01:36:39 | 00:00:00 | |
| OE5DRO-10 | 2026-08-31 00:42:21 | 45.77702 | 16.60485 | 218° | 13km/h | 22604m | 5.7m/s | -53.3°C | 4.1% | 0hPa | 2.5V | 00:00:00 | 00:00:00 | 00:00:00 | |
| OE5DXL-15 | 2026-08-31 00:42:19 | 45.77708 | 16.60492 | 221° | 11km/h | 22593m | 5.4m/s | -53.3°C | 4.0% | 0hPa | 2.6V | 00:00:00 | 00:00:00 | 00:00:00 | |
| LZ4TU-5 | 2026-08-31 00:42:18 | 45.77708 | 16.60492 | 222° | 16km/h | 22593m | 5.5m/s | 0°C | 0% | 0hPa | 2.6V | 00:00:00 | 00:00:00 | 00:00:00 | |
| 9A1FER-3 | 2026-08-31 00:42:08 | 45.77730 | 16.60518 | 214° | 13km/h | 22533m | 5.5m/s | -53.5°C | 4.0% | 0hPa | 2.6V | 00:00:00 | 01:36:25 | 00:00:00 | |
| 9A1FER-10 | 2026-08-31 00:42:07 | 45.77732 | 16.60519 | 205° | 13km/h | 22527m | 5.6m/s | -53.5°C | 4.1% | 0hPa | 2.6V | 00:00:00 | 01:36:24 | 00:00:00 | |
| PG1ADW-2 | 2026-08-31 00:42:05 | 45.77738 | 16.60524 | 216° | 9km/h | 22517m | 6.3m/s | -53.6°C | 4.0% | 0hPa | 2.6V | 00:00:00 | 00:00:00 | 00:00:00 | |
| OE5DRO-10 | 2026-08-31 00:42:02 | 45.77750 | 16.60537 | 209° | 7km/h | 22501m | 5.8m/s | -53.8°C | 4.1% | 0hPa | 2.6V | 00:00:00 | 00:00:00 | 00:00:00 | |
| 9A1FER-3 | 2026-08-31 00:41:53 | 45.77774 | 16.60548 | 208° | 4km/h | 22452m | 5.7m/s | -54.1°C | 4.2% | 0hPa | 2.6V | 00:00:00 | 01:36:10 | 00:00:00 | |
| 9A1FER-10 | 2026-08-31 00:41:52 | 45.77774 | 16.60549 | 253° | 4km/h | 22447m | 3.2m/s | -54.1°C | 4.3% | 0hPa | 2.5V | 00:00:00 | 01:36:09 | 08:30:00 | |
| OE5DXL-15 | 2026-08-31 00:41:50 | 45.77775 | 16.60553 | 276° | 7km/h | 22432m | 4.6m/s | -54.1°C | 4.3% | 0hPa | 2.5V | 00:00:00 | 00:00:00 | 00:00:00 | |
| PG1ADW-2 | 2026-08-31 00:41:45 | 45.77775 | 16.60558 | 206° | 7km/h | 22410m | 4.7m/s | -54.2°C | 4.3% | 0hPa | 2.5V | 00:00:00 | 01:36:02 | 00:00:00 | |
| OE5DRO-10 | 2026-08-31 00:41:43 | 45.77776 | 16.60560 | 248° | 7km/h | 22399m | 6.1m/s | -54.1°C | 4.3% | 0hPa | 2.5V | 00:00:00 | 00:00:00 | 00:00:00 | |
| 9A1FER-3 | 2026-08-31 00:41:38 | 45.77777 | 16.60565 | 313° | 9km/h | 22372m | 5.9m/s | -54.1°C | 4.3% | 0hPa | 2.5V | 00:00:00 | 01:35:55 | 00:00:00 | |
| 9A1FER-10 | 2026-08-31 00:41:37 | 45.77776 | 16.60566 | 319° | 13km/h | 22367m | 5.6m/s | -54.1°C | 4.2% | 0hPa | 2.5V | 00:00:00 | 01:35:54 | 00:00:00 | |
| PG1ADW-2 | 2026-08-31 00:41:25 | 45.77786 | 16.60600 | 262° | 13km/h | 22303m | 4.8m/s | -54.1°C | 4.2% | 0hPa | 2.5V | 00:00:00 | 00:00:00 | 00:00:00 | |
| OE5DRO-10 | 2026-08-31 00:41:24 | 45.77786 | 16.60603 | 274° | 13km/h | 22297m | 5.7m/s | -54.1°C | 4.2% | 0hPa | 2.5V | 00:00:00 | 00:00:00 | 08:30:00 | |
| OE5DXL-15 | 2026-08-31 00:41:19 | 45.77784 | 16.60614 | 276° | 15km/h | 22272m | 4.8m/s | -54.5°C | 4.3% | 0hPa | 2.5V | 00:00:00 | 00:00:00 | 00:00:00 | |
| 9A1FER-3 | 2026-08-31 00:41:08 | 45.77801 | 16.60665 | 247° | 16km/h | 22214m | 3.9m/s | -54.5°C | 4.4% | 0hPa | 2.5V | 00:00:00 | 01:35:25 | 08:30:00 | |
| OE5DRO-10 | 2026-08-31 00:41:05 | 45.77808 | 16.60680 | 229° | 15km/h | 22199m | 4.0m/s | -54.5°C | 4.4% | 0hPa | 2.6V | 00:00:00 | 00:00:00 | 00:00:00 | |
| 9A1FER-10 | 2026-08-31 00:41:01 | 45.77817 | 16.60701 | 236° | 15km/h | 22178m | 5.4m/s | -54.4°C | 4.3% | 0hPa | 2.6V | 00:00:00 | 01:35:18 | 00:00:00 | |
| 9A1FER-3 | 2026-08-31 00:40:53 | 45.77842 | 16.60724 | 196° | 11km/h | 22137m | 4.9m/s | -54.4°C | 4.3% | 0hPa | 2.6V | 00:00:00 | 01:35:10 | 00:00:00 | |
| OE3JTB-15 | 2026-08-31 00:40:51 | 45.77853 | 16.60735 | 211° | 13km/h | 22117m | 5.7m/s | -54.3°C | 4.4% | 0hPa | 2.6V | 00:00:00 | 01:35:06 | 00:00:00 | |
| OE5DXL-15 | 2026-08-31 00:40:49 | 45.77853 | 16.60735 | 211° | 7km/h | 22117m | 5.7m/s | -54.3°C | 4.4% | 0hPa | 2.6V | 00:00:00 | 00:00:00 | 00:00:00 | |
| 9A1FER-10 | 2026-08-31 00:40:46 | 45.77862 | 16.60739 | 195° | 7km/h | 22102m | 5.3m/s | -54.3°C | 4.3% | 0hPa | 2.6V | 00:00:00 | 01:35:03 | 00:00:00 | |
| PG1ADW-2 | 2026-08-31 00:40:45 | 45.77864 | 16.60740 | 211° | 5km/h | 22096m | 5.2m/s | -54.3°C | 4.3% | 0hPa | 2.5V | 00:00:00 | 00:00:00 | 00:00:00 | |
| 9A1FER-3 | 2026-08-31 00:40:38 | 45.77878 | 16.60749 | 218° | 4km/h | 22061m | 5.5m/s | -54.4°C | 4.3% | 0hPa | 2.5V | 00:00:00 | 01:34:55 | 00:00:00 | |
| 9A1FER-10 | 2026-08-31 00:40:31 | 45.77878 | 16.60757 | 44° | 7km/h | 22023m | 4.8m/s | -54.4°C | 4.3% | 0hPa | 2.5V | 00:00:00 | 01:34:48 | 00:00:00 | |
| OE5DRO-10 | 2026-08-31 00:40:27 | 45.77877 | 16.60757 | 313° | 9km/h | 22003m | 4.5m/s | -54.4°C | 4.2% | 0hPa | 2.5V | 00:00:00 | 00:00:00 | 00:00:00 | |
| PG1ADW-2 | 2026-08-31 00:40:25 | 45.77877 | 16.60757 | 346° | 11km/h | 21993m | 4.6m/s | -54.4°C | 4.3% | 0hPa | 2.6V | 00:00:00 | 01:34:42 | 00:00:00 | |
| 9A1FER-3 | 2026-08-31 00:40:23 | 45.77875 | 16.60760 | 305° | 11km/h | 21982m | 6.3m/s | -54.4°C | 4.2% | 0hPa | 2.6V | 00:00:00 | 01:34:40 | 00:00:00 | |
| OE5DXL-15 | 2026-08-31 00:40:19 | 45.77868 | 16.60774 | 313° | 9km/h | 21961m | 4.8m/s | -54.4°C | 4.2% | 0hPa | 2.5V | 00:00:00 | 00:00:00 | 00:00:00 | |
| 9A1FER-10 | 2026-08-31 00:40:16 | 45.77861 | 16.60784 | 321° | 7km/h | 21945m | 5.0m/s | -54.5°C | 4.2% | 0hPa | 2.5V | 00:00:00 | 01:34:33 | 00:00:00 | |
| 9A1FER-3 | 2026-08-31 00:40:08 | 45.77846 | 16.60803 | 322° | 9km/h | 21903m | 4.7m/s | -54.7°C | 4.3% | 0hPa | 2.5V | 00:00:00 | 01:34:25 | 00:00:00 | |
| PG1ADW-2 | 2026-08-31 00:40:05 | 45.77841 | 16.60810 | 329° | 9km/h | 21888m | 5.2m/s | -54.8°C | 4.3% | 0hPa | 2.5V | 00:00:00 | 00:00:00 | 00:00:00 | |
| 9A1FER-10 | 2026-08-31 00:40:01 | 45.77840 | 16.60812 | 255° | 9km/h | 21868m | 4.6m/s | -55.0°C | 4.4% | 0hPa | 2.6V | 00:00:00 | 01:34:18 | 00:00:00 | |
| 9A1FER-3 | 2026-08-31 00:39:53 | 45.77844 | 16.60847 | 266° | 11km/h | 21828m | 5.3m/s | -55.1°C | 4.4% | 0hPa | 2.6V | 00:00:00 | 01:34:10 | 00:00:00 | |
| OE5DRO-10 | 2026-08-31 00:39:49 | 45.77847 | 16.60853 | 226° | 11km/h | 21807m | 4.6m/s | -55.2°C | 4.5% | 0hPa | 2.6V | 00:00:00 | 00:00:00 | 00:00:00 | |
| 9A1FER-10 | 2026-08-31 00:39:46 | 45.77854 | 16.60858 | 210° | 11km/h | 21793m | 3.4m/s | -55.2°C | 4.5% | 0hPa | 2.6V | 00:00:00 | 01:34:03 | 00:00:00 | |
| PG1ADW-2 | 2026-08-31 00:39:45 | 45.77857 | 16.60862 | 217° | 9km/h | 21788m | 5.8m/s | -55.2°C | 4.5% | 0hPa | 2.6V | 00:00:00 | 00:00:00 | 00:00:00 | |
| 9A1FER-3 | 2026-08-31 00:39:38 | 45.77876 | 16.60876 | 155° | 9km/h | 21752m | 4.5m/s | -55.3°C | 4.6% | 0hPa | 2.6V | 00:00:00 | 01:33:55 | 00:00:00 | |
| 9A1FER-10 | 2026-08-31 00:39:31 | 45.77889 | 16.60865 | 168° | 7km/h | 21717m | 5.2m/s | -55.1°C | 4.5% | 0hPa | 2.6V | 00:00:00 | 01:33:48 | 00:00:00 | |
| OE5DRO-10 | 2026-08-31 00:39:30 | 45.77890 | 16.60865 | 158° | 9km/h | 21712m | 4.4m/s | -55.1°C | 4.5% | 0hPa | 2.6V | 00:00:00 | 00:00:00 | 00:00:00 | |
| PG1ADW-2 | 2026-08-31 00:39:25 | 45.77893 | 16.60853 | 110° | 9km/h | 21686m | 5.0m/s | -55.1°C | 4.5% | 0hPa | 2.6V | 00:00:00 | 00:00:00 | 00:00:00 | |
| 9A1FER-3 | 2026-08-31 00:39:23 | 45.77895 | 16.60842 | 106° | 9km/h | 21676m | 6.0m/s | -55.0°C | 4.4% | 0hPa | 2.6V | 00:00:00 | 01:33:40 | 00:00:00 | |
| OE5DXL-15 | 2026-08-31 00:39:19 | 45.77899 | 16.60829 | 132° | 15km/h | 21655m | 5.1m/s | -55.0°C | 4.4% | 0hPa | 2.6V | 00:00:00 | 00:00:00 | 00:00:00 | |
| 9A1FER-10 | 2026-08-31 00:39:16 | 45.77897 | 16.60828 | 31° | 11km/h | 21639m | 6.4m/s | -55.0°C | 4.4% | 0hPa | 2.6V | 00:00:00 | 01:33:33 | 08:30:00 | |
| OE5DRO-10 | 2026-08-31 00:39:11 | 45.77893 | 16.60814 | 89° | 16km/h | 21614m | 6.4m/s | -55.0°C | 4.4% | 0hPa | 2.6V | 00:00:00 | 00:00:00 | 00:00:00 | |
| 9A1FER-3 | 2026-08-31 00:39:08 | 45.77893 | 16.60803 | 83° | 16km/h | 21598m | 4.4m/s | -55.0°C | 4.4% | 0hPa | 2.6V | 00:00:00 | 01:33:25 | 00:00:00 | |
| PG1ADW-2 | 2026-08-31 00:39:05 | 45.77892 | 16.60791 | 78° | 20km/h | 21583m | 4.5m/s | -55.0°C | 4.5% | 0hPa | 2.6V | 00:00:00 | 01:33:22 | 00:00:00 | |
| 9A1FER-10 | 2026-08-31 00:39:01 | 45.77883 | 16.60770 | 57° | 20km/h | 21562m | 6.3m/s | -54.9°C | 4.5% | 0hPa | 2.7V | 00:00:00 | 01:33:18 | 00:00:00 | |
| OE3JTB-15 | 2026-08-31 00:39:00 | 45.77875 | 16.60750 | 62° | 20km/h | 21546m | 5.8m/s | -54.8°C | 4.4% | 0hPa | 2.7V | 00:00:00 | 01:33:15 | 00:00:00 | |
| OE5DRO-10 | 2026-08-31 00:38:52 | 45.77865 | 16.60716 | 57° | 22km/h | 21517m | 4.7m/s | -54.7°C | 4.4% | 0hPa | 2.7V | 00:00:00 | 00:00:00 | 00:00:00 | |
| OE5DXL-15 | 2026-08-31 00:38:49 | 45.77855 | 16.60694 | 59° | 22km/h | 21503m | 5.3m/s | -54.7°C | 4.4% | 0hPa | 2.7V | 00:00:00 | 00:00:00 | 00:00:00 | |
| 9A1FER-10 | 2026-08-31 00:38:47 | 45.77846 | 16.60674 | 50° | 22km/h | 21488m | 5.3m/s | -54.7°C | 4.3% | 0hPa | 2.7V | 00:00:00 | 01:33:03 | 00:00:00 | |
| PG1ADW-2 | 2026-08-31 00:38:45 | 45.77843 | 16.60670 | 39° | 22km/h | 21483m | 4.8m/s | -54.7°C | 4.3% | 0hPa | 2.7V | 00:00:00 | 00:00:00 | 00:00:00 | |
| 9A1FER-3 | 2026-08-31 00:38:38 | 45.77819 | 16.60643 | 44° | 24km/h | 21448m | 5.6m/s | -54.7°C | 4.3% | 0hPa | 2.7V | 00:00:00 | 01:32:55 | 00:00:00 | |
| OE5DRO-10 | 2026-08-31 00:38:33 | 45.77793 | 16.60610 | 40° | 24km/h | 21423m | 5.7m/s | -54.7°C | 4.3% | 0hPa | 2.7V | 00:00:00 | 00:00:00 | 08:30:00 | |
| 9A1FER-10 | 2026-08-31 00:38:31 | 45.77784 | 16.60599 | 40° | 24km/h | 21414m | 3.5m/s | -54.8°C | 4.4% | 0hPa | 2.6V | 00:00:00 | 01:32:48 | 00:00:00 | |
| OE3JTB-15 | 2026-08-31 00:38:30 | 45.77769 | 16.60588 | 18° | 15km/h | 21399m | 4.5m/s | -54.9°C | 4.4% | 0hPa | 2.6V | 00:00:00 | 00:00:00 | 00:00:00 | |
| PG1ADW-2 | 2026-08-31 00:38:25 | 45.77753 | 16.60580 | 19° | 24km/h | 21384m | 3.8m/s | -55.0°C | 4.4% | 0hPa | 2.6V | 00:00:00 | 00:00:00 | 00:00:00 | |
| 9A1FER-3 | 2026-08-31 00:38:23 | 45.77742 | 16.60576 | 16° | 26km/h | 21374m | 5.2m/s | -55.0°C | 4.5% | 0hPa | 2.6V | 00:00:00 | 01:32:40 | 00:00:00 | |
| OE5DXL-15 | 2026-08-31 00:38:20 | 45.77718 | 16.60564 | 21° | 20km/h | 21355m | 4.5m/s | -54.9°C | 4.4% | 0hPa | 2.6V | 00:00:00 | 00:00:00 | 00:00:00 | |
| 9A1FER-10 | 2026-08-31 00:38:16 | 45.77699 | 16.60556 | 16° | 24km/h | 21340m | 4.7m/s | -54.9°C | 4.5% | 0hPa | 2.6V | 00:00:00 | 01:32:33 | 00:00:00 | |
| OE5DRO-10 | 2026-08-31 00:38:14 | 45.77687 | 16.60551 | 17° | 20km/h | 21330m | 4.5m/s | -54.8°C | 4.4% | 0hPa | 2.6V | 00:00:00 | 00:00:00 | 00:00:00 | |
| 9A1FER-3 | 2026-08-31 00:38:08 | 45.77650 | 16.60545 | 3° | 18km/h | 21300m | 4.6m/s | -54.8°C | 4.4% | 0hPa | 2.6V | 00:00:00 | 01:32:25 | 00:00:00 | |
| PG1ADW-2 | 2026-08-31 00:38:05 | 45.77633 | 16.60545 | 2° | 16km/h | 21286m | 4.7m/s | -54.8°C | 4.4% | 0hPa | 2.6V | 00:00:00 | 00:00:00 | 08:30:00 | |
| 9A1FER-10 | 2026-08-31 00:38:01 | 45.77613 | 16.60540 | 7° | 16km/h | 21265m | 4.7m/s | -54.7°C | 4.4% | 0hPa | 2.6V | 00:00:00 | 01:32:18 | 00:00:00 | |
| OE5DRO-10 | 2026-08-31 00:37:55 | 45.77592 | 16.60535 | 7° | 13km/h | 21235m | 4.9m/s | -54.6°C | 4.2% | 0hPa | 2.6V | 00:00:00 | 00:00:00 | 00:00:00 | |
| 9A1FER-3 | 2026-08-31 00:37:53 | 45.77583 | 16.60533 | 14° | 13km/h | 21224m | 5.4m/s | -54.7°C | 4.2% | 0hPa | 2.6V | 00:00:00 | 01:32:10 | 00:00:00 | |
| OE5DXL-15 | 2026-08-31 00:37:49 | 45.77564 | 16.60526 | 8° | 9km/h | 21205m | 4.9m/s | -55.0°C | 4.3% | 0hPa | 2.6V | 00:00:00 | 00:00:00 | 00:00:00 | |
| 9A1FER-10 | 2026-08-31 00:37:46 | 45.77554 | 16.60524 | 8° | 9km/h | 21189m | 4.7m/s | -55.2°C | 4.4% | 0hPa | 2.6V | 00:00:00 | 01:32:03 | 00:00:00 | |
| PG1ADW-2 | 2026-08-31 00:37:45 | 45.77552 | 16.60524 | 351° | 7km/h | 21184m | 5.4m/s | -55.2°C | 4.4% | 0hPa | 2.6V | 00:00:00 | 01:32:02 | 00:00:00 | |
| 9A1FER-3 | 2026-08-31 00:37:38 | 45.77538 | 16.60520 | 25° | 7km/h | 21149m | 5.7m/s | -55.3°C | 4.5% | 0hPa | 2.6V | 00:00:00 | 01:31:55 | 00:00:00 | |
| OE5DRO-10 | 2026-08-31 00:37:36 | 45.77532 | 16.60514 | 37° | 9km/h | 21138m | 4.5m/s | -55.4°C | 4.5% | 0hPa | 2.6V | 00:00:00 | 00:00:00 | 00:00:00 | |
| 9A1FER-10 | 2026-08-31 00:37:31 | 45.77526 | 16.60505 | 136° | 9km/h | 21113m | 4.4m/s | -55.4°C | 4.5% | 0hPa | 2.6V | 00:00:00 | 01:31:48 | 00:00:00 | |
| PG1ADW-2 | 2026-08-31 00:37:25 | 45.77532 | 16.60501 | 103° | 11km/h | 21084m | 4.0m/s | -55.4°C | 4.4% | 0hPa | 2.6V | 00:00:00 | 00:00:00 | 00:00:00 | |
| 9A1FER-3 | 2026-08-31 00:37:23 | 45.77531 | 16.60497 | 47° | 11km/h | 21074m | 5.3m/s | -55.4°C | 4.5% | 0hPa | 2.6V | 00:00:00 | 01:31:40 | 00:00:00 | |
| OE5DXL-15 | 2026-08-31 00:37:19 | 45.77524 | 16.60483 | 52° | 15km/h | 21054m | 5.2m/s | -55.4°C | 4.5% | 0hPa | 2.6V | 00:00:00 | 00:00:00 | 00:00:00 | |
| OE5DRO-10 | 2026-08-31 00:37:17 | 45.77518 | 16.60475 | 40° | 13km/h | 21044m | 4.6m/s | -55.4°C | 4.5% | 0hPa | 2.6V | 00:00:00 | 00:00:00 | 00:00:00 | |
| 9A1FER-10 | 2026-08-31 00:37:16 | 45.77515 | 16.60472 | 44° | 13km/h | 21039m | 5.9m/s | -55.4°C | 4.5% | 0hPa | 2.6V | 00:00:00 | 01:31:33 | 00:00:00 | |
| OE3JTB-15 | 2026-08-31 00:37:14 | 45.77511 | 16.60465 | 25° | 13km/h | 21023m | 5.3m/s | -55.3°C | 4.4% | 0hPa | 2.6V | 00:00:00 | 00:00:00 | 00:00:00 | |
| 9A1FER-3 | 2026-08-31 00:37:08 | 45.77503 | 16.60455 | 50° | 15km/h | 20999m | 6.1m/s | -55.2°C | 4.4% | 0hPa | 2.6V | 00:00:00 | 01:31:25 | 00:00:00 | |
| 9A1FER-10 | 2026-08-31 00:37:01 | 45.77481 | 16.60420 | 29° | 13km/h | 20964m | 4.0m/s | -55.4°C | 4.4% | 0hPa | 2.6V | 00:00:00 | 01:31:18 | 08:30:00 | |
| OE5DRO-10 | 2026-08-31 00:36:58 | 45.77475 | 16.60413 | 53° | 16km/h | 20949m | 4.6m/s | -55.5°C | 4.5% | 0hPa | 2.7V | 00:00:00 | 00:00:00 | 00:00:00 | |
| 9A1FER-3 | 2026-08-31 00:36:53 | 45.77462 | 16.60397 | 48° | 18km/h | 20924m | 4.4m/s | -55.5°C | 4.5% | 0hPa | 2.7V | 00:00:00 | 01:31:10 | 00:00:00 | |
| OE5DXL-15 | 2026-08-31 00:36:49 | 45.77449 | 16.60384 | 17° | 20km/h | 20905m | 3.7m/s | -55.6°C | 4.5% | 0hPa | 2.7V | 00:00:00 | 00:00:00 | 00:00:00 | |
| 9A1FER-10 | 2026-08-31 00:36:46 | 45.77440 | 16.60377 | 63° | 20km/h | 20890m | 4.7m/s | -55.8°C | 4.6% | 0hPa | 2.6V | 00:00:00 | 01:31:03 | 00:00:00 | |
| PG1ADW-2 | 2026-08-31 00:36:45 | 45.77439 | 16.60372 | 71° | 20km/h | 20886m | 4.9m/s | -55.9°C | 4.6% | 0hPa | 2.6V | 00:00:00 | 00:00:00 | 00:00:00 | |
| OE3JTB-15 | 2026-08-31 00:36:44 | 45.77437 | 16.60367 | 69° | 20km/h | 20880m | 6.0m/s | -55.9°C | 4.6% | 0hPa | 2.6V | 00:00:00 | 01:31:01 | 00:00:00 | |
| OE5DRO-10 | 2026-08-31 00:36:39 | 45.77427 | 16.60327 | 64° | 20km/h | 20855m | 4.6m/s | -55.9°C | 4.6% | 0hPa | 2.6V | 00:00:00 | 00:00:00 | 00:00:00 | |
| 9A1FER-3 | 2026-08-31 00:36:38 | 45.77424 | 16.60320 | 52° | 20km/h | 20850m | 5.6m/s | -55.9°C | 4.6% | 0hPa | 2.7V | 00:00:00 | 01:30:55 | 08:30:00 | |
| 9A1FER-10 | 2026-08-31 00:36:31 | 45.77405 | 16.60286 | 65° | 20km/h | 20815m | 4.3m/s | -56.0°C | 4.6% | 0hPa | 2.6V | 00:00:00 | 01:30:48 | 00:00:00 | |
| PG1ADW-2 | 2026-08-31 00:36:25 | 45.77385 | 16.60252 | 30° | 24km/h | 20785m | 4.9m/s | -56.0°C | 4.6% | 0hPa | 2.6V | 00:00:00 | 01:30:42 | 00:00:00 | |
| 9A1FER-3 | 2026-08-31 00:36:23 | 45.77375 | 16.60245 | 25° | 24km/h | 20774m | 5.4m/s | -55.9°C | 4.6% | 0hPa | 2.6V | 00:00:00 | 01:30:40 | 00:00:00 | |
| OE5DRO-10 | 2026-08-31 00:36:20 | 45.77361 | 16.60237 | 21° | 24km/h | 20758m | 4.5m/s | -55.9°C | 4.6% | 0hPa | 2.6V | 00:00:00 | 00:00:00 | 00:00:00 | |
| OE5DXL-15 | 2026-08-31 00:36:19 | 45.77356 | 16.60234 | 25° | 24km/h | 20753m | 4.9m/s | -55.9°C | 4.6% | 0hPa | 2.6V | 00:00:00 | 00:00:00 | 00:00:00 | |
| 9A1FER-10 | 2026-08-31 00:36:16 | 45.77344 | 16.60224 | 32° | 26km/h | 20738m | 5.7m/s | -55.9°C | 4.6% | 0hPa | 2.6V | 00:00:00 | 01:30:33 | 00:00:00 | |
| OE3JTB-15 | 2026-08-31 00:36:13 | 45.77328 | 16.60212 | 26° | 22km/h | 20721m | 5.0m/s | -56.0°C | 4.5% | 0hPa | 2.7V | 00:00:00 | 00:00:00 | 00:00:00 | |
| 9A1FER-3 | 2026-08-31 00:36:08 | 45.77297 | 16.60190 | 27° | 24km/h | 20695m | 5.0m/s | -56.1°C | 4.7% | 0hPa | 2.6V | 00:00:00 | 01:30:25 | 00:00:00 | |
| PG1ADW-2 | 2026-08-31 00:36:06 | 45.77281 | 16.60180 | 18° | 24km/h | 20679m | 4.0m/s | -56.1°C | 4.6% | 0hPa | 2.6V | 00:00:00 | 00:00:00 | 00:00:00 | |
| OE5DRO-10 | 2026-08-31 00:36:01 | 45.77256 | 16.60177 | 2° | 22km/h | 20658m | 6.5m/s | -56.4°C | 4.7% | 0hPa | 2.6V | 00:00:00 | 00:00:00 | 00:00:00 | |
| 9A1FER-3 | 2026-08-31 00:35:53 | 45.77208 | 16.60166 | 1° | 16km/h | 20617m | 4.2m/s | -56.5°C | 4.8% | 0hPa | 2.6V | 00:00:00 | 01:30:10 | 00:00:00 | |
| OE5DXL-15 | 2026-08-31 00:35:49 | 45.77187 | 16.60173 | 335° | 13km/h | 20595m | 5.1m/s | -56.4°C | 4.8% | 0hPa | 2.6V | 00:00:00 | 00:00:00 | 00:00:00 | |
| 9A1FER-10 | 2026-08-31 00:35:46 | 45.77170 | 16.60183 | 350° | 13km/h | 20581m | 4.5m/s | -56.3°C | 4.8% | 0hPa | 2.6V | 00:00:00 | 01:30:03 | 00:00:00 | |
| PG1ADW-2 | 2026-08-31 00:35:45 | 45.77165 | 16.60184 | 356° | 11km/h | 20576m | 4.8m/s | -56.3°C | 4.7% | 0hPa | 2.6V | 00:00:00 | 00:00:00 | 00:00:00 | |
| OE5DRO-10 | 2026-08-31 00:35:42 | 45.77156 | 16.60183 | 19° | 11km/h | 20561m | 5.1m/s | -56.2°C | 4.7% | 0hPa | 2.6V | 00:00:00 | 00:00:00 | 08:30:00 | |
| OE3JTB-15 | 2026-08-31 00:35:40 | 45.77147 | 16.60180 | 351° | 13km/h | 20540m | 4.8m/s | -56.1°C | 4.7% | 0hPa | 2.6V | 00:00:00 | 00:00:00 | 00:00:00 | |
| 9A1FER-3 | 2026-08-31 00:35:38 | 45.77147 | 16.60180 | 351° | 11km/h | 20540m | 4.8m/s | -56.1°C | 4.7% | 0hPa | 2.6V | 00:00:00 | 01:29:55 | 00:00:00 | |
| 9A1FER-10 | 2026-08-31 00:35:31 | 45.77123 | 16.60182 | 3° | 13km/h | 20505m | 5.7m/s | -56.0°C | 4.5% | 0hPa | 2.6V | 00:00:00 | 01:29:48 | 00:00:00 | |
| PG1ADW-2 | 2026-08-31 00:35:25 | 45.77108 | 16.60178 | 19° | 15km/h | 20477m | 5.9m/s | -56.1°C | 4.5% | 0hPa | 2.6V | 00:00:00 | 00:00:00 | 00:00:00 | |
| 9A1FER-3 | 2026-08-31 00:35:23 | 45.77103 | 16.60175 | 23° | 15km/h | 20466m | 5.6m/s | -56.2°C | 4.5% | 0hPa | 2.6V | 00:00:00 | 01:29:40 | 00:00:00 | |
| OE5DXL-15 | 2026-08-31 00:35:19 | 45.77091 | 16.60166 | 35° | 13km/h | 20446m | 4.4m/s | -56.3°C | 4.6% | 0hPa | 2.6V | 00:00:00 | 00:00:00 | 08:30:00 | |
| 9A1FER-10 | 2026-08-31 00:35:16 | 45.77082 | 16.60156 | 52° | 15km/h | 20432m | 3.8m/s | -56.4°C | 4.6% | 0hPa | 2.6V | 00:00:00 | 01:29:33 | 00:00:00 | |
| 9A1FER-3 | 2026-08-31 00:35:08 | 45.77071 | 16.60116 | 68° | 13km/h | 20391m | 4.9m/s | -56.5°C | 4.6% | 0hPa | 2.6V | 00:00:00 | 01:29:25 | 00:00:00 | |
| PG1ADW-2 | 2026-08-31 00:35:05 | 45.77066 | 16.60100 | 61° | 11km/h | 20377m | 5.0m/s | -56.6°C | 4.7% | 0hPa | 2.7V | 00:00:00 | 01:29:22 | 08:30:00 | |
| OE5DRO-10 | 2026-08-31 00:35:04 | 45.77064 | 16.60096 | 59° | 11km/h | 20372m | 4.3m/s | -56.6°C | 4.6% | 0hPa | 2.6V | 00:00:00 | 00:00:00 | 00:00:00 | |
| 9A1FER-10 | 2026-08-31 00:35:01 | 45.77059 | 16.60085 | 61° | 11km/h | 20357m | 4.7m/s | -56.9°C | 4.8% | 0hPa | 2.6V | 00:00:00 | 01:29:18 | 00:00:00 | |
| 9A1FER-3 | 2026-08-31 00:34:53 | 45.77054 | 16.60055 | 73° | 9km/h | 20317m | 3.4m/s | -56.9°C | 4.8% | 0hPa | 2.6V | 00:00:00 | 01:29:10 | 00:00:00 | |
| OE5DXL-15 | 2026-08-31 00:34:49 | 45.77047 | 16.60045 | 47° | 11km/h | 20296m | 5.3m/s | -57.0°C | 4.9% | 0hPa | 2.6V | 00:00:00 | 00:00:00 | 00:00:00 | |
| 9A1FER-10 | 2026-08-31 00:34:46 | 45.77041 | 16.60037 | 44° | 9km/h | 20281m | 4.1m/s | -57.0°C | 4.9% | 0hPa | 2.6V | 00:00:00 | 01:29:03 | 08:30:00 | |
| PG1ADW-2 | 2026-08-31 00:34:45 | 45.77040 | 16.60034 | 53° | 11km/h | 20276m | 5.8m/s | -57.0°C | 4.8% | 0hPa | 2.6V | 00:00:00 | 00:00:00 | 00:00:00 | |
| 9A1FER-3 | 2026-08-31 00:34:38 | 45.77029 | 16.60023 | 341° | 13km/h | 20241m | 4.9m/s | -56.9°C | 4.7% | 0hPa | 2.6V | 00:00:00 | 01:28:55 | 00:00:00 | |
| 9A1FER-10 | 2026-08-31 00:34:31 | 45.77014 | 16.60030 | 28° | 15km/h | 20208m | 4.7m/s | -57.2°C | 4.9% | 0hPa | 2.6V | 00:00:00 | 01:28:48 | 00:00:00 | |
| OE5DRO-10 | 2026-08-31 00:34:26 | 45.77000 | 16.60010 | 48° | 15km/h | 20183m | 5.3m/s | -57.2°C | 4.9% | 0hPa | 2.6V | 00:00:00 | 00:00:00 | 00:00:00 | |
| 9A1FER-3 | 2026-08-31 00:34:23 | 45.76988 | 16.59998 | 28° | 13km/h | 20167m | 5.5m/s | -57.1°C | 4.9% | 0hPa | 2.6V | 00:00:00 | 01:28:40 | 08:30:00 | |
| OE5DXL-15 | 2026-08-31 00:34:19 | 45.76977 | 16.59993 | 3° | 13km/h | 20148m | 4.6m/s | -57.0°C | 4.9% | 0hPa | 2.6V | 00:00:00 | 00:00:00 | 00:00:00 | |
| 9A1FER-10 | 2026-08-31 00:34:16 | 45.76970 | 16.59990 | 45° | 13km/h | 20133m | 3.9m/s | -56.9°C | 4.9% | 0hPa | 2.6V | 00:00:00 | 01:28:33 | 00:00:00 | |
| OE3JTB-15 | 2026-08-31 00:34:10 | 45.76952 | 16.59974 | 18° | 13km/h | 20105m | 3.6m/s | -56.7°C | 4.9% | 0hPa | 2.6V | 00:00:00 | 01:28:27 | 00:00:00 | |
| 9A1FER-3 | 2026-08-31 00:34:08 | 45.76945 | 16.59973 | 359° | 13km/h | 20095m | 4.1m/s | -56.7°C | 4.8% | 0hPa | 2.6V | 00:00:00 | 01:28:25 | 00:00:00 | |
| OE5DRO-10 | 2026-08-31 00:34:07 | 45.76941 | 16.59973 | 359° | 15km/h | 20090m | 5.4m/s | -56.7°C | 4.8% | 0hPa | 2.6V | 00:00:00 | 00:00:00 | 00:00:00 | |
| PG1ADW-2 | 2026-08-31 00:34:05 | 45.76935 | 16.59973 | 356° | 15km/h | 20080m | 4.9m/s | -56.6°C | 4.7% | 0hPa | 2.6V | 00:00:00 | 00:00:00 | 00:00:00 | |
| 9A1FER-10 | 2026-08-31 00:34:01 | 45.76925 | 16.59974 | 19° | 15km/h | 20059m | 3.4m/s | -56.5°C | 4.7% | 0hPa | 2.6V | 00:00:00 | 01:28:18 | 00:00:00 | |
| 9A1FER-3 | 2026-08-31 00:33:53 | 45.76897 | 16.59979 | 335° | 15km/h | 20019m | 5.0m/s | -56.5°C | 4.7% | 0hPa | 2.6V | 00:00:00 | 01:28:10 | 00:00:00 | |
| OE5DXL-15 | 2026-08-31 00:33:49 | 45.76880 | 16.59992 | 333° | 13km/h | 19998m | 4.0m/s | -56.5°C | 4.7% | 0hPa | 2.6V | 00:00:00 | 00:00:00 | 00:00:00 | |
| OE5DRO-10 | 2026-08-31 00:33:48 | 45.76877 | 16.59994 | 330° | 15km/h | 19993m | 5.7m/s | -56.5°C | 4.7% | 0hPa | 2.6V | 00:00:00 | 00:00:00 | 00:00:00 | |
| 9A1FER-10 | 2026-08-31 00:33:46 | 45.76873 | 16.59999 | 327° | 15km/h | 19984m | 4.3m/s | -56.4°C | 4.7% | 0hPa | 2.7V | 00:00:00 | 01:28:03 | 00:00:00 | |
| PG1ADW-2 | 2026-08-31 00:33:45 | 45.76870 | 16.60001 | 329° | 13km/h | 19979m | 5.3m/s | -56.4°C | 4.7% | 0hPa | 2.7V | 00:00:00 | 01:28:02 | 00:00:00 | |
| OE3JTB-15 | 2026-08-31 00:33:41 | 45.76861 | 16.60013 | 308° | 16km/h | 19958m | 5.8m/s | -56.3°C | 4.6% | 0hPa | 2.7V | 00:00:00 | 00:00:00 | 08:30:00 | |
| 9A1FER-3 | 2026-08-31 00:33:38 | 45.76854 | 16.60028 | 295° | 11km/h | 19944m | 5.5m/s | -56.3°C | 4.6% | 0hPa | 2.6V | 00:00:00 | 01:27:55 | 00:00:00 | |
| 9A1FER-10 | 2026-08-31 00:33:31 | 45.76840 | 16.60062 | 311° | 11km/h | 19910m | 5.6m/s | -56.4°C | 4.6% | 0hPa | 2.6V | 00:00:00 | 01:27:48 | 00:00:00 | |
| OE5DRO-10 | 2026-08-31 00:33:29 | 45.76837 | 16.60065 | 347° | 11km/h | 19901m | 4.1m/s | -56.4°C | 4.6% | 0hPa | 2.6V | 00:00:00 | 00:00:00 | 00:00:00 | |
| PG1ADW-2 | 2026-08-31 00:33:25 | 45.76838 | 16.60068 | 252° | 13km/h | 19883m | 5.5m/s | -56.5°C | 4.6% | 0hPa | 2.6V | 00:00:00 | 00:00:00 | 00:00:00 | |
| 9A1FER-3 | 2026-08-31 00:33:23 | 45.76838 | 16.60075 | 281° | 13km/h | 19873m | 4.7m/s | -56.7°C | 4.7% | 0hPa | 2.6V | 00:00:00 | 01:27:40 | 00:00:00 | |
| OE5DXL-15 | 2026-08-31 00:33:19 | 45.76837 | 16.60105 | 270° | 7km/h | 19853m | 4.9m/s | -56.7°C | 4.8% | 0hPa | 2.6V | 00:00:00 | 00:00:00 | 00:00:00 | |
| 9A1FER-10 | 2026-08-31 00:33:16 | 45.76839 | 16.60118 | 218° | 9km/h | 19839m | 4.9m/s | -56.7°C | 4.9% | 0hPa | 2.6V | 00:00:00 | 01:27:33 | 00:00:00 | |
| OE3JTB-15 | 2026-08-31 00:33:12 | 45.76845 | 16.60123 | 224° | 13km/h | 19819m | 5.1m/s | -56.7°C | 4.8% | 0hPa | 2.7V | 00:00:00 | 00:00:00 | 00:00:00 | |
| OE5DRO-10 | 2026-08-31 00:33:10 | 45.76849 | 16.60130 | 237° | 7km/h | 19809m | 4.6m/s | -56.7°C | 4.7% | 0hPa | 2.7V | 00:00:00 | 00:00:00 | 00:00:00 | |
| 9A1FER-3 | 2026-08-31 00:33:08 | 45.76851 | 16.60139 | 258° | 7km/h | 19799m | 3.2m/s | -56.7°C | 4.7% | 0hPa | 2.7V | 00:00:00 | 01:27:25 | 00:00:00 | |
| PG1ADW-2 | 2026-08-31 00:33:05 | 45.76854 | 16.60151 | 239° | 5km/h | 19786m | 3.9m/s | -56.6°C | 4.8% | 0hPa | 2.7V | 00:00:00 | 00:00:00 | 00:00:00 | |
| 9A1FER-10 | 2026-08-31 00:33:01 | 45.76853 | 16.60149 | 53° | 5km/h | 19767m | 4.4m/s | -56.6°C | 4.7% | 0hPa | 2.6V | 00:00:00 | 01:27:18 | 00:00:00 | |
| 9A1FER-3 | 2026-08-31 00:32:53 | 45.76858 | 16.60145 | 166° | 5km/h | 19728m | 4.1m/s | -56.5°C | 4.7% | 0hPa | 2.6V | 00:00:00 | 01:27:10 | 00:00:00 | |
| OE5DRO-10 | 2026-08-31 00:32:51 | 45.76857 | 16.60143 | 37° | 5km/h | 19718m | 4.0m/s | -56.4°C | 4.7% | 0hPa | 2.6V | 00:00:00 | 00:00:00 | 08:30:00 | |
| OE5DXL-15 | 2026-08-31 00:32:49 | 45.76854 | 16.60138 | 61° | 5km/h | 19709m | 4.2m/s | -56.4°C | 4.7% | 0hPa | 2.7V | 00:00:00 | 00:00:00 | 00:00:00 | |
| 9A1FER-10 | 2026-08-31 00:32:46 | 45.76853 | 16.60130 | 105° | 4km/h | 19696m | 5.0m/s | -56.5°C | 4.7% | 0hPa | 2.7V | 00:00:00 | 01:27:03 | 00:00:00 | |
| PG1ADW-2 | 2026-08-31 00:32:45 | 45.76853 | 16.60129 | 118° | 5km/h | 19691m | 4.8m/s | -56.6°C | 4.8% | 0hPa | 2.7V | 00:00:00 | 00:00:00 | 00:00:00 | |
| 9A1FER-3 | 2026-08-31 00:32:38 | 45.76855 | 16.60129 | 332° | 5km/h | 19657m | 6.0m/s | -56.4°C | 4.7% | 0hPa | 2.7V | 00:00:00 | 01:26:55 | 00:00:00 | |
| OE5DRO-10 | 2026-08-31 00:32:32 | 45.76854 | 16.60118 | 111° | 7km/h | 19626m | 4.1m/s | -56.4°C | 4.7% | 0hPa | 2.7V | 00:00:00 | 00:00:00 | 00:00:00 | |
| 9A1FER-10 | 2026-08-31 00:32:31 | 45.76855 | 16.60115 | 108° | 5km/h | 19622m | 4.4m/s | -56.4°C | 4.7% | 0hPa | 2.7V | 00:00:00 | 01:26:48 | 08:30:00 | |
| PG1ADW-2 | 2026-08-31 00:32:25 | 45.76853 | 16.60106 | 25° | 7km/h | 19593m | 5.0m/s | -56.3°C | 4.7% | 0hPa | 2.6V | 00:00:00 | 01:26:42 | 00:00:00 | |
| 9A1FER-3 | 2026-08-31 00:32:23 | 45.76851 | 16.60106 | 9° | 7km/h | 19584m | 3.8m/s | -56.3°C | 4.7% | 0hPa | 2.6V | 00:00:00 | 01:26:40 | 00:00:00 | |
| OE5DXL-15 | 2026-08-31 00:32:19 | 45.76850 | 16.60099 | 89° | 9km/h | 19563m | 5.0m/s | -56.2°C | 4.7% | 0hPa | 2.6V | 00:00:00 | 00:00:00 | 00:00:00 | |
| 9A1FER-10 | 2026-08-31 00:32:16 | 45.76851 | 16.60088 | 107° | 9km/h | 19548m | 4.0m/s | -56.2°C | 4.6% | 0hPa | 2.7V | 00:00:00 | 01:26:33 | 00:00:00 | |
| OE5DRO-10 | 2026-08-31 00:32:13 | 45.76851 | 16.60079 | 62° | 9km/h | 19535m | 4.0m/s | -56.2°C | 4.6% | 0hPa | 2.7V | 00:00:00 | 00:00:00 | 00:00:00 | |
| OE3JTB-15 | 2026-08-31 00:32:11 | 45.76850 | 16.60074 | 98° | 9km/h | 19525m | 4.6m/s | -56.3°C | 4.6% | 0hPa | 2.7V | 00:00:00 | 01:26:28 | 00:00:00 | |
| 9A1FER-3 | 2026-08-31 00:32:08 | 45.76852 | 16.60071 | 161° | 11km/h | 19511m | 4.7m/s | -56.3°C | 4.6% | 0hPa | 2.7V | 00:00:00 | 01:26:25 | 08:30:00 | |
| PG1ADW-2 | 2026-08-31 00:32:05 | 45.76858 | 16.60067 | 143° | 11km/h | 19496m | 4.9m/s | -56.2°C | 4.6% | 0hPa | 2.6V | 00:00:00 | 00:00:00 | 08:30:00 | |
| 9A1FER-10 | 2026-08-31 00:32:01 | 45.76867 | 16.60055 | 146° | 11km/h | 19476m | 5.4m/s | -56.2°C | 4.6% | 0hPa | 2.6V | 00:00:00 | 01:26:18 | 00:00:00 | |
| OE5DRO-10 | 2026-08-31 00:31:54 | 45.76884 | 16.60050 | 148° | 11km/h | 19442m | 4.5m/s | -56.0°C | 4.6% | 0hPa | 2.6V | 00:00:00 | 00:00:00 | 00:00:00 | |
| 9A1FER-3 | 2026-08-31 00:31:53 | 45.76886 | 16.60047 | 141° | 9km/h | 19437m | 4.7m/s | -56.0°C | 4.5% | 0hPa | 2.6V | 00:00:00 | 01:26:10 | 00:00:00 | |
| OE5DXL-15 | 2026-08-31 00:31:49 | 45.76895 | 16.60034 | 134° | 13km/h | 19418m | 4.5m/s | -56.1°C | 4.6% | 0hPa | 2.6V | 00:00:00 | 00:00:00 | 00:00:00 | |
| 9A1FER-10 | 2026-08-31 00:31:46 | 45.76900 | 16.60025 | 113° | 11km/h | 19403m | 4.0m/s | -56.2°C | 4.7% | 0hPa | 2.6V | 00:00:00 | 01:26:03 | 00:00:00 | |
| PG1ADW-2 | 2026-08-31 00:31:45 | 45.76901 | 16.60023 | 110° | 13km/h | 19399m | 5.1m/s | -56.2°C | 4.6% | 0hPa | 2.6V | 00:00:00 | 00:00:00 | 00:00:00 | |
| OE3JTB-15 | 2026-08-31 00:31:41 | 45.76905 | 16.60015 | 117° | 15km/h | 19379m | 4.7m/s | -56.4°C | 4.8% | 0hPa | 2.6V | 00:00:00 | 00:00:00 | 00:00:00 | |
| 9A1FER-3 | 2026-08-31 00:31:38 | 45.76910 | 16.60005 | 132° | 15km/h | 19365m | 4.1m/s | -56.3°C | 4.7% | 0hPa | 2.6V | 00:00:00 | 01:25:55 | 00:00:00 | |
| OE5DRO-10 | 2026-08-31 00:31:35 | 45.76916 | 16.59991 | 109° | 16km/h | 19351m | 4.7m/s | -56.3°C | 4.6% | 0hPa | 2.6V | 00:00:00 | 00:00:00 | 00:00:00 | |
| 9A1FER-10 | 2026-08-31 00:31:31 | 45.76921 | 16.59972 | 113° | 16km/h | 19331m | 6.2m/s | -56.2°C | 4.5% | 0hPa | 2.6V | 00:00:00 | 01:25:48 | 00:00:00 | |
| PG1ADW-2 | 2026-08-31 00:31:25 | 45.76921 | 16.59942 | 74° | 20km/h | 19299m | 5.1m/s | 0°C | 0% | 0hPa | 2.6V | 00:00:00 | 00:00:00 | 00:00:00 | |
| 9A1FER-3 | 2026-08-31 00:31:23 | 45.76919 | 16.59929 | 74° | 18km/h | 19288m | 4.8m/s | -56.4°C | 4.6% | 0hPa | 2.6V | 00:00:00 | 01:25:40 | 00:00:00 | |
| OE5DXL-15 | 2026-08-31 00:31:19 | 45.76909 | 16.59903 | 55° | 24km/h | 19269m | 4.9m/s | -56.4°C | 4.6% | 0hPa | 2.6V | 00:00:00 | 00:00:00 | 00:00:00 | |
| 9A1FER-10 | 2026-08-31 00:31:16 | 45.76903 | 16.59887 | 68° | 22km/h | 19254m | 4.9m/s | -56.6°C | 4.6% | 0hPa | 2.6V | 00:00:00 | 01:25:33 | 00:00:00 | |
| OE3JTB-15 | 2026-08-31 00:31:12 | 45.76896 | 16.59866 | 60° | 26km/h | 19235m | 4.8m/s | -56.7°C | 4.7% | 0hPa | 2.6V | 00:00:00 | 00:00:00 | 00:00:00 | |
| 9A1FER-3 | 2026-08-31 00:31:08 | 45.76883 | 16.59848 | 43° | 26km/h | 19213m | 4.6m/s | -57.0°C | 4.9% | 0hPa | 2.6V | 00:00:00 | 01:25:25 | 00:00:00 | |
| PG1ADW-2 | 2026-08-31 00:31:05 | 45.76868 | 16.59831 | 35° | 27km/h | 19198m | 4.6m/s | 0°C | 0% | 0hPa | 2.6V | 00:00:00 | 01:25:22 | 00:00:00 | |
| 9A1FER-10 | 2026-08-31 00:31:01 | 45.76848 | 16.59806 | 46° | 27km/h | 19178m | 5.2m/s | -57.0°C | 4.9% | 0hPa | 2.6V | 00:00:00 | 01:25:18 | 00:00:00 | |
| OE5DRO-10 | 2026-08-31 00:30:57 | 45.76831 | 16.59780 | 42° | 27km/h | 19159m | 4.1m/s | -57.0°C | 4.9% | 0hPa | 2.7V | 00:00:00 | 00:00:00 | 00:00:00 | |
| 9A1FER-3 | 2026-08-31 00:30:53 | 45.76807 | 16.59758 | 34° | 26km/h | 19139m | 4.7m/s | -56.9°C | 4.9% | 0hPa | 2.7V | 00:00:00 | 01:25:10 | 00:00:00 | |
| OE5DXL-15 | 2026-08-31 00:30:49 | 45.76782 | 16.59733 | 44° | 22km/h | 19119m | 5.5m/s | -56.8°C | 4.8% | 0hPa | 2.7V | 00:00:00 | 00:00:00 | 08:30:00 | |
| 9A1FER-10 | 2026-08-31 00:30:46 | 45.76767 | 16.59713 | 37° | 22km/h | 19104m | 4.5m/s | -56.8°C | 4.9% | 0hPa | 2.6V | 00:00:00 | 01:25:03 | 00:00:00 | |
| PG1ADW-2 | 2026-08-31 00:30:45 | 45.76762 | 16.59708 | 38° | 22km/h | 19099m | 4.8m/s | 0°C | 0% | 0hPa | 2.6V | 00:00:00 | 00:00:00 | 00:00:00 | |
| 9A1FER-3 | 2026-08-31 00:30:38 | 45.76729 | 16.59674 | 47° | 22km/h | 19065m | 3.5m/s | -56.7°C | 4.9% | 0hPa | 2.6V | 00:00:00 | 01:24:55 | 00:00:00 | |
| OE3JTB-15 | 2026-08-31 00:30:34 | 45.76710 | 16.59649 | 51° | 16km/h | 19041m | 4.7m/s | -56.6°C | 4.8% | 0hPa | 2.6V | 00:00:00 | 01:24:50 | 00:00:00 | |
| 9A1FER-3 | 2026-08-31 00:30:23 | 45.76673 | 16.59595 | 45° | 16km/h | 18993m | 5.1m/s | -56.5°C | 4.7% | 0hPa | 2.6V | 00:00:00 | 01:24:40 | 00:00:00 | |
| PG1ADW-2 | 2026-08-31 00:30:21 | 45.76668 | 16.59587 | 50° | 16km/h | 18983m | 4.6m/s | 0°C | 0% | 0hPa | 2.6V | 00:00:00 | 00:00:00 | 00:00:00 | |
| OE5DRO-10 | 2026-08-31 00:30:19 | 45.76663 | 16.59579 | 51° | 18km/h | 18973m | 4.2m/s | -56.7°C | 4.8% | 0hPa | 2.6V | 00:00:00 | 00:00:00 | 00:00:00 | |
| 9A1FER-10 | 2026-08-31 00:30:17 | 45.76657 | 16.59563 | 66° | 16km/h | 18959m | 4.8m/s | -56.8°C | 4.9% | 0hPa | 2.6V | 00:00:00 | 01:24:33 | 08:30:00 | |
| 9A1FER-3 | 2026-08-31 00:30:08 | 45.76647 | 16.59520 | 88° | 22km/h | 18919m | 5.2m/s | -56.9°C | 4.7% | 0hPa | 2.7V | 00:00:00 | 01:24:25 | 00:00:00 | |
| 9A1FER-10 | 2026-08-31 00:30:01 | 45.76638 | 16.59473 | 76° | 24km/h | 18887m | 4.1m/s | -57.0°C | 4.8% | 0hPa | 2.7V | 00:00:00 | 01:24:18 | 00:00:00 | |
| OE5DRO-10 | 2026-08-31 00:30:00 | 45.76637 | 16.59465 | 74° | 22km/h | 18882m | 5.8m/s | -57.0°C | 4.8% | 0hPa | 2.7V | 00:00:00 | 00:00:00 | 08:30:00 | |
| 9A1FER-3 | 2026-08-31 00:29:53 | 45.76620 | 16.59410 | 56° | 22km/h | 18847m | 5.2m/s | -57.1°C | 4.8% | 0hPa | 2.7V | 00:00:00 | 01:24:10 | 08:30:00 | |
| OE3JTB-15 | 2026-08-31 00:29:52 | 45.76610 | 16.59385 | 61° | 20km/h | 18834m | 5.5m/s | -57.4°C | 4.9% | 0hPa | 2.6V | 00:00:00 | 00:00:00 | 00:00:00 | |
| OE5DXL-15 | 2026-08-31 00:29:49 | 45.76607 | 16.59378 | 60° | 20km/h | 18828m | 4.5m/s | -57.4°C | 4.9% | 0hPa | 2.6V | 00:00:00 | 00:00:00 | 00:00:00 | |
| 9A1FER-10 | 2026-08-31 00:29:46 | 45.76602 | 16.59362 | 72° | 20km/h | 18814m | 4.5m/s | -57.5°C | 4.9% | 0hPa | 2.6V | 00:00:00 | 01:24:03 | 00:00:00 | |
| PG1ADW-2 | 2026-08-31 00:29:41 | 45.76588 | 16.59332 | 51° | 26km/h | 18790m | 4.2m/s | 0°C | 0% | 0hPa | 2.6V | 00:00:00 | 01:23:58 | 00:00:00 | |
| 9A1FER-3 | 2026-08-31 00:29:38 | 45.76574 | 16.59314 | 34° | 20km/h | 18776m | 4.3m/s | -57.6°C | 4.9% | 0hPa | 2.6V | 00:00:00 | 01:23:55 | 00:00:00 | |
| 9A1FER-10 | 2026-08-31 00:29:31 | 45.76550 | 16.59291 | 39° | 20km/h | 18741m | 4.1m/s | -58.1°C | 5.1% | 0hPa | 2.6V | 00:00:00 | 01:23:48 | 00:00:00 | |
| 9A1FER-3 | 2026-08-31 00:29:23 | 45.76512 | 16.59256 | 31° | 20km/h | 18702m | 5.5m/s | -58.4°C | 5.2% | 0hPa | 2.7V | 00:00:00 | 01:23:40 | 00:00:00 | |
| OE5DRO-10 | 2026-08-31 00:29:22 | 45.76508 | 16.59251 | 33° | 20km/h | 18696m | 4.5m/s | -58.4°C | 5.2% | 0hPa | 2.7V | 00:00:00 | 00:00:00 | 00:00:00 | |
| OE5DXL-15 | 2026-08-31 00:29:19 | 45.76495 | 16.59241 | 29° | 20km/h | 18682m | 4.9m/s | -58.4°C | 5.1% | 0hPa | 2.7V | 00:00:00 | 00:00:00 | 00:00:00 | |
| 9A1FER-10 | 2026-08-31 00:29:16 | 45.76485 | 16.59229 | 49° | 20km/h | 18667m | 4.7m/s | -58.3°C | 5.2% | 0hPa | 2.7V | 00:00:00 | 01:23:33 | 00:00:00 | |
| 9A1FER-3 | 2026-08-31 00:29:08 | 45.76462 | 16.59181 | 49° | 22km/h | 18628m | 4.2m/s | -58.6°C | 5.3% | 0hPa | 2.7V | 00:00:00 | 01:23:25 | 00:00:00 | |
| OE5DRO-10 | 2026-08-31 00:29:03 | 45.76442 | 16.59151 | 46° | 22km/h | 18605m | 5.1m/s | -58.5°C | 5.3% | 0hPa | 2.7V | 00:00:00 | 00:00:00 | 00:00:00 | |
| 9A1FER-10 | 2026-08-31 00:29:01 | 45.76435 | 16.59140 | 51° | 20km/h | 18596m | 5.7m/s | -58.4°C | 5.3% | 0hPa | 2.7V | 00:00:00 | 01:23:18 | 00:00:00 | |
| 9A1FER-3 | 2026-08-31 00:28:53 | 45.76418 | 16.59078 | 71° | 24km/h | 18557m | 4.6m/s | -58.2°C | 5.2% | 0hPa | 2.7V | 00:00:00 | 01:23:10 | 00:00:00 | |
| OE5DXL-15 | 2026-08-31 00:28:49 | 45.76410 | 16.59056 | 52° | 26km/h | 18536m | 4.7m/s | -58.2°C | 5.3% | 0hPa | 2.7V | 00:00:00 | 00:00:00 | 00:00:00 | |
| 9A1FER-10 | 2026-08-31 00:28:46 | 45.76403 | 16.59037 | 65° | 26km/h | 18522m | 3.6m/s | -58.1°C | 5.2% | 0hPa | 2.7V | 00:00:00 | 01:23:03 | 00:00:00 | |
| OE3JTB-15 | 2026-08-31 00:28:43 | 45.76393 | 16.59013 | 62° | 26km/h | 18509m | 4.8m/s | -58.0°C | 5.2% | 0hPa | 2.6V | 00:00:00 | 00:00:00 | 00:00:00 | |
| 9A1FER-3 | 2026-08-31 00:28:38 | 45.76372 | 16.58972 | 42° | 26km/h | 18485m | 4.7m/s | -58.0°C | 5.2% | 0hPa | 2.6V | 00:00:00 | 01:22:55 | 00:00:00 | |
| 9A1FER-10 | 2026-08-31 00:28:31 | 45.76343 | 16.58929 | 53° | 27km/h | 18450m | 5.0m/s | -57.9°C | 5.2% | 0hPa | 2.6V | 00:00:00 | 01:22:48 | 00:00:00 | |
| OE5DRO-10 | 2026-08-31 00:28:25 | 45.76318 | 16.58884 | 44° | 31km/h | 18422m | 4.7m/s | -57.7°C | 5.1% | 0hPa | 2.6V | 00:00:00 | 00:00:00 | 00:00:00 | |
| 9A1FER-3 | 2026-08-31 00:28:23 | 45.76309 | 16.58873 | 38° | 31km/h | 18412m | 3.9m/s | -57.7°C | 5.1% | 0hPa | 2.6V | 00:00:00 | 01:22:40 | 00:00:00 | |
| OE5DXL-15 | 2026-08-31 00:28:19 | 45.76287 | 16.58852 | 35° | 37km/h | 18390m | 4.0m/s | 0°C | 0% | 0hPa | 2.6V | 00:00:00 | 00:00:00 | 00:00:00 | |
| 9A1FER-10 | 2026-08-31 00:28:16 | 45.76267 | 16.58830 | 39° | 35km/h | 18376m | 4.9m/s | -57.6°C | 5.0% | 0hPa | 2.6V | 00:00:00 | 01:22:33 | 00:00:00 | |
| OE3JTB-15 | 2026-08-31 00:28:14 | 45.76253 | 16.58813 | 40° | 35km/h | 18366m | 4.3m/s | -57.5°C | 5.0% | 0hPa | 2.6V | 00:00:00 | 01:22:31 | 00:00:00 | |
| 9A1FER-3 | 2026-08-31 00:28:10 | 45.76213 | 16.58772 | 35° | 37km/h | 18337m | 5.9m/s | -57.3°C | 4.9% | 0hPa | 2.6V | 00:00:00 | 01:22:25 | 00:00:00 | |
| OE5DRO-10 | 2026-08-31 00:28:09 | 45.76199 | 16.58759 | 34° | 38km/h | 18327m | 4.4m/s | -57.3°C | 4.9% | 0hPa | 2.6V | 00:00:00 | 00:00:00 | 00:00:00 | |
| OE3JTB-15 | 2026-08-31 00:28:00 | 45.76027 | 16.58600 | 27° | 27km/h | 18219m | 5.9m/s | -57.5°C | 5.1% | 0hPa | 2.6V | 00:00:00 | 00:00:00 | 08:30:00 | |
| 9A1FER-3 | 2026-08-31 00:27:38 | 45.75986 | 16.58568 | 30° | 27km/h | 18190m | 5.6m/s | -57.3°C | 4.9% | 0hPa | 2.6V | 00:00:00 | 01:21:55 | 08:30:00 | |
| 9A1FER-10 | 2026-08-31 00:27:31 | 45.75938 | 16.58523 | 36° | 27km/h | 18152m | 6.1m/s | -57.1°C | 4.9% | 0hPa | 2.7V | 00:00:00 | 01:21:48 | 00:00:00 | |
| OE5DRO-10 | 2026-08-31 00:27:28 | 45.75925 | 16.58510 | 38° | 26km/h | 18137m | 4.7m/s | -57.1°C | 4.9% | 0hPa | 2.7V | 00:00:00 | 00:00:00 | 00:00:00 | |
| 9A1FER-3 | 2026-08-31 00:27:23 | 45.75899 | 16.58484 | 33° | 26km/h | 18115m | 5.2m/s | -57.1°C | 4.8% | 0hPa | 2.7V | 00:00:00 | 01:21:40 | 00:00:00 | |
| OE5DXL-15 | 2026-08-31 00:27:19 | 45.75874 | 16.58461 | 30° | 24km/h | 18097m | 3.9m/s | 0°C | 0% | 0hPa | 2.7V | 00:00:00 | 00:00:00 | 00:00:00 | |
| 9A1FER-10 | 2026-08-31 00:27:16 | 45.75854 | 16.58443 | 33° | 24km/h | 18083m | 4.4m/s | -57.3°C | 4.9% | 0hPa | 2.7V | 00:00:00 | 01:21:33 | 00:00:00 | |
| OE3JTB-15 | 2026-08-31 00:27:15 | 45.75843 | 16.58435 | 21° | 42km/h | 18073m | 4.1m/s | -57.4°C | 4.9% | 0hPa | 2.6V | 00:00:00 | 00:00:00 | 00:00:00 | |
| OE5DRO-10 | 2026-08-31 00:27:09 | 45.75818 | 16.58423 | 19° | 26km/h | 18048m | 4.3m/s | -57.7°C | 5.1% | 0hPa | 2.6V | 00:00:00 | 00:00:00 | 08:30:00 | |
| 9A1FER-3 | 2026-08-31 00:27:08 | 45.75813 | 16.58420 | 27° | 26km/h | 18044m | 4.9m/s | -57.7°C | 5.0% | 0hPa | 2.7V | 00:00:00 | 01:21:25 | 00:00:00 | |
| 9A1FER-10 | 2026-08-31 00:27:01 | 45.75773 | 16.58392 | 20° | 26km/h | 18010m | 5.6m/s | -57.8°C | 5.1% | 0hPa | 2.7V | 00:00:00 | 01:21:18 | 00:00:00 | |
| 9A1FER-3 | 2026-08-31 00:26:53 | 45.75720 | 16.58369 | 17° | 20km/h | 17973m | 5.1m/s | -57.7°C | 5.1% | 0hPa | 2.7V | 00:00:00 | 01:21:10 | 00:00:00 | |
| OE5DRO-10 | 2026-08-31 00:26:50 | 45.75702 | 16.58363 | 8° | 20km/h | 17959m | 4.4m/s | -57.7°C | 5.1% | 0hPa | 2.6V | 00:00:00 | 00:00:00 | 00:00:00 | |
| OE5DXL-15 | 2026-08-31 00:26:48 | 45.75692 | 16.58361 | 13° | 16km/h | 17948m | 4.5m/s | 0°C | 0% | 0hPa | 2.6V | 00:00:00 | 01:21:05 | 00:00:00 | |
| 9A1FER-10 | 2026-08-31 00:26:46 | 45.75682 | 16.58359 | 359° | 20km/h | 17938m | 5.7m/s | -57.7°C | 5.2% | 0hPa | 2.6V | 00:00:00 | 01:21:03 | 00:00:00 | |
| 9A1FER-3 | 2026-08-31 00:26:38 | 45.75646 | 16.58360 | 10° | 18km/h | 17900m | 4.3m/s | -57.6°C | 5.1% | 0hPa | 2.6V | 00:00:00 | 01:20:55 | 00:00:00 | |
| 9A1FER-10 | 2026-08-31 00:26:31 | 45.75609 | 16.58367 | 341° | 13km/h | 17868m | 4.2m/s | -57.6°C | 5.1% | 0hPa | 2.6V | 00:00:00 | 01:20:48 | 00:00:00 | |
| 9A1FER-3 | 2026-08-31 00:26:23 | 45.75582 | 16.58365 | 28° | 9km/h | 17830m | 4.8m/s | -57.4°C | 5.2% | 0hPa | 2.7V | 00:00:00 | 01:20:40 | 00:00:00 | |
| OE5DXL-15 | 2026-08-31 00:26:18 | 45.75569 | 16.58366 | 304° | 11km/h | 17806m | 5.4m/s | 0°C | 0% | 0hPa | 2.7V | 00:00:00 | 00:00:00 | 00:00:00 | |
| 9A1FER-10 | 2026-08-31 00:26:16 | 45.75567 | 16.58373 | 296° | 7km/h | 17797m | 4.9m/s | -57.2°C | 5.1% | 0hPa | 2.7V | 00:00:00 | 01:20:33 | 00:00:00 | |
| OE5DRO-10 | 2026-08-31 00:26:12 | 45.75559 | 16.58380 | 9° | 7km/h | 17779m | 5.8m/s | -57.1°C | 5.0% | 0hPa | 2.7V | 00:00:00 | 00:00:00 | 00:00:00 | |
| 9A1FER-3 | 2026-08-31 00:26:08 | 45.75553 | 16.58376 | 22° | 7km/h | 17760m | 3.7m/s | -56.9°C | 4.9% | 0hPa | 2.6V | 00:00:00 | 01:20:25 | 00:00:00 | |
| 9A1FER-10 | 2026-08-31 00:26:01 | 45.75550 | 16.58388 | 264° | 7km/h | 17727m | 3.9m/s | -56.6°C | 4.9% | 0hPa | 2.6V | 00:00:00 | 01:20:18 | 00:00:00 | |
| 9A1FER-3 | 2026-08-31 00:25:53 | 45.75548 | 16.58379 | 79° | 5km/h | 17688m | 4.1m/s | -56.5°C | 4.8% | 0hPa | 2.6V | 00:00:00 | 01:20:10 | 00:00:00 | |
| 9A1FER-10 | 2026-08-31 00:25:46 | 45.75545 | 16.58380 | 90° | 7km/h | 17649m | 3.8m/s | -56.9°C | 4.9% | 0hPa | 2.6V | 00:00:00 | 01:20:03 | 08:30:00 | |
| 9A1FER-3 | 2026-08-31 00:25:38 | 45.75557 | 16.58374 | 156° | 13km/h | 17608m | 4.3m/s | -56.9°C | 4.8% | 0hPa | 2.6V | 00:00:00 | 01:19:55 | 00:00:00 | |
| OE5DRO-10 | 2026-08-31 00:25:34 | 45.75564 | 16.58366 | 147° | 16km/h | 17588m | 5.2m/s | -57.0°C | 4.8% | 0hPa | 2.6V | 00:00:00 | 00:00:00 | 00:00:00 | |
| 9A1FER-10 | 2026-08-31 00:25:31 | 45.75573 | 16.58360 | 161° | 16km/h | 17574m | 5.4m/s | -57.1°C | 4.9% | 0hPa | 2.6V | 00:00:00 | 01:19:48 | 00:00:00 | |
| 9A1FER-3 | 2026-08-31 00:25:23 | 45.75602 | 16.58334 | 137° | 16km/h | 17535m | 3.8m/s | -57.4°C | 5.0% | 0hPa | 2.6V | 00:00:00 | 01:19:40 | 08:30:00 | |
| 9A1FER-10 | 2026-08-31 00:25:16 | 45.75620 | 16.58298 | 120° | 20km/h | 17503m | 4.5m/s | -57.8°C | 5.2% | 0hPa | 2.6V | 00:00:00 | 01:19:33 | 00:00:00 | |
| OE5DRO-10 | 2026-08-31 00:25:15 | 45.75623 | 16.58292 | 119° | 20km/h | 17499m | 3.9m/s | -57.8°C | 5.1% | 0hPa | 2.6V | 00:00:00 | 00:00:00 | 00:00:00 | |
| 9A1FER-3 | 2026-08-31 00:25:08 | 45.75634 | 16.58253 | 103° | 24km/h | 17467m | 3.4m/s | -57.9°C | 5.1% | 0hPa | 2.6V | 00:00:00 | 01:19:25 | 00:00:00 | |
| 9A1FER-10 | 2026-08-31 00:25:01 | 45.75647 | 16.58197 | 110° | 24km/h | 17435m | 4.2m/s | -57.9°C | 5.2% | 0hPa | 2.6V | 00:00:00 | 01:19:18 | 00:00:00 | |
| OE5DRO-10 | 2026-08-31 00:24:56 | 45.75654 | 16.58157 | 102° | 27km/h | 17412m | 4.1m/s | -57.9°C | 5.1% | 0hPa | 2.7V | 00:00:00 | 00:00:00 | 00:00:00 | |
| 9A1FER-3 | 2026-08-31 00:24:53 | 45.75659 | 16.58131 | 107° | 27km/h | 17398m | 3.7m/s | -57.9°C | 5.1% | 0hPa | 2.7V | 00:00:00 | 01:19:10 | 00:00:00 | |
| 9A1FER-10 | 2026-08-31 00:24:46 | 45.75668 | 16.58070 | 100° | 29km/h | 17363m | 4.1m/s | -58.4°C | 5.3% | 0hPa | 2.7V | 00:00:00 | 01:19:03 | 00:00:00 | |
| OE5DRO-10 | 2026-08-31 00:24:37 | 45.75688 | 16.57979 | 108° | 31km/h | 17319m | 3.6m/s | -58.7°C | 5.5% | 0hPa | 2.7V | 00:00:00 | 00:00:00 | 00:00:00 | |
| 9A1FER-10 | 2026-08-31 00:24:31 | 45.75698 | 16.57912 | 98° | 31km/h | 17291m | 5.8m/s | -58.6°C | 5.4% | 0hPa | 2.7V | 00:00:00 | 01:18:48 | 00:00:00 | |
| 9A1FER-3 | 2026-08-31 00:24:23 | 45.75705 | 16.57818 | 95° | 31km/h | 17252m | 4.7m/s | -58.6°C | 5.4% | 0hPa | 2.7V | 00:00:00 | 01:18:40 | 00:00:00 | |
| OE5DRO-10 | 2026-08-31 00:24:18 | 45.75706 | 16.57765 | 98° | 37km/h | 17228m | 4.3m/s | -58.6°C | 5.4% | 0hPa | 2.7V | 00:00:00 | 00:00:00 | 08:30:00 | |
| 9A1FER-10 | 2026-08-31 00:24:16 | 45.75709 | 16.57742 | 103° | 37km/h | 17218m | 5.1m/s | -58.5°C | 5.3% | 0hPa | 2.7V | 00:00:00 | 01:18:33 | 00:00:00 | |
| 9A1FER-3 | 2026-08-31 00:24:08 | 45.75723 | 16.57650 | 101° | 38km/h | 17179m | 4.4m/s | -58.6°C | 5.4% | 0hPa | 2.7V | 00:00:00 | 01:18:25 | 00:00:00 | |
| 9A1FER-10 | 2026-08-31 00:24:01 | 45.75750 | 16.57556 | 118° | 44km/h | 17144m | 3.9m/s | -58.8°C | 5.4% | 0hPa | 2.7V | 00:00:00 | 01:18:18 | 00:00:00 | |
| OE5DRO-10 | 2026-08-31 00:23:59 | 45.75758 | 16.57531 | 114° | 42km/h | 17134m | 5.0m/s | -59.0°C | 5.5% | 0hPa | 2.7V | 00:00:00 | 00:00:00 | 00:00:00 | |
| 9A1FER-3 | 2026-08-31 00:23:53 | 45.75777 | 16.57454 | 108° | 46km/h | 17104m | 5.8m/s | -59.1°C | 5.5% | 0hPa | 2.7V | 00:00:00 | 01:18:10 | 00:00:00 | |
| 9A1FER-10 | 2026-08-31 00:23:46 | 45.75810 | 16.57340 | 114° | 46km/h | 17069m | 4.1m/s | -59.4°C | 5.6% | 0hPa | 2.6V | 00:00:00 | 01:18:03 | 00:00:00 | |
| OE5DRO-10 | 2026-08-31 00:23:40 | 45.75829 | 16.57256 | 102° | 47km/h | 17038m | 4.9m/s | -59.5°C | 5.8% | 0hPa | 2.6V | 00:00:00 | 00:00:00 | 00:00:00 | |
| 9A1FER-3 | 2026-08-31 00:23:38 | 45.75833 | 16.57227 | 101° | 49km/h | 17028m | 5.5m/s | -59.5°C | 5.8% | 0hPa | 2.6V | 00:00:00 | 01:17:55 | 00:00:00 | |
| 9A1FER-10 | 2026-08-31 00:23:31 | 45.75856 | 16.57101 | 102° | 47km/h | 16993m | 6.1m/s | -59.3°C | 5.7% | 0hPa | 2.6V | 00:00:00 | 01:17:48 | 08:30:00 | |
| 9A1FER-3 | 2026-08-31 00:23:23 | 45.75865 | 16.56966 | 100° | 46km/h | 16952m | 4.1m/s | -59.4°C | 5.7% | 0hPa | 2.6V | 00:00:00 | 01:17:40 | 00:00:00 | |
| OE5DRO-10 | 2026-08-31 00:23:21 | 45.75869 | 16.56933 | 101° | 46km/h | 16942m | 5.1m/s | -59.4°C | 5.7% | 0hPa | 2.6V | 00:00:00 | 00:00:00 | 00:00:00 | |
| 9A1FER-10 | 2026-08-31 00:23:16 | 45.75879 | 16.56846 | 94° | 44km/h | 16918m | 4.4m/s | -59.4°C | 5.8% | 0hPa | 2.6V | 00:00:00 | 01:17:33 | 00:00:00 | |
| 9A1FER-3 | 2026-08-31 00:23:08 | 45.75878 | 16.56719 | 92° | 42km/h | 16879m | 3.3m/s | -59.3°C | 5.8% | 0hPa | 2.6V | 00:00:00 | 01:17:25 | 08:30:00 | |
| OE5DRO-10 | 2026-08-31 00:23:02 | 45.75882 | 16.56626 | 90° | 42km/h | 16851m | 5.0m/s | -59.1°C | 5.8% | 0hPa | 2.7V | 00:00:00 | 00:00:00 | 00:00:00 | |
| 9A1FER-10 | 2026-08-31 00:23:01 | 45.75881 | 16.56612 | 87° | 42km/h | 16846m | 4.4m/s | -59.1°C | 5.8% | 0hPa | 2.7V | 00:00:00 | 01:17:18 | 00:00:00 | |
| 9A1FER-3 | 2026-08-31 00:22:53 | 45.75871 | 16.56488 | 85° | 40km/h | 16805m | 5.8m/s | -58.9°C | 5.7% | 0hPa | 2.7V | 00:00:00 | 01:17:10 | 00:00:00 | |
| 9A1FER-10 | 2026-08-31 00:22:46 | 45.75861 | 16.56382 | 77° | 38km/h | 16768m | 6.1m/s | -58.5°C | 5.6% | 0hPa | 2.7V | 00:00:00 | 01:17:03 | 00:00:00 | |
| OE5DRO-10 | 2026-08-31 00:22:43 | 45.75855 | 16.56339 | 82° | 37km/h | 16752m | 4.7m/s | -58.4°C | 5.5% | 0hPa | 2.7V | 00:00:00 | 00:00:00 | 00:00:00 | |
| 9A1FER-3 | 2026-08-31 00:22:38 | 45.75850 | 16.56271 | 85° | 37km/h | 16727m | 5.2m/s | -58.4°C | 5.5% | 0hPa | 2.7V | 00:00:00 | 01:16:55 | 00:00:00 | |
| 9A1FER-10 | 2026-08-31 00:22:31 | 45.75840 | 16.56178 | 83° | 35km/h | 16691m | 4.9m/s | -58.7°C | 5.7% | 0hPa | 2.7V | 00:00:00 | 01:16:48 | 00:00:00 | |
| OE5DRO-10 | 2026-08-31 00:22:24 | 45.75840 | 16.56087 | 93° | 35km/h | 16656m | 4.6m/s | -58.6°C | 5.6% | 0hPa | 2.7V | 00:00:00 | 00:00:00 | 00:00:00 | |
| 9A1FER-3 | 2026-08-31 00:22:23 | 45.75840 | 16.56073 | 91° | 35km/h | 16651m | 4.9m/s | -58.6°C | 5.6% | 0hPa | 2.7V | 00:00:00 | 01:16:40 | 00:00:00 | |
| 9A1FER-10 | 2026-08-31 00:22:16 | 45.75834 | 16.55993 | 84° | 37km/h | 16616m | 4.7m/s | -58.6°C | 5.7% | 0hPa | 2.7V | 00:00:00 | 01:16:33 | 00:00:00 | |
| 9A1FER-3 | 2026-08-31 00:22:08 | 45.75837 | 16.55888 | 86° | 40km/h | 16576m | 4.6m/s | -58.9°C | 5.9% | 0hPa | 2.7V | 00:00:00 | 01:16:25 | 00:00:00 | |
| OE5DRO-10 | 2026-08-31 00:22:05 | 45.75833 | 16.55847 | 80° | 42km/h | 16562m | 4.4m/s | -58.9°C | 5.8% | 0hPa | 2.7V | 00:00:00 | 00:00:00 | 00:00:00 | |
| 9A1FER-10 | 2026-08-31 00:22:01 | 45.75827 | 16.55795 | 81° | 44km/h | 16543m | 5.4m/s | -59.1°C | 6.0% | 0hPa | 2.7V | 00:00:00 | 01:16:18 | 00:00:00 | |
| 9A1FER-3 | 2026-08-31 00:21:53 | 45.75812 | 16.55672 | 80° | 44km/h | 16506m | 4.4m/s | -59.2°C | 6.1% | 0hPa | 2.7V | 00:00:00 | 01:16:10 | 00:00:00 | |
| 9A1FER-10 | 2026-08-31 00:21:46 | 45.75792 | 16.55564 | 74° | 46km/h | 16471m | 4.5m/s | -59.2°C | 6.2% | 0hPa | 2.7V | 00:00:00 | 01:16:03 | 00:00:00 | |
| 9A1FER-10 | 2026-08-31 00:21:31 | 45.75748 | 16.55327 | 76° | 42km/h | 16403m | 4.2m/s | -59.0°C | 6.1% | 0hPa | 2.7V | 00:00:00 | 01:15:48 | 00:00:00 | |
| OE5DRO-10 | 2026-08-31 00:21:27 | 45.75738 | 16.55267 | 76° | 42km/h | 16385m | 5.5m/s | -59.1°C | 6.2% | 0hPa | 2.7V | 00:00:00 | 00:00:00 | 08:30:00 | |
| 9A1FER-3 | 2026-08-31 00:21:23 | 45.75729 | 16.55214 | 78° | 42km/h | 16366m | 4.5m/s | -59.1°C | 6.2% | 0hPa | 2.7V | 00:00:00 | 01:15:40 | 00:00:00 | |
| 9A1FER-10 | 2026-08-31 00:21:16 | 45.75713 | 16.55105 | 79° | 40km/h | 16333m | 3.8m/s | -59.3°C | 6.3% | 0hPa | 2.7V | 00:00:00 | 01:15:33 | 08:30:00 | |
| 9A1FER-3 | 2026-08-31 00:21:08 | 45.75691 | 16.54990 | 72° | 37km/h | 16296m | 5.2m/s | -59.5°C | 6.4% | 0hPa | 2.7V | 00:00:00 | 01:15:25 | 00:00:00 | |
| 9A1FER-10 | 2026-08-31 00:21:01 | 45.75675 | 16.54894 | 85° | 38km/h | 16263m | 5.0m/s | -59.5°C | 6.4% | 0hPa | 2.7V | 00:00:00 | 01:15:18 | 00:00:00 | |
| 9A1FER-3 | 2026-08-31 00:20:53 | 45.75658 | 16.54795 | 73° | 38km/h | 16226m | 4.5m/s | -59.6°C | 6.6% | 0hPa | 2.7V | 00:00:00 | 01:15:10 | 08:30:00 | |
| OE5DRO-10 | 2026-08-31 00:20:49 | 45.75645 | 16.54737 | 73° | 38km/h | 16209m | 4.5m/s | -59.7°C | 6.6% | 0hPa | 2.6V | 00:00:00 | 00:00:00 | 00:00:00 | |
| 9A1FER-10 | 2026-08-31 00:20:46 | 45.75636 | 16.54697 | 69° | 38km/h | 16195m | 5.6m/s | -59.8°C | 6.6% | 0hPa | 2.6V | 00:00:00 | 01:15:03 | 00:00:00 | |
| 9A1FER-3 | 2026-08-31 00:20:38 | 45.75601 | 16.54602 | 65° | 40km/h | 16157m | 4.1m/s | -59.9°C | 6.7% | 0hPa | 2.6V | 00:00:00 | 01:14:55 | 00:00:00 | |
| OE5DRO-10 | 2026-08-31 00:20:31 | 45.75571 | 16.54496 | 57° | 40km/h | 16119m | 4.8m/s | -59.8°C | 6.7% | 0hPa | 2.6V | 00:00:00 | 00:00:00 | 00:00:00 | |
| 9A1FER-3 | 2026-08-31 00:20:23 | 45.75530 | 16.54412 | 64° | 42km/h | 16089m | 4.4m/s | -59.9°C | 6.8% | 0hPa | 2.7V | 00:00:00 | 01:14:40 | 00:00:00 | |
| 9A1FER-10 | 2026-08-31 00:20:16 | 45.75496 | 16.54324 | 56° | 40km/h | 16056m | 4.1m/s | -59.8°C | 6.8% | 0hPa | 2.7V | 00:00:00 | 01:14:33 | 00:00:00 | |
| OE5DRO-10 | 2026-08-31 00:20:11 | 45.75468 | 16.54257 | 60° | 38km/h | 16035m | 5.3m/s | -59.7°C | 6.7% | 0hPa | 2.7V | 00:00:00 | 00:00:00 | 00:00:00 | |
| 9A1FER-3 | 2026-08-31 00:20:08 | 45.75452 | 16.54219 | 58° | 38km/h | 16020m | 3.7m/s | -59.6°C | 6.7% | 0hPa | 2.7V | 00:00:00 | 01:14:25 | 00:00:00 | |
| 9A1FER-10 | 2026-08-31 00:20:01 | 45.75418 | 16.54143 | 59° | 33km/h | 15987m | 4.0m/s | -59.4°C | 6.6% | 0hPa | 2.6V | 00:00:00 | 01:14:18 | 00:00:00 | |
| 9A1FER-3 | 2026-08-31 00:19:53 | 45.75380 | 16.54039 | 68° | 33km/h | 15951m | 3.6m/s | -59.2°C | 6.5% | 0hPa | 2.6V | 00:00:00 | 01:14:10 | 00:00:00 | |
| OE5DRO-10 | 2026-08-31 00:19:52 | 45.75377 | 16.54027 | 72° | 33km/h | 15946m | 5.8m/s | -59.2°C | 6.5% | 0hPa | 2.6V | 00:00:00 | 00:00:00 | 00:00:00 | |
| 9A1FER-10 | 2026-08-31 00:19:46 | 45.75362 | 16.53969 | 70° | 35km/h | 15918m | 3.2m/s | -59.0°C | 6.4% | 0hPa | 2.6V | 00:00:00 | 01:14:03 | 00:00:00 | |
| 9A1FER-3 | 2026-08-31 00:19:38 | 45.75336 | 16.53873 | 71° | 33km/h | 15881m | 5.4m/s | -58.8°C | 6.5% | 0hPa | 2.7V | 00:00:00 | 01:13:55 | 00:00:00 | |
| OE5DRO-10 | 2026-08-31 00:19:33 | 45.75327 | 16.53816 | 81° | 33km/h | 15857m | 4.8m/s | -58.7°C | 6.6% | 0hPa | 2.7V | 00:00:00 | 00:00:00 | 00:00:00 | |
| 9A1FER-10 | 2026-08-31 00:19:31 | 45.75324 | 16.53793 | 81° | 31km/h | 15848m | 5.3m/s | -58.7°C | 6.5% | 0hPa | 2.7V | 00:00:00 | 01:13:48 | 00:00:00 | |
| 9A1FER-3 | 2026-08-31 00:19:23 | 45.75307 | 16.53704 | 85° | 33km/h | 15812m | 4.5m/s | -58.8°C | 6.6% | 0hPa | 2.7V | 00:00:00 | 01:13:40 | 00:00:00 | |
| OE5DRO-10 | 2026-08-31 00:19:14 | 45.75312 | 16.53597 | 88° | 35km/h | 15771m | 4.9m/s | -58.5°C | 6.5% | 0hPa | 2.7V | 00:00:00 | 00:00:00 | 00:00:00 | |
| 9A1FER-3 | 2026-08-31 00:19:08 | 45.75310 | 16.53523 | 89° | 35km/h | 15742m | 5.0m/s | -58.5°C | 6.6% | 0hPa | 2.7V | 00:00:00 | 01:13:25 | 00:00:00 | |
| OE5DRO-10 | 2026-08-31 00:18:55 | 45.75327 | 16.53368 | 98° | 42km/h | 15682m | 5.6m/s | -58.6°C | 7.1% | 0hPa | 2.7V | 00:00:00 | 00:00:00 | 00:00:00 | |
| 9A1FER-3 | 2026-08-31 00:18:53 | 45.75330 | 16.53341 | 100° | 42km/h | 15672m | 5.1m/s | -58.6°C | 7.1% | 0hPa | 2.7V | 00:00:00 | 01:13:10 | 00:00:00 | |
| 9A1FER-10 | 2026-08-31 00:18:50 | 45.75336 | 16.53301 | 103° | 46km/h | 15658m | 4.9m/s | -58.7°C | 7.1% | 0hPa | 2.7V | 00:00:00 | 01:13:07 | 00:00:00 | |
| 9A1FER-3 | 2026-08-31 00:18:38 | 45.75371 | 16.53119 | 107° | 51km/h | 15601m | 4.6m/s | -59.0°C | 7.6% | 0hPa | 2.7V | 00:00:00 | 01:12:55 | 08:30:00 | |
| OE5DRO-10 | 2026-08-31 00:18:37 | 45.75377 | 16.53085 | 103° | 53km/h | 15593m | 5.6m/s | -59.0°C | 7.7% | 0hPa | 2.6V | 00:00:00 | 00:00:00 | 08:30:00 | |
| 9A1FER-10 | 2026-08-31 00:18:35 | 45.75380 | 16.53067 | 102° | 51km/h | 15588m | 4.0m/s | -59.0°C | 7.7% | 0hPa | 2.6V | 00:00:00 | 01:12:52 | 08:30:00 | |
| 9A1FER-3 | 2026-08-31 00:18:23 | 45.75414 | 16.52849 | 105° | 55km/h | 15531m | 3.0m/s | -59.6°C | 8.7% | 0hPa | 2.7V | 00:00:00 | 01:12:40 | 00:00:00 | |
| 9A1FER-10 | 2026-08-31 00:18:20 | 45.75423 | 16.52792 | 101° | 57km/h | 15516m | 6.0m/s | -59.7°C | 8.9% | 0hPa | 2.7V | 00:00:00 | 01:12:37 | 00:00:00 | |
| OE5DRO-10 | 2026-08-31 00:18:17 | 45.75429 | 16.52730 | 97° | 58km/h | 15502m | 4.6m/s | -59.7°C | 8.8% | 0hPa | 2.7V | 00:00:00 | 00:00:00 | 00:00:00 | |
| 9A1FER-3 | 2026-08-31 00:18:08 | 45.75454 | 16.52554 | 106° | 60km/h | 15460m | 5.3m/s | -59.8°C | 9.6% | 0hPa | 2.7V | 00:00:00 | 01:12:25 | 00:00:00 | |
| 9A1FER-10 | 2026-08-31 00:18:05 | 45.75464 | 16.52490 | 101° | 62km/h | 15446m | 4.2m/s | -59.8°C | 9.6% | 0hPa | 2.7V | 00:00:00 | 01:12:22 | 00:00:00 | |
| OE5DRO-10 | 2026-08-31 00:17:58 | 45.75486 | 16.52337 | 106° | 60km/h | 15415m | 5.0m/s | -59.8°C | 9.6% | 0hPa | 2.7V | 00:00:00 | 00:00:00 | 00:00:00 | |
| 9A1FER-3 | 2026-08-31 00:17:53 | 45.75508 | 16.52233 | 103° | 60km/h | 15392m | 4.6m/s | -59.9°C | 9.6% | 0hPa | 2.7V | 00:00:00 | 01:12:10 | 00:00:00 | |
| 9A1FER-10 | 2026-08-31 00:17:50 | 45.75518 | 16.52164 | 103° | 58km/h | 15378m | 3.9m/s | -59.9°C | 9.6% | 0hPa | 2.6V | 00:00:00 | 01:12:07 | 00:00:00 | |
| OE5DRO-10 | 2026-08-31 00:17:39 | 45.75550 | 16.51937 | 95° | 60km/h | 15327m | 3.9m/s | -60.6°C | 10.6% | 0hPa | 2.7V | 00:00:00 | 00:00:00 | 00:00:00 | |
| 9A1FER-3 | 2026-08-31 00:17:38 | 45.75551 | 16.51917 | 94° | 58km/h | 15323m | 4.6m/s | -60.6°C | 10.6% | 0hPa | 2.6V | 00:00:00 | 01:11:55 | 00:00:00 | |
| 9A1FER-10 | 2026-08-31 00:17:35 | 45.75554 | 16.51857 | 95° | 62km/h | 15310m | 4.7m/s | -60.7°C | 10.4% | 0hPa | 2.6V | 00:00:00 | 01:11:52 | 00:00:00 | |
| 9A1FER-3 | 2026-08-31 00:17:23 | 45.75586 | 16.51598 | 100° | 69km/h | 15258m | 4.9m/s | -60.7°C | 10.6% | 0hPa | 2.6V | 00:00:00 | 01:11:40 | 00:00:00 | |
| 9A1FER-10 | 2026-08-31 00:17:20 | 45.75594 | 16.51522 | 98° | 68km/h | 15244m | 4.2m/s | -60.7°C | 10.6% | 0hPa | 2.6V | 00:00:00 | 01:11:37 | 00:00:00 | |
| OE3JTB-15 | 2026-08-31 00:17:15 | 45.75606 | 16.51400 | 101° | 71km/h | 15222m | 5.3m/s | -60.6°C | 10.5% | 0hPa | 2.6V | 00:00:00 | 01:11:32 | 00:00:00 | |
| 9A1FER-3 | 2026-08-31 00:17:08 | 45.75613 | 16.51229 | 90° | 71km/h | 15189m | 4.8m/s | -60.6°C | 10.6% | 0hPa | 2.6V | 00:00:00 | 01:11:25 | 00:00:00 | |
| 9A1FER-10 | 2026-08-31 00:17:05 | 45.75615 | 16.51153 | 97° | 71km/h | 15176m | 3.6m/s | -60.8°C | 10.6% | 0hPa | 2.7V | 00:00:00 | 01:11:22 | 00:00:00 | |
| OE5DRO-10 | 2026-08-31 00:17:01 | 45.75624 | 16.51054 | 95° | 71km/h | 15158m | 4.6m/s | -60.8°C | 10.6% | 0hPa | 2.6V | 00:00:00 | 00:00:00 | 00:00:00 | |
| 9A1FER-3 | 2026-08-31 00:16:53 | 45.75624 | 16.50844 | 91° | 71km/h | 15120m | 4.7m/s | -60.7°C | 10.2% | 0hPa | 2.6V | 00:00:00 | 01:11:10 | 00:00:00 | |
| 9A1FER-10 | 2026-08-31 00:16:50 | 45.75625 | 16.50764 | 92° | 71km/h | 15106m | 5.1m/s | -60.7°C | 10.2% | 0hPa | 2.6V | 00:00:00 | 01:11:07 | 00:00:00 | |
| OE3JTB-15 | 2026-08-31 00:16:45 | 45.75625 | 16.50636 | 85° | 69km/h | 15084m | 4.2m/s | -60.9°C | 10.2% | 0hPa | 2.6V | 00:00:00 | 00:00:00 | 00:00:00 | |
| OE5DRO-10 | 2026-08-31 00:16:42 | 45.75618 | 16.50561 | 83° | 69km/h | 15071m | 3.4m/s | -60.9°C | 10.0% | 0hPa | 2.7V | 00:00:00 | 00:00:00 | 00:00:00 | |
| 9A1FER-3 | 2026-08-31 00:16:38 | 45.75612 | 16.50456 | 89° | 68km/h | 15054m | 3.9m/s | -60.9°C | 10.1% | 0hPa | 2.7V | 00:00:00 | 01:10:55 | 00:00:00 | |
| 9A1FER-10 | 2026-08-31 00:16:35 | 45.75611 | 16.50382 | 88° | 68km/h | 15042m | 3.3m/s | -60.9°C | 10.1% | 0hPa | 2.7V | 00:00:00 | 01:10:52 | 00:00:00 | |
| 9A1FER-3 | 2026-08-31 00:16:23 | 45.75578 | 16.50096 | 87° | 66km/h | 14991m | 3.6m/s | -60.7°C | 9.1% | 0hPa | 2.7V | 00:00:00 | 01:10:40 | 08:30:00 | |
| 9A1FER-10 | 2026-08-31 00:16:20 | 45.75578 | 16.50016 | 93° | 66km/h | 14978m | 4.2m/s | -60.7°C | 9.1% | 0hPa | 2.6V | 00:00:00 | 01:10:37 | 08:30:00 | |
| OE3JTB-15 | 2026-08-31 00:16:15 | 45.75577 | 16.49894 | 85° | 62km/h | 14958m | 3.2m/s | -60.6°C | 9.1% | 0hPa | 2.7V | 00:00:00 | 00:00:00 | 00:00:00 | |
| 9A1FER-3 | 2026-08-31 00:16:08 | 45.75570 | 16.49737 | 86° | 62km/h | 14928m | 3.8m/s | -60.4°C | 8.8% | 0hPa | 2.7V | 00:00:00 | 01:10:25 | 00:00:00 | |
| 9A1FER-10 | 2026-08-31 00:16:05 | 45.75563 | 16.49665 | 83° | 60km/h | 14914m | 5.8m/s | -60.4°C | 8.7% | 0hPa | 2.7V | 00:00:00 | 01:10:22 | 00:00:00 | |
| OE5DRO-10 | 2026-08-31 00:16:04 | 45.75561 | 16.49641 | 84° | 58km/h | 14909m | 3.7m/s | -60.3°C | 8.9% | 0hPa | 2.7V | 00:00:00 | 00:00:00 | 00:00:00 | |
| 9A1FER-3 | 2026-08-31 00:15:53 | 45.75547 | 16.49407 | 86° | 57km/h | 14861m | 6.2m/s | -60.1°C | 9.0% | 0hPa | 2.7V | 00:00:00 | 01:10:10 | 00:00:00 | |
| 9A1FER-10 | 2026-08-31 00:15:50 | 45.75546 | 16.49344 | 91° | 57km/h | 14847m | 3.4m/s | -60.1°C | 9.0% | 0hPa | 2.7V | 00:00:00 | 01:10:07 | 00:00:00 | |
| OE5DRO-10 | 2026-08-31 00:15:45 | 45.75546 | 16.49239 | 86° | 57km/h | 14825m | 4.0m/s | -60.1°C | 8.9% | 0hPa | 2.7V | 00:00:00 | 00:00:00 | 08:30:00 | |
| 9A1FER-3 | 2026-08-31 00:15:38 | 45.75536 | 16.49096 | 89° | 57km/h | 14792m | 4.8m/s | -60.1°C | 9.2% | 0hPa | 2.7V | 00:00:00 | 01:09:55 | 00:00:00 | |
| 9A1FER-10 | 2026-08-31 00:15:35 | 45.75539 | 16.49037 | 97° | 58km/h | 14778m | 5.9m/s | -60.1°C | 9.2% | 0hPa | 2.6V | 00:00:00 | 01:09:52 | 00:00:00 | |
| OE5DRO-10 | 2026-08-31 00:15:26 | 45.75541 | 16.48851 | 85° | 58km/h | 14736m | 6.3m/s | -60.0°C | 9.4% | 0hPa | 2.6V | 00:00:00 | 00:00:00 | 00:00:00 | |
| 9A1FER-3 | 2026-08-31 00:15:23 | 45.75539 | 16.48790 | 89° | 60km/h | 14723m | 5.9m/s | -60.0°C | 9.5% | 0hPa | 2.6V | 00:00:00 | 01:09:40 | 00:00:00 | |
| 9A1FER-10 | 2026-08-31 00:15:20 | 45.75538 | 16.48725 | 89° | 60km/h | 14709m | 4.5m/s | -59.9°C | 9.7% | 0hPa | 2.6V | 00:00:00 | 01:09:37 | 00:00:00 | |
| 9A1FER-3 | 2026-08-31 00:15:08 | 45.75532 | 16.48467 | 94° | 60km/h | 14653m | 5.9m/s | -60.1°C | 10.6% | 0hPa | 2.6V | 00:00:00 | 01:09:25 | 00:00:00 | |
| OE5DRO-10 | 2026-08-31 00:15:07 | 45.75533 | 16.48444 | 95° | 62km/h | 14649m | 2.9m/s | 0°C | 0% | 0hPa | 2.6V | 00:00:00 | 00:00:00 | 00:00:00 | |
| 9A1FER-10 | 2026-08-31 00:15:05 | 45.75535 | 16.48399 | 96° | 60km/h | 14640m | 3.6m/s | -60.0°C | 10.5% | 0hPa | 2.6V | 00:00:00 | 01:09:22 | 00:00:00 | |
| 9A1FER-3 | 2026-08-31 00:14:53 | 45.75537 | 16.48137 | 97° | 62km/h | 14585m | 4.4m/s | -60.2°C | 10.9% | 0hPa | 2.6V | 00:00:00 | 01:09:10 | 00:00:00 | |
| 9A1FER-10 | 2026-08-31 00:14:50 | 45.75544 | 16.48069 | 101° | 62km/h | 14572m | 3.7m/s | -60.2°C | 11.0% | 0hPa | 2.7V | 00:00:00 | 01:09:07 | 00:00:00 | |
| OE5DRO-10 | 2026-08-31 00:14:48 | 45.75550 | 16.48025 | 102° | 62km/h | 14562m | 3.1m/s | -60.2°C | 11.2% | 0hPa | 2.6V | 00:00:00 | 00:00:00 | 00:00:00 | |
| OE3JTB-15 | 2026-08-31 00:14:43 | 45.75557 | 16.47914 | 95° | 64km/h | 14540m | 3.3m/s | -60.3°C | 11.6% | 0hPa | 2.7V | 00:00:00 | 01:09:00 | 00:00:00 | |
| 9A1FER-3 | 2026-08-31 00:14:38 | 45.75566 | 16.47808 | 103° | 66km/h | 14516m | 5.0m/s | -60.5°C | 11.8% | 0hPa | 2.7V | 00:00:00 | 01:08:55 | 00:00:00 | |
| 9A1FER-10 | 2026-08-31 00:14:35 | 45.75578 | 16.47740 | 104° | 66km/h | 14503m | 5.8m/s | -60.5°C | 11.8% | 0hPa | 2.7V | 00:00:00 | 01:08:52 | 00:00:00 | |
| OE5DRO-10 | 2026-08-31 00:14:29 | 45.75594 | 16.47598 | 95° | 64km/h | 14477m | 2.8m/s | -60.4°C | 12.1% | 0hPa | 2.7V | 00:00:00 | 00:00:00 | 00:00:00 | |
| 9A1FER-3 | 2026-08-31 00:14:23 | 45.75603 | 16.47458 | 97° | 62km/h | 14448m | 5.6m/s | -60.2°C | 12.1% | 0hPa | 2.7V | 00:00:00 | 01:08:40 | 00:00:00 | |
| 9A1FER-10 | 2026-08-31 00:14:20 | 45.75609 | 16.47394 | 98° | 62km/h | 14436m | 4.3m/s | -60.1°C | 11.9% | 0hPa | 2.7V | 00:00:00 | 01:08:37 | 00:00:00 | |
| OE3JTB-15 | 2026-08-31 00:14:12 | 45.75620 | 16.47209 | 97° | 62km/h | 14399m | 3.2m/s | -59.9°C | 12.1% | 0hPa | 2.7V | 00:00:00 | 00:00:00 | 00:00:00 | |
| OE5DRO-10 | 2026-08-31 00:14:10 | 45.75624 | 16.47166 | 99° | 60km/h | 14391m | 3.2m/s | -59.9°C | 12.2% | 0hPa | 2.6V | 00:00:00 | 00:00:00 | 00:00:00 | |
| 9A1FER-3 | 2026-08-31 00:14:08 | 45.75628 | 16.47124 | 97° | 60km/h | 14381m | 4.4m/s | -59.8°C | 12.3% | 0hPa | 2.6V | 00:00:00 | 01:08:25 | 08:30:00 | |
| 9A1FER-10 | 2026-08-31 00:14:05 | 45.75634 | 16.47062 | 100° | 62km/h | 14369m | 4.5m/s | -59.7°C | 12.4% | 0hPa | 2.7V | 00:00:00 | 01:08:22 | 08:30:00 | |
| 9A1FER-3 | 2026-08-31 00:13:53 | 45.75662 | 16.46798 | 97° | 64km/h | 14312m | 4.3m/s | -59.8°C | 12.5% | 0hPa | 2.6V | 00:00:00 | 01:08:10 | 00:00:00 | |
| OE5DRO-10 | 2026-08-31 00:13:51 | 45.75667 | 16.46753 | 99° | 66km/h | 14303m | 6.0m/s | 0°C | 0% | 0hPa | 2.6V | 00:00:00 | 00:00:00 | 00:00:00 | |
| 9A1FER-10 | 2026-08-31 00:13:50 | 45.75669 | 16.46731 | 100° | 66km/h | 14298m | 4.4m/s | -59.9°C | 12.8% | 0hPa | 2.6V | 00:00:00 | 01:08:07 | 00:00:00 | |
| OE3JTB-15 | 2026-08-31 00:13:43 | 45.75691 | 16.46570 | 100° | 68km/h | 14266m | 4.1m/s | -60.0°C | 13.0% | 0hPa | 2.6V | 00:00:00 | 00:00:00 | 00:00:00 | |
| 9A1FER-3 | 2026-08-31 00:13:38 | 45.75707 | 16.46453 | 106° | 69km/h | 14245m | 4.2m/s | -60.3°C | 13.1% | 0hPa | 2.6V | 00:00:00 | 01:07:55 | 00:00:00 | |
| 9A1FER-10 | 2026-08-31 00:13:35 | 45.75722 | 16.46383 | 109° | 68km/h | 14230m | 3.6m/s | -60.6°C | 13.4% | 0hPa | 2.6V | 00:00:00 | 01:07:52 | 00:00:00 | |
| OE5DRO-10 | 2026-08-31 00:13:32 | 45.75737 | 16.46313 | 104° | 68km/h | 14217m | 5.6m/s | 0°C | 0% | 0hPa | 2.6V | 00:00:00 | 00:00:00 | 00:00:00 | |
| 9A1FER-3 | 2026-08-31 00:13:23 | 45.75769 | 16.46092 | 103° | 64km/h | 14172m | 4.6m/s | -60.9°C | 13.3% | 0hPa | 2.6V | 00:00:00 | 01:07:40 | 00:00:00 | |
| 9A1FER-10 | 2026-08-31 00:13:20 | 45.75779 | 16.46023 | 100° | 62km/h | 14158m | 3.8m/s | -60.8°C | 13.2% | 0hPa | 2.6V | 00:00:00 | 01:07:37 | 00:00:00 | |
| OE3JTB-15 | 2026-08-31 00:13:14 | 45.75792 | 16.45888 | 96° | 58km/h | 14132m | 4.2m/s | -60.9°C | 12.9% | 0hPa | 2.6V | 00:00:00 | 01:07:31 | 00:00:00 | |
| OE5DRO-10 | 2026-08-31 00:13:13 | 45.75794 | 16.45866 | 99° | 60km/h | 14127m | 5.3m/s | 0°C | 0% | 0hPa | 2.6V | 00:00:00 | 00:00:00 | 00:00:00 | |
| 9A1FER-3 | 2026-08-31 00:13:08 | 45.75804 | 16.45753 | 99° | 58km/h | 14105m | 4.9m/s | -61.1°C | 13.5% | 0hPa | 2.6V | 00:00:00 | 01:07:25 | 00:00:00 | |
| 9A1FER-10 | 2026-08-31 00:13:05 | 45.75810 | 16.45689 | 96° | 58km/h | 14092m | 3.0m/s | -61.0°C | 13.7% | 0hPa | 2.6V | 00:00:00 | 01:07:22 | 00:00:00 | |
| 9A1FER-3 | 2026-08-31 00:12:53 | 45.75818 | 16.45434 | 94° | 58km/h | 14036m | 4.7m/s | -60.7°C | 13.5% | 0hPa | 2.6V | 00:00:00 | 01:07:10 | 00:00:00 | |
| 9A1FER-10 | 2026-08-31 00:12:50 | 45.75821 | 16.45373 | 96° | 58km/h | 14022m | 6.3m/s | -60.6°C | 13.5% | 0hPa | 2.6V | 00:00:00 | 01:07:07 | 00:00:00 | |
| 9A1FER-3 | 2026-08-31 00:12:38 | 45.75850 | 16.45121 | 97° | 57km/h | 13963m | 3.8m/s | -60.1°C | 12.6% | 0hPa | 2.6V | 00:00:00 | 01:06:55 | 00:00:00 | |
| 9A1FER-10 | 2026-08-31 00:12:35 | 45.75855 | 16.45058 | 99° | 57km/h | 13947m | 5.2m/s | -60.1°C | 12.4% | 0hPa | 2.6V | 00:00:00 | 01:06:52 | 00:00:00 | |
| OE5DRO-10 | 2026-08-31 00:12:34 | 45.75858 | 16.45038 | 102° | 58km/h | 13942m | 4.2m/s | 0°C | 0% | 0hPa | 2.6V | 00:00:00 | 00:00:00 | 00:00:00 | |
| 9A1FER-3 | 2026-08-31 00:12:23 | 45.75896 | 16.44818 | 105° | 57km/h | 13890m | 4.2m/s | -60.0°C | 12.9% | 0hPa | 2.6V | 00:00:00 | 01:06:40 | 00:00:00 | |
| 9A1FER-10 | 2026-08-31 00:12:20 | 45.75908 | 16.44757 | 108° | 57km/h | 13875m | 3.9m/s | -59.9°C | 13.2% | 0hPa | 2.6V | 00:00:00 | 01:06:37 | 00:00:00 | |
| OE5DRO-10 | 2026-08-31 00:12:15 | 45.75931 | 16.44658 | 110° | 55km/h | 13851m | 3.4m/s | 0°C | 0% | 0hPa | 2.6V | 00:00:00 | 00:00:00 | 00:00:00 | |
| OE3JTB-15 | 2026-08-31 00:12:13 | 45.75941 | 16.44621 | 112° | 57km/h | 13841m | 6.5m/s | -59.9°C | 13.6% | 0hPa | 2.6V | 00:00:00 | 00:00:00 | 00:00:00 | |
| 9A1FER-3 | 2026-08-31 00:12:08 | 45.75968 | 16.44530 | 114° | 57km/h | 13818m | 4.4m/s | -59.9°C | 13.7% | 0hPa | 2.6V | 00:00:00 | 01:06:25 | 00:00:00 | |
| 9A1FER-10 | 2026-08-31 00:12:05 | 45.75982 | 16.44474 | 107° | 57km/h | 13806m | 4.2m/s | -60.0°C | 13.8% | 0hPa | 2.6V | 00:00:00 | 01:06:22 | 00:00:00 | |
| 9A1FER-3 | 2026-08-31 00:11:53 | 45.76037 | 16.44240 | 108° | 58km/h | 13751m | 4.9m/s | -60.0°C | 14.2% | 0hPa | 2.6V | 00:00:00 | 01:06:10 | 08:30:00 | |
| 9A1FER-10 | 2026-08-31 00:11:50 | 45.76050 | 16.44181 | 108° | 58km/h | 13737m | 3.8m/s | -60.0°C | 14.5% | 0hPa | 2.7V | 00:00:00 | 01:06:07 | 08:30:00 | |
| OE3JTB-15 | 2026-08-31 00:11:44 | 45.76077 | 16.44067 | 109° | 62km/h | 13711m | 4.0m/s | -59.8°C | 14.5% | 0hPa | 2.6V | 00:00:00 | 01:06:01 | 00:00:00 | |
| 9A1FER-3 | 2026-08-31 00:11:38 | 45.76106 | 16.43941 | 113° | 60km/h | 13684m | 4.2m/s | -59.6°C | 14.8% | 0hPa | 2.6V | 00:00:00 | 01:05:55 | 00:00:00 | |
| 9A1FER-10 | 2026-08-31 00:11:35 | 45.76125 | 16.43880 | 116° | 60km/h | 13670m | 5.2m/s | -59.5°C | 14.9% | 0hPa | 2.6V | 00:00:00 | 01:05:52 | 00:00:00 | |
| OE5DRO-10 | 2026-08-31 00:11:34 | 45.76131 | 16.43862 | 116° | 60km/h | 13665m | 3.3m/s | 0°C | 0% | 0hPa | 2.6V | 00:00:00 | 00:00:00 | 00:00:00 | |
| 9A1FER-3 | 2026-08-31 00:11:23 | 45.76206 | 16.43645 | 119° | 64km/h | 13616m | 5.6m/s | -59.1°C | 15.9% | 0hPa | 2.6V | 00:00:00 | 01:05:40 | 00:00:00 | |
| 9A1FER-10 | 2026-08-31 00:11:20 | 45.76228 | 16.43588 | 119° | 64km/h | 13602m | 4.4m/s | -59.1°C | 16.3% | 0hPa | 2.6V | 00:00:00 | 01:05:37 | 00:00:00 | |
| OE5DRO-10 | 2026-08-31 00:11:15 | 45.76267 | 16.43486 | 117° | 68km/h | 13577m | 4.0m/s | 0°C | 0% | 0hPa | 2.6V | 00:00:00 | 00:00:00 | 00:00:00 | |
| 9A1FER-3 | 2026-08-31 00:11:08 | 45.76321 | 16.43342 | 123° | 71km/h | 13546m | 3.3m/s | -59.5°C | 18.6% | 0hPa | 2.6V | 00:00:00 | 01:05:25 | 00:00:00 | |
| 9A1FER-10 | 2026-08-31 00:11:05 | 45.76347 | 16.43279 | 118° | 73km/h | 13533m | 3.2m/s | -59.6°C | 19.5% | 0hPa | 2.6V | 00:00:00 | 01:05:22 | 00:00:00 | |
| OE5DRO-10 | 2026-08-31 00:10:56 | 45.76425 | 16.43077 | 119° | 78km/h | 13493m | 4.3m/s | 0°C | 0% | 0hPa | 2.7V | 00:00:00 | 00:00:00 | 00:00:00 | |
| 9A1FER-3 | 2026-08-31 00:10:53 | 45.76453 | 16.43008 | 120° | 80km/h | 13480m | 5.9m/s | -59.9°C | 21.0% | 0hPa | 2.7V | 00:00:00 | 01:05:10 | 00:00:00 | |
| 9A1FER-10 | 2026-08-31 00:10:50 | 45.76482 | 16.42936 | 123° | 82km/h | 13465m | 3.1m/s | -59.9°C | 21.6% | 0hPa | 2.7V | 00:00:00 | 01:05:07 | 00:00:00 | |
| OE3JTB-15 | 2026-08-31 00:10:46 | 45.76526 | 16.42842 | 125° | 89km/h | 13447m | 5.7m/s | -59.9°C | 21.9% | 0hPa | 2.7V | 00:00:00 | 00:00:00 | 00:00:00 | |
| 9A1FER-3 | 2026-08-31 00:10:38 | 45.76615 | 16.42640 | 123° | 91km/h | 13410m | 4.9m/s | -59.9°C | 23.4% | 0hPa | 2.7V | 00:00:00 | 01:04:55 | 00:00:00 | |
| OE5DRO-10 | 2026-08-31 00:10:37 | 45.76627 | 16.42613 | 122° | 93km/h | 13405m | 5.0m/s | 0°C | 0% | 0hPa | 2.7V | 00:00:00 | 00:00:00 | 00:00:00 | |
| 9A1FER-10 | 2026-08-31 00:10:35 | 45.76651 | 16.42559 | 125° | 93km/h | 13394m | 5.0m/s | -59.9°C | 24.0% | 0hPa | 2.7V | 00:00:00 | 01:04:52 | 00:00:00 | |
| 9A1FER-3 | 2026-08-31 00:10:23 | 45.76800 | 16.42222 | 121° | 95km/h | 13338m | 4.2m/s | -59.9°C | 26.5% | 0hPa | 2.7V | 00:00:00 | 01:04:40 | 00:00:00 | |
| 9A1FER-10 | 2026-08-31 00:10:20 | 45.76838 | 16.42130 | 122° | 93km/h | 13324m | 3.4m/s | -59.9°C | 27.2% | 0hPa | 2.7V | 00:00:00 | 01:04:37 | 00:00:00 | |
| OE5DRO-10 | 2026-08-31 00:10:18 | 45.76863 | 16.42069 | 121° | 93km/h | 13314m | 5.9m/s | 0°C | 0% | 0hPa | 2.7V | 00:00:00 | 00:00:00 | 00:00:00 | |
| OE3JTB-15 | 2026-08-31 00:10:17 | 45.76875 | 16.42040 | 121° | 95km/h | 13309m | 4.9m/s | -59.9°C | 28.3% | 0hPa | 2.7V | 00:00:00 | 01:04:34 | 00:00:00 | |
| 9A1FER-3 | 2026-08-31 00:10:08 | 45.76977 | 16.41779 | 121° | 97km/h | 13268m | 3.5m/s | -60.3°C | 33.1% | 0hPa | 2.7V | 00:00:00 | 01:04:25 | 00:00:00 | |
| 9A1FER-10 | 2026-08-31 00:10:05 | 45.77014 | 16.41690 | 121° | 97km/h | 13254m | 5.2m/s | -60.5°C | 35.0% | 0hPa | 2.7V | 00:00:00 | 01:04:22 | 00:00:00 | |
| OE5DRO-10 | 2026-08-31 00:09:59 | 45.77087 | 16.41505 | 121° | 97km/h | 13226m | 4.3m/s | 0°C | 0% | 0hPa | 2.7V | 00:00:00 | 00:00:00 | 00:00:00 | |
| 9A1FER-3 | 2026-08-31 00:09:53 | 45.77161 | 16.41326 | 120° | 95km/h | 13199m | 6.0m/s | -61.0°C | 42.6% | 0hPa | 2.7V | 00:00:00 | 01:04:10 | 00:00:00 | |
| 9A1FER-10 | 2026-08-31 00:09:50 | 45.77194 | 16.41234 | 117° | 95km/h | 13187m | 5.7m/s | -61.1°C | 43.0% | 0hPa | 2.7V | 00:00:00 | 01:04:07 | 00:00:00 | |
| OE3JTB-15 | 2026-08-31 00:09:48 | 45.77217 | 16.41171 | 118° | 95km/h | 13177m | 5.3m/s | -61.0°C | 43.9% | 0hPa | 2.7V | 00:00:00 | 00:00:00 | 00:00:00 | |
| 9A1FER-3 | 2026-08-31 00:09:38 | 45.77345 | 16.40879 | 123° | 93km/h | 13129m | 3.1m/s | -61.1°C | 48.0% | 0hPa | 2.7V | 00:00:00 | 01:03:55 | 08:30:00 | |
| 9A1FER-10 | 2026-08-31 00:09:35 | 45.77383 | 16.40789 | 122° | 93km/h | 13114m | 5.2m/s | -61.1°C | 48.8% | 0hPa | 2.7V | 00:00:00 | 01:03:52 | 08:30:00 | |
| 9A1FER-3 | 2026-08-31 00:09:23 | 45.77540 | 16.40454 | 126° | 97km/h | 13061m | 4.1m/s | -61.1°C | 50.5% | 0hPa | 2.7V | 00:00:00 | 01:03:40 | 00:00:00 | |
| 9A1FER-10 | 2026-08-31 00:09:20 | 45.77585 | 16.40371 | 131° | 99km/h | 13048m | 4.0m/s | -61.1°C | 50.6% | 0hPa | 2.7V | 00:00:00 | 01:03:37 | 00:00:00 | |
| OE3JTB-15 | 2026-08-31 00:09:19 | 45.77601 | 16.40344 | 132° | 99km/h | 13044m | 5.0m/s | -61.0°C | 50.7% | 0hPa | 2.7V | 00:00:00 | 00:00:00 | 00:00:00 | |
| 9A1FER-3 | 2026-08-31 00:09:08 | 45.77773 | 16.40042 | 130° | 99km/h | 12994m | 5.3m/s | -60.8°C | 49.7% | 0hPa | 2.7V | 00:00:00 | 01:03:25 | 00:00:00 | |
| 9A1FER-10 | 2026-08-31 00:09:05 | 45.77821 | 16.39958 | 131° | 99km/h | 12982m | 6.7m/s | -60.8°C | 48.8% | 0hPa | 2.7V | 00:00:00 | 01:03:22 | 00:00:00 | |
| 9A1FER-3 | 2026-08-31 00:08:53 | 45.78010 | 16.39622 | 127° | 97km/h | 12929m | 4.5m/s | -60.4°C | 48.7% | 0hPa | 2.7V | 00:00:00 | 01:03:10 | 00:00:00 | |
| 9A1FER-10 | 2026-08-31 00:08:50 | 45.78053 | 16.39540 | 128° | 97km/h | 12916m | 5.1m/s | -60.3°C | 48.9% | 0hPa | 2.7V | 00:00:00 | 01:03:07 | 00:00:00 | |
| 9A1FER-3 | 2026-08-31 00:08:38 | 45.78233 | 16.39205 | 128° | 95km/h | 12862m | 2.8m/s | -60.1°C | 50.3% | 0hPa | 2.7V | 00:00:00 | 01:02:55 | 00:00:00 | |
| 9A1FER-10 | 2026-08-31 00:08:35 | 45.78277 | 16.39121 | 127° | 95km/h | 12848m | 2.7m/s | -60.1°C | 50.3% | 0hPa | 2.7V | 00:00:00 | 01:02:52 | 00:00:00 | |
| 9A1FER-3 | 2026-08-31 00:08:23 | 45.78441 | 16.38786 | 124° | 93km/h | 12792m | 4.1m/s | -59.9°C | 50.9% | 0hPa | 2.7V | 00:00:00 | 01:02:40 | 00:00:00 | |
| OE3JTB-15 | 2026-08-31 00:08:21 | 45.78467 | 16.38728 | 124° | 91km/h | 12782m | 5.4m/s | -60.0°C | 51.6% | 0hPa | 2.7V | 00:00:00 | 00:00:00 | 08:30:00 | |
| 9A1FER-10 | 2026-08-31 00:08:20 | 45.78481 | 16.38700 | 125° | 93km/h | 12777m | 4.0m/s | -59.9°C | 52.3% | 0hPa | 2.7V | 00:00:00 | 01:02:37 | 00:00:00 | |
| 9A1FER-3 | 2026-08-31 00:08:08 | 45.78644 | 16.38375 | 129° | 89km/h | 12722m | 3.5m/s | -59.7°C | 52.8% | 0hPa | 2.7V | 00:00:00 | 01:02:25 | 00:00:00 | |
| 9A1FER-10 | 2026-08-31 00:08:05 | 45.78687 | 16.38298 | 129° | 88km/h | 12708m | 4.0m/s | -59.6°C | 54.1% | 0hPa | 2.7V | 00:00:00 | 01:02:22 | 00:00:00 | |
| 9A1FER-3 | 2026-08-31 00:07:53 | 45.78850 | 16.37993 | 127° | 86km/h | 12654m | 5.8m/s | -59.5°C | 56.5% | 0hPa | 2.7V | 00:00:00 | 01:02:10 | 00:00:00 | |
| OE3JTB-15 | 2026-08-31 00:07:52 | 45.78863 | 16.37968 | 128° | 88km/h | 12649m | 4.3m/s | -59.5°C | 57.3% | 0hPa | 2.7V | 00:00:00 | 00:00:00 | 00:00:00 | |
| 9A1FER-10 | 2026-08-31 00:07:50 | 45.78890 | 16.37920 | 130° | 88km/h | 12639m | 5.0m/s | -59.4°C | 58.0% | 0hPa | 2.7V | 00:00:00 | 01:02:07 | 00:00:00 | |
| 9A1FER-3 | 2026-08-31 00:07:38 | 45.79058 | 16.37631 | 130° | 89km/h | 12581m | 5.7m/s | -59.1°C | 57.2% | 0hPa | 2.7V | 00:00:00 | 01:01:55 | 00:00:00 | |
| 9A1FER-10 | 2026-08-31 00:07:35 | 45.79103 | 16.37557 | 131° | 89km/h | 12565m | 6.0m/s | -59.0°C | 56.2% | 0hPa | 2.7V | 00:00:00 | 01:01:52 | 00:00:00 | |
| OE3JTB-15 | 2026-08-31 00:07:24 | 45.79279 | 16.37260 | 129° | 91km/h | 12511m | 3.7m/s | -58.6°C | 55.0% | 0hPa | 2.7V | 00:00:00 | 01:01:40 | 00:00:00 | |
| 9A1FER-3 | 2026-08-31 00:07:23 | 45.79279 | 16.37260 | 129° | 91km/h | 12511m | 3.7m/s | -58.6°C | 55.0% | 0hPa | 2.7V | 00:00:00 | 01:01:40 | 08:30:00 | |
| 9A1FER-10 | 2026-08-31 00:07:20 | 45.79325 | 16.37182 | 131° | 91km/h | 12498m | 3.6m/s | -58.4°C | 55.8% | 0hPa | 2.7V | 00:00:00 | 01:01:37 | 08:30:00 | |
| 9A1FER-3 | 2026-08-31 00:07:08 | 45.79502 | 16.36884 | 131° | 91km/h | 12445m | 3.7m/s | -58.0°C | 54.5% | 0hPa | 2.7V | 00:00:00 | 01:01:25 | 00:00:00 | |
| 9A1FER-10 | 2026-08-31 00:07:05 | 45.79550 | 16.36807 | 133° | 89km/h | 12430m | 5.1m/s | -57.9°C | 54.3% | 0hPa | 2.7V | 00:00:00 | 01:01:22 | 00:00:00 | |
| OE3JTB-15 | 2026-08-31 00:06:54 | 45.79715 | 16.36541 | 133° | 89km/h | 12380m | 2.2m/s | -57.5°C | 55.3% | 0hPa | 2.7V | 00:00:00 | 00:00:00 | 00:00:00 | |
| 9A1FER-3 | 2026-08-31 00:06:53 | 45.79730 | 16.36517 | 133° | 91km/h | 12376m | 5.6m/s | -57.4°C | 54.4% | 0hPa | 2.7V | 00:00:00 | 01:01:10 | 00:00:00 | |
| 9A1FER-10 | 2026-08-31 00:06:50 | 45.79777 | 16.36442 | 131° | 89km/h | 12363m | 4.2m/s | -57.3°C | 54.5% | 0hPa | 2.7V | 00:00:00 | 01:01:07 | 00:00:00 | |
| 9A1FER-3 | 2026-08-31 00:06:38 | 45.79965 | 16.36155 | 135° | 88km/h | 12309m | 7.4m/s | -56.9°C | 55.2% | 0hPa | 2.7V | 00:00:00 | 01:00:55 | 00:00:00 | |
| 9A1FER-10 | 2026-08-31 00:06:35 | 45.80009 | 16.36085 | 131° | 88km/h | 12297m | 4.8m/s | -56.8°C | 54.8% | 0hPa | 2.7V | 00:00:00 | 01:00:52 | 00:00:00 | |
| OE3JTB-15 | 2026-08-31 00:06:25 | 45.80165 | 16.35853 | 133° | 84km/h | 12251m | 4.5m/s | -56.6°C | 53.0% | 0hPa | 2.7V | 00:00:00 | 00:00:00 | 00:00:00 | |
| 9A1FER-3 | 2026-08-31 00:06:23 | 45.80193 | 16.35809 | 133° | 84km/h | 12242m | 3.2m/s | -56.5°C | 53.3% | 0hPa | 2.7V | 00:00:00 | 01:00:40 | 00:00:00 | |
| 9A1FER-10 | 2026-08-31 00:06:20 | 45.80237 | 16.35740 | 134° | 84km/h | 12228m | 5.2m/s | -56.4°C | 53.6% | 0hPa | 2.7V | 00:00:00 | 01:00:37 | 00:00:00 | |
| 9A1FER-3 | 2026-08-31 00:06:08 | 45.80413 | 16.35479 | 135° | 82km/h | 12176m | 4.8m/s | -56.2°C | 60.1% | 0hPa | 2.7V | 00:00:00 | 01:00:25 | 00:00:00 | |
| 9A1FER-10 | 2026-08-31 00:06:05 | 45.80457 | 16.35413 | 134° | 82km/h | 12164m | 4.5m/s | -56.2°C | 61.2% | 0hPa | 2.7V | 00:00:00 | 01:00:22 | 00:00:00 | |
| OE3JTB-15 | 2026-08-31 00:05:56 | 45.80581 | 16.35212 | 131° | 80km/h | 12125m | 2.3m/s | -56.1°C | 65.8% | 0hPa | 2.7V | 00:00:00 | 01:00:13 | 00:00:00 | |
| 9A1FER-3 | 2026-08-31 00:05:53 | 45.80623 | 16.35145 | 131° | 80km/h | 12110m | 4.4m/s | -56.0°C | 64.8% | 0hPa | 2.7V | 00:00:00 | 01:00:10 | 00:00:00 | |
| 9A1FER-10 | 2026-08-31 00:05:50 | 45.80663 | 16.35075 | 132° | 80km/h | 12097m | 5.8m/s | -55.9°C | 65.4% | 0hPa | 2.7V | 00:00:00 | 01:00:07 | 00:00:00 | |
| 9A1FER-3 | 2026-08-31 00:05:38 | 45.80833 | 16.34827 | 136° | 80km/h | 12041m | 4.2m/s | -55.4°C | 62.7% | 0hPa | 2.7V | 00:00:00 | 00:59:55 | 00:00:00 | |
| 9A1FER-10 | 2026-08-31 00:05:35 | 45.80875 | 16.34764 | 135° | 80km/h | 12027m | 5.3m/s | -55.3°C | 61.4% | 0hPa | 2.7V | 00:00:00 | 00:59:52 | 00:00:00 | |
| OE3JTB-15 | 2026-08-31 00:05:27 | 45.80987 | 16.34595 | 134° | 84km/h | 11988m | 2.9m/s | -55.0°C | 58.3% | 0hPa | 2.7V | 00:00:00 | 00:00:00 | 00:00:00 | |
| 9A1FER-3 | 2026-08-31 00:05:23 | 45.81046 | 16.34514 | 139° | 84km/h | 11968m | 4.2m/s | -54.8°C | 56.3% | 0hPa | 2.7V | 00:00:00 | 00:59:40 | 00:00:00 | |
| 9A1FER-10 | 2026-08-31 00:05:20 | 45.81094 | 16.34455 | 139° | 84km/h | 11955m | 4.8m/s | -54.7°C | 56.1% | 0hPa | 2.7V | 00:00:00 | 00:59:37 | 00:00:00 | |
| 9A1FER-3 | 2026-08-31 00:05:08 | 45.81276 | 16.34200 | 138° | 88km/h | 11901m | 5.9m/s | -54.3°C | 51.3% | 0hPa | 2.7V | 00:00:00 | 00:59:25 | 08:30:00 | |
| 9A1FER-10 | 2026-08-31 00:05:07 | 45.81323 | 16.34137 | 136° | 88km/h | 11888m | 5.1m/s | -54.2°C | 50.4% | 0hPa | 2.7V | 00:00:00 | 00:59:22 | 08:30:00 | |
| OE3JTB-15 | 2026-08-31 00:04:58 | 45.81436 | 16.33979 | 135° | 82km/h | 11856m | 7.0m/s | -54.0°C | 50.8% | 0hPa | 2.7V | 00:00:00 | 00:00:00 | 00:00:00 | |
| 9A1FER-3 | 2026-08-31 00:04:53 | 45.81513 | 16.33870 | 137° | 84km/h | 11831m | 3.6m/s | -53.8°C | 49.4% | 0hPa | 2.7V | 00:00:00 | 00:59:10 | 00:00:00 | |
| 9A1FER-10 | 2026-08-31 00:04:50 | 45.81562 | 16.33803 | 136° | 82km/h | 11817m | 5.0m/s | -53.7°C | 49.0% | 0hPa | 2.7V | 00:00:00 | 00:59:07 | 00:00:00 | |
| 9A1FER-3 | 2026-08-31 00:04:39 | 45.81740 | 16.33559 | 137° | 78km/h | 11768m | 4.2m/s | -53.3°C | 49.2% | 0hPa | 2.7V | 00:00:00 | 00:58:55 | 00:00:00 | |
| 9A1FER-10 | 2026-08-31 00:04:36 | 45.81784 | 16.33497 | 134° | 78km/h | 11754m | 3.2m/s | -53.3°C | 50.7% | 0hPa | 2.7V | 00:00:00 | 00:58:52 | 00:00:00 | |
| OE3JTB-15 | 2026-08-31 00:04:29 | 45.81866 | 16.33372 | 135° | 78km/h | 11728m | 5.1m/s | -53.1°C | 50.3% | 0hPa | 2.7V | 00:00:00 | 00:58:46 | 00:00:00 | |
| 9A1FER-3 | 2026-08-31 00:04:23 | 45.81948 | 16.33249 | 133° | 78km/h | 11700m | 4.5m/s | -52.9°C | 50.3% | 0hPa | 2.7V | 00:00:00 | 00:58:40 | 00:00:00 | |
| 9A1FER-10 | 2026-08-31 00:04:20 | 45.81988 | 16.33186 | 134° | 80km/h | 11685m | 4.2m/s | -52.8°C | 51.2% | 0hPa | 2.7V | 00:00:00 | 00:58:37 | 00:00:00 | |
| 9A1FER-3 | 2026-08-31 00:04:08 | 45.82155 | 16.32941 | 131° | 77km/h | 11624m | 4.1m/s | -52.4°C | 48.1% | 0hPa | 2.7V | 00:00:00 | 00:58:25 | 00:00:00 | |
| 9A1FER-10 | 2026-08-31 00:04:04 | 45.82210 | 16.32850 | 132° | 77km/h | 11605m | 4.8m/s | -52.2°C | 46.7% | 0hPa | 2.7V | 00:00:00 | 00:58:21 | 00:00:00 | |
| OE3JTB-15 | 2026-08-31 00:04:01 | 45.82260 | 16.32768 | 133° | 75km/h | 11583m | 4.9m/s | -52.0°C | 45.3% | 0hPa | 2.7V | 00:00:00 | 00:00:00 | 08:30:00 | |
| 9A1FER-3 | 2026-08-31 00:03:53 | 45.82347 | 16.32627 | 131° | 75km/h | 11549m | 4.3m/s | -51.7°C | 43.7% | 0hPa | 2.7V | 00:00:00 | 00:58:10 | 00:00:00 | |
| 9A1FER-3 | 2026-08-31 00:03:38 | 45.82534 | 16.32318 | 127° | 75km/h | 11479m | 3.1m/s | -51.0°C | 40.9% | 0hPa | 2.7V | 00:00:00 | 00:57:55 | 00:00:00 | |
| 9A1FER-10 | 2026-08-31 00:03:34 | 45.82579 | 16.32229 | 127° | 73km/h | 11459m | 6.2m/s | -50.9°C | 40.2% | 0hPa | 2.7V | 00:00:00 | 00:57:51 | 00:00:00 | |
| OE3JTB-15 | 2026-08-31 00:03:33 | 45.82616 | 16.32164 | 131° | 73km/h | 11444m | 6.2m/s | -50.7°C | 39.3% | 0hPa | 2.7V | 00:00:00 | 00:00:00 | 00:00:00 | |
| 9A1FER-3 | 2026-08-31 00:03:23 | 45.82715 | 16.32006 | 133° | 73km/h | 11405m | 5.0m/s | -50.4°C | 37.2% | 0hPa | 2.7V | 00:00:00 | 00:57:40 | 00:00:00 | |
| 9A1FER-10 | 2026-08-31 00:03:20 | 45.82760 | 16.31923 | 126° | 73km/h | 11386m | 6.3m/s | -50.2°C | 36.6% | 0hPa | 2.7V | 00:00:00 | 00:57:36 | 00:00:00 | |
| 9A1FER-3 | 2026-08-31 00:03:10 | 45.82887 | 16.31695 | 129° | 75km/h | 11334m | 3.8m/s | -49.8°C | 36.1% | 0hPa | 2.7V | 00:00:00 | 00:57:25 | 00:00:00 | |
| 9A1FER-10 | 2026-08-31 00:03:04 | 45.82934 | 16.31606 | 126° | 75km/h | 11317m | 5.0m/s | -49.6°C | 35.2% | 0hPa | 2.7V | 00:00:00 | 00:57:21 | 00:00:00 | |
| 9A1FER-10 | 2026-08-31 00:02:54 | 45.83432 | 16.30488 | 121° | 77km/h | 11078m | 5.4m/s | -47.8°C | 32.3% | 0hPa | 2.7V | 00:00:00 | 00:56:32 | 00:00:00 | |
| 9A1FER-3 | 2026-08-31 00:02:39 | 45.83502 | 16.30315 | 120° | 78km/h | 11045m | 5.5m/s | -47.6°C | 33.2% | 0hPa | 2.7V | 00:00:00 | 00:56:25 | 00:00:00 | |
| OE3JTB-15 | 2026-08-31 00:02:35 | 45.83538 | 16.30219 | 118° | 77km/h | 11025m | 3.3m/s | -47.4°C | 32.8% | 0hPa | 2.7V | 00:00:00 | 00:00:00 | 00:00:00 | |
| 9A1FER-3 | 2026-08-31 00:02:20 | 45.83640 | 16.29939 | 118° | 75km/h | 10969m | 5.0m/s | -47.0°C | 33.1% | 0hPa | 2.7V | 00:00:00 | 00:56:10 | 00:00:00 | |
| 9A1FER-10 | 2026-08-31 00:02:10 | 45.83706 | 16.29743 | 111° | 78km/h | 10928m | 4.9m/s | -46.8°C | 33.1% | 0hPa | 2.7V | 00:00:00 | 00:56:02 | 00:00:00 | |
| 9A1FER-3 | 2026-08-31 00:01:59 | 45.83761 | 16.29565 | 117° | 77km/h | 10890m | 3.4m/s | -46.6°C | 35.0% | 0hPa | 2.7V | 00:00:00 | 00:55:55 | 00:00:00 | |
| OE3JTB-15 | 2026-08-31 00:01:52 | 45.83787 | 16.29486 | 112° | 77km/h | 10876m | 4.3m/s | -46.5°C | 34.9% | 0hPa | 2.7V | 00:00:00 | 00:55:52 | 00:00:00 | |
| 9A1FER-10 | 2026-08-31 00:01:45 | 45.83827 | 16.29355 | 116° | 77km/h | 10851m | 4.5m/s | -46.3°C | 34.9% | 0hPa | 2.7V | 00:00:00 | 00:55:47 | 00:00:00 | |
| 9A1FER-3 | 2026-08-31 00:01:35 | 45.83883 | 16.29187 | 116° | 78km/h | 10816m | 4.7m/s | -46.1°C | 34.2% | 0hPa | 2.7V | 00:00:00 | 00:55:40 | 00:00:00 | |
| 9A1FER-10 | 2026-08-31 00:01:25 | 45.83945 | 16.28975 | 116° | 77km/h | 10780m | 5.1m/s | -46.0°C | 34.7% | 0hPa | 2.7V | 00:00:00 | 00:55:32 | 00:00:00 | |
| 9A1FER-3 | 2026-08-31 00:01:15 | 45.84004 | 16.28804 | 112° | 75km/h | 10747m | 6.4m/s | -45.8°C | 35.8% | 0hPa | 2.7V | 00:00:00 | 00:55:25 | 00:00:00 | |
| OE3JTB-15 | 2026-08-31 00:01:12 | 45.84018 | 16.28753 | 112° | 71km/h | 10737m | 5.8m/s | -45.7°C | 35.7% | 0hPa | 2.7V | 00:00:00 | 00:00:00 | 00:00:00 | |
| 9A1FER-10 | 2026-08-31 00:01:08 | 45.84064 | 16.28597 | 115° | 69km/h | 10705m | 4.9m/s | -45.5°C | 36.1% | 0hPa | 2.7V | 00:00:00 | 00:55:17 | 00:00:00 | |
| 9A1FER-3 | 2026-08-31 00:00:56 | 45.84114 | 16.28432 | 114° | 69km/h | 10670m | 4.7m/s | -45.4°C | 38.6% | 0hPa | 2.7V | 00:00:00 | 00:55:10 | 00:00:00 | |
| 9A1FER-10 | 2026-08-31 00:00:45 | 45.84162 | 16.28245 | 107° | 69km/h | 10634m | 5.1m/s | -45.2°C | 44.0% | 0hPa | 2.7V | 00:00:00 | 00:55:02 | 00:00:00 | |
| 9A1FER-3 | 2026-08-31 00:00:42 | 45.84211 | 16.28080 | 117° | 68km/h | 10601m | 5.8m/s | -45.0°C | 44.8% | 0hPa | 2.7V | 00:00:00 | 00:54:55 | 08:30:00 | |
| OE3JTB-15 | 2026-08-31 00:00:41 | 45.84218 | 16.28058 | 113° | 68km/h | 10597m | 2.1m/s | -45.0°C | 44.6% | 0hPa | 2.7V | 00:00:00 | 00:00:00 | 00:00:00 | |
| 9A1FER-10 | 2026-08-31 00:00:33 | 45.84258 | 16.27899 | 115° | 68km/h | 10555m | 6.4m/s | -44.6°C | 42.2% | 0hPa | 2.7V | 00:00:00 | 00:54:47 | 08:30:00 | |
| 9A1FER-3 | 2026-08-31 00:00:27 | 45.84298 | 16.27731 | 102° | 68km/h | 10520m | 4.6m/s | -44.3°C | 42.9% | 0hPa | 2.7V | 00:00:00 | 00:54:40 | 00:00:00 | |
| 9A1FER-10 | 2026-08-31 00:00:16 | 45.84326 | 16.27543 | 107° | 64km/h | 10479m | 6.5m/s | -44.0°C | 45.3% | 0hPa | 2.7V | 00:00:00 | 00:54:32 | 00:00:00 | |
| 9A1FER-3 | 2026-08-31 00:00:10 | 45.84356 | 16.27376 | 102° | 62km/h | 10444m | 4.9m/s | -43.9°C | 45.3% | 0hPa | 2.7V | 00:00:00 | 00:54:25 | 00:00:00 | |
| 9A1FER-10 | 2026-08-31 00:00:00 | 45.84375 | 16.27201 | 96° | 60km/h | 10405m | 4.4m/s | -43.5°C | 43.7% | 0hPa | 2.7V | 00:00:00 | 00:54:17 | 00:00:00 | |
| 9A1FER-3 | 2026-08-30 23:59:53 | 45.84388 | 16.27039 | 96° | 60km/h | 10374m | 3.8m/s | -43.2°C | 42.3% | 0hPa | 2.7V | 00:00:00 | 00:54:10 | 00:00:00 | |
| OE3JTB-15 | 2026-08-30 23:59:39 | 45.84414 | 16.26733 | 101° | 62km/h | 10311m | 6.6m/s | 0°C | 0% | 0hPa | 2.7V | 00:00:00 | 00:00:00 | 00:00:00 | |
| 9A1FER-3 | 2026-08-30 23:59:38 | 45.84417 | 16.26710 | 102° | 60km/h | 10307m | 3.2m/s | -42.6°C | 36.9% | 0hPa | 2.7V | 00:00:00 | 00:53:55 | 00:00:00 | |
| 9A1FER-10 | 2026-08-30 23:59:30 | 45.84432 | 16.26545 | 94° | 60km/h | 10272m | 3.8m/s | -42.3°C | 34.1% | 0hPa | 2.7V | 00:00:00 | 00:53:47 | 00:00:00 | |
| 9A1FER-3 | 2026-08-30 23:59:23 | 45.84440 | 16.26388 | 97° | 60km/h | 10241m | 4.8m/s | -42.0°C | 32.6% | 0hPa | 2.7V | 00:00:00 | 00:53:40 | 00:00:00 | |
| 9A1FER-10 | 2026-08-30 23:59:15 | 45.84453 | 16.26214 | 95° | 60km/h | 10208m | 4.7m/s | -41.6°C | 29.9% | 0hPa | 2.7V | 00:00:00 | 00:53:32 | 00:00:00 | |
| 9A1FER-3 | 2026-08-30 23:59:08 | 45.84462 | 16.26064 | 94° | 60km/h | 10179m | 4.7m/s | -41.4°C | 29.1% | 0hPa | 2.7V | 00:00:00 | 00:53:25 | 00:00:00 | |
| 9A1FER-10 | 2026-08-30 23:59:00 | 45.84474 | 16.25892 | 101° | 62km/h | 10146m | 4.6m/s | -41.0°C | 27.3% | 0hPa | 2.7V | 00:00:00 | 00:53:17 | 00:00:00 | |
| 9A1FER-3 | 2026-08-30 23:58:53 | 45.84490 | 16.25733 | 94° | 62km/h | 10114m | 6.0m/s | -40.7°C | 25.8% | 0hPa | 2.7V | 00:00:00 | 00:53:10 | 00:00:00 | |
| 9A1FER-10 | 2026-08-30 23:58:45 | 45.84497 | 16.25554 | 100° | 62km/h | 10077m | 4.2m/s | -40.4°C | 24.1% | 0hPa | 2.7V | 00:00:00 | 00:53:02 | 00:00:00 | |
| 9A1FER-3 | 2026-08-30 23:58:38 | 45.84515 | 16.25398 | 91° | 62km/h | 10048m | 3.6m/s | -40.2°C | 24.9% | 0hPa | 2.7V | 00:00:00 | 00:52:55 | 00:00:00 | |
| 9A1FER-10 | 2026-08-30 23:58:30 | 45.84526 | 16.25224 | 104° | 62km/h | 10014m | 4.1m/s | -39.8°C | 23.7% | 0hPa | 2.7V | 00:00:00 | 00:52:47 | 00:00:00 | |
| 9A1FER-3 | 2026-08-30 23:58:23 | 45.84546 | 16.25062 | 98° | 62km/h | 9984m | 4.1m/s | -39.6°C | 22.9% | 0hPa | 2.7V | 00:00:00 | 00:52:40 | 08:30:00 | |
| 9A1FER-10 | 2026-08-30 23:58:15 | 45.84567 | 16.24892 | 103° | 58km/h | 9951m | 3.2m/s | -39.2°C | 22.8% | 0hPa | 2.7V | 00:00:00 | 00:52:32 | 08:30:00 | |
| 9A1FER-3 | 2026-08-30 23:58:08 | 45.84579 | 16.24730 | 96° | 58km/h | 9918m | 3.3m/s | -38.9°C | 22.0% | 0hPa | 2.9V | 00:00:00 | 00:52:25 | 00:00:00 | |
| 9A1FER-10 | 2026-08-30 23:58:00 | 45.84598 | 16.24576 | 97° | 64km/h | 9881m | 4.6m/s | -38.6°C | 20.4% | 0hPa | 2.9V | 00:00:00 | 00:52:17 | 00:00:00 | |
| 9A1FER-3 | 2026-08-30 23:57:53 | 45.84614 | 16.24412 | 103° | 60km/h | 9850m | 4.3m/s | -38.3°C | 19.8% | 0hPa | 2.9V | 00:00:00 | 00:52:10 | 00:00:00 | |
| 9A1FER-10 | 2026-08-30 23:57:45 | 45.84641 | 16.24240 | 101° | 60km/h | 9811m | 4.8m/s | -37.9°C | 17.7% | 0hPa | 2.9V | 00:00:00 | 00:52:02 | 00:00:00 | |
| 9A1FER-3 | 2026-08-30 23:57:38 | 45.84663 | 16.24092 | 100° | 62km/h | 9774m | 3.4m/s | -37.6°C | 17.1% | 0hPa | 2.9V | 00:00:00 | 00:51:55 | 00:00:00 | |
| 9A1FER-10 | 2026-08-30 23:57:30 | 45.84677 | 16.23916 | 98° | 60km/h | 9735m | 2.0m/s | -37.2°C | 16.3% | 0hPa | 2.9V | 00:00:00 | 00:51:47 | 00:00:00 | |
| 9A1FER-3 | 2026-08-30 23:57:23 | 45.84699 | 16.23765 | 103° | 58km/h | 9702m | 5.1m/s | -37.0°C | 15.2% | 0hPa | 2.7V | 00:00:00 | 00:51:40 | 00:00:00 | |
| 9A1FER-10 | 2026-08-30 23:57:15 | 45.84714 | 16.23594 | 95° | 60km/h | 9666m | 5.0m/s | -36.8°C | 15.0% | 0hPa | 2.7V | 00:00:00 | 00:51:32 | 00:00:00 | |
| 9A1FER-3 | 2026-08-30 23:57:08 | 45.84727 | 16.23449 | 96° | 62km/h | 9633m | 5.4m/s | -36.5°C | 14.9% | 0hPa | 2.7V | 00:00:00 | 00:51:25 | 00:00:00 | |
| 9A1FER-10 | 2026-08-30 23:57:00 | 45.84734 | 16.23271 | 94° | 60km/h | 9591m | 5.4m/s | -36.1°C | 14.3% | 0hPa | 2.7V | 00:00:00 | 00:51:17 | 00:00:00 | |
| 9A1FER-3 | 2026-08-30 23:56:53 | 45.84744 | 16.23117 | 94° | 60km/h | 9559m | 3.8m/s | -35.8°C | 14.3% | 0hPa | 2.7V | 00:00:00 | 00:51:10 | 00:00:00 | |
| 9A1FER-10 | 2026-08-30 23:56:45 | 45.84747 | 16.22943 | 95° | 60km/h | 9525m | 5.3m/s | -35.5°C | 14.2% | 0hPa | 2.7V | 00:00:00 | 00:51:02 | 00:00:00 | |
| 9A1FER-3 | 2026-08-30 23:56:38 | 45.84753 | 16.22793 | 93° | 60km/h | 9495m | 3.0m/s | -35.2°C | 13.9% | 0hPa | 2.9V | 00:00:00 | 00:50:55 | 00:00:00 | |
| 9A1FER-10 | 2026-08-30 23:56:30 | 45.84755 | 16.22617 | 87° | 57km/h | 9463m | 4.3m/s | -35.0°C | 15.0% | 0hPa | 2.9V | 00:00:00 | 00:50:47 | 00:00:00 | |
| 9A1FER-3 | 2026-08-30 23:56:23 | 45.84748 | 16.22469 | 85° | 57km/h | 9435m | 4.6m/s | -34.8°C | 16.2% | 0hPa | 2.9V | 00:00:00 | 00:50:40 | 00:00:00 | |
| 9A1FER-10 | 2026-08-30 23:56:15 | 45.84746 | 16.22309 | 91° | 55km/h | 9402m | 4.3m/s | -34.6°C | 16.3% | 0hPa | 2.9V | 00:00:00 | 00:50:32 | 00:00:00 | |
| 9A1FER-3 | 2026-08-30 23:56:08 | 45.84737 | 16.22167 | 87° | 57km/h | 9369m | 6.7m/s | -34.3°C | 16.1% | 0hPa | 2.9V | 00:00:00 | 00:50:25 | 08:30:00 | |
| 9A1FER-10 | 2026-08-30 23:56:00 | 45.84734 | 16.22005 | 91° | 55km/h | 9324m | 3.6m/s | -33.9°C | 16.0% | 0hPa | 2.9V | 00:00:00 | 00:50:17 | 08:30:00 | |
| 9A1FER-3 | 2026-08-30 23:55:53 | 45.84729 | 16.21863 | 93° | 51km/h | 9290m | 4.0m/s | -33.6°C | 15.5% | 0hPa | 2.9V | 00:00:00 | 00:50:10 | 00:00:00 | |
| 9A1FER-10 | 2026-08-30 23:55:45 | 45.84737 | 16.21713 | 95° | 53km/h | 9249m | 7.4m/s | -33.3°C | 14.7% | 0hPa | 2.9V | 00:00:00 | 00:50:02 | 00:00:00 | |
| 9A1FER-3 | 2026-08-30 23:55:38 | 45.84743 | 16.21584 | 98° | 55km/h | 9215m | 5.5m/s | -33.0°C | 13.5% | 0hPa | 2.9V | 00:00:00 | 00:49:55 | 00:00:00 | |
| 9A1FER-10 | 2026-08-30 23:55:30 | 45.84753 | 16.21427 | 92° | 53km/h | 9178m | 5.5m/s | -32.7°C | 12.9% | 0hPa | 2.9V | 00:00:00 | 00:49:47 | 00:00:00 | |
| 9A1FER-3 | 2026-08-30 23:55:23 | 45.84767 | 16.21290 | 98° | 53km/h | 9144m | 5.3m/s | -32.4°C | 12.5% | 0hPa | 2.9V | 00:00:00 | 00:49:40 | 00:00:00 | |
| 9A1FER-10 | 2026-08-30 23:55:15 | 45.84777 | 16.21141 | 98° | 53km/h | 9110m | 4.1m/s | -32.2°C | 14.0% | 0hPa | 2.9V | 00:00:00 | 00:49:32 | 00:00:00 | |
| 9A1FER-10 | 2026-08-30 23:55:00 | 45.84805 | 16.20859 | 100° | 57km/h | 9046m | 3.0m/s | -31.8°C | 16.8% | 0hPa | 2.7V | 00:00:00 | 00:49:17 | 00:00:00 | |
| 9A1FER-3 | 2026-08-30 23:54:53 | 45.84830 | 16.20722 | 107° | 55km/h | 9012m | 4.6m/s | -31.5°C | 16.1% | 0hPa | 2.7V | 00:00:00 | 00:49:10 | 00:00:00 | |
| 9A1FER-10 | 2026-08-30 23:54:45 | 45.84853 | 16.20562 | 102° | 53km/h | 8976m | 3.5m/s | -31.4°C | 18.2% | 0hPa | 2.7V | 00:00:00 | 00:49:02 | 00:00:00 | |
| 9A1FER-3 | 2026-08-30 23:54:38 | 45.84874 | 16.20432 | 106° | 51km/h | 8946m | 3.7m/s | -31.3°C | 19.4% | 0hPa | 2.7V | 00:00:00 | 00:48:55 | 00:00:00 | |
| 9A1FER-10 | 2026-08-30 23:54:30 | 45.84901 | 16.20287 | 99° | 51km/h | 8909m | 4.2m/s | -31.0°C | 17.7% | 0hPa | 2.7V | 00:00:00 | 00:48:47 | 00:00:00 | |
| 9A1FER-3 | 2026-08-30 23:54:23 | 45.84919 | 16.20158 | 106° | 53km/h | 8876m | 2.9m/s | -30.8°C | 18.3% | 0hPa | 2.7V | 00:00:00 | 00:48:40 | 00:00:00 | |
| 9A1FER-10 | 2026-08-30 23:54:15 | 45.84942 | 16.20011 | 105° | 55km/h | 8837m | 2.1m/s | -30.6°C | 16.7% | 0hPa | 2.7V | 00:00:00 | 00:48:32 | 00:00:00 | |
| 9A1FER-3 | 2026-08-30 23:54:08 | 45.84960 | 16.19879 | 99° | 58km/h | 8805m | 4.5m/s | -30.3°C | 16.1% | 0hPa | 2.7V | 00:00:00 | 00:48:25 | 00:00:00 | |
| 9A1FER-10 | 2026-08-30 23:54:00 | 45.84989 | 16.19718 | 110° | 58km/h | 8761m | 2.7m/s | -29.9°C | 15.4% | 0hPa | 2.7V | 00:00:00 | 00:48:17 | 00:00:00 | |
| 9A1FER-3 | 2026-08-30 23:53:53 | 45.85020 | 16.19572 | 105° | 58km/h | 8727m | 3.4m/s | -29.7°C | 14.4% | 0hPa | 2.7V | 00:00:00 | 00:48:10 | 08:30:00 | |
| 9A1FER-10 | 2026-08-30 23:53:45 | 45.85060 | 16.19412 | 114° | 62km/h | 8691m | 3.0m/s | -29.4°C | 13.9% | 0hPa | 2.9V | 00:00:00 | 00:48:02 | 08:30:00 | |
| 9A1FER-3 | 2026-08-30 23:53:38 | 45.85094 | 16.19270 | 104° | 62km/h | 8659m | 3.3m/s | -29.1°C | 13.5% | 0hPa | 2.9V | 00:00:00 | 00:47:55 | 00:00:00 | |
| 9A1FER-10 | 2026-08-30 23:53:30 | 45.85131 | 16.19095 | 105° | 60km/h | 8621m | 6.4m/s | -28.8°C | 13.1% | 0hPa | 2.9V | 00:00:00 | 00:47:47 | 00:00:00 | |
| 9A1FER-3 | 2026-08-30 23:53:23 | 45.85163 | 16.18949 | 106° | 60km/h | 8588m | 6.8m/s | -28.7°C | 14.9% | 0hPa | 2.9V | 00:00:00 | 00:47:40 | 00:00:00 | |
| 9A1FER-10 | 2026-08-30 23:53:15 | 45.85191 | 16.18781 | 106° | 60km/h | 8547m | 3.8m/s | -28.8°C | 30.1% | 0hPa | 2.9V | 00:00:00 | 00:47:32 | 00:00:00 | |
| 9A1FER-3 | 2026-08-30 23:53:08 | 45.85218 | 16.18635 | 101° | 57km/h | 8515m | 3.2m/s | -28.8°C | 36.3% | 0hPa | 2.9V | 00:00:00 | 00:47:25 | 00:00:00 | |
| 9A1FER-10 | 2026-08-30 23:53:00 | 45.85245 | 16.18462 | 98° | 55km/h | 8473m | 4.5m/s | -28.5°C | 38.6% | 0hPa | 2.7V | 00:00:00 | 00:47:17 | 00:00:00 | |
| 9A1FER-3 | 2026-08-30 23:52:53 | 45.85264 | 16.18332 | 102° | 55km/h | 8440m | 5.6m/s | -28.2°C | 37.4% | 0hPa | 2.7V | 00:00:00 | 00:47:10 | 00:00:00 | |
| 9A1FER-10 | 2026-08-30 23:52:45 | 45.85274 | 16.18168 | 98° | 53km/h | 8405m | 4.6m/s | -27.9°C | 38.4% | 0hPa | 2.7V | 00:00:00 | 00:47:02 | 00:00:00 | |
| 9A1FER-3 | 2026-08-30 23:52:38 | 45.85290 | 16.18033 | 97° | 55km/h | 8375m | 4.2m/s | -27.7°C | 39.0% | 0hPa | 2.7V | 00:00:00 | 00:46:55 | 00:00:00 | |
| 9A1FER-10 | 2026-08-30 23:52:30 | 45.85304 | 16.17881 | 95° | 57km/h | 8335m | 5.1m/s | -27.3°C | 39.9% | 0hPa | 2.7V | 00:00:00 | 00:46:47 | 00:00:00 | |
| 9A1FER-3 | 2026-08-30 23:52:23 | 45.85316 | 16.17736 | 101° | 57km/h | 8298m | 6.6m/s | -27.0°C | 39.0% | 0hPa | 2.7V | 00:00:00 | 00:46:40 | 00:00:00 | |
| 9A1FER-10 | 2026-08-30 23:52:15 | 45.85331 | 16.17575 | 95° | 57km/h | 8256m | 3.9m/s | -26.6°C | 39.1% | 0hPa | 2.9V | 00:00:00 | 00:46:32 | 00:00:00 | |
| 9A1FER-3 | 2026-08-30 23:52:08 | 45.85341 | 16.17434 | 100° | 57km/h | 8218m | 4.6m/s | -26.2°C | 38.1% | 0hPa | 2.9V | 00:00:00 | 00:46:25 | 00:00:00 | |
| 9A1FER-10 | 2026-08-30 23:52:00 | 45.85353 | 16.17264 | 88° | 57km/h | 8181m | 3.8m/s | -25.9°C | 38.0% | 0hPa | 2.9V | 00:00:00 | 00:46:17 | 00:00:00 | |
| 9A1FER-3 | 2026-08-30 23:51:53 | 45.85356 | 16.17130 | 101° | 57km/h | 8148m | 4.0m/s | -25.5°C | 37.3% | 0hPa | 2.9V | 00:00:00 | 00:46:10 | 00:00:00 | |
| 9A1FER-10 | 2026-08-30 23:51:45 | 45.85360 | 16.16961 | 89° | 55km/h | 8108m | 8.6m/s | -25.2°C | 36.6% | 0hPa | 2.9V | 00:00:00 | 00:46:02 | 00:00:00 | |
| 9A1FER-3 | 2026-08-30 23:51:38 | 45.85369 | 16.16821 | 92° | 55km/h | 8069m | 5.1m/s | -24.8°C | 35.6% | 0hPa | 2.9V | 00:00:00 | 00:45:55 | 08:30:00 | |
| 9A1FER-10 | 2026-08-30 23:51:30 | 45.85370 | 16.16662 | 93° | 57km/h | 8027m | 4.3m/s | -24.5°C | 35.0% | 0hPa | 2.9V | 00:00:00 | 00:45:47 | 08:30:00 | |
| 9A1FER-3 | 2026-08-30 23:51:23 | 45.85379 | 16.16523 | 93° | 55km/h | 7996m | 5.1m/s | -24.3°C | 35.6% | 0hPa | 2.9V | 00:00:00 | 00:45:40 | 00:00:00 | |
| 9A1FER-10 | 2026-08-30 23:51:15 | 45.85376 | 16.16360 | 90° | 53km/h | 7960m | 5.5m/s | -24.0°C | 37.7% | 0hPa | 2.9V | 00:00:00 | 00:45:32 | 00:00:00 | |
| 9A1FER-3 | 2026-08-30 23:51:08 | 45.85381 | 16.16228 | 91° | 51km/h | 7928m | 6.9m/s | -24.0°C | 48.4% | 0hPa | 2.9V | 00:00:00 | 00:45:25 | 00:00:00 | |
| 9A1FER-10 | 2026-08-30 23:51:00 | 45.85382 | 16.16073 | 90° | 49km/h | 7886m | 6.3m/s | -23.7°C | 52.9% | 0hPa | 2.9V | 00:00:00 | 00:45:17 | 00:00:00 | |
| 9A1FER-3 | 2026-08-30 23:50:53 | 45.85381 | 16.15955 | 97° | 51km/h | 7853m | 3.3m/s | -23.4°C | 51.9% | 0hPa | 2.9V | 00:00:00 | 00:45:10 | 00:00:00 | |
| 9A1FER-10 | 2026-08-30 23:50:45 | 45.85391 | 16.15806 | 93° | 51km/h | 7818m | 4.2m/s | -23.1°C | 50.6% | 0hPa | 2.7V | 00:00:00 | 00:45:02 | 00:00:00 | |
| 9A1FER-3 | 2026-08-30 23:50:38 | 45.85392 | 16.15680 | 90° | 49km/h | 7790m | 3.8m/s | -22.8°C | 52.2% | 0hPa | 2.9V | 00:00:00 | 00:44:55 | 00:00:00 | |
| 9A1FER-10 | 2026-08-30 23:50:30 | 45.85396 | 16.15529 | 95° | 46km/h | 7758m | 4.9m/s | -22.5°C | 50.8% | 0hPa | 2.9V | 00:00:00 | 00:44:47 | 00:00:00 | |
| 9A1FER-3 | 2026-08-30 23:50:23 | 45.85399 | 16.15416 | 94° | 49km/h | 7729m | 6.1m/s | -22.2°C | 49.4% | 0hPa | 2.9V | 00:00:00 | 00:44:40 | 00:00:00 | |
| 9A1FER-10 | 2026-08-30 23:50:15 | 45.85404 | 16.15282 | 87° | 49km/h | 7690m | 4.6m/s | -21.8°C | 48.4% | 0hPa | 2.9V | 00:00:00 | 00:44:32 | 00:00:00 | |
| 9A1FER-3 | 2026-08-30 23:50:08 | 45.85400 | 16.15150 | 94° | 49km/h | 7659m | 2.7m/s | -21.5°C | 47.7% | 0hPa | 2.9V | 00:00:00 | 00:44:25 | 00:00:00 | |
| 9A1FER-10 | 2026-08-30 23:50:00 | 45.85401 | 16.15014 | 86° | 49km/h | 7624m | 3.9m/s | -21.2°C | 46.2% | 0hPa | 2.9V | 00:00:00 | 00:44:17 | 00:00:00 | |
| 9A1FER-3 | 2026-08-30 23:49:53 | 45.85401 | 16.14886 | 97° | 49km/h | 7595m | 2.5m/s | -20.9°C | 45.3% | 0hPa | 2.9V | 00:00:00 | 00:44:10 | 00:00:00 | |
| 9A1FER-10 | 2026-08-30 23:49:45 | 45.85400 | 16.14745 | 91° | 49km/h | 7564m | 4.5m/s | -20.6°C | 44.3% | 0hPa | 2.9V | 00:00:00 | 00:44:02 | 00:00:00 | |
| 9A1FER-3 | 2026-08-30 23:49:38 | 45.85412 | 16.14615 | 99° | 49km/h | 7529m | 4.3m/s | -20.3°C | 43.0% | 0hPa | 2.9V | 00:00:00 | 00:43:55 | 00:00:00 | |
| 9A1FER-10 | 2026-08-30 23:49:30 | 45.85409 | 16.14479 | 95° | 49km/h | 7494m | 5.4m/s | -19.9°C | 42.4% | 0hPa | 2.9V | 00:00:00 | 00:43:47 | 00:00:00 | |
| 9A1FER-3 | 2026-08-30 23:49:23 | 45.85414 | 16.14350 | 84° | 46km/h | 7460m | 3.9m/s | -19.6°C | 41.5% | 0hPa | 2.9V | 00:00:00 | 00:43:40 | 08:30:00 | |
| 9A1FER-10 | 2026-08-30 23:49:15 | 45.85416 | 16.14215 | 97° | 49km/h | 7421m | 3.0m/s | -19.2°C | 40.6% | 0hPa | 2.9V | 00:00:00 | 00:43:32 | 08:30:00 | |
| 9A1FER-3 | 2026-08-30 23:49:08 | 45.85424 | 16.14099 | 97° | 51km/h | 7388m | 4.8m/s | -18.9°C | 39.6% | 0hPa | 2.9V | 00:00:00 | 00:43:25 | 00:00:00 | |
| 9A1FER-10 | 2026-08-30 23:49:00 | 45.85430 | 16.13949 | 92° | 51km/h | 7351m | 3.4m/s | -18.5°C | 39.0% | 0hPa | 2.9V | 00:00:00 | 00:43:17 | 00:00:00 | |
| 9A1FER-3 | 2026-08-30 23:48:53 | 45.85435 | 16.13825 | 100° | 49km/h | 7313m | 6.2m/s | -18.2°C | 34.2% | 0hPa | 2.9V | 00:00:00 | 00:43:10 | 00:00:00 | |
| 9A1FER-10 | 2026-08-30 23:48:45 | 45.85443 | 16.13674 | 94° | 49km/h | 7272m | 4.3m/s | -17.8°C | 28.0% | 0hPa | 2.9V | 00:00:00 | 00:43:02 | 00:00:00 | |
| 9A1FER-3 | 2026-08-30 23:48:38 | 45.85448 | 16.13555 | 96° | 49km/h | 7236m | 4.9m/s | -17.6°C | 17.9% | 0hPa | 2.9V | 00:00:00 | 00:42:55 | 00:00:00 | |
| 9A1FER-10 | 2026-08-30 23:48:29 | 45.85454 | 16.13394 | 82° | 49km/h | 7185m | 4.8m/s | -17.3°C | 17.8% | 0hPa | 2.9V | 00:00:00 | 00:42:46 | 00:00:00 | |
| 9A1FER-3 | 2026-08-30 23:48:23 | 45.85450 | 16.13295 | 85° | 51km/h | 7158m | 3.1m/s | -17.1°C | 18.0% | 0hPa | 2.7V | 00:00:00 | 00:42:40 | 00:00:00 | |
| 9A1FER-10 | 2026-08-30 23:48:14 | 45.85431 | 16.13132 | 77° | 49km/h | 7116m | 3.9m/s | -16.7°C | 15.8% | 0hPa | 2.7V | 00:00:00 | 00:42:31 | 00:00:00 | |
| 9A1FER-3 | 2026-08-30 23:48:08 | 45.85414 | 16.13023 | 76° | 51km/h | 7091m | 3.1m/s | -16.4°C | 15.2% | 0hPa | 2.7V | 00:00:00 | 00:42:25 | 00:00:00 | |
| 9A1FER-10 | 2026-08-30 23:47:59 | 45.85389 | 16.12871 | 78° | 49km/h | 7049m | 6.0m/s | -16.1°C | 14.8% | 0hPa | 2.7V | 00:00:00 | 00:42:16 | 00:00:00 | |
| 9A1FER-3 | 2026-08-30 23:47:53 | 45.85374 | 16.12755 | 83° | 47km/h | 7019m | 5.1m/s | -15.8°C | 16.0% | 0hPa | 2.7V | 00:00:00 | 00:42:10 | 00:00:00 | |
| 9A1FER-10 | 2026-08-30 23:47:44 | 45.85356 | 16.12605 | 79° | 49km/h | 6971m | 4.6m/s | -15.4°C | 11.9% | 0hPa | 2.9V | 00:00:00 | 00:42:01 | 00:00:00 | |
| 9A1FER-3 | 2026-08-30 23:47:38 | 45.85340 | 16.12503 | 79° | 47km/h | 6943m | 4.3m/s | -15.2°C | 11.5% | 0hPa | 2.9V | 00:00:00 | 00:41:55 | 00:00:00 | |
| 9A1FER-10 | 2026-08-30 23:47:29 | 45.85321 | 16.12348 | 89° | 46km/h | 6899m | 5.4m/s | -14.8°C | 11.5% | 0hPa | 2.9V | 00:00:00 | 00:41:46 | 00:00:00 | |
| 9A1FER-3 | 2026-08-30 23:47:23 | 45.85315 | 16.12250 | 77° | 46km/h | 6872m | 3.6m/s | -14.5°C | 11.6% | 0hPa | 2.9V | 00:00:00 | 00:41:40 | 00:00:00 | |
| 9A1FER-10 | 2026-08-30 23:47:14 | 45.85292 | 16.12109 | 81° | 42km/h | 6824m | 3.7m/s | -14.1°C | 12.6% | 0hPa | 2.9V | 00:00:00 | 00:41:31 | 00:00:00 | |
| 9A1FER-3 | 2026-08-30 23:47:08 | 45.85277 | 16.12012 | 77° | 40km/h | 6793m | 4.1m/s | -13.9°C | 13.2% | 0hPa | 2.9V | 00:00:00 | 00:41:25 | 08:30:00 | |
| 9A1FER-10 | 2026-08-30 23:46:59 | 45.85254 | 16.11885 | 79° | 38km/h | 6745m | 4.1m/s | -13.5°C | 5.9% | 0hPa | 2.9V | 00:00:00 | 00:41:16 | 08:30:00 | |
| 9A1FER-3 | 2026-08-30 23:46:53 | 45.85247 | 16.11803 | 80° | 37km/h | 6715m | 4.1m/s | -13.4°C | 5.6% | 0hPa | 2.9V | 00:00:00 | 00:41:10 | 00:00:00 | |
| 9A1FER-3 | 2026-08-30 23:46:38 | 45.85212 | 16.11613 | 76° | 37km/h | 6638m | 7.3m/s | -13.1°C | 7.2% | 0hPa | 2.9V | 00:00:00 | 00:40:55 | 00:00:00 | |
| 9A1FER-10 | 2026-08-30 23:46:29 | 45.85206 | 16.11497 | 81° | 37km/h | 6590m | 3.7m/s | -13.0°C | 7.3% | 0hPa | 2.9V | 00:00:00 | 00:40:46 | 00:00:00 | |
| 9A1FER-3 | 2026-08-30 23:46:23 | 45.85194 | 16.11421 | 83° | 38km/h | 6560m | 7.1m/s | -12.7°C | 6.9% | 0hPa | 2.9V | 00:00:00 | 00:40:40 | 00:00:00 | |
| 9A1FER-10 | 2026-08-30 23:46:14 | 45.85189 | 16.11296 | 80° | 42km/h | 6517m | 3.2m/s | -12.4°C | 6.0% | 0hPa | 2.9V | 00:00:00 | 00:40:31 | 00:00:00 | |
| 9A1FER-3 | 2026-08-30 23:46:08 | 45.85175 | 16.11216 | 82° | 42km/h | 6486m | 4.8m/s | -12.2°C | 4.4% | 0hPa | 2.9V | 00:00:00 | 00:40:25 | 00:00:00 | |
| 9A1FER-10 | 2026-08-30 23:45:59 | 45.85166 | 16.11074 | 88° | 40km/h | 6438m | 6.7m/s | -11.8°C | 4.4% | 0hPa | 2.9V | 00:00:00 | 00:40:16 | 00:00:00 | |
| 9A1FER-3 | 2026-08-30 23:45:53 | 45.85160 | 16.10993 | 82° | 40km/h | 6405m | 5.4m/s | -11.6°C | 4.4% | 0hPa | 2.9V | 00:00:00 | 00:40:10 | 00:00:00 | |
| 9A1FER-10 | 2026-08-30 23:45:44 | 45.85150 | 16.10854 | 84° | 38km/h | 6362m | 3.4m/s | -11.3°C | 4.3% | 0hPa | 2.9V | 00:00:00 | 00:40:01 | 00:00:00 | |
| 9A1FER-10 | 2026-08-30 23:45:29 | 45.85135 | 16.10643 | 88° | 38km/h | 6300m | 4.7m/s | -10.7°C | 4.3% | 0hPa | 2.9V | 00:00:00 | 00:39:46 | 00:00:00 | |
| 9A1FER-3 | 2026-08-30 23:45:23 | 45.85129 | 16.10553 | 79° | 37km/h | 6275m | 5.1m/s | -10.5°C | 4.3% | 0hPa | 2.9V | 00:00:00 | 00:39:40 | 00:00:00 | |
| 9A1FER-10 | 2026-08-30 23:45:14 | 45.85110 | 16.10436 | 73° | 38km/h | 6228m | 4.0m/s | -10.3°C | 4.1% | 0hPa | 2.9V | 00:00:00 | 00:39:31 | 00:00:00 | |
| 9A1FER-3 | 2026-08-30 23:45:08 | 45.85089 | 16.10360 | 70° | 38km/h | 6198m | 4.0m/s | -10.1°C | 4.1% | 0hPa | 2.9V | 00:00:00 | 00:39:25 | 00:00:00 | |
| 9A1FER-10 | 2026-08-30 23:44:59 | 45.85063 | 16.10242 | 80° | 37km/h | 6158m | 4.0m/s | -9.8°C | 4.4% | 0hPa | 2.9V | 00:00:00 | 00:39:16 | 00:00:00 | |
| 9A1FER-3 | 2026-08-30 23:44:53 | 45.85052 | 16.10164 | 73° | 37km/h | 6134m | 5.3m/s | -9.6°C | 4.5% | 0hPa | 2.9V | 00:00:00 | 00:39:10 | 08:30:00 | |
| 9A1FER-10 | 2026-08-30 23:44:44 | 45.85018 | 16.10054 | 68° | 35km/h | 6091m | 6.0m/s | -9.3°C | 4.5% | 0hPa | 2.9V | 00:00:00 | 00:39:01 | 08:30:00 | |
| 9A1FER-3 | 2026-08-30 23:44:38 | 45.85005 | 16.09977 | 81° | 35km/h | 6061m | 5.0m/s | -9.0°C | 4.3% | 0hPa | 2.9V | 00:00:00 | 00:38:55 | 00:00:00 | |
| 9A1FER-10 | 2026-08-30 23:44:29 | 45.84989 | 16.09869 | 73° | 35km/h | 6020m | 4.4m/s | -8.8°C | 3.9% | 0hPa | 2.9V | 00:00:00 | 00:38:46 | 00:00:00 | |
| 9A1FER-3 | 2026-08-30 23:44:23 | 45.84971 | 16.09797 | 75° | 35km/h | 5988m | 4.1m/s | -8.7°C | 4.1% | 0hPa | 2.9V | 00:00:00 | 00:38:40 | 00:00:00 | |
| 9A1FER-10 | 2026-08-30 23:44:14 | 45.84951 | 16.09692 | 81° | 33km/h | 5948m | 3.5m/s | -8.6°C | 4.2% | 0hPa | 2.9V | 00:00:00 | 00:38:31 | 00:00:00 | |
| 9A1FER-3 | 2026-08-30 23:44:08 | 45.84939 | 16.09617 | 70° | 31km/h | 5923m | 5.1m/s | -8.5°C | 4.4% | 0hPa | 2.9V | 00:00:00 | 00:38:25 | 00:00:00 | |
| 9A1FER-10 | 2026-08-30 23:43:59 | 45.84918 | 16.09525 | 81° | 29km/h | 5882m | 2.7m/s | -8.2°C | 4.5% | 0hPa | 2.7V | 00:00:00 | 00:38:16 | 00:00:00 | |
| 9A1FER-3 | 2026-08-30 23:43:53 | 45.84905 | 16.09457 | 67° | 31km/h | 5855m | 4.4m/s | -8.0°C | 4.5% | 0hPa | 2.9V | 00:00:00 | 00:38:10 | 00:00:00 | |
| 9A1FER-10 | 2026-08-30 23:43:44 | 45.84881 | 16.09374 | 71° | 31km/h | 5816m | 3.2m/s | -7.7°C | 4.5% | 0hPa | 2.9V | 00:00:00 | 00:38:01 | 00:00:00 | |
| 9A1FER-3 | 2026-08-30 23:43:38 | 45.84866 | 16.09300 | 77° | 29km/h | 5784m | 3.9m/s | -7.5°C | 4.5% | 0hPa | 2.9V | 00:00:00 | 00:37:55 | 00:00:00 | |
| 9A1FER-10 | 2026-08-30 23:43:29 | 45.84842 | 16.09221 | 68° | 31km/h | 5737m | 6.8m/s | -7.1°C | 4.5% | 0hPa | 2.9V | 00:00:00 | 00:37:46 | 00:00:00 | |
| 9A1FER-3 | 2026-08-30 23:43:23 | 45.84819 | 16.09160 | 63° | 31km/h | 5708m | 6.5m/s | -6.9°C | 4.4% | 0hPa | 2.9V | 00:00:00 | 00:37:40 | 00:00:00 | |
| 9A1FER-10 | 2026-08-30 23:43:14 | 45.84796 | 16.09063 | 75° | 29km/h | 5663m | 4.3m/s | -6.5°C | 4.3% | 0hPa | 2.7V | 00:00:00 | 00:37:31 | 00:00:00 | |
| 9A1FER-3 | 2026-08-30 23:43:08 | 45.84780 | 16.09004 | 70° | 29km/h | 5632m | 5.3m/s | -6.3°C | 4.3% | 0hPa | 2.9V | 00:00:00 | 00:37:25 | 00:00:00 | |
| 9A1FER-10 | 2026-08-30 23:42:59 | 45.84757 | 16.08915 | 67° | 27km/h | 5584m | 4.6m/s | -5.9°C | 4.3% | 0hPa | 2.9V | 00:00:00 | 00:37:16 | 00:00:00 | |
| 9A1FER-3 | 2026-08-30 23:42:53 | 45.84748 | 16.08858 | 80° | 26km/h | 5556m | 4.1m/s | -5.7°C | 4.3% | 0hPa | 2.9V | 00:00:00 | 00:37:10 | 00:00:00 | |
| 9A1FER-10 | 2026-08-30 23:42:44 | 45.84732 | 16.08772 | 81° | 29km/h | 5510m | 5.1m/s | -5.4°C | 4.4% | 0hPa | 2.9V | 00:00:00 | 00:37:01 | 00:00:00 | |
| 9A1FER-3 | 2026-08-30 23:42:38 | 45.84723 | 16.08718 | 80° | 29km/h | 5482m | 4.5m/s | -5.3°C | 4.4% | 0hPa | 2.9V | 00:00:00 | 00:36:55 | 08:30:00 | |
| 9A1FER-10 | 2026-08-30 23:42:29 | 45.84696 | 16.08628 | 67° | 27km/h | 5444m | 4.0m/s | -5.1°C | 4.4% | 0hPa | 2.9V | 00:00:00 | 00:36:46 | 08:30:00 | |
| 9A1FER-3 | 2026-08-30 23:42:23 | 45.84684 | 16.08567 | 76° | 29km/h | 5420m | 5.2m/s | -5.0°C | 4.6% | 0hPa | 2.9V | 00:00:00 | 00:36:40 | 00:00:00 | |
| 9A1FER-10 | 2026-08-30 23:42:14 | 45.84673 | 16.08480 | 84° | 27km/h | 5374m | 6.0m/s | -4.7°C | 4.9% | 0hPa | 2.9V | 00:00:00 | 00:36:31 | 00:00:00 | |
| 9A1FER-3 | 2026-08-30 23:42:08 | 45.84659 | 16.08415 | 68° | 27km/h | 5345m | 4.6m/s | -4.5°C | 4.8% | 0hPa | 2.9V | 00:00:00 | 00:36:25 | 00:00:00 | |
| 9A1FER-10 | 2026-08-30 23:41:59 | 45.84640 | 16.08336 | 63° | 27km/h | 5299m | 3.3m/s | -4.3°C | 4.6% | 0hPa | 2.9V | 00:00:00 | 00:36:16 | 00:00:00 | |
| 9A1FER-3 | 2026-08-30 23:41:53 | 45.84620 | 16.08281 | 72° | 26km/h | 5265m | 6.2m/s | -4.1°C | 3.5% | 0hPa | 2.9V | 00:00:00 | 00:36:10 | 00:00:00 | |
| 9A1FER-10 | 2026-08-30 23:41:44 | 45.84607 | 16.08200 | 72° | 26km/h | 5218m | 5.2m/s | -3.9°C | 4.5% | 0hPa | 2.9V | 00:00:00 | 00:36:01 | 00:00:00 | |
| 9A1FER-3 | 2026-08-30 23:41:38 | 45.84596 | 16.08151 | 82° | 26km/h | 5191m | 3.6m/s | -3.8°C | 4.6% | 0hPa | 2.9V | 00:00:00 | 00:35:55 | 00:00:00 | |
| 9A1FER-10 | 2026-08-30 23:41:29 | 45.84581 | 16.08070 | 70° | 29km/h | 5155m | 6.2m/s | -3.5°C | 4.4% | 0hPa | 2.9V | 00:00:00 | 00:35:46 | 00:00:00 | |
| 9A1FER-3 | 2026-08-30 23:41:23 | 45.84576 | 16.08015 | 97° | 29km/h | 5130m | 4.4m/s | -3.3°C | 4.5% | 0hPa | 2.9V | 00:00:00 | 00:35:40 | 00:00:00 | |
| 9A1FER-10 | 2026-08-30 23:41:14 | 45.84560 | 16.07920 | 78° | 26km/h | 5087m | 4.0m/s | -3.2°C | 4.3% | 0hPa | 2.9V | 00:00:00 | 00:35:31 | 00:00:00 | |
| 9A1FER-3 | 2026-08-30 23:41:08 | 45.84555 | 16.07860 | 83° | 24km/h | 5056m | 3.8m/s | -3.1°C | 4.5% | 0hPa | 2.9V | 00:00:00 | 00:35:25 | 00:00:00 | |
| 9A1FER-10 | 2026-08-30 23:40:59 | 45.84545 | 16.07787 | 79° | 26km/h | 5019m | 3.4m/s | -2.9°C | 4.5% | 0hPa | 2.9V | 00:00:00 | 00:35:16 | 00:00:00 | |
| 9A1FER-3 | 2026-08-30 23:40:53 | 45.84533 | 16.07737 | 68° | 27km/h | 4985m | 5.2m/s | -2.8°C | 4.5% | 0hPa | 2.9V | 00:00:00 | 00:35:10 | 00:00:00 | |
| 9A1FER-10 | 2026-08-30 23:40:44 | 45.84515 | 16.07653 | 66° | 27km/h | 4942m | 3.9m/s | -2.6°C | 4.4% | 0hPa | 2.9V | 00:00:00 | 00:35:01 | 00:00:00 | |
| 9A1FER-3 | 2026-08-30 23:40:38 | 45.84503 | 16.07597 | 81° | 26km/h | 4919m | 6.3m/s | -2.5°C | 4.6% | 0hPa | 2.9V | 00:00:00 | 00:34:55 | 00:00:00 | |
| 9A1FER-10 | 2026-08-30 23:40:29 | 45.84490 | 16.07512 | 64° | 31km/h | 4870m | 6.0m/s | -2.7°C | 4.9% | 0hPa | 2.9V | 00:00:00 | 00:34:46 | 00:00:00 | |
| 9A1FER-3 | 2026-08-30 23:40:23 | 45.84478 | 16.07460 | 83° | 33km/h | 4841m | 3.6m/s | -3.7°C | 22.8% | 0hPa | 2.9V | 00:00:00 | 00:34:40 | 08:30:00 | |
| 9A1FER-10 | 2026-08-30 23:40:14 | 45.84454 | 16.07353 | 65° | 31km/h | 4790m | 4.2m/s | -3.7°C | 28.7% | 0hPa | 2.9V | 00:00:00 | 00:34:31 | 08:30:00 | |
| 9A1FER-3 | 2026-08-30 23:40:08 | 45.84438 | 16.07288 | 74° | 29km/h | 4764m | 7.7m/s | -3.4°C | 28.3% | 0hPa | 2.9V | 00:00:00 | 00:34:25 | 00:00:00 | |
| 9A1FER-10 | 2026-08-30 23:39:59 | 45.84414 | 16.07198 | 66° | 29km/h | 4711m | 4.0m/s | -3.0°C | 27.7% | 0hPa | 2.9V | 00:00:00 | 00:34:16 | 00:00:00 | |
| 9A1FER-3 | 2026-08-30 23:39:53 | 45.84404 | 16.07135 | 80° | 31km/h | 4683m | 2.1m/s | -2.8°C | 27.6% | 0hPa | 2.9V | 00:00:00 | 00:34:10 | 00:00:00 | |
| 9A1FER-10 | 2026-08-30 23:39:44 | 45.84375 | 16.07051 | 54° | 33km/h | 4642m | 5.5m/s | -3.2°C | 44.9% | 0hPa | 2.9V | 00:00:00 | 00:34:01 | 00:00:00 | |
| 9A1FER-3 | 2026-08-30 23:39:38 | 45.84357 | 16.06982 | 72° | 33km/h | 4616m | 3.2m/s | -3.0°C | 47.6% | 0hPa | 2.9V | 00:00:00 | 00:33:55 | 00:00:00 | |
| 9A1FER-10 | 2026-08-30 23:39:29 | 45.84327 | 16.06890 | 70° | 33km/h | 4578m | 3.2m/s | -2.8°C | 50.8% | 0hPa | 2.9V | 00:00:00 | 00:33:46 | 00:00:00 | |
| 9A1FER-3 | 2026-08-30 23:39:23 | 45.84308 | 16.06819 | 66° | 31km/h | 4553m | 3.9m/s | -2.6°C | 51.5% | 0hPa | 2.9V | 00:00:00 | 00:33:40 | 00:00:00 | |
| 9A1FER-10 | 2026-08-30 23:39:14 | 45.84277 | 16.06729 | 59° | 33km/h | 4515m | 3.8m/s | -2.4°C | 55.5% | 0hPa | 2.9V | 00:00:00 | 00:33:31 | 00:00:00 | |
| 9A1FER-3 | 2026-08-30 23:39:09 | 45.84257 | 16.06662 | 71° | 33km/h | 4492m | 2.6m/s | -2.2°C | 54.7% | 0hPa | 2.9V | 00:00:00 | 00:33:25 | 00:00:00 | |
| 9A1FER-10 | 2026-08-30 23:38:59 | 45.84218 | 16.06577 | 60° | 33km/h | 4453m | 4.5m/s | -1.8°C | 52.7% | 0hPa | 2.9V | 00:00:00 | 00:33:16 | 00:00:00 | |
| 9A1FER-3 | 2026-08-30 23:38:53 | 45.84196 | 16.06506 | 74° | 31km/h | 4428m | 6.2m/s | -1.6°C | 51.4% | 0hPa | 2.9V | 00:00:00 | 00:33:10 | 00:00:00 | |
| 9A1FER-10 | 2026-08-30 23:38:44 | 45.84169 | 16.06408 | 60° | 29km/h | 4383m | 5.1m/s | -1.4°C | 51.8% | 0hPa | 2.9V | 00:00:00 | 00:33:01 | 00:00:00 | |
| 9A1FER-3 | 2026-08-30 23:38:38 | 45.84153 | 16.06351 | 85° | 27km/h | 4355m | 6.3m/s | -1.1°C | 52.8% | 0hPa | 2.9V | 00:00:00 | 00:32:55 | 00:00:00 | |
| 9A1FER-10 | 2026-08-30 23:38:29 | 45.84137 | 16.06261 | 79° | 27km/h | 4306m | 4.4m/s | -0.6°C | 54.7% | 0hPa | 2.9V | 00:00:00 | 00:32:46 | 00:00:00 | |
| 9A1FER-3 | 2026-08-30 23:38:23 | 45.84130 | 16.06204 | 75° | 29km/h | 4267m | 7.6m/s | -0.3°C | 54.9% | 0hPa | 2.9V | 00:00:00 | 00:32:40 | 00:00:00 | |
| 9A1FER-10 | 2026-08-30 23:38:14 | 45.84121 | 16.06118 | 93° | 29km/h | 4223m | 4.7m/s | 0.0°C | 54.8% | 0hPa | 2.9V | 00:00:00 | 00:32:31 | 00:00:00 | |
| 9A1FER-3 | 2026-08-30 23:38:08 | 45.84110 | 16.06051 | 74° | 26km/h | 4195m | 3.8m/s | 0.1°C | 58.2% | 0hPa | 2.9V | 00:00:00 | 00:32:25 | 08:30:00 | |
| 9A1FER-10 | 2026-08-30 23:37:59 | 45.84098 | 16.05967 | 67° | 26km/h | 4143m | 4.0m/s | 0.6°C | 58.7% | 0hPa | 2.9V | 00:00:00 | 00:32:16 | 08:30:00 | |
| 9A1FER-3 | 2026-08-30 23:37:53 | 45.84082 | 16.05919 | 74° | 26km/h | 4113m | 6.2m/s | 0.8°C | 60.0% | 0hPa | 2.9V | 00:00:00 | 00:32:10 | 00:00:00 | |
| 9A1FER-10 | 2026-08-30 23:37:44 | 45.84064 | 16.05839 | 48° | 26km/h | 4067m | 3.7m/s | 1.2°C | 60.5% | 0hPa | 2.9V | 00:00:00 | 00:32:01 | 00:00:00 | |
| 9A1FER-3 | 2026-08-30 23:37:38 | 45.84044 | 16.05796 | 63° | 24km/h | 4037m | 6.6m/s | 1.5°C | 59.2% | 0hPa | 2.9V | 00:00:00 | 00:31:55 | 00:00:00 | |
| 9A1FER-10 | 2026-08-30 23:37:29 | 45.84018 | 16.05719 | 55° | 24km/h | 3994m | 4.3m/s | 1.9°C | 59.7% | 0hPa | 2.9V | 00:00:00 | 00:31:46 | 00:00:00 | |
| 9A1FER-3 | 2026-08-30 23:37:23 | 45.83994 | 16.05695 | 40° | 24km/h | 3971m | 2.1m/s | 2.0°C | 61.1% | 0hPa | 2.9V | 00:00:00 | 00:31:40 | 00:00:00 | |
| 9A1FER-10 | 2026-08-30 23:37:14 | 45.83964 | 16.05624 | 54° | 24km/h | 3926m | 3.7m/s | 2.4°C | 60.9% | 0hPa | 2.9V | 00:00:00 | 00:31:31 | 00:00:00 | |
| 9A1FER-3 | 2026-08-30 23:37:08 | 45.83945 | 16.05589 | 44° | 27km/h | 3905m | 2.9m/s | 2.6°C | 60.8% | 0hPa | 2.9V | 00:00:00 | 00:31:25 | 00:00:00 | |
| 9A1FER-10 | 2026-08-30 23:36:59 | 45.83910 | 16.05520 | 55° | 27km/h | 3869m | 4.6m/s | 2.9°C | 60.1% | 0hPa | 2.9V | 00:00:00 | 00:31:16 | 00:00:00 | |
| 9A1FER-3 | 2026-08-30 23:36:53 | 45.83884 | 16.05471 | 48° | 24km/h | 3845m | 4.7m/s | 3.2°C | 48.7% | 0hPa | 2.9V | 00:00:00 | 00:31:10 | 00:00:00 | |
| 9A1FER-10 | 2026-08-30 23:36:44 | 45.83853 | 16.05399 | 44° | 26km/h | 3801m | 4.6m/s | 3.7°C | 32.6% | 0hPa | 2.9V | 00:00:00 | 00:31:01 | 00:00:00 | |
| 9A1FER-3 | 2026-08-30 23:36:38 | 45.83830 | 16.05370 | 48° | 29km/h | 3773m | 4.5m/s | 4.0°C | 30.5% | 0hPa | 2.9V | 00:00:00 | 00:30:55 | 00:00:00 | |
| 9A1FER-10 | 2026-08-30 23:36:29 | 45.83792 | 16.05295 | 59° | 27km/h | 3735m | 5.7m/s | 4.4°C | 28.8% | 0hPa | 2.9V | 00:00:00 | 00:30:46 | 00:00:00 | |
| 9A1FER-3 | 2026-08-30 23:36:23 | 45.83765 | 16.05248 | 27° | 27km/h | 3698m | 6.5m/s | 4.6°C | 15.5% | 0hPa | 2.9V | 00:00:00 | 00:30:40 | 00:00:00 | |
| 9A1FER-10 | 2026-08-30 23:36:14 | 45.83715 | 16.05196 | 55° | 22km/h | 3659m | 4.3m/s | 4.4°C | 15.0% | 0hPa | 2.9V | 00:00:00 | 00:30:31 | 00:00:00 | |
| 9A1FER-3 | 2026-08-30 23:36:08 | 45.83688 | 16.05164 | 25° | 20km/h | 3637m | 4.2m/s | 4.4°C | 15.5% | 0hPa | 2.9V | 00:00:00 | 00:30:25 | 00:00:00 | |
| 9A1FER-10 | 2026-08-30 23:35:59 | 45.83653 | 16.05121 | 48° | 22km/h | 3591m | 5.9m/s | 4.3°C | 19.3% | 0hPa | 2.9V | 00:00:00 | 00:30:16 | 00:00:00 | |
| 9A1FER-3 | 2026-08-30 23:35:53 | 45.83632 | 16.05087 | 51° | 20km/h | 3561m | 4.6m/s | 4.5°C | 18.0% | 0hPa | 2.9V | 00:00:00 | 00:30:10 | 08:30:00 | |
| 9A1FER-10 | 2026-08-30 23:35:44 | 45.83607 | 16.05026 | 57° | 22km/h | 3513m | 4.8m/s | 4.9°C | 16.6% | 0hPa | 2.9V | 00:00:00 | 00:30:01 | 08:30:00 | |
| 9A1FER-3 | 2026-08-30 23:35:38 | 45.83592 | 16.04991 | 61° | 20km/h | 3488m | 3.0m/s | 5.2°C | 15.3% | 0hPa | 2.9V | 00:00:00 | 00:29:55 | 00:00:00 | |
| 9A1FER-10 | 2026-08-30 23:35:29 | 45.83558 | 16.04937 | 54° | 16km/h | 3444m | 7.4m/s | 5.1°C | 31.0% | 0hPa | 2.9V | 00:00:00 | 00:29:46 | 00:00:00 | |
| 9A1FER-3 | 2026-08-30 23:35:23 | 45.83545 | 16.04913 | 58° | 16km/h | 3412m | 4.7m/s | 5.2°C | 36.5% | 0hPa | 2.9V | 00:00:00 | 00:29:40 | 00:00:00 | |
| 9A1FER-10 | 2026-08-30 23:35:14 | 45.83527 | 16.04867 | 44° | 16km/h | 3369m | 4.4m/s | 5.5°C | 23.6% | 0hPa | 2.9V | 00:00:00 | 00:29:31 | 00:00:00 | |
| 9A1FER-3 | 2026-08-30 23:35:08 | 45.83514 | 16.04842 | 66° | 18km/h | 3342m | 4.7m/s | 5.7°C | 23.6% | 0hPa | 2.9V | 00:00:00 | 00:29:25 | 00:00:00 | |
| 9A1FER-10 | 2026-08-30 23:34:59 | 45.83496 | 16.04788 | 84° | 18km/h | 3303m | 4.5m/s | 6.1°C | 23.3% | 0hPa | 2.9V | 00:00:00 | 00:29:16 | 00:00:00 | |
| 9A1FER-3 | 2026-08-30 23:34:53 | 45.83493 | 16.04746 | 76° | 18km/h | 3273m | 6.6m/s | 6.3°C | 23.4% | 0hPa | 2.9V | 00:00:00 | 00:29:10 | 00:00:00 | |
| 9A1FER-10 | 2026-08-30 23:34:44 | 45.83480 | 16.04691 | 76° | 22km/h | 3226m | 5.0m/s | 6.7°C | 22.9% | 0hPa | 2.9V | 00:00:00 | 00:29:01 | 00:00:00 | |
| 9A1FER-3 | 2026-08-30 23:34:38 | 45.83469 | 16.04654 | 66° | 20km/h | 3199m | 5.4m/s | 7.0°C | 22.2% | 0hPa | 2.9V | 00:00:00 | 00:28:55 | 00:00:00 | |
| 9A1FER-10 | 2026-08-30 23:34:29 | 45.83448 | 16.04585 | 64° | 20km/h | 3164m | 3.3m/s | 7.3°C | 21.7% | 0hPa | 2.9V | 00:00:00 | 00:28:46 | 00:00:00 | |
| 9A1FER-3 | 2026-08-30 23:34:23 | 45.83439 | 16.04552 | 70° | 22km/h | 3143m | 3.5m/s | 7.5°C | 21.7% | 0hPa | 2.9V | 00:00:00 | 00:28:40 | 00:00:00 | |
| 9A1FER-10 | 2026-08-30 23:34:14 | 45.83421 | 16.04490 | 78° | 24km/h | 3099m | 3.9m/s | 7.7°C | 20.7% | 0hPa | 2.9V | 00:00:00 | 00:28:31 | 00:00:00 | |
| 9A1FER-3 | 2026-08-30 23:34:08 | 45.83414 | 16.04436 | 77° | 24km/h | 3076m | 4.9m/s | 7.7°C | 20.7% | 0hPa | 2.9V | 00:00:00 | 00:28:25 | 00:00:00 | |
| 9A1FER-10 | 2026-08-30 23:34:00 | 45.83406 | 16.04362 | 70° | 24km/h | 3038m | 4.6m/s | 7.8°C | 20.3% | 0hPa | 2.9V | 00:00:00 | 00:28:16 | 00:00:00 | |
| 9A1FER-3 | 2026-08-30 23:33:53 | 45.83395 | 16.04313 | 89° | 24km/h | 3008m | 7.0m/s | 7.9°C | 22.6% | 0hPa | 2.9V | 00:00:00 | 00:28:10 | 00:00:00 | |
| 9A1FER-10 | 2026-08-30 23:33:44 | 45.83403 | 16.04243 | 100° | 24km/h | 2961m | 4.7m/s | 7.4°C | 59.2% | 0hPa | 2.9V | 00:00:00 | 00:28:01 | 00:00:00 | |
| 9A1FER-3 | 2026-08-30 23:33:38 | 45.83406 | 16.04186 | 67° | 24km/h | 2932m | 5.3m/s | 7.1°C | 80.1% | 0hPa | 2.9V | 00:00:00 | 00:27:55 | 08:30:00 | |
| 9A1FER-10 | 2026-08-30 23:33:29 | 45.83393 | 16.04118 | 89° | 22km/h | 2881m | 5.4m/s | 7.2°C | 93.0% | 0hPa | 2.9V | 00:00:00 | 00:27:46 | 08:30:00 | |
| 9A1FER-3 | 2026-08-30 23:33:23 | 45.83381 | 16.04068 | 65° | 24km/h | 2855m | 4.7m/s | 7.4°C | 92.4% | 0hPa | 2.9V | 00:00:00 | 00:27:40 | 00:00:00 | |
| 9A1FER-10 | 2026-08-30 23:33:14 | 45.83360 | 16.04009 | 80° | 24km/h | 2821m | 4.2m/s | 7.8°C | 91.5% | 0hPa | 2.9V | 00:00:00 | 00:27:31 | 00:00:00 | |
| 9A1FER-3 | 2026-08-30 23:33:08 | 45.83349 | 16.03945 | 60° | 20km/h | 2793m | 6.5m/s | 8.0°C | 90.2% | 0hPa | 2.9V | 00:00:00 | 00:27:25 | 00:00:00 | |
| 9A1FER-10 | 2026-08-30 23:32:59 | 45.83330 | 16.03892 | 37° | 27km/h | 2741m | 4.7m/s | 8.5°C | 88.2% | 0hPa | 2.9V | 00:00:00 | 00:27:16 | 00:00:00 | |
| 9A1FER-3 | 2026-08-30 23:32:53 | 45.83308 | 16.03851 | 80° | 27km/h | 2710m | 7.0m/s | 8.8°C | 86.5% | 0hPa | 2.9V | 00:00:00 | 00:27:10 | 00:00:00 | |
| 9A1FER-10 | 2026-08-30 23:32:44 | 45.83273 | 16.03767 | 46° | 27km/h | 2658m | 5.6m/s | 9.2°C | 85.4% | 0hPa | 2.9V | 00:00:00 | 00:27:01 | 00:00:00 | |
| 9A1FER-3 | 2026-08-30 23:32:38 | 45.83252 | 16.03723 | 65° | 26km/h | 2627m | 5.1m/s | 9.5°C | 82.7% | 0hPa | 2.9V | 00:00:00 | 00:26:55 | 00:00:00 | |
| 9A1FER-10 | 2026-08-30 23:32:29 | 45.83224 | 16.03638 | 55° | 20km/h | 2583m | 3.4m/s | 9.9°C | 76.9% | 0hPa | 2.9V | 00:00:00 | 00:26:46 | 00:00:00 | |
| 9A1FER-3 | 2026-08-30 23:32:23 | 45.83203 | 16.03606 | 42° | 18km/h | 2551m | 6.4m/s | 10.2°C | 72.8% | 0hPa | 2.9V | 00:00:00 | 00:26:40 | 00:00:00 | |
| 9A1FER-10 | 2026-08-30 23:32:14 | 45.83179 | 16.03553 | 69° | 18km/h | 2509m | 3.2m/s | 10.6°C | 72.1% | 0hPa | 2.9V | 00:00:00 | 00:26:31 | 00:00:00 | |
| 9A1FER-3 | 2026-08-30 23:32:08 | 45.83175 | 16.03518 | 57° | 16km/h | 2484m | 6.3m/s | 10.8°C | 70.8% | 0hPa | 2.9V | 00:00:00 | 00:26:25 | 00:00:00 | |
| 9A1FER-10 | 2026-08-30 23:31:59 | 45.83151 | 16.03467 | 80° | 18km/h | 2439m | 4.6m/s | 11.0°C | 71.7% | 0hPa | 2.9V | 00:00:00 | 00:26:16 | 00:00:00 | |
| 9A1FER-3 | 2026-08-30 23:31:53 | 45.83136 | 16.03443 | 45° | 18km/h | 2414m | 3.7m/s | 11.0°C | 76.8% | 0hPa | 2.9V | 00:00:00 | 00:26:10 | 00:00:00 | |
| 9A1FER-10 | 2026-08-30 23:31:44 | 45.83118 | 16.03381 | 52° | 20km/h | 2366m | 6.9m/s | 11.3°C | 84.4% | 0hPa | 2.9V | 00:00:00 | 00:26:01 | 00:00:00 | |
| 9A1FER-3 | 2026-08-30 23:31:38 | 45.83108 | 16.03360 | 80° | 22km/h | 2334m | 5.8m/s | 11.4°C | 90.5% | 0hPa | 2.9V | 00:00:00 | 00:25:55 | 00:00:00 | |
| 9A1FER-10 | 2026-08-30 23:31:29 | 45.83077 | 16.03295 | 37° | 18km/h | 2293m | 5.1m/s | 11.4°C | 92.2% | 0hPa | 2.9V | 00:00:00 | 00:25:46 | 00:00:00 | |
| 9A1FER-3 | 2026-08-30 23:31:23 | 45.83065 | 16.03262 | 52° | 18km/h | 2263m | 4.4m/s | 11.4°C | 92.9% | 0hPa | 2.9V | 00:00:00 | 00:25:40 | 08:30:00 | |
| 9A1FER-10 | 2026-08-30 23:31:14 | 45.83043 | 16.03220 | 72° | 18km/h | 2211m | 3.4m/s | 11.7°C | 92.0% | 0hPa | 2.9V | 00:00:00 | 00:25:31 | 08:30:00 | |
| 9A1FER-3 | 2026-08-30 23:31:08 | 45.83022 | 16.03194 | 10° | 20km/h | 2181m | 5.5m/s | 12.0°C | 93.1% | 0hPa | 2.9V | 00:00:00 | 00:25:25 | 00:00:00 | |
| 9A1FER-10 | 2026-08-30 23:30:59 | 45.82984 | 16.03176 | 21° | 18km/h | 2135m | 6.1m/s | 12.4°C | 90.4% | 0hPa | 2.9V | 00:00:00 | 00:25:16 | 00:00:00 | |
| 9A1FER-3 | 2026-08-30 23:30:53 | 45.82956 | 16.03166 | 31° | 15km/h | 2105m | 6.0m/s | 12.7°C | 88.5% | 0hPa | 2.9V | 00:00:00 | 00:25:10 | 00:00:00 | |
| 9A1FER-10 | 2026-08-30 23:30:44 | 45.82921 | 16.03142 | 60° | 15km/h | 2065m | 3.5m/s | 13.1°C | 86.6% | 0hPa | 2.9V | 00:00:00 | 00:25:01 | 00:00:00 | |
| 9A1FER-3 | 2026-08-30 23:30:38 | 45.82906 | 16.03132 | 14° | 16km/h | 2034m | 7.4m/s | 13.4°C | 85.1% | 0hPa | 2.9V | 00:00:00 | 00:24:55 | 00:00:00 | |
| 9A1FER-10 | 2026-08-30 23:30:29 | 45.82877 | 16.03112 | 42° | 16km/h | 1991m | 3.0m/s | 13.8°C | 82.9% | 0hPa | 2.9V | 00:00:00 | 00:24:46 | 00:00:00 | |
| 9A1FER-3 | 2026-08-30 23:30:23 | 45.82851 | 16.03103 | 355° | 16km/h | 1956m | 4.9m/s | 14.1°C | 81.1% | 0hPa | 2.9V | 00:00:00 | 00:24:40 | 00:00:00 | |
| 9A1FER-10 | 2026-08-30 23:30:14 | 45.82818 | 16.03086 | 15° | 13km/h | 1921m | 4.5m/s | 14.5°C | 79.7% | 0hPa | 2.9V | 00:00:00 | 00:24:31 | 00:00:00 | |
| 9A1FER-3 | 2026-08-30 23:30:08 | 45.82795 | 16.03073 | 9° | 13km/h | 1892m | 4.2m/s | 14.7°C | 79.2% | 0hPa | 2.9V | 00:00:00 | 00:24:25 | 00:00:00 | |
| 9A1FER-10 | 2026-08-30 23:29:59 | 45.82773 | 16.03062 | 37° | 18km/h | 1851m | 3.9m/s | 15.1°C | 78.9% | 0hPa | 2.9V | 00:00:00 | 00:24:16 | 00:00:00 | |
| 9A1FER-3 | 2026-08-30 23:29:53 | 45.82753 | 16.03046 | 358° | 18km/h | 1829m | 4.3m/s | 15.3°C | 78.5% | 0hPa | 2.9V | 00:00:00 | 00:24:10 | 00:00:00 | |
| 9A1FER-10 | 2026-08-30 23:29:44 | 45.82708 | 16.03035 | 31° | 18km/h | 1790m | 5.4m/s | 15.6°C | 78.3% | 0hPa | 2.9V | 00:00:00 | 00:24:01 | 00:00:00 | |
| 9A1FER-3 | 2026-08-30 23:29:38 | 45.82686 | 16.03026 | 342° | 20km/h | 1761m | 3.3m/s | 15.8°C | 78.3% | 0hPa | 2.9V | 00:00:00 | 00:23:55 | 00:00:00 | |
| 9A1FER-10 | 2026-08-30 23:29:29 | 45.82649 | 16.03002 | 46° | 15km/h | 1721m | 4.4m/s | 16.1°C | 75.0% | 0hPa | 2.9V | 00:00:00 | 00:23:46 | 00:00:00 | |
| 9A1FER-3 | 2026-08-30 23:29:23 | 45.82623 | 16.02990 | 44° | 15km/h | 1690m | 4.6m/s | 16.3°C | 74.9% | 0hPa | 2.9V | 00:00:00 | 00:23:40 | 00:00:00 | |
| 9A1FER-10 | 2026-08-30 23:29:14 | 45.82601 | 16.02969 | 9° | 15km/h | 1652m | 6.0m/s | 16.7°C | 73.9% | 0hPa | 2.9V | 00:00:00 | 00:23:31 | 00:00:00 | |
| 9A1FER-3 | 2026-08-30 23:29:08 | 45.82577 | 16.02965 | 6° | 18km/h | 1623m | 4.2m/s | 16.9°C | 72.4% | 0hPa | 2.9V | 00:00:00 | 00:23:25 | 08:30:00 | |
| 9A1FER-10 | 2026-08-30 23:28:59 | 45.82547 | 16.02946 | 16° | 20km/h | 1581m | 5.8m/s | 17.3°C | 69.3% | 0hPa | 2.9V | 00:00:00 | 00:23:16 | 08:30:00 | |
| 9A1FER-3 | 2026-08-30 23:28:53 | 45.82514 | 16.02936 | 15° | 18km/h | 1554m | 4.0m/s | 17.6°C | 68.0% | 0hPa | 2.9V | 00:00:00 | 00:23:10 | 00:00:00 | |
| 9A1FER-10 | 2026-08-30 23:28:44 | 45.82473 | 16.02929 | 350° | 20km/h | 1510m | 5.4m/s | 18.0°C | 65.3% | 0hPa | 2.9V | 00:00:00 | 00:23:01 | 00:00:00 | |
| 9A1FER-3 | 2026-08-30 23:28:38 | 45.82449 | 16.02947 | 349° | 18km/h | 1483m | 5.1m/s | 18.3°C | 63.5% | 0hPa | 2.9V | 00:00:00 | 00:22:55 | 00:00:00 | |
| 9A1FER-10 | 2026-08-30 23:28:29 | 45.82404 | 16.02952 | 349° | 16km/h | 1440m | 1.9m/s | 18.7°C | 61.8% | 0hPa | 2.9V | 00:00:00 | 00:22:46 | 00:00:00 | |
| 9A1FER-3 | 2026-08-30 23:28:23 | 45.82382 | 16.02951 | 330° | 15km/h | 1412m | 4.8m/s | 19.0°C | 60.9% | 0hPa | 2.9V | 00:00:00 | 00:22:40 | 00:00:00 | |
| 9A1FER-10 | 2026-08-30 23:28:14 | 45.82348 | 16.02945 | 11° | 13km/h | 1369m | 4.3m/s | 19.4°C | 59.7% | 0hPa | 2.9V | 00:00:00 | 00:22:31 | 00:00:00 | |
| 9A1FER-3 | 2026-08-30 23:28:08 | 45.82338 | 16.02936 | 301° | 13km/h | 1345m | 4.5m/s | 19.6°C | 58.9% | 0hPa | 2.9V | 00:00:00 | 00:22:25 | 00:00:00 | |
| 9A1FER-10 | 2026-08-30 23:27:59 | 45.82311 | 16.02952 | 162° | 13km/h | 1291m | 6.4m/s | 20.1°C | 56.4% | 0hPa | 2.9V | 00:00:00 | 00:22:16 | 00:00:00 | |
| 9A1FER-3 | 2026-08-30 23:27:53 | 45.82294 | 16.02947 | 30° | 15km/h | 1261m | 4.3m/s | 20.3°C | 55.2% | 0hPa | 2.9V | 00:00:00 | 00:22:10 | 00:00:00 | |
| 9A1FER-10 | 2026-08-30 23:27:44 | 45.82267 | 16.02951 | 344° | 13km/h | 1214m | 6.1m/s | 20.8°C | 51.4% | 0hPa | 2.9V | 00:00:00 | 00:22:01 | 00:00:00 | |
| 9A1FER-3 | 2026-08-30 23:27:38 | 45.82247 | 16.02948 | 1° | 13km/h | 1178m | 3.9m/s | 21.1°C | 49.1% | 0hPa | 2.9V | 00:00:00 | 00:21:55 | 00:00:00 | |
| 9A1FER-10 | 2026-08-30 23:27:29 | 45.82231 | 16.02964 | 35° | 11km/h | 1134m | 3.5m/s | 21.5°C | 46.6% | 0hPa | 2.9V | 00:00:00 | 00:21:46 | 00:00:00 | |
| 9A1FER-3 | 2026-08-30 23:27:23 | 45.82206 | 16.02966 | 326° | 11km/h | 1111m | 5.5m/s | 21.7°C | 44.8% | 0hPa | 2.9V | 00:00:00 | 00:21:40 | 00:00:00 | |
| 9A1FER-10 | 2026-08-30 23:27:14 | 45.82192 | 16.02971 | 74° | 11km/h | 1055m | 8.0m/s | 22.1°C | 45.4% | 0hPa | 2.9V | 00:00:00 | 00:21:31 | 00:00:00 | |
| 9A1FER-3 | 2026-08-30 23:27:08 | 45.82178 | 16.02986 | 318° | 13km/h | 1019m | 5.4m/s | 22.4°C | 44.8% | 0hPa | 2.9V | 00:00:00 | 00:21:25 | 00:00:00 | |
| 9A1FER-10 | 2026-08-30 23:26:59 | 45.82161 | 16.02990 | 340° | 15km/h | 973m | 5.0m/s | 22.9°C | 42.7% | 0hPa | 2.9V | 00:00:00 | 00:21:16 | 00:00:00 | |
| 9A1FER-3 | 2026-08-30 23:26:53 | 45.82132 | 16.02994 | 341° | 15km/h | 947m | 5.5m/s | 23.1°C | 40.9% | 0hPa | 2.9V | 00:00:00 | 00:21:10 | 08:30:00 | |
| 9A1FER-10 | 2026-08-30 23:26:44 | 45.82104 | 16.03002 | 352° | 15km/h | 895m | 5.0m/s | 23.4°C | 41.7% | 0hPa | 2.9V | 00:00:00 | 00:21:01 | 08:30:00 | |
| 9A1FER-3 | 2026-08-30 23:26:38 | 45.82076 | 16.03013 | 1° | 11km/h | 865m | 7.3m/s | 23.5°C | 43.6% | 0hPa | 2.9V | 00:00:00 | 00:20:55 | 00:00:00 | |
| 9A1FER-10 | 2026-08-30 23:26:29 | 45.82062 | 16.03022 | 335° | 15km/h | 820m | 5.4m/s | 23.7°C | 43.8% | 0hPa | 2.9V | 00:00:00 | 00:20:46 | 00:00:00 | |
| 9A1FER-3 | 2026-08-30 23:26:23 | 45.82056 | 16.03011 | 275° | 13km/h | 790m | 7.0m/s | 23.8°C | 46.8% | 0hPa | 2.9V | 00:00:00 | 00:20:40 | 00:00:00 | |
| 9A1FER-10 | 2026-08-30 23:26:14 | 45.82029 | 16.03043 | 70° | 9km/h | 745m | 5.4m/s | 24.0°C | 49.2% | 0hPa | 2.9V | 00:00:00 | 00:20:31 | 00:00:00 | |
| 9A1FER-3 | 2026-08-30 23:26:08 | 45.82023 | 16.03049 | 337° | 13km/h | 722m | 3.5m/s | 24.2°C | 48.8% | 0hPa | 2.9V | 00:00:00 | 00:20:25 | 00:00:00 | |
| 9A1FER-10 | 2026-08-30 23:25:59 | 45.82012 | 16.03072 | 327° | 16km/h | 682m | 5.6m/s | 0°C | 0% | 0hPa | 0V | 00:00:00 | 00:20:16 | 00:00:00 | |
| 9A1FER-3 | 2026-08-30 23:25:53 | 45.82010 | 16.03093 | 285° | 13km/h | 650m | 4.6m/s | 0°C | 0% | 0hPa | 0V | 00:00:00 | 00:20:10 | 00:00:00 | |
| 9A1FER-10 | 2026-08-30 23:25:44 | 45.82002 | 16.03122 | 271° | 11km/h | 604m | 5.0m/s | 0°C | 0% | 0hPa | 0V | 00:00:00 | 00:20:01 | 00:00:00 | |
| 9A1FER-3 | 2026-08-30 23:25:38 | 45.82003 | 16.03133 | 277° | 13km/h | 576m | 5.0m/s | 0°C | 0% | 0hPa | 0V | 00:00:00 | 00:19:55 | 00:00:00 | |
| 9A1FER-10 | 2026-08-30 23:25:29 | 45.81999 | 16.03150 | 3° | 16km/h | 540m | 4.7m/s | 0°C | 0% | 0hPa | 0V | 00:00:00 | 00:19:46 | 00:00:00 | |
| 9A1FER-3 | 2026-08-30 23:25:23 | 45.82002 | 16.03171 | 28° | 16km/h | 509m | 5.4m/s | 0°C | 0% | 0hPa | 0V | 00:00:00 | 00:19:40 | 00:00:00 | |
| 9A1FER-10 | 2026-08-30 23:25:14 | 45.81993 | 16.03208 | 10° | 15km/h | 469m | 1.9m/s | 0°C | 0% | 0hPa | 0V | 00:00:00 | 00:19:31 | 00:00:00 | |
| 9A1FER-3 | 2026-08-30 23:25:08 | 45.82004 | 16.03226 | 282° | 16km/h | 440m | 4.1m/s | 0°C | 0% | 0hPa | 0V | 00:00:00 | 00:19:25 | 00:00:00 | |
| 9A1FER-10 | 2026-08-30 23:24:59 | 45.82007 | 16.03264 | 291° | 18km/h | 397m | 4.6m/s | 0°C | 0% | 0hPa | 0V | 00:00:00 | 00:19:16 | 00:00:00 | |
| 9A1FER-3 | 2026-08-30 23:24:53 | 45.82002 | 16.03288 | 285° | 22km/h | 366m | 3.5m/s | 0°C | 0% | 0hPa | 0V | 00:00:00 | 00:19:10 | 00:00:00 | |
| 9A1FER-10 | 2026-08-30 23:24:44 | 45.82011 | 16.03338 | 192° | 18km/h | 315m | 6.0m/s | 0°C | 0% | 0hPa | 0V | 00:00:00 | 00:19:01 | 00:00:00 | |
| 9A1FER-3 | 2026-08-30 23:24:38 | 45.82020 | 16.03360 | 144° | 15km/h | 279m | 5.7m/s | 0°C | 0% | 0hPa | 0V | 00:00:00 | 00:18:55 | 00:00:00 | |
| 9A1FER-10 | 2026-08-30 23:24:29 | 45.82039 | 16.03376 | 235° | 22km/h | 231m | 6.0m/s | 0°C | 0% | 0hPa | 0V | 00:00:00 | 00:18:46 | 08:30:00 |